<?xml version="1.0" encoding="UTF-8" standalone="no" ?>
<gpx xmlns="http://www.topografix.com/GPX/1/1" xmlns:xsi="http://www.w3.org/2001/XMLSchema-instance" xsi:schemaLocation="http://www.topografix.com/GPX/1/1 http://www.topografix.com/GPX/1/1/gpx.xsd" version="1.1" creator="VisuGPX - https://www.visugpx.com">
  <metadata>
    <name>Retour sur une trace de 7 ans dans l'esterel.</name>
    <desc><![CDATA[Voilà des retours une trace que j'ais faite il y a 7 ans sur l'Esterel pour aller voit les lacs des nénuphars . Très belle randonnée sur la région au départ du camping de l'esterel
vidéo
.https://www.youtube.com/watch?v=0Dqv9a-Wqg4]]></desc>
  </metadata>
  <trk>
    <name><![CDATA[Saint-Raphaël Vélo électrique]]></name>
    <trkseg>
      <trkpt lat="43.4551" lon="6.83151">
        <ele>67.400001525879</ele>
        <time>2023-09-26T08:26:23.000Z</time>
      </trkpt>
      <trkpt lat="43.45514" lon="6.83122">
        <ele>62</ele>
        <time>2023-09-26T08:26:29.000Z</time>
      </trkpt>
      <trkpt lat="43.45516" lon="6.83113">
        <ele>61.799999237061</ele>
        <time>2023-09-26T08:26:31.000Z</time>
      </trkpt>
      <trkpt lat="43.45521" lon="6.8309">
        <ele>61.599998474121</ele>
        <time>2023-09-26T08:26:35.000Z</time>
      </trkpt>
      <trkpt lat="43.45526" lon="6.8306">
        <ele>61.200000762939</ele>
        <time>2023-09-26T08:26:40.000Z</time>
      </trkpt>
      <trkpt lat="43.45531" lon="6.83032">
        <ele>60.599998474121</ele>
        <time>2023-09-26T08:26:44.000Z</time>
      </trkpt>
      <trkpt lat="43.45532" lon="6.83016">
        <ele>60.200000762939</ele>
        <time>2023-09-26T08:26:46.000Z</time>
      </trkpt>
      <trkpt lat="43.45532" lon="6.82996">
        <ele>59.400001525879</ele>
        <time>2023-09-26T08:26:49.000Z</time>
      </trkpt>
      <trkpt lat="43.45533" lon="6.82974">
        <ele>58</ele>
        <time>2023-09-26T08:26:52.000Z</time>
      </trkpt>
      <trkpt lat="43.45534" lon="6.82967">
        <ele>57.799999237061</ele>
        <time>2023-09-26T08:26:53.000Z</time>
      </trkpt>
      <trkpt lat="43.45536" lon="6.82956">
        <ele>57.599998474121</ele>
        <time>2023-09-26T08:26:55.000Z</time>
      </trkpt>
      <trkpt lat="43.45541" lon="6.82947">
        <ele>57.400001525879</ele>
        <time>2023-09-26T08:26:57.000Z</time>
      </trkpt>
      <trkpt lat="43.45547" lon="6.82943">
        <ele>57.200000762939</ele>
        <time>2023-09-26T08:26:59.000Z</time>
      </trkpt>
      <trkpt lat="43.45551" lon="6.82944">
        <ele>57</ele>
        <time>2023-09-26T08:27:00.000Z</time>
      </trkpt>
      <trkpt lat="43.45555" lon="6.82947">
        <ele>56.799999237061</ele>
        <time>2023-09-26T08:27:01.000Z</time>
      </trkpt>
      <trkpt lat="43.4556" lon="6.82956">
        <ele>56.599998474121</ele>
        <time>2023-09-26T08:27:03.000Z</time>
      </trkpt>
      <trkpt lat="43.45566" lon="6.82971">
        <ele>55.799999237061</ele>
        <time>2023-09-26T08:27:06.000Z</time>
      </trkpt>
      <trkpt lat="43.45572" lon="6.82988">
        <ele>55</ele>
        <time>2023-09-26T08:27:10.000Z</time>
      </trkpt>
      <trkpt lat="43.45574" lon="6.82997">
        <ele>54.799999237061</ele>
        <time>2023-09-26T08:27:12.000Z</time>
      </trkpt>
      <trkpt lat="43.45581" lon="6.8302">
        <ele>53.799999237061</ele>
        <time>2023-09-26T08:27:17.000Z</time>
      </trkpt>
      <trkpt lat="43.45585" lon="6.83045">
        <ele>52.400001525879</ele>
        <time>2023-09-26T08:27:22.000Z</time>
      </trkpt>
      <trkpt lat="43.45587" lon="6.8306">
        <ele>51.400001525879</ele>
        <time>2023-09-26T08:27:25.000Z</time>
      </trkpt>
      <trkpt lat="43.45587" lon="6.83065">
        <ele>51</ele>
        <time>2023-09-26T08:27:26.000Z</time>
      </trkpt>
      <trkpt lat="43.45589" lon="6.83091">
        <ele>50.200000762939</ele>
        <time>2023-09-26T08:27:31.000Z</time>
      </trkpt>
      <trkpt lat="43.4559" lon="6.83096">
        <ele>49.400001525879</ele>
        <time>2023-09-26T08:27:32.000Z</time>
      </trkpt>
      <trkpt lat="43.45591" lon="6.83109">
        <ele>48.799999237061</ele>
        <time>2023-09-26T08:27:34.000Z</time>
      </trkpt>
      <trkpt lat="43.45596" lon="6.83129">
        <ele>47.200000762939</ele>
        <time>2023-09-26T08:27:38.000Z</time>
      </trkpt>
      <trkpt lat="43.45599" lon="6.83139">
        <ele>46.799999237061</ele>
        <time>2023-09-26T08:27:40.000Z</time>
      </trkpt>
      <trkpt lat="43.45605" lon="6.83155">
        <ele>46</ele>
        <time>2023-09-26T08:27:43.000Z</time>
      </trkpt>
      <trkpt lat="43.45607" lon="6.83161">
        <ele>45.799999237061</ele>
        <time>2023-09-26T08:27:44.000Z</time>
      </trkpt>
      <trkpt lat="43.45618" lon="6.83182">
        <ele>44.799999237061</ele>
        <time>2023-09-26T08:27:48.000Z</time>
      </trkpt>
      <trkpt lat="43.45629" lon="6.83204">
        <ele>44</ele>
        <time>2023-09-26T08:27:52.000Z</time>
      </trkpt>
      <trkpt lat="43.45634" lon="6.83217">
        <ele>43.400001525879</ele>
        <time>2023-09-26T08:27:54.000Z</time>
      </trkpt>
      <trkpt lat="43.45647" lon="6.83244">
        <ele>42.200000762939</ele>
        <time>2023-09-26T08:27:59.000Z</time>
      </trkpt>
      <trkpt lat="43.45648" lon="6.83249">
        <ele>42</ele>
        <time>2023-09-26T08:28:00.000Z</time>
      </trkpt>
      <trkpt lat="43.45657" lon="6.83274">
        <ele>41</ele>
        <time>2023-09-26T08:28:05.000Z</time>
      </trkpt>
      <trkpt lat="43.45663" lon="6.83297">
        <ele>40.400001525879</ele>
        <time>2023-09-26T08:28:09.000Z</time>
      </trkpt>
      <trkpt lat="43.45666" lon="6.8331">
        <ele>39.799999237061</ele>
        <time>2023-09-26T08:28:11.000Z</time>
      </trkpt>
      <trkpt lat="43.45674" lon="6.83349">
        <ele>38.599998474121</ele>
        <time>2023-09-26T08:28:17.000Z</time>
      </trkpt>
      <trkpt lat="43.45676" lon="6.83355">
        <ele>38.400001525879</ele>
        <time>2023-09-26T08:28:18.000Z</time>
      </trkpt>
      <trkpt lat="43.45682" lon="6.83389">
        <ele>37.400001525879</ele>
        <time>2023-09-26T08:28:23.000Z</time>
      </trkpt>
      <trkpt lat="43.45684" lon="6.83404">
        <ele>36.599998474121</ele>
        <time>2023-09-26T08:28:25.000Z</time>
      </trkpt>
      <trkpt lat="43.45686" lon="6.83418">
        <ele>36.200000762939</ele>
        <time>2023-09-26T08:28:27.000Z</time>
      </trkpt>
      <trkpt lat="43.45687" lon="6.83455">
        <ele>35.200000762939</ele>
        <time>2023-09-26T08:28:32.000Z</time>
      </trkpt>
      <trkpt lat="43.45686" lon="6.83462">
        <ele>35</ele>
        <time>2023-09-26T08:28:33.000Z</time>
      </trkpt>
      <trkpt lat="43.45682" lon="6.83497">
        <ele>33.799999237061</ele>
        <time>2023-09-26T08:28:38.000Z</time>
      </trkpt>
      <trkpt lat="43.45681" lon="6.83527">
        <ele>32.799999237061</ele>
        <time>2023-09-26T08:28:42.000Z</time>
      </trkpt>
      <trkpt lat="43.45681" lon="6.83541">
        <ele>32.400001525879</ele>
        <time>2023-09-26T08:28:44.000Z</time>
      </trkpt>
      <trkpt lat="43.45682" lon="6.83561">
        <ele>31.60000038147</ele>
        <time>2023-09-26T08:28:47.000Z</time>
      </trkpt>
      <trkpt lat="43.45685" lon="6.83586">
        <ele>30.799999237061</ele>
        <time>2023-09-26T08:28:51.000Z</time>
      </trkpt>
      <trkpt lat="43.45686" lon="6.83593">
        <ele>30.39999961853</ele>
        <time>2023-09-26T08:28:52.000Z</time>
      </trkpt>
      <trkpt lat="43.45693" lon="6.8362">
        <ele>29</ele>
        <time>2023-09-26T08:28:56.000Z</time>
      </trkpt>
      <trkpt lat="43.45697" lon="6.83631">
        <ele>28.60000038147</ele>
        <time>2023-09-26T08:28:58.000Z</time>
      </trkpt>
      <trkpt lat="43.45703" lon="6.83642">
        <ele>28</ele>
        <time>2023-09-26T08:29:00.000Z</time>
      </trkpt>
      <trkpt lat="43.45707" lon="6.83648">
        <ele>27.799999237061</ele>
        <time>2023-09-26T08:29:01.000Z</time>
      </trkpt>
      <trkpt lat="43.45715" lon="6.83665">
        <ele>27</ele>
        <time>2023-09-26T08:29:04.000Z</time>
      </trkpt>
      <trkpt lat="43.4572" lon="6.83676">
        <ele>26.60000038147</ele>
        <time>2023-09-26T08:29:06.000Z</time>
      </trkpt>
      <trkpt lat="43.4573" lon="6.83703">
        <ele>25.200000762939</ele>
        <time>2023-09-26T08:29:11.000Z</time>
      </trkpt>
      <trkpt lat="43.45731" lon="6.83708">
        <ele>25</ele>
        <time>2023-09-26T08:29:12.000Z</time>
      </trkpt>
      <trkpt lat="43.45732" lon="6.83714">
        <ele>24.799999237061</ele>
        <time>2023-09-26T08:29:13.000Z</time>
      </trkpt>
      <trkpt lat="43.45731" lon="6.8374">
        <ele>24</ele>
        <time>2023-09-26T08:29:17.000Z</time>
      </trkpt>
      <trkpt lat="43.45732" lon="6.83753">
        <ele>23.39999961853</ele>
        <time>2023-09-26T08:29:19.000Z</time>
      </trkpt>
      <trkpt lat="43.45731" lon="6.8376">
        <ele>23</ele>
        <time>2023-09-26T08:29:20.000Z</time>
      </trkpt>
      <trkpt lat="43.4573" lon="6.83773">
        <ele>22.39999961853</ele>
        <time>2023-09-26T08:29:22.000Z</time>
      </trkpt>
      <trkpt lat="43.45729" lon="6.83779">
        <ele>22.200000762939</ele>
        <time>2023-09-26T08:29:23.000Z</time>
      </trkpt>
      <trkpt lat="43.45728" lon="6.83786">
        <ele>21.60000038147</ele>
        <time>2023-09-26T08:29:24.000Z</time>
      </trkpt>
      <trkpt lat="43.45726" lon="6.83793">
        <ele>21.39999961853</ele>
        <time>2023-09-26T08:29:25.000Z</time>
      </trkpt>
      <trkpt lat="43.45723" lon="6.83807">
        <ele>20.60000038147</ele>
        <time>2023-09-26T08:29:27.000Z</time>
      </trkpt>
      <trkpt lat="43.45722" lon="6.83821">
        <ele>19.799999237061</ele>
        <time>2023-09-26T08:29:29.000Z</time>
      </trkpt>
      <trkpt lat="43.45723" lon="6.83836">
        <ele>19</ele>
        <time>2023-09-26T08:29:31.000Z</time>
      </trkpt>
      <trkpt lat="43.45723" lon="6.83843">
        <ele>18.799999237061</ele>
        <time>2023-09-26T08:29:32.000Z</time>
      </trkpt>
      <trkpt lat="43.45724" lon="6.83848">
        <ele>18.39999961853</ele>
        <time>2023-09-26T08:29:33.000Z</time>
      </trkpt>
      <trkpt lat="43.45724" lon="6.83854">
        <ele>18</ele>
        <time>2023-09-26T08:29:34.000Z</time>
      </trkpt>
      <trkpt lat="43.45725" lon="6.8386">
        <ele>17.799999237061</ele>
        <time>2023-09-26T08:29:35.000Z</time>
      </trkpt>
      <trkpt lat="43.4573" lon="6.83878">
        <ele>17</ele>
        <time>2023-09-26T08:29:38.000Z</time>
      </trkpt>
      <trkpt lat="43.45734" lon="6.83891">
        <ele>16.799999237061</ele>
        <time>2023-09-26T08:29:40.000Z</time>
      </trkpt>
      <trkpt lat="43.45741" lon="6.83921">
        <ele>16.39999961853</ele>
        <time>2023-09-26T08:29:44.000Z</time>
      </trkpt>
      <trkpt lat="43.45749" lon="6.83945">
        <ele>15.800000190735</ele>
        <time>2023-09-26T08:29:47.000Z</time>
      </trkpt>
      <trkpt lat="43.45758" lon="6.83964">
        <ele>14.800000190735</ele>
        <time>2023-09-26T08:29:49.000Z</time>
      </trkpt>
      <trkpt lat="43.45761" lon="6.83972">
        <ele>14.199999809265</ele>
        <time>2023-09-26T08:29:50.000Z</time>
      </trkpt>
      <trkpt lat="43.45765" lon="6.83979">
        <ele>14</ele>
        <time>2023-09-26T08:29:51.000Z</time>
      </trkpt>
      <trkpt lat="43.45773" lon="6.8399">
        <ele>13.800000190735</ele>
        <time>2023-09-26T08:29:53.000Z</time>
      </trkpt>
      <trkpt lat="43.45777" lon="6.83994">
        <ele>13.800000190735</ele>
        <time>2023-09-26T08:29:54.000Z</time>
      </trkpt>
      <trkpt lat="43.45785" lon="6.84">
        <ele>13.60000038147</ele>
        <time>2023-09-26T08:29:56.000Z</time>
      </trkpt>
      <trkpt lat="43.45794" lon="6.84006">
        <ele>14.199999809265</ele>
        <time>2023-09-26T08:29:59.000Z</time>
      </trkpt>
      <trkpt lat="43.45798" lon="6.84008">
        <ele>14.39999961853</ele>
        <time>2023-09-26T08:30:00.000Z</time>
      </trkpt>
      <trkpt lat="43.45801" lon="6.84011">
        <ele>14.800000190735</ele>
        <time>2023-09-26T08:30:01.000Z</time>
      </trkpt>
      <trkpt lat="43.45805" lon="6.84014">
        <ele>15</ele>
        <time>2023-09-26T08:30:02.000Z</time>
      </trkpt>
      <trkpt lat="43.4581" lon="6.84021">
        <ele>16</ele>
        <time>2023-09-26T08:30:04.000Z</time>
      </trkpt>
      <trkpt lat="43.45813" lon="6.84025">
        <ele>16</ele>
        <time>2023-09-26T08:30:05.000Z</time>
      </trkpt>
      <trkpt lat="43.4582" lon="6.84035">
        <ele>17.39999961853</ele>
        <time>2023-09-26T08:30:08.000Z</time>
      </trkpt>
      <trkpt lat="43.4583" lon="6.84051">
        <ele>18.60000038147</ele>
        <time>2023-09-26T08:30:12.000Z</time>
      </trkpt>
      <trkpt lat="43.45834" lon="6.84057">
        <ele>19.60000038147</ele>
        <time>2023-09-26T08:30:14.000Z</time>
      </trkpt>
      <trkpt lat="43.45837" lon="6.84061">
        <ele>19.799999237061</ele>
        <time>2023-09-26T08:30:15.000Z</time>
      </trkpt>
      <trkpt lat="43.45848" lon="6.84073">
        <ele>20.799999237061</ele>
        <time>2023-09-26T08:30:19.000Z</time>
      </trkpt>
      <trkpt lat="43.45859" lon="6.84084">
        <ele>22</ele>
        <time>2023-09-26T08:30:23.000Z</time>
      </trkpt>
      <trkpt lat="43.45861" lon="6.84087">
        <ele>22.200000762939</ele>
        <time>2023-09-26T08:30:24.000Z</time>
      </trkpt>
      <trkpt lat="43.45873" lon="6.84097">
        <ele>23</ele>
        <time>2023-09-26T08:30:27.000Z</time>
      </trkpt>
      <trkpt lat="43.45885" lon="6.841">
        <ele>24.200000762939</ele>
        <time>2023-09-26T08:30:31.000Z</time>
      </trkpt>
      <trkpt lat="43.45901" lon="6.84098">
        <ele>25.39999961853</ele>
        <time>2023-09-26T08:30:36.000Z</time>
      </trkpt>
      <trkpt lat="43.45909" lon="6.84097">
        <ele>25.60000038147</ele>
        <time>2023-09-26T08:30:38.000Z</time>
      </trkpt>
      <trkpt lat="43.45926" lon="6.84095">
        <ele>26.60000038147</ele>
        <time>2023-09-26T08:30:43.000Z</time>
      </trkpt>
      <trkpt lat="43.45939" lon="6.84095">
        <ele>27.200000762939</ele>
        <time>2023-09-26T08:30:47.000Z</time>
      </trkpt>
      <trkpt lat="43.45948" lon="6.84099">
        <ele>27.799999237061</ele>
        <time>2023-09-26T08:30:50.000Z</time>
      </trkpt>
      <trkpt lat="43.45959" lon="6.84106">
        <ele>28.39999961853</ele>
        <time>2023-09-26T08:30:54.000Z</time>
      </trkpt>
      <trkpt lat="43.4597" lon="6.84118">
        <ele>28.799999237061</ele>
        <time>2023-09-26T08:30:58.000Z</time>
      </trkpt>
      <trkpt lat="43.45984" lon="6.84133">
        <ele>29.799999237061</ele>
        <time>2023-09-26T08:31:03.000Z</time>
      </trkpt>
      <trkpt lat="43.46002" lon="6.84154">
        <ele>31</ele>
        <time>2023-09-26T08:31:10.000Z</time>
      </trkpt>
      <trkpt lat="43.46025" lon="6.84177">
        <ele>31.60000038147</ele>
        <time>2023-09-26T08:31:18.000Z</time>
      </trkpt>
      <trkpt lat="43.46031" lon="6.8418">
        <ele>32</ele>
        <time>2023-09-26T08:31:20.000Z</time>
      </trkpt>
      <trkpt lat="43.46044" lon="6.84182">
        <ele>33</ele>
        <time>2023-09-26T08:31:25.000Z</time>
      </trkpt>
      <trkpt lat="43.46047" lon="6.84182">
        <ele>33.400001525879</ele>
        <time>2023-09-26T08:31:26.000Z</time>
      </trkpt>
      <trkpt lat="43.46076" lon="6.84187">
        <ele>34.200000762939</ele>
        <time>2023-09-26T08:31:35.000Z</time>
      </trkpt>
      <trkpt lat="43.46081" lon="6.84191">
        <ele>34.400001525879</ele>
        <time>2023-09-26T08:31:37.000Z</time>
      </trkpt>
      <trkpt lat="43.4609" lon="6.84197">
        <ele>34.799999237061</ele>
        <time>2023-09-26T08:31:40.000Z</time>
      </trkpt>
      <trkpt lat="43.46094" lon="6.84202">
        <ele>35</ele>
        <time>2023-09-26T08:31:42.000Z</time>
      </trkpt>
      <trkpt lat="43.46105" lon="6.84212">
        <ele>35.400001525879</ele>
        <time>2023-09-26T08:31:47.000Z</time>
      </trkpt>
      <trkpt lat="43.46109" lon="6.84217">
        <ele>35.799999237061</ele>
        <time>2023-09-26T08:31:49.000Z</time>
      </trkpt>
      <trkpt lat="43.46124" lon="6.84232">
        <ele>36.599998474121</ele>
        <time>2023-09-26T08:31:55.000Z</time>
      </trkpt>
      <trkpt lat="43.46129" lon="6.84237">
        <ele>37.200000762939</ele>
        <time>2023-09-26T08:31:57.000Z</time>
      </trkpt>
      <trkpt lat="43.46138" lon="6.84245">
        <ele>37.599998474121</ele>
        <time>2023-09-26T08:32:00.000Z</time>
      </trkpt>
      <trkpt lat="43.46153" lon="6.84257">
        <ele>38.599998474121</ele>
        <time>2023-09-26T08:32:06.000Z</time>
      </trkpt>
      <trkpt lat="43.46169" lon="6.84272">
        <ele>39.799999237061</ele>
        <time>2023-09-26T08:32:12.000Z</time>
      </trkpt>
      <trkpt lat="43.46171" lon="6.84274">
        <ele>39.799999237061</ele>
        <time>2023-09-26T08:32:13.000Z</time>
      </trkpt>
      <trkpt lat="43.46178" lon="6.84288">
        <ele>40.799999237061</ele>
        <time>2023-09-26T08:32:17.000Z</time>
      </trkpt>
      <trkpt lat="43.46186" lon="6.84303">
        <ele>41.400001525879</ele>
        <time>2023-09-26T08:32:21.000Z</time>
      </trkpt>
      <trkpt lat="43.46188" lon="6.84306">
        <ele>41.799999237061</ele>
        <time>2023-09-26T08:32:22.000Z</time>
      </trkpt>
      <trkpt lat="43.46192" lon="6.84312">
        <ele>42.400001525879</ele>
        <time>2023-09-26T08:32:24.000Z</time>
      </trkpt>
      <trkpt lat="43.46199" lon="6.8432">
        <ele>43</ele>
        <time>2023-09-26T08:32:27.000Z</time>
      </trkpt>
      <trkpt lat="43.46208" lon="6.84328">
        <ele>43.400001525879</ele>
        <time>2023-09-26T08:32:30.000Z</time>
      </trkpt>
      <trkpt lat="43.46214" lon="6.84334">
        <ele>44</ele>
        <time>2023-09-26T08:32:32.000Z</time>
      </trkpt>
      <trkpt lat="43.46236" lon="6.84349">
        <ele>45</ele>
        <time>2023-09-26T08:32:40.000Z</time>
      </trkpt>
      <trkpt lat="43.46261" lon="6.84367">
        <ele>46</ele>
        <time>2023-09-26T08:32:49.000Z</time>
      </trkpt>
      <trkpt lat="43.46264" lon="6.84368">
        <ele>46</ele>
        <time>2023-09-26T08:32:50.000Z</time>
      </trkpt>
      <trkpt lat="43.46282" lon="6.8438">
        <ele>47</ele>
        <time>2023-09-26T08:32:57.000Z</time>
      </trkpt>
      <trkpt lat="43.46285" lon="6.84381">
        <ele>47</ele>
        <time>2023-09-26T08:32:58.000Z</time>
      </trkpt>
      <trkpt lat="43.46297" lon="6.84384">
        <ele>48</ele>
        <time>2023-09-26T08:33:04.000Z</time>
      </trkpt>
      <trkpt lat="43.46298" lon="6.84384">
        <ele>48</ele>
        <time>2023-09-26T08:33:05.000Z</time>
      </trkpt>
      <trkpt lat="43.46298" lon="6.84384">
        <ele>48.400001525879</ele>
        <time>2023-09-26T08:33:08.000Z</time>
      </trkpt>
      <trkpt lat="43.46298" lon="6.84384">
        <ele>48.599998474121</ele>
        <time>2023-09-26T08:33:10.000Z</time>
      </trkpt>
      <trkpt lat="43.463" lon="6.84384">
        <ele>48.599998474121</ele>
        <time>2023-09-26T08:33:39.000Z</time>
      </trkpt>
      <trkpt lat="43.46315" lon="6.84385">
        <ele>48.799999237061</ele>
        <time>2023-09-26T08:33:45.000Z</time>
      </trkpt>
      <trkpt lat="43.46323" lon="6.84385">
        <ele>49.200000762939</ele>
        <time>2023-09-26T08:33:48.000Z</time>
      </trkpt>
      <trkpt lat="43.4634" lon="6.84384">
        <ele>49.799999237061</ele>
        <time>2023-09-26T08:33:54.000Z</time>
      </trkpt>
      <trkpt lat="43.46352" lon="6.84382">
        <ele>50.200000762939</ele>
        <time>2023-09-26T08:33:58.000Z</time>
      </trkpt>
      <trkpt lat="43.4637" lon="6.84375">
        <ele>51.200000762939</ele>
        <time>2023-09-26T08:34:04.000Z</time>
      </trkpt>
      <trkpt lat="43.46375" lon="6.84371">
        <ele>51.400001525879</ele>
        <time>2023-09-26T08:34:06.000Z</time>
      </trkpt>
      <trkpt lat="43.46393" lon="6.8436">
        <ele>52.200000762939</ele>
        <time>2023-09-26T08:34:12.000Z</time>
      </trkpt>
      <trkpt lat="43.46396" lon="6.84358">
        <ele>52.400001525879</ele>
        <time>2023-09-26T08:34:13.000Z</time>
      </trkpt>
      <trkpt lat="43.46417" lon="6.84347">
        <ele>53.400001525879</ele>
        <time>2023-09-26T08:34:20.000Z</time>
      </trkpt>
      <trkpt lat="43.46438" lon="6.84336">
        <ele>54.599998474121</ele>
        <time>2023-09-26T08:34:27.000Z</time>
      </trkpt>
      <trkpt lat="43.46441" lon="6.84334">
        <ele>54.599998474121</ele>
        <time>2023-09-26T08:34:28.000Z</time>
      </trkpt>
      <trkpt lat="43.46458" lon="6.8433">
        <ele>55.599998474121</ele>
        <time>2023-09-26T08:34:33.000Z</time>
      </trkpt>
      <trkpt lat="43.46465" lon="6.84329">
        <ele>56</ele>
        <time>2023-09-26T08:34:35.000Z</time>
      </trkpt>
      <trkpt lat="43.46484" lon="6.84325">
        <ele>56.799999237061</ele>
        <time>2023-09-26T08:34:41.000Z</time>
      </trkpt>
      <trkpt lat="43.46489" lon="6.84322">
        <ele>57</ele>
        <time>2023-09-26T08:34:43.000Z</time>
      </trkpt>
      <trkpt lat="43.46497" lon="6.84316">
        <ele>57.599998474121</ele>
        <time>2023-09-26T08:34:46.000Z</time>
      </trkpt>
      <trkpt lat="43.46506" lon="6.84309">
        <ele>58</ele>
        <time>2023-09-26T08:34:49.000Z</time>
      </trkpt>
      <trkpt lat="43.46509" lon="6.84306">
        <ele>58</ele>
        <time>2023-09-26T08:34:50.000Z</time>
      </trkpt>
      <trkpt lat="43.4652" lon="6.84287">
        <ele>59</ele>
        <time>2023-09-26T08:34:55.000Z</time>
      </trkpt>
      <trkpt lat="43.46522" lon="6.84283">
        <ele>59</ele>
        <time>2023-09-26T08:34:56.000Z</time>
      </trkpt>
      <trkpt lat="43.46529" lon="6.84267">
        <ele>59.799999237061</ele>
        <time>2023-09-26T08:35:00.000Z</time>
      </trkpt>
      <trkpt lat="43.46535" lon="6.84251">
        <ele>60.200000762939</ele>
        <time>2023-09-26T08:35:04.000Z</time>
      </trkpt>
      <trkpt lat="43.46545" lon="6.84233">
        <ele>60.799999237061</ele>
        <time>2023-09-26T08:35:09.000Z</time>
      </trkpt>
      <trkpt lat="43.46549" lon="6.84225">
        <ele>61.200000762939</ele>
        <time>2023-09-26T08:35:11.000Z</time>
      </trkpt>
      <trkpt lat="43.46554" lon="6.84215">
        <ele>62</ele>
        <time>2023-09-26T08:35:14.000Z</time>
      </trkpt>
      <trkpt lat="43.46564" lon="6.84191">
        <ele>62.799999237061</ele>
        <time>2023-09-26T08:35:20.000Z</time>
      </trkpt>
      <trkpt lat="43.46565" lon="6.84187">
        <ele>63.200000762939</ele>
        <time>2023-09-26T08:35:21.000Z</time>
      </trkpt>
      <trkpt lat="43.46573" lon="6.84158">
        <ele>64.199996948242</ele>
        <time>2023-09-26T08:35:28.000Z</time>
      </trkpt>
      <trkpt lat="43.46574" lon="6.84151">
        <ele>64.400001525879</ele>
        <time>2023-09-26T08:35:30.000Z</time>
      </trkpt>
      <trkpt lat="43.46573" lon="6.84134">
        <ele>65.400001525879</ele>
        <time>2023-09-26T08:35:34.000Z</time>
      </trkpt>
      <trkpt lat="43.46572" lon="6.8413">
        <ele>65.400001525879</ele>
        <time>2023-09-26T08:35:35.000Z</time>
      </trkpt>
      <trkpt lat="43.46562" lon="6.84098">
        <ele>66.199996948242</ele>
        <time>2023-09-26T08:35:43.000Z</time>
      </trkpt>
      <trkpt lat="43.46562" lon="6.84094">
        <ele>66.599998474121</ele>
        <time>2023-09-26T08:35:44.000Z</time>
      </trkpt>
      <trkpt lat="43.46565" lon="6.84087">
        <ele>67</ele>
        <time>2023-09-26T08:35:46.000Z</time>
      </trkpt>
      <trkpt lat="43.46567" lon="6.84085">
        <ele>67</ele>
        <time>2023-09-26T08:35:47.000Z</time>
      </trkpt>
      <trkpt lat="43.46579" lon="6.84089">
        <ele>67.599998474121</ele>
        <time>2023-09-26T08:35:51.000Z</time>
      </trkpt>
      <trkpt lat="43.46593" lon="6.8409">
        <ele>68.800003051758</ele>
        <time>2023-09-26T08:35:55.000Z</time>
      </trkpt>
      <trkpt lat="43.46596" lon="6.8409">
        <ele>69.199996948242</ele>
        <time>2023-09-26T08:35:56.000Z</time>
      </trkpt>
      <trkpt lat="43.46609" lon="6.84084">
        <ele>69.800003051758</ele>
        <time>2023-09-26T08:36:00.000Z</time>
      </trkpt>
      <trkpt lat="43.46618" lon="6.84078">
        <ele>70</ele>
        <time>2023-09-26T08:36:03.000Z</time>
      </trkpt>
      <trkpt lat="43.4663" lon="6.84069">
        <ele>70.800003051758</ele>
        <time>2023-09-26T08:36:07.000Z</time>
      </trkpt>
      <trkpt lat="43.46642" lon="6.84059">
        <ele>71.400001525879</ele>
        <time>2023-09-26T08:36:11.000Z</time>
      </trkpt>
      <trkpt lat="43.46655" lon="6.84053">
        <ele>71.800003051758</ele>
        <time>2023-09-26T08:36:15.000Z</time>
      </trkpt>
      <trkpt lat="43.46665" lon="6.84052">
        <ele>72.199996948242</ele>
        <time>2023-09-26T08:36:18.000Z</time>
      </trkpt>
      <trkpt lat="43.46685" lon="6.84053">
        <ele>73</ele>
        <time>2023-09-26T08:36:24.000Z</time>
      </trkpt>
      <trkpt lat="43.46703" lon="6.84055">
        <ele>73.599998474121</ele>
        <time>2023-09-26T08:36:29.000Z</time>
      </trkpt>
      <trkpt lat="43.46713" lon="6.84058">
        <ele>74</ele>
        <time>2023-09-26T08:36:32.000Z</time>
      </trkpt>
      <trkpt lat="43.46725" lon="6.84067">
        <ele>74.199996948242</ele>
        <time>2023-09-26T08:36:36.000Z</time>
      </trkpt>
      <trkpt lat="43.46747" lon="6.84083">
        <ele>75</ele>
        <time>2023-09-26T08:36:43.000Z</time>
      </trkpt>
      <trkpt lat="43.4675" lon="6.84084">
        <ele>75</ele>
        <time>2023-09-26T08:36:44.000Z</time>
      </trkpt>
      <trkpt lat="43.46767" lon="6.84081">
        <ele>75.599998474121</ele>
        <time>2023-09-26T08:36:49.000Z</time>
      </trkpt>
      <trkpt lat="43.46777" lon="6.84079">
        <ele>76</ele>
        <time>2023-09-26T08:36:52.000Z</time>
      </trkpt>
      <trkpt lat="43.46793" lon="6.8408">
        <ele>77</ele>
        <time>2023-09-26T08:36:57.000Z</time>
      </trkpt>
      <trkpt lat="43.46796" lon="6.8408">
        <ele>77.599998474121</ele>
        <time>2023-09-26T08:36:58.000Z</time>
      </trkpt>
      <trkpt lat="43.46812" lon="6.84083">
        <ele>78.599998474121</ele>
        <time>2023-09-26T08:37:03.000Z</time>
      </trkpt>
      <trkpt lat="43.46818" lon="6.84085">
        <ele>78.800003051758</ele>
        <time>2023-09-26T08:37:05.000Z</time>
      </trkpt>
      <trkpt lat="43.46832" lon="6.84087">
        <ele>79.599998474121</ele>
        <time>2023-09-26T08:37:09.000Z</time>
      </trkpt>
      <trkpt lat="43.46841" lon="6.84088">
        <ele>80.800003051758</ele>
        <time>2023-09-26T08:37:12.000Z</time>
      </trkpt>
      <trkpt lat="43.46847" lon="6.84089">
        <ele>81</ele>
        <time>2023-09-26T08:37:14.000Z</time>
      </trkpt>
      <trkpt lat="43.46864" lon="6.8409">
        <ele>82</ele>
        <time>2023-09-26T08:37:19.000Z</time>
      </trkpt>
      <trkpt lat="43.46871" lon="6.8409">
        <ele>82.199996948242</ele>
        <time>2023-09-26T08:37:21.000Z</time>
      </trkpt>
      <trkpt lat="43.46891" lon="6.84086">
        <ele>83.199996948242</ele>
        <time>2023-09-26T08:37:27.000Z</time>
      </trkpt>
      <trkpt lat="43.46904" lon="6.84084">
        <ele>84.199996948242</ele>
        <time>2023-09-26T08:37:31.000Z</time>
      </trkpt>
      <trkpt lat="43.46907" lon="6.84083">
        <ele>84.199996948242</ele>
        <time>2023-09-26T08:37:32.000Z</time>
      </trkpt>
      <trkpt lat="43.46916" lon="6.84081">
        <ele>85.199996948242</ele>
        <time>2023-09-26T08:37:35.000Z</time>
      </trkpt>
      <trkpt lat="43.46925" lon="6.84079">
        <ele>85.800003051758</ele>
        <time>2023-09-26T08:37:38.000Z</time>
      </trkpt>
      <trkpt lat="43.46931" lon="6.84078">
        <ele>86.400001525879</ele>
        <time>2023-09-26T08:37:40.000Z</time>
      </trkpt>
      <trkpt lat="43.46938" lon="6.84082">
        <ele>87.400001525879</ele>
        <time>2023-09-26T08:37:43.000Z</time>
      </trkpt>
      <trkpt lat="43.46939" lon="6.84085">
        <ele>87.599998474121</ele>
        <time>2023-09-26T08:37:44.000Z</time>
      </trkpt>
      <trkpt lat="43.46944" lon="6.84095">
        <ele>88.400001525879</ele>
        <time>2023-09-26T08:37:47.000Z</time>
      </trkpt>
      <trkpt lat="43.46946" lon="6.84099">
        <ele>88.599998474121</ele>
        <time>2023-09-26T08:37:48.000Z</time>
      </trkpt>
      <trkpt lat="43.46952" lon="6.84114">
        <ele>89.599998474121</ele>
        <time>2023-09-26T08:37:52.000Z</time>
      </trkpt>
      <trkpt lat="43.46956" lon="6.84123">
        <ele>90</ele>
        <time>2023-09-26T08:37:54.000Z</time>
      </trkpt>
      <trkpt lat="43.46966" lon="6.84139">
        <ele>90.599998474121</ele>
        <time>2023-09-26T08:37:59.000Z</time>
      </trkpt>
      <trkpt lat="43.46972" lon="6.84153">
        <ele>91</ele>
        <time>2023-09-26T08:38:03.000Z</time>
      </trkpt>
      <trkpt lat="43.46979" lon="6.84182">
        <ele>91.599998474121</ele>
        <time>2023-09-26T08:38:10.000Z</time>
      </trkpt>
      <trkpt lat="43.46982" lon="6.84189">
        <ele>92</ele>
        <time>2023-09-26T08:38:12.000Z</time>
      </trkpt>
      <trkpt lat="43.4699" lon="6.84224">
        <ele>92.800003051758</ele>
        <time>2023-09-26T08:38:20.000Z</time>
      </trkpt>
      <trkpt lat="43.46986" lon="6.84251">
        <ele>93.599998474121</ele>
        <time>2023-09-26T08:38:26.000Z</time>
      </trkpt>
      <trkpt lat="43.46985" lon="6.84256">
        <ele>93.800003051758</ele>
        <time>2023-09-26T08:38:27.000Z</time>
      </trkpt>
      <trkpt lat="43.46979" lon="6.84287">
        <ele>94.800003051758</ele>
        <time>2023-09-26T08:38:34.000Z</time>
      </trkpt>
      <trkpt lat="43.46978" lon="6.84292">
        <ele>94.800003051758</ele>
        <time>2023-09-26T08:38:35.000Z</time>
      </trkpt>
      <trkpt lat="43.46972" lon="6.84307">
        <ele>95.199996948242</ele>
        <time>2023-09-26T08:38:39.000Z</time>
      </trkpt>
      <trkpt lat="43.46954" lon="6.84326">
        <ele>96.199996948242</ele>
        <time>2023-09-26T08:38:45.000Z</time>
      </trkpt>
      <trkpt lat="43.46948" lon="6.84334">
        <ele>96.599998474121</ele>
        <time>2023-09-26T08:38:47.000Z</time>
      </trkpt>
      <trkpt lat="43.46939" lon="6.84343">
        <ele>97.199996948242</ele>
        <time>2023-09-26T08:38:50.000Z</time>
      </trkpt>
      <trkpt lat="43.46933" lon="6.8436">
        <ele>97.599998474121</ele>
        <time>2023-09-26T08:38:54.000Z</time>
      </trkpt>
      <trkpt lat="43.46938" lon="6.84378">
        <ele>98</ele>
        <time>2023-09-26T08:38:58.000Z</time>
      </trkpt>
      <trkpt lat="43.46948" lon="6.84389">
        <ele>98.199996948242</ele>
        <time>2023-09-26T08:39:02.000Z</time>
      </trkpt>
      <trkpt lat="43.46951" lon="6.8439">
        <ele>98.199996948242</ele>
        <time>2023-09-26T08:39:03.000Z</time>
      </trkpt>
      <trkpt lat="43.46973" lon="6.84393">
        <ele>98</ele>
        <time>2023-09-26T08:39:09.000Z</time>
      </trkpt>
      <trkpt lat="43.46977" lon="6.84393">
        <ele>98</ele>
        <time>2023-09-26T08:39:10.000Z</time>
      </trkpt>
      <trkpt lat="43.46985" lon="6.84399">
        <ele>98</ele>
        <time>2023-09-26T08:39:12.000Z</time>
      </trkpt>
      <trkpt lat="43.46987" lon="6.84404">
        <ele>97.800003051758</ele>
        <time>2023-09-26T08:39:13.000Z</time>
      </trkpt>
      <trkpt lat="43.46989" lon="6.8441">
        <ele>97.599998474121</ele>
        <time>2023-09-26T08:39:14.000Z</time>
      </trkpt>
      <trkpt lat="43.46992" lon="6.84421">
        <ele>97.400001525879</ele>
        <time>2023-09-26T08:39:16.000Z</time>
      </trkpt>
      <trkpt lat="43.46998" lon="6.84437">
        <ele>97.199996948242</ele>
        <time>2023-09-26T08:39:19.000Z</time>
      </trkpt>
      <trkpt lat="43.47003" lon="6.84449">
        <ele>97</ele>
        <time>2023-09-26T08:39:21.000Z</time>
      </trkpt>
      <trkpt lat="43.47017" lon="6.84476">
        <ele>96.400001525879</ele>
        <time>2023-09-26T08:39:26.000Z</time>
      </trkpt>
      <trkpt lat="43.47029" lon="6.84497">
        <ele>95.800003051758</ele>
        <time>2023-09-26T08:39:30.000Z</time>
      </trkpt>
      <trkpt lat="43.47038" lon="6.84511">
        <ele>95.800003051758</ele>
        <time>2023-09-26T08:39:33.000Z</time>
      </trkpt>
      <trkpt lat="43.47046" lon="6.84522">
        <ele>95.599998474121</ele>
        <time>2023-09-26T08:39:35.000Z</time>
      </trkpt>
      <trkpt lat="43.47057" lon="6.84546">
        <ele>95</ele>
        <time>2023-09-26T08:39:39.000Z</time>
      </trkpt>
      <trkpt lat="43.47061" lon="6.84557">
        <ele>94.800003051758</ele>
        <time>2023-09-26T08:39:41.000Z</time>
      </trkpt>
      <trkpt lat="43.47072" lon="6.84591">
        <ele>94.599998474121</ele>
        <time>2023-09-26T08:39:46.000Z</time>
      </trkpt>
      <trkpt lat="43.47075" lon="6.84606">
        <ele>94.400001525879</ele>
        <time>2023-09-26T08:39:48.000Z</time>
      </trkpt>
      <trkpt lat="43.47074" lon="6.8462">
        <ele>94.199996948242</ele>
        <time>2023-09-26T08:39:50.000Z</time>
      </trkpt>
      <trkpt lat="43.47068" lon="6.84631">
        <ele>94</ele>
        <time>2023-09-26T08:39:52.000Z</time>
      </trkpt>
      <trkpt lat="43.47062" lon="6.84633">
        <ele>93.800003051758</ele>
        <time>2023-09-26T08:39:53.000Z</time>
      </trkpt>
      <trkpt lat="43.47056" lon="6.84633">
        <ele>93.800003051758</ele>
        <time>2023-09-26T08:39:54.000Z</time>
      </trkpt>
      <trkpt lat="43.47041" lon="6.84631">
        <ele>93.199996948242</ele>
        <time>2023-09-26T08:39:57.000Z</time>
      </trkpt>
      <trkpt lat="43.47027" lon="6.84633">
        <ele>93</ele>
        <time>2023-09-26T08:40:00.000Z</time>
      </trkpt>
      <trkpt lat="43.47017" lon="6.84638">
        <ele>92.800003051758</ele>
        <time>2023-09-26T08:40:02.000Z</time>
      </trkpt>
      <trkpt lat="43.47002" lon="6.84647">
        <ele>92.599998474121</ele>
        <time>2023-09-26T08:40:05.000Z</time>
      </trkpt>
      <trkpt lat="43.46973" lon="6.84667">
        <ele>91.800003051758</ele>
        <time>2023-09-26T08:40:11.000Z</time>
      </trkpt>
      <trkpt lat="43.46962" lon="6.84676">
        <ele>91.400001525879</ele>
        <time>2023-09-26T08:40:13.000Z</time>
      </trkpt>
      <trkpt lat="43.46949" lon="6.84691">
        <ele>90.800003051758</ele>
        <time>2023-09-26T08:40:16.000Z</time>
      </trkpt>
      <trkpt lat="43.46918" lon="6.84737">
        <ele>90.400001525879</ele>
        <time>2023-09-26T08:40:24.000Z</time>
      </trkpt>
      <trkpt lat="43.46902" lon="6.8476">
        <ele>89.400001525879</ele>
        <time>2023-09-26T08:40:28.000Z</time>
      </trkpt>
      <trkpt lat="43.46897" lon="6.84764">
        <ele>89.400001525879</ele>
        <time>2023-09-26T08:40:29.000Z</time>
      </trkpt>
      <trkpt lat="43.46893" lon="6.84768">
        <ele>89</ele>
        <time>2023-09-26T08:40:30.000Z</time>
      </trkpt>
      <trkpt lat="43.46879" lon="6.84781">
        <ele>88.800003051758</ele>
        <time>2023-09-26T08:40:33.000Z</time>
      </trkpt>
      <trkpt lat="43.4687" lon="6.84787">
        <ele>88.599998474121</ele>
        <time>2023-09-26T08:40:35.000Z</time>
      </trkpt>
      <trkpt lat="43.46864" lon="6.84788">
        <ele>88.599998474121</ele>
        <time>2023-09-26T08:40:36.000Z</time>
      </trkpt>
      <trkpt lat="43.46859" lon="6.84787">
        <ele>88.400001525879</ele>
        <time>2023-09-26T08:40:37.000Z</time>
      </trkpt>
      <trkpt lat="43.46854" lon="6.84786">
        <ele>88</ele>
        <time>2023-09-26T08:40:38.000Z</time>
      </trkpt>
      <trkpt lat="43.46838" lon="6.84781">
        <ele>87.599998474121</ele>
        <time>2023-09-26T08:40:41.000Z</time>
      </trkpt>
      <trkpt lat="43.46801" lon="6.84775">
        <ele>87.199996948242</ele>
        <time>2023-09-26T08:40:48.000Z</time>
      </trkpt>
      <trkpt lat="43.46791" lon="6.84773">
        <ele>87</ele>
        <time>2023-09-26T08:40:50.000Z</time>
      </trkpt>
      <trkpt lat="43.46781" lon="6.84772">
        <ele>87</ele>
        <time>2023-09-26T08:40:52.000Z</time>
      </trkpt>
      <trkpt lat="43.46765" lon="6.84772">
        <ele>86.599998474121</ele>
        <time>2023-09-26T08:40:55.000Z</time>
      </trkpt>
      <trkpt lat="43.46746" lon="6.8477">
        <ele>86.199996948242</ele>
        <time>2023-09-26T08:40:59.000Z</time>
      </trkpt>
      <trkpt lat="43.46734" lon="6.84764">
        <ele>86</ele>
        <time>2023-09-26T08:41:02.000Z</time>
      </trkpt>
      <trkpt lat="43.46729" lon="6.84762">
        <ele>86</ele>
        <time>2023-09-26T08:41:03.000Z</time>
      </trkpt>
      <trkpt lat="43.46712" lon="6.84757">
        <ele>85.800003051758</ele>
        <time>2023-09-26T08:41:07.000Z</time>
      </trkpt>
      <trkpt lat="43.46707" lon="6.84757">
        <ele>85.800003051758</ele>
        <time>2023-09-26T08:41:08.000Z</time>
      </trkpt>
      <trkpt lat="43.46703" lon="6.84758">
        <ele>85.800003051758</ele>
        <time>2023-09-26T08:41:09.000Z</time>
      </trkpt>
      <trkpt lat="43.46694" lon="6.84763">
        <ele>85.599998474121</ele>
        <time>2023-09-26T08:41:11.000Z</time>
      </trkpt>
      <trkpt lat="43.46686" lon="6.8477">
        <ele>85.199996948242</ele>
        <time>2023-09-26T08:41:13.000Z</time>
      </trkpt>
      <trkpt lat="43.46682" lon="6.84774">
        <ele>85.199996948242</ele>
        <time>2023-09-26T08:41:14.000Z</time>
      </trkpt>
      <trkpt lat="43.46675" lon="6.84783">
        <ele>85</ele>
        <time>2023-09-26T08:41:16.000Z</time>
      </trkpt>
      <trkpt lat="43.46672" lon="6.84787">
        <ele>84.800003051758</ele>
        <time>2023-09-26T08:41:17.000Z</time>
      </trkpt>
      <trkpt lat="43.4667" lon="6.84792">
        <ele>84.599998474121</ele>
        <time>2023-09-26T08:41:18.000Z</time>
      </trkpt>
      <trkpt lat="43.46666" lon="6.84805">
        <ele>84.400001525879</ele>
        <time>2023-09-26T08:41:20.000Z</time>
      </trkpt>
      <trkpt lat="43.46666" lon="6.84818">
        <ele>84</ele>
        <time>2023-09-26T08:41:22.000Z</time>
      </trkpt>
      <trkpt lat="43.46668" lon="6.8483">
        <ele>84</ele>
        <time>2023-09-26T08:41:24.000Z</time>
      </trkpt>
      <trkpt lat="43.46675" lon="6.84842">
        <ele>83.800003051758</ele>
        <time>2023-09-26T08:41:26.000Z</time>
      </trkpt>
      <trkpt lat="43.46702" lon="6.84875">
        <ele>82.800003051758</ele>
        <time>2023-09-26T08:41:33.000Z</time>
      </trkpt>
      <trkpt lat="43.4671" lon="6.84885">
        <ele>82.599998474121</ele>
        <time>2023-09-26T08:41:35.000Z</time>
      </trkpt>
      <trkpt lat="43.46727" lon="6.84904">
        <ele>81.800003051758</ele>
        <time>2023-09-26T08:41:39.000Z</time>
      </trkpt>
      <trkpt lat="43.46732" lon="6.84909">
        <ele>81.599998474121</ele>
        <time>2023-09-26T08:41:40.000Z</time>
      </trkpt>
      <trkpt lat="43.46742" lon="6.84917">
        <ele>81.400001525879</ele>
        <time>2023-09-26T08:41:42.000Z</time>
      </trkpt>
      <trkpt lat="43.46759" lon="6.84931">
        <ele>81</ele>
        <time>2023-09-26T08:41:46.000Z</time>
      </trkpt>
      <trkpt lat="43.46761" lon="6.84936">
        <ele>81</ele>
        <time>2023-09-26T08:41:47.000Z</time>
      </trkpt>
      <trkpt lat="43.46763" lon="6.84943">
        <ele>80.800003051758</ele>
        <time>2023-09-26T08:41:48.000Z</time>
      </trkpt>
      <trkpt lat="43.46762" lon="6.84956">
        <ele>80.800003051758</ele>
        <time>2023-09-26T08:41:50.000Z</time>
      </trkpt>
      <trkpt lat="43.46761" lon="6.8497">
        <ele>80.599998474121</ele>
        <time>2023-09-26T08:41:52.000Z</time>
      </trkpt>
      <trkpt lat="43.46761" lon="6.84976">
        <ele>80.599998474121</ele>
        <time>2023-09-26T08:41:53.000Z</time>
      </trkpt>
      <trkpt lat="43.46762" lon="6.84983">
        <ele>80.599998474121</ele>
        <time>2023-09-26T08:41:54.000Z</time>
      </trkpt>
      <trkpt lat="43.46763" lon="6.84996">
        <ele>80.400001525879</ele>
        <time>2023-09-26T08:41:56.000Z</time>
      </trkpt>
      <trkpt lat="43.46766" lon="6.85008">
        <ele>80.199996948242</ele>
        <time>2023-09-26T08:41:58.000Z</time>
      </trkpt>
      <trkpt lat="43.46775" lon="6.85029">
        <ele>80</ele>
        <time>2023-09-26T08:42:02.000Z</time>
      </trkpt>
      <trkpt lat="43.46776" lon="6.85041">
        <ele>80</ele>
        <time>2023-09-26T08:42:04.000Z</time>
      </trkpt>
      <trkpt lat="43.46773" lon="6.85054">
        <ele>79.800003051758</ele>
        <time>2023-09-26T08:42:06.000Z</time>
      </trkpt>
      <trkpt lat="43.46769" lon="6.85065">
        <ele>79.599998474121</ele>
        <time>2023-09-26T08:42:08.000Z</time>
      </trkpt>
      <trkpt lat="43.46757" lon="6.85097">
        <ele>79</ele>
        <time>2023-09-26T08:42:13.000Z</time>
      </trkpt>
      <trkpt lat="43.46747" lon="6.85117">
        <ele>78.599998474121</ele>
        <time>2023-09-26T08:42:16.000Z</time>
      </trkpt>
      <trkpt lat="43.46741" lon="6.85131">
        <ele>78</ele>
        <time>2023-09-26T08:42:18.000Z</time>
      </trkpt>
      <trkpt lat="43.46739" lon="6.85139">
        <ele>77.800003051758</ele>
        <time>2023-09-26T08:42:19.000Z</time>
      </trkpt>
      <trkpt lat="43.46738" lon="6.85148">
        <ele>77.599998474121</ele>
        <time>2023-09-26T08:42:20.000Z</time>
      </trkpt>
      <trkpt lat="43.46739" lon="6.85176">
        <ele>76.400001525879</ele>
        <time>2023-09-26T08:42:23.000Z</time>
      </trkpt>
      <trkpt lat="43.4674" lon="6.85186">
        <ele>76.400001525879</ele>
        <time>2023-09-26T08:42:24.000Z</time>
      </trkpt>
      <trkpt lat="43.46744" lon="6.85217">
        <ele>74.800003051758</ele>
        <time>2023-09-26T08:42:27.000Z</time>
      </trkpt>
      <trkpt lat="43.46746" lon="6.85225">
        <ele>74.599998474121</ele>
        <time>2023-09-26T08:42:28.000Z</time>
      </trkpt>
      <trkpt lat="43.46753" lon="6.85258">
        <ele>73.599998474121</ele>
        <time>2023-09-26T08:42:31.000Z</time>
      </trkpt>
      <trkpt lat="43.46754" lon="6.85279">
        <ele>72.800003051758</ele>
        <time>2023-09-26T08:42:33.000Z</time>
      </trkpt>
      <trkpt lat="43.46755" lon="6.8529">
        <ele>72.199996948242</ele>
        <time>2023-09-26T08:42:34.000Z</time>
      </trkpt>
      <trkpt lat="43.46757" lon="6.85322">
        <ele>71</ele>
        <time>2023-09-26T08:42:37.000Z</time>
      </trkpt>
      <trkpt lat="43.46761" lon="6.85342">
        <ele>70.599998474121</ele>
        <time>2023-09-26T08:42:39.000Z</time>
      </trkpt>
      <trkpt lat="43.46764" lon="6.85363">
        <ele>70.199996948242</ele>
        <time>2023-09-26T08:42:41.000Z</time>
      </trkpt>
      <trkpt lat="43.46765" lon="6.85374">
        <ele>70</ele>
        <time>2023-09-26T08:42:42.000Z</time>
      </trkpt>
      <trkpt lat="43.46766" lon="6.85385">
        <ele>69.599998474121</ele>
        <time>2023-09-26T08:42:43.000Z</time>
      </trkpt>
      <trkpt lat="43.46766" lon="6.85395">
        <ele>69.400001525879</ele>
        <time>2023-09-26T08:42:44.000Z</time>
      </trkpt>
      <trkpt lat="43.46766" lon="6.85416">
        <ele>68.800003051758</ele>
        <time>2023-09-26T08:42:46.000Z</time>
      </trkpt>
      <trkpt lat="43.46767" lon="6.85438">
        <ele>68.199996948242</ele>
        <time>2023-09-26T08:42:48.000Z</time>
      </trkpt>
      <trkpt lat="43.4677" lon="6.85458">
        <ele>67.800003051758</ele>
        <time>2023-09-26T08:42:50.000Z</time>
      </trkpt>
      <trkpt lat="43.46784" lon="6.85494">
        <ele>66.800003051758</ele>
        <time>2023-09-26T08:42:54.000Z</time>
      </trkpt>
      <trkpt lat="43.46788" lon="6.85502">
        <ele>66.599998474121</ele>
        <time>2023-09-26T08:42:55.000Z</time>
      </trkpt>
      <trkpt lat="43.46811" lon="6.85528">
        <ele>65.800003051758</ele>
        <time>2023-09-26T08:42:59.000Z</time>
      </trkpt>
      <trkpt lat="43.46817" lon="6.85533">
        <ele>65.400001525879</ele>
        <time>2023-09-26T08:43:00.000Z</time>
      </trkpt>
      <trkpt lat="43.46824" lon="6.85538">
        <ele>65.199996948242</ele>
        <time>2023-09-26T08:43:01.000Z</time>
      </trkpt>
      <trkpt lat="43.46838" lon="6.85544">
        <ele>65</ele>
        <time>2023-09-26T08:43:03.000Z</time>
      </trkpt>
      <trkpt lat="43.46845" lon="6.85547">
        <ele>64.400001525879</ele>
        <time>2023-09-26T08:43:04.000Z</time>
      </trkpt>
      <trkpt lat="43.46867" lon="6.85554">
        <ele>63.200000762939</ele>
        <time>2023-09-26T08:43:07.000Z</time>
      </trkpt>
      <trkpt lat="43.46896" lon="6.85561">
        <ele>62.599998474121</ele>
        <time>2023-09-26T08:43:11.000Z</time>
      </trkpt>
      <trkpt lat="43.46909" lon="6.85566">
        <ele>62.400001525879</ele>
        <time>2023-09-26T08:43:13.000Z</time>
      </trkpt>
      <trkpt lat="43.46929" lon="6.85578">
        <ele>61.200000762939</ele>
        <time>2023-09-26T08:43:16.000Z</time>
      </trkpt>
      <trkpt lat="43.46938" lon="6.85582">
        <ele>60.799999237061</ele>
        <time>2023-09-26T08:43:17.000Z</time>
      </trkpt>
      <trkpt lat="43.4696" lon="6.85588">
        <ele>60.400001525879</ele>
        <time>2023-09-26T08:43:20.000Z</time>
      </trkpt>
      <trkpt lat="43.46967" lon="6.85588">
        <ele>59.799999237061</ele>
        <time>2023-09-26T08:43:21.000Z</time>
      </trkpt>
      <trkpt lat="43.46975" lon="6.85588">
        <ele>59.599998474121</ele>
        <time>2023-09-26T08:43:22.000Z</time>
      </trkpt>
      <trkpt lat="43.47003" lon="6.85598">
        <ele>58.799999237061</ele>
        <time>2023-09-26T08:43:26.000Z</time>
      </trkpt>
      <trkpt lat="43.47034" lon="6.85615">
        <ele>57.599998474121</ele>
        <time>2023-09-26T08:43:31.000Z</time>
      </trkpt>
      <trkpt lat="43.47038" lon="6.85617">
        <ele>57.400001525879</ele>
        <time>2023-09-26T08:43:32.000Z</time>
      </trkpt>
      <trkpt lat="43.47043" lon="6.85624">
        <ele>57</ele>
        <time>2023-09-26T08:43:34.000Z</time>
      </trkpt>
      <trkpt lat="43.47044" lon="6.85628">
        <ele>56.799999237061</ele>
        <time>2023-09-26T08:43:35.000Z</time>
      </trkpt>
      <trkpt lat="43.4704" lon="6.85631">
        <ele>56.799999237061</ele>
        <time>2023-09-26T08:43:37.000Z</time>
      </trkpt>
      <trkpt lat="43.47037" lon="6.85633">
        <ele>56.400001525879</ele>
        <time>2023-09-26T08:43:41.000Z</time>
      </trkpt>
      <trkpt lat="43.47034" lon="6.85633">
        <ele>56.400001525879</ele>
        <time>2023-09-26T08:44:04.000Z</time>
      </trkpt>
      <trkpt lat="43.47034" lon="6.85633">
        <ele>56.400001525879</ele>
        <time>2023-09-26T08:44:06.000Z</time>
      </trkpt>
      <trkpt lat="43.47033" lon="6.85633">
        <ele>56.400001525879</ele>
        <time>2023-09-26T08:44:32.000Z</time>
      </trkpt>
      <trkpt lat="43.47026" lon="6.85638">
        <ele>56.400001525879</ele>
        <time>2023-09-26T08:44:35.000Z</time>
      </trkpt>
      <trkpt lat="43.4701" lon="6.8564">
        <ele>56.200000762939</ele>
        <time>2023-09-26T08:44:40.000Z</time>
      </trkpt>
      <trkpt lat="43.46985" lon="6.8563">
        <ele>56.400001525879</ele>
        <time>2023-09-26T08:44:47.000Z</time>
      </trkpt>
      <trkpt lat="43.46961" lon="6.85626">
        <ele>57.200000762939</ele>
        <time>2023-09-26T08:44:54.000Z</time>
      </trkpt>
      <trkpt lat="43.46945" lon="6.85628">
        <ele>58</ele>
        <time>2023-09-26T08:44:59.000Z</time>
      </trkpt>
      <trkpt lat="43.46936" lon="6.85629">
        <ele>58.400001525879</ele>
        <time>2023-09-26T08:45:02.000Z</time>
      </trkpt>
      <trkpt lat="43.4693" lon="6.85629">
        <ele>59</ele>
        <time>2023-09-26T08:45:04.000Z</time>
      </trkpt>
      <trkpt lat="43.46917" lon="6.85629">
        <ele>59.599998474121</ele>
        <time>2023-09-26T08:45:08.000Z</time>
      </trkpt>
      <trkpt lat="43.46901" lon="6.85637">
        <ele>60</ele>
        <time>2023-09-26T08:45:13.000Z</time>
      </trkpt>
      <trkpt lat="43.46898" lon="6.85639">
        <ele>60</ele>
        <time>2023-09-26T08:45:14.000Z</time>
      </trkpt>
      <trkpt lat="43.46873" lon="6.8564">
        <ele>60.599998474121</ele>
        <time>2023-09-26T08:45:21.000Z</time>
      </trkpt>
      <trkpt lat="43.46867" lon="6.85638">
        <ele>61</ele>
        <time>2023-09-26T08:45:23.000Z</time>
      </trkpt>
      <trkpt lat="43.46846" lon="6.85636">
        <ele>62.200000762939</ele>
        <time>2023-09-26T08:45:29.000Z</time>
      </trkpt>
      <trkpt lat="43.46843" lon="6.85636">
        <ele>62.599998474121</ele>
        <time>2023-09-26T08:45:30.000Z</time>
      </trkpt>
      <trkpt lat="43.46826" lon="6.85636">
        <ele>63.400001525879</ele>
        <time>2023-09-26T08:45:35.000Z</time>
      </trkpt>
      <trkpt lat="43.4682" lon="6.85637">
        <ele>63.599998474121</ele>
        <time>2023-09-26T08:45:37.000Z</time>
      </trkpt>
      <trkpt lat="43.46804" lon="6.8564">
        <ele>64.400001525879</ele>
        <time>2023-09-26T08:45:42.000Z</time>
      </trkpt>
      <trkpt lat="43.46788" lon="6.85645">
        <ele>65</ele>
        <time>2023-09-26T08:45:47.000Z</time>
      </trkpt>
      <trkpt lat="43.46776" lon="6.85651">
        <ele>65.800003051758</ele>
        <time>2023-09-26T08:45:51.000Z</time>
      </trkpt>
      <trkpt lat="43.46754" lon="6.85663">
        <ele>67</ele>
        <time>2023-09-26T08:45:58.000Z</time>
      </trkpt>
      <trkpt lat="43.46737" lon="6.85683">
        <ele>67.800003051758</ele>
        <time>2023-09-26T08:46:05.000Z</time>
      </trkpt>
      <trkpt lat="43.46735" lon="6.85687">
        <ele>68</ele>
        <time>2023-09-26T08:46:06.000Z</time>
      </trkpt>
      <trkpt lat="43.46723" lon="6.85718">
        <ele>69</ele>
        <time>2023-09-26T08:46:13.000Z</time>
      </trkpt>
      <trkpt lat="43.46721" lon="6.85723">
        <ele>69.199996948242</ele>
        <time>2023-09-26T08:46:14.000Z</time>
      </trkpt>
      <trkpt lat="43.46715" lon="6.8575">
        <ele>70.199996948242</ele>
        <time>2023-09-26T08:46:20.000Z</time>
      </trkpt>
      <trkpt lat="43.46711" lon="6.8576">
        <ele>70.400001525879</ele>
        <time>2023-09-26T08:46:22.000Z</time>
      </trkpt>
      <trkpt lat="43.46703" lon="6.85783">
        <ele>71.199996948242</ele>
        <time>2023-09-26T08:46:27.000Z</time>
      </trkpt>
      <trkpt lat="43.46697" lon="6.858">
        <ele>72</ele>
        <time>2023-09-26T08:46:31.000Z</time>
      </trkpt>
      <trkpt lat="43.46694" lon="6.85811">
        <ele>72.400001525879</ele>
        <time>2023-09-26T08:46:33.000Z</time>
      </trkpt>
      <trkpt lat="43.4669" lon="6.85835">
        <ele>72.800003051758</ele>
        <time>2023-09-26T08:46:38.000Z</time>
      </trkpt>
      <trkpt lat="43.46691" lon="6.85844">
        <ele>73.199996948242</ele>
        <time>2023-09-26T08:46:40.000Z</time>
      </trkpt>
      <trkpt lat="43.46693" lon="6.85868">
        <ele>74.199996948242</ele>
        <time>2023-09-26T08:46:45.000Z</time>
      </trkpt>
      <trkpt lat="43.46691" lon="6.85873">
        <ele>74.400001525879</ele>
        <time>2023-09-26T08:46:46.000Z</time>
      </trkpt>
      <trkpt lat="43.46685" lon="6.85876">
        <ele>74.599998474121</ele>
        <time>2023-09-26T08:46:48.000Z</time>
      </trkpt>
      <trkpt lat="43.46666" lon="6.85867">
        <ele>75.199996948242</ele>
        <time>2023-09-26T08:46:53.000Z</time>
      </trkpt>
      <trkpt lat="43.4665" lon="6.85854">
        <ele>76.400001525879</ele>
        <time>2023-09-26T08:46:58.000Z</time>
      </trkpt>
      <trkpt lat="43.46646" lon="6.85846">
        <ele>76.800003051758</ele>
        <time>2023-09-26T08:47:00.000Z</time>
      </trkpt>
      <trkpt lat="43.46648" lon="6.85831">
        <ele>77.400001525879</ele>
        <time>2023-09-26T08:47:03.000Z</time>
      </trkpt>
      <trkpt lat="43.46655" lon="6.85806">
        <ele>78.400001525879</ele>
        <time>2023-09-26T08:47:08.000Z</time>
      </trkpt>
      <trkpt lat="43.46656" lon="6.85797">
        <ele>78.800003051758</ele>
        <time>2023-09-26T08:47:10.000Z</time>
      </trkpt>
      <trkpt lat="43.46648" lon="6.85774">
        <ele>79.599998474121</ele>
        <time>2023-09-26T08:47:15.000Z</time>
      </trkpt>
      <trkpt lat="43.4663" lon="6.85762">
        <ele>80.400001525879</ele>
        <time>2023-09-26T08:47:20.000Z</time>
      </trkpt>
      <trkpt lat="43.46627" lon="6.8576">
        <ele>80.599998474121</ele>
        <time>2023-09-26T08:47:21.000Z</time>
      </trkpt>
      <trkpt lat="43.4661" lon="6.85751">
        <ele>81.800003051758</ele>
        <time>2023-09-26T08:47:26.000Z</time>
      </trkpt>
      <trkpt lat="43.46603" lon="6.85747">
        <ele>82.199996948242</ele>
        <time>2023-09-26T08:47:28.000Z</time>
      </trkpt>
      <trkpt lat="43.46592" lon="6.8574">
        <ele>83</ele>
        <time>2023-09-26T08:47:31.000Z</time>
      </trkpt>
      <trkpt lat="43.46575" lon="6.85731">
        <ele>84</ele>
        <time>2023-09-26T08:47:36.000Z</time>
      </trkpt>
      <trkpt lat="43.46565" lon="6.85726">
        <ele>84.599998474121</ele>
        <time>2023-09-26T08:47:39.000Z</time>
      </trkpt>
      <trkpt lat="43.46561" lon="6.85724">
        <ele>85</ele>
        <time>2023-09-26T08:47:40.000Z</time>
      </trkpt>
      <trkpt lat="43.46536" lon="6.85714">
        <ele>86.199996948242</ele>
        <time>2023-09-26T08:47:47.000Z</time>
      </trkpt>
      <trkpt lat="43.46533" lon="6.85711">
        <ele>86.400001525879</ele>
        <time>2023-09-26T08:47:48.000Z</time>
      </trkpt>
      <trkpt lat="43.46529" lon="6.85692">
        <ele>87</ele>
        <time>2023-09-26T08:47:52.000Z</time>
      </trkpt>
      <trkpt lat="43.4653" lon="6.85687">
        <ele>87.199996948242</ele>
        <time>2023-09-26T08:47:53.000Z</time>
      </trkpt>
      <trkpt lat="43.46533" lon="6.85668">
        <ele>88.400001525879</ele>
        <time>2023-09-26T08:47:57.000Z</time>
      </trkpt>
      <trkpt lat="43.46537" lon="6.85654">
        <ele>88.800003051758</ele>
        <time>2023-09-26T08:48:00.000Z</time>
      </trkpt>
      <trkpt lat="43.46542" lon="6.85624">
        <ele>89.400001525879</ele>
        <time>2023-09-26T08:48:06.000Z</time>
      </trkpt>
      <trkpt lat="43.46542" lon="6.85619">
        <ele>89.599998474121</ele>
        <time>2023-09-26T08:48:07.000Z</time>
      </trkpt>
      <trkpt lat="43.46534" lon="6.85609">
        <ele>90.400001525879</ele>
        <time>2023-09-26T08:48:10.000Z</time>
      </trkpt>
      <trkpt lat="43.4653" lon="6.85608">
        <ele>90.599998474121</ele>
        <time>2023-09-26T08:48:11.000Z</time>
      </trkpt>
      <trkpt lat="43.4652" lon="6.85613">
        <ele>90.800003051758</ele>
        <time>2023-09-26T08:48:14.000Z</time>
      </trkpt>
      <trkpt lat="43.46514" lon="6.85631">
        <ele>91.400001525879</ele>
        <time>2023-09-26T08:48:18.000Z</time>
      </trkpt>
      <trkpt lat="43.46514" lon="6.85641">
        <ele>91.800003051758</ele>
        <time>2023-09-26T08:48:20.000Z</time>
      </trkpt>
      <trkpt lat="43.46516" lon="6.85656">
        <ele>92.400001525879</ele>
        <time>2023-09-26T08:48:23.000Z</time>
      </trkpt>
      <trkpt lat="43.46518" lon="6.85664">
        <ele>92.800003051758</ele>
        <time>2023-09-26T08:48:25.000Z</time>
      </trkpt>
      <trkpt lat="43.4652" lon="6.8567">
        <ele>92.800003051758</ele>
        <time>2023-09-26T08:48:27.000Z</time>
      </trkpt>
      <trkpt lat="43.46523" lon="6.85674">
        <ele>93</ele>
        <time>2023-09-26T08:48:31.000Z</time>
      </trkpt>
      <trkpt lat="43.46522" lon="6.85676">
        <ele>92.800003051758</ele>
        <time>2023-09-26T08:48:42.000Z</time>
      </trkpt>
      <trkpt lat="43.46521" lon="6.8568">
        <ele>92.800003051758</ele>
        <time>2023-09-26T08:48:44.000Z</time>
      </trkpt>
      <trkpt lat="43.46516" lon="6.85696">
        <ele>92.800003051758</ele>
        <time>2023-09-26T08:48:48.000Z</time>
      </trkpt>
      <trkpt lat="43.46518" lon="6.8572">
        <ele>92.599998474121</ele>
        <time>2023-09-26T08:48:53.000Z</time>
      </trkpt>
      <trkpt lat="43.46532" lon="6.85737">
        <ele>92.400001525879</ele>
        <time>2023-09-26T08:48:58.000Z</time>
      </trkpt>
      <trkpt lat="43.46554" lon="6.85764">
        <ele>92.199996948242</ele>
        <time>2023-09-26T08:49:06.000Z</time>
      </trkpt>
      <trkpt lat="43.46561" lon="6.85788">
        <ele>92.199996948242</ele>
        <time>2023-09-26T08:49:11.000Z</time>
      </trkpt>
      <trkpt lat="43.46575" lon="6.85824">
        <ele>92.199996948242</ele>
        <time>2023-09-26T08:49:19.000Z</time>
      </trkpt>
      <trkpt lat="43.46581" lon="6.85838">
        <ele>92.599998474121</ele>
        <time>2023-09-26T08:49:22.000Z</time>
      </trkpt>
      <trkpt lat="43.46584" lon="6.85848">
        <ele>92.800003051758</ele>
        <time>2023-09-26T08:49:24.000Z</time>
      </trkpt>
      <trkpt lat="43.46586" lon="6.85859">
        <ele>92.800003051758</ele>
        <time>2023-09-26T08:49:26.000Z</time>
      </trkpt>
      <trkpt lat="43.46585" lon="6.85896">
        <ele>93.400001525879</ele>
        <time>2023-09-26T08:49:33.000Z</time>
      </trkpt>
      <trkpt lat="43.46575" lon="6.85932">
        <ele>93.599998474121</ele>
        <time>2023-09-26T08:49:40.000Z</time>
      </trkpt>
      <trkpt lat="43.46568" lon="6.85951">
        <ele>94</ele>
        <time>2023-09-26T08:49:44.000Z</time>
      </trkpt>
      <trkpt lat="43.46556" lon="6.85979">
        <ele>94.599998474121</ele>
        <time>2023-09-26T08:49:50.000Z</time>
      </trkpt>
      <trkpt lat="43.46549" lon="6.85998">
        <ele>95.199996948242</ele>
        <time>2023-09-26T08:49:54.000Z</time>
      </trkpt>
      <trkpt lat="43.46547" lon="6.86013">
        <ele>95.599998474121</ele>
        <time>2023-09-26T08:49:57.000Z</time>
      </trkpt>
      <trkpt lat="43.46548" lon="6.86019">
        <ele>95.800003051758</ele>
        <time>2023-09-26T08:49:58.000Z</time>
      </trkpt>
      <trkpt lat="43.46551" lon="6.86029">
        <ele>96.199996948242</ele>
        <time>2023-09-26T08:50:00.000Z</time>
      </trkpt>
      <trkpt lat="43.46554" lon="6.86033">
        <ele>96.599998474121</ele>
        <time>2023-09-26T08:50:01.000Z</time>
      </trkpt>
      <trkpt lat="43.46569" lon="6.86049">
        <ele>97.599998474121</ele>
        <time>2023-09-26T08:50:06.000Z</time>
      </trkpt>
      <trkpt lat="43.46579" lon="6.86058">
        <ele>98.199996948242</ele>
        <time>2023-09-26T08:50:09.000Z</time>
      </trkpt>
      <trkpt lat="43.46587" lon="6.86068">
        <ele>98.800003051758</ele>
        <time>2023-09-26T08:50:12.000Z</time>
      </trkpt>
      <trkpt lat="43.46603" lon="6.86081">
        <ele>99.599998474121</ele>
        <time>2023-09-26T08:50:17.000Z</time>
      </trkpt>
      <trkpt lat="43.46606" lon="6.86083">
        <ele>99.800003051758</ele>
        <time>2023-09-26T08:50:18.000Z</time>
      </trkpt>
      <trkpt lat="43.46622" lon="6.86096">
        <ele>100.59999847412</ele>
        <time>2023-09-26T08:50:23.000Z</time>
      </trkpt>
      <trkpt lat="43.46629" lon="6.86102">
        <ele>100.80000305176</ele>
        <time>2023-09-26T08:50:25.000Z</time>
      </trkpt>
      <trkpt lat="43.4664" lon="6.86111">
        <ele>102.19999694824</ele>
        <time>2023-09-26T08:50:29.000Z</time>
      </trkpt>
      <trkpt lat="43.46649" lon="6.86118">
        <ele>102.59999847412</ele>
        <time>2023-09-26T08:50:32.000Z</time>
      </trkpt>
      <trkpt lat="43.46662" lon="6.86124">
        <ele>103.40000152588</ele>
        <time>2023-09-26T08:50:36.000Z</time>
      </trkpt>
      <trkpt lat="43.46673" lon="6.86124">
        <ele>104.19999694824</ele>
        <time>2023-09-26T08:50:39.000Z</time>
      </trkpt>
      <trkpt lat="43.46677" lon="6.86124">
        <ele>104.40000152588</ele>
        <time>2023-09-26T08:50:40.000Z</time>
      </trkpt>
      <trkpt lat="43.46694" lon="6.86121">
        <ele>105.40000152588</ele>
        <time>2023-09-26T08:50:45.000Z</time>
      </trkpt>
      <trkpt lat="43.46704" lon="6.86119">
        <ele>106</ele>
        <time>2023-09-26T08:50:48.000Z</time>
      </trkpt>
      <trkpt lat="43.46718" lon="6.86118">
        <ele>106.59999847412</ele>
        <time>2023-09-26T08:50:52.000Z</time>
      </trkpt>
      <trkpt lat="43.46727" lon="6.8612">
        <ele>107.80000305176</ele>
        <time>2023-09-26T08:50:55.000Z</time>
      </trkpt>
      <trkpt lat="43.46741" lon="6.86122">
        <ele>108.80000305176</ele>
        <time>2023-09-26T08:50:59.000Z</time>
      </trkpt>
      <trkpt lat="43.46751" lon="6.8612">
        <ele>109.40000152588</ele>
        <time>2023-09-26T08:51:02.000Z</time>
      </trkpt>
      <trkpt lat="43.46765" lon="6.86121">
        <ele>109.80000305176</ele>
        <time>2023-09-26T08:51:06.000Z</time>
      </trkpt>
      <trkpt lat="43.46774" lon="6.86126">
        <ele>110.80000305176</ele>
        <time>2023-09-26T08:51:09.000Z</time>
      </trkpt>
      <trkpt lat="43.46779" lon="6.86132">
        <ele>111.19999694824</ele>
        <time>2023-09-26T08:51:11.000Z</time>
      </trkpt>
      <trkpt lat="43.46785" lon="6.86145">
        <ele>112.19999694824</ele>
        <time>2023-09-26T08:51:14.000Z</time>
      </trkpt>
      <trkpt lat="43.46786" lon="6.8616">
        <ele>112.59999847412</ele>
        <time>2023-09-26T08:51:17.000Z</time>
      </trkpt>
      <trkpt lat="43.46786" lon="6.86165">
        <ele>112.59999847412</ele>
        <time>2023-09-26T08:51:18.000Z</time>
      </trkpt>
      <trkpt lat="43.46785" lon="6.86197">
        <ele>113.19999694824</ele>
        <time>2023-09-26T08:51:25.000Z</time>
      </trkpt>
      <trkpt lat="43.46784" lon="6.86211">
        <ele>114.19999694824</ele>
        <time>2023-09-26T08:51:28.000Z</time>
      </trkpt>
      <trkpt lat="43.46784" lon="6.86216">
        <ele>114.40000152588</ele>
        <time>2023-09-26T08:51:29.000Z</time>
      </trkpt>
      <trkpt lat="43.46787" lon="6.86239">
        <ele>115.59999847412</ele>
        <time>2023-09-26T08:51:34.000Z</time>
      </trkpt>
      <trkpt lat="43.46789" lon="6.86248">
        <ele>116</ele>
        <time>2023-09-26T08:51:36.000Z</time>
      </trkpt>
      <trkpt lat="43.46793" lon="6.8626">
        <ele>116.59999847412</ele>
        <time>2023-09-26T08:51:39.000Z</time>
      </trkpt>
      <trkpt lat="43.46803" lon="6.8628">
        <ele>117.59999847412</ele>
        <time>2023-09-26T08:51:44.000Z</time>
      </trkpt>
      <trkpt lat="43.46805" lon="6.86284">
        <ele>118</ele>
        <time>2023-09-26T08:51:45.000Z</time>
      </trkpt>
      <trkpt lat="43.46815" lon="6.86303">
        <ele>118.80000305176</ele>
        <time>2023-09-26T08:51:50.000Z</time>
      </trkpt>
      <trkpt lat="43.46817" lon="6.86306">
        <ele>119.19999694824</ele>
        <time>2023-09-26T08:51:51.000Z</time>
      </trkpt>
      <trkpt lat="43.46828" lon="6.86327">
        <ele>120.19999694824</ele>
        <time>2023-09-26T08:51:57.000Z</time>
      </trkpt>
      <trkpt lat="43.4683" lon="6.86331">
        <ele>120.40000152588</ele>
        <time>2023-09-26T08:51:58.000Z</time>
      </trkpt>
      <trkpt lat="43.46834" lon="6.86339">
        <ele>121.19999694824</ele>
        <time>2023-09-26T08:52:00.000Z</time>
      </trkpt>
      <trkpt lat="43.46847" lon="6.86366">
        <ele>122.19999694824</ele>
        <time>2023-09-26T08:52:07.000Z</time>
      </trkpt>
      <trkpt lat="43.46849" lon="6.8637">
        <ele>122.40000152588</ele>
        <time>2023-09-26T08:52:08.000Z</time>
      </trkpt>
      <trkpt lat="43.4686" lon="6.86393">
        <ele>123.40000152588</ele>
        <time>2023-09-26T08:52:14.000Z</time>
      </trkpt>
      <trkpt lat="43.46866" lon="6.86404">
        <ele>124.80000305176</ele>
        <time>2023-09-26T08:52:17.000Z</time>
      </trkpt>
      <trkpt lat="43.46869" lon="6.86407">
        <ele>125</ele>
        <time>2023-09-26T08:52:18.000Z</time>
      </trkpt>
      <trkpt lat="43.46879" lon="6.86421">
        <ele>125.80000305176</ele>
        <time>2023-09-26T08:52:22.000Z</time>
      </trkpt>
      <trkpt lat="43.46892" lon="6.86436">
        <ele>126.80000305176</ele>
        <time>2023-09-26T08:52:27.000Z</time>
      </trkpt>
      <trkpt lat="43.46895" lon="6.86439">
        <ele>126.80000305176</ele>
        <time>2023-09-26T08:52:28.000Z</time>
      </trkpt>
      <trkpt lat="43.46913" lon="6.86459">
        <ele>127.80000305176</ele>
        <time>2023-09-26T08:52:35.000Z</time>
      </trkpt>
      <trkpt lat="43.46915" lon="6.86463">
        <ele>128</ele>
        <time>2023-09-26T08:52:36.000Z</time>
      </trkpt>
      <trkpt lat="43.46919" lon="6.8648">
        <ele>128.60000610352</ele>
        <time>2023-09-26T08:52:40.000Z</time>
      </trkpt>
      <trkpt lat="43.46918" lon="6.8649">
        <ele>129</ele>
        <time>2023-09-26T08:52:42.000Z</time>
      </trkpt>
      <trkpt lat="43.46913" lon="6.86502">
        <ele>130</ele>
        <time>2023-09-26T08:52:45.000Z</time>
      </trkpt>
      <trkpt lat="43.46912" lon="6.86505">
        <ele>130.19999694824</ele>
        <time>2023-09-26T08:52:46.000Z</time>
      </trkpt>
      <trkpt lat="43.46904" lon="6.86533">
        <ele>131.39999389648</ele>
        <time>2023-09-26T08:52:52.000Z</time>
      </trkpt>
      <trkpt lat="43.46901" lon="6.86542">
        <ele>132</ele>
        <time>2023-09-26T08:52:54.000Z</time>
      </trkpt>
      <trkpt lat="43.46898" lon="6.86557">
        <ele>132.60000610352</ele>
        <time>2023-09-26T08:52:57.000Z</time>
      </trkpt>
      <trkpt lat="43.46895" lon="6.86576">
        <ele>133.39999389648</ele>
        <time>2023-09-26T08:53:01.000Z</time>
      </trkpt>
      <trkpt lat="43.46893" lon="6.8659">
        <ele>133.80000305176</ele>
        <time>2023-09-26T08:53:04.000Z</time>
      </trkpt>
      <trkpt lat="43.46892" lon="6.8661">
        <ele>134.39999389648</ele>
        <time>2023-09-26T08:53:08.000Z</time>
      </trkpt>
      <trkpt lat="43.46892" lon="6.86619">
        <ele>135</ele>
        <time>2023-09-26T08:53:10.000Z</time>
      </trkpt>
      <trkpt lat="43.46891" lon="6.86624">
        <ele>135.19999694824</ele>
        <time>2023-09-26T08:53:11.000Z</time>
      </trkpt>
      <trkpt lat="43.46892" lon="6.86648">
        <ele>135.60000610352</ele>
        <time>2023-09-26T08:53:16.000Z</time>
      </trkpt>
      <trkpt lat="43.46892" lon="6.86658">
        <ele>136.39999389648</ele>
        <time>2023-09-26T08:53:18.000Z</time>
      </trkpt>
      <trkpt lat="43.46891" lon="6.86671">
        <ele>137.39999389648</ele>
        <time>2023-09-26T08:53:21.000Z</time>
      </trkpt>
      <trkpt lat="43.46889" lon="6.86681">
        <ele>138.19999694824</ele>
        <time>2023-09-26T08:53:23.000Z</time>
      </trkpt>
      <trkpt lat="43.46886" lon="6.86688">
        <ele>138.60000610352</ele>
        <time>2023-09-26T08:53:25.000Z</time>
      </trkpt>
      <trkpt lat="43.4688" lon="6.8671">
        <ele>140</ele>
        <time>2023-09-26T08:53:30.000Z</time>
      </trkpt>
      <trkpt lat="43.46879" lon="6.86715">
        <ele>140.19999694824</ele>
        <time>2023-09-26T08:53:31.000Z</time>
      </trkpt>
      <trkpt lat="43.46874" lon="6.86747">
        <ele>141</ele>
        <time>2023-09-26T08:53:38.000Z</time>
      </trkpt>
      <trkpt lat="43.46873" lon="6.8676">
        <ele>141.80000305176</ele>
        <time>2023-09-26T08:53:41.000Z</time>
      </trkpt>
      <trkpt lat="43.46871" lon="6.86774">
        <ele>142.19999694824</ele>
        <time>2023-09-26T08:53:44.000Z</time>
      </trkpt>
      <trkpt lat="43.46869" lon="6.86797">
        <ele>142.80000305176</ele>
        <time>2023-09-26T08:53:49.000Z</time>
      </trkpt>
      <trkpt lat="43.46868" lon="6.86806">
        <ele>143.39999389648</ele>
        <time>2023-09-26T08:53:51.000Z</time>
      </trkpt>
      <trkpt lat="43.46868" lon="6.86829">
        <ele>144.60000610352</ele>
        <time>2023-09-26T08:53:56.000Z</time>
      </trkpt>
      <trkpt lat="43.46868" lon="6.86847">
        <ele>145.80000305176</ele>
        <time>2023-09-26T08:54:00.000Z</time>
      </trkpt>
      <trkpt lat="43.46871" lon="6.86873">
        <ele>146.39999389648</ele>
        <time>2023-09-26T08:54:06.000Z</time>
      </trkpt>
      <trkpt lat="43.46873" lon="6.86882">
        <ele>147</ele>
        <time>2023-09-26T08:54:08.000Z</time>
      </trkpt>
      <trkpt lat="43.4688" lon="6.86902">
        <ele>148.19999694824</ele>
        <time>2023-09-26T08:54:13.000Z</time>
      </trkpt>
      <trkpt lat="43.46884" lon="6.8691">
        <ele>148.39999389648</ele>
        <time>2023-09-26T08:54:15.000Z</time>
      </trkpt>
      <trkpt lat="43.46899" lon="6.86936">
        <ele>149.19999694824</ele>
        <time>2023-09-26T08:54:22.000Z</time>
      </trkpt>
      <trkpt lat="43.46904" lon="6.86943">
        <ele>149.80000305176</ele>
        <time>2023-09-26T08:54:24.000Z</time>
      </trkpt>
      <trkpt lat="43.46909" lon="6.8695">
        <ele>150.39999389648</ele>
        <time>2023-09-26T08:54:26.000Z</time>
      </trkpt>
      <trkpt lat="43.46918" lon="6.86962">
        <ele>151</ele>
        <time>2023-09-26T08:54:30.000Z</time>
      </trkpt>
      <trkpt lat="43.46924" lon="6.86968">
        <ele>151.60000610352</ele>
        <time>2023-09-26T08:54:32.000Z</time>
      </trkpt>
      <trkpt lat="43.46938" lon="6.86984">
        <ele>153</ele>
        <time>2023-09-26T08:54:38.000Z</time>
      </trkpt>
      <trkpt lat="43.46949" lon="6.86999">
        <ele>154</ele>
        <time>2023-09-26T08:54:43.000Z</time>
      </trkpt>
      <trkpt lat="43.46957" lon="6.87009">
        <ele>154.39999389648</ele>
        <time>2023-09-26T08:54:46.000Z</time>
      </trkpt>
      <trkpt lat="43.46961" lon="6.87016">
        <ele>155.19999694824</ele>
        <time>2023-09-26T08:54:48.000Z</time>
      </trkpt>
      <trkpt lat="43.46968" lon="6.8703">
        <ele>156.19999694824</ele>
        <time>2023-09-26T08:54:52.000Z</time>
      </trkpt>
      <trkpt lat="43.46971" lon="6.87038">
        <ele>156.19999694824</ele>
        <time>2023-09-26T08:54:54.000Z</time>
      </trkpt>
      <trkpt lat="43.46986" lon="6.87063">
        <ele>157</ele>
        <time>2023-09-26T08:55:01.000Z</time>
      </trkpt>
      <trkpt lat="43.4699" lon="6.8707">
        <ele>157.39999389648</ele>
        <time>2023-09-26T08:55:03.000Z</time>
      </trkpt>
      <trkpt lat="43.47001" lon="6.87092">
        <ele>158.39999389648</ele>
        <time>2023-09-26T08:55:09.000Z</time>
      </trkpt>
      <trkpt lat="43.47005" lon="6.87111">
        <ele>159.39999389648</ele>
        <time>2023-09-26T08:55:13.000Z</time>
      </trkpt>
      <trkpt lat="43.47006" lon="6.87123">
        <ele>160.19999694824</ele>
        <time>2023-09-26T08:55:16.000Z</time>
      </trkpt>
      <trkpt lat="43.47007" lon="6.87136">
        <ele>160.39999389648</ele>
        <time>2023-09-26T08:55:19.000Z</time>
      </trkpt>
      <trkpt lat="43.4701" lon="6.87156">
        <ele>161.39999389648</ele>
        <time>2023-09-26T08:55:24.000Z</time>
      </trkpt>
      <trkpt lat="43.4701" lon="6.87159">
        <ele>161.80000305176</ele>
        <time>2023-09-26T08:55:25.000Z</time>
      </trkpt>
      <trkpt lat="43.47012" lon="6.87167">
        <ele>162.60000610352</ele>
        <time>2023-09-26T08:55:28.000Z</time>
      </trkpt>
      <trkpt lat="43.47013" lon="6.87168">
        <ele>162.80000305176</ele>
        <time>2023-09-26T08:55:30.000Z</time>
      </trkpt>
      <trkpt lat="43.47013" lon="6.87168">
        <ele>163</ele>
        <time>2023-09-26T08:55:32.000Z</time>
      </trkpt>
      <trkpt lat="43.47013" lon="6.87168">
        <ele>163.19999694824</ele>
        <time>2023-09-26T08:55:50.000Z</time>
      </trkpt>
      <trkpt lat="43.47015" lon="6.87168">
        <ele>163.19999694824</ele>
        <time>2023-09-26T08:55:55.000Z</time>
      </trkpt>
      <trkpt lat="43.47018" lon="6.87167">
        <ele>163.19999694824</ele>
        <time>2023-09-26T08:55:57.000Z</time>
      </trkpt>
      <trkpt lat="43.47032" lon="6.87166">
        <ele>163.60000610352</ele>
        <time>2023-09-26T08:56:03.000Z</time>
      </trkpt>
      <trkpt lat="43.4705" lon="6.87163">
        <ele>164</ele>
        <time>2023-09-26T08:56:10.000Z</time>
      </trkpt>
      <trkpt lat="43.47055" lon="6.87162">
        <ele>164.39999389648</ele>
        <time>2023-09-26T08:56:12.000Z</time>
      </trkpt>
      <trkpt lat="43.47063" lon="6.87162">
        <ele>165.39999389648</ele>
        <time>2023-09-26T08:56:15.000Z</time>
      </trkpt>
      <trkpt lat="43.47077" lon="6.87162">
        <ele>166.60000610352</ele>
        <time>2023-09-26T08:56:21.000Z</time>
      </trkpt>
      <trkpt lat="43.47079" lon="6.87162">
        <ele>166.80000305176</ele>
        <time>2023-09-26T08:56:22.000Z</time>
      </trkpt>
      <trkpt lat="43.47103" lon="6.87157">
        <ele>169.60000610352</ele>
        <time>2023-09-26T08:56:30.000Z</time>
      </trkpt>
      <trkpt lat="43.47118" lon="6.87154">
        <ele>167.80000305176</ele>
        <time>2023-09-26T08:56:35.000Z</time>
      </trkpt>
      <trkpt lat="43.47125" lon="6.87151">
        <ele>168.39999389648</ele>
        <time>2023-09-26T08:56:38.000Z</time>
      </trkpt>
      <trkpt lat="43.47133" lon="6.87139">
        <ele>169</ele>
        <time>2023-09-26T08:56:42.000Z</time>
      </trkpt>
      <trkpt lat="43.47134" lon="6.87135">
        <ele>169</ele>
        <time>2023-09-26T08:56:43.000Z</time>
      </trkpt>
      <trkpt lat="43.47129" lon="6.8711">
        <ele>169.39999389648</ele>
        <time>2023-09-26T08:56:49.000Z</time>
      </trkpt>
      <trkpt lat="43.47124" lon="6.87088">
        <ele>170</ele>
        <time>2023-09-26T08:56:54.000Z</time>
      </trkpt>
      <trkpt lat="43.47122" lon="6.87066">
        <ele>170.60000610352</ele>
        <time>2023-09-26T08:56:59.000Z</time>
      </trkpt>
      <trkpt lat="43.47124" lon="6.87037">
        <ele>171</ele>
        <time>2023-09-26T08:57:05.000Z</time>
      </trkpt>
      <trkpt lat="43.47126" lon="6.87024">
        <ele>171.39999389648</ele>
        <time>2023-09-26T08:57:08.000Z</time>
      </trkpt>
      <trkpt lat="43.47132" lon="6.86982">
        <ele>171.60000610352</ele>
        <time>2023-09-26T08:57:17.000Z</time>
      </trkpt>
      <trkpt lat="43.47139" lon="6.86958">
        <ele>171.80000305176</ele>
        <time>2023-09-26T08:57:22.000Z</time>
      </trkpt>
      <trkpt lat="43.47141" lon="6.86953">
        <ele>171.80000305176</ele>
        <time>2023-09-26T08:57:23.000Z</time>
      </trkpt>
      <trkpt lat="43.47146" lon="6.86944">
        <ele>172</ele>
        <time>2023-09-26T08:57:25.000Z</time>
      </trkpt>
      <trkpt lat="43.47156" lon="6.86936">
        <ele>172</ele>
        <time>2023-09-26T08:57:28.000Z</time>
      </trkpt>
      <trkpt lat="43.47163" lon="6.86933">
        <ele>172</ele>
        <time>2023-09-26T08:57:30.000Z</time>
      </trkpt>
      <trkpt lat="43.47193" lon="6.8692">
        <ele>171.60000610352</ele>
        <time>2023-09-26T08:57:38.000Z</time>
      </trkpt>
      <trkpt lat="43.47207" lon="6.86895">
        <ele>171.39999389648</ele>
        <time>2023-09-26T08:57:44.000Z</time>
      </trkpt>
      <trkpt lat="43.47223" lon="6.86849">
        <ele>171.39999389648</ele>
        <time>2023-09-26T08:57:53.000Z</time>
      </trkpt>
      <trkpt lat="43.47234" lon="6.86818">
        <ele>171.60000610352</ele>
        <time>2023-09-26T08:57:59.000Z</time>
      </trkpt>
      <trkpt lat="43.47244" lon="6.86791">
        <ele>171.39999389648</ele>
        <time>2023-09-26T08:58:05.000Z</time>
      </trkpt>
      <trkpt lat="43.47246" lon="6.86761">
        <ele>171.19999694824</ele>
        <time>2023-09-26T08:58:11.000Z</time>
      </trkpt>
      <trkpt lat="43.47253" lon="6.86748">
        <ele>172.19999694824</ele>
        <time>2023-09-26T08:58:15.000Z</time>
      </trkpt>
      <trkpt lat="43.47257" lon="6.86747">
        <ele>172.39999389648</ele>
        <time>2023-09-26T08:58:16.000Z</time>
      </trkpt>
      <trkpt lat="43.47262" lon="6.86749">
        <ele>173</ele>
        <time>2023-09-26T08:58:18.000Z</time>
      </trkpt>
      <trkpt lat="43.47269" lon="6.86765">
        <ele>173.60000610352</ele>
        <time>2023-09-26T08:58:22.000Z</time>
      </trkpt>
      <trkpt lat="43.47274" lon="6.86773">
        <ele>174</ele>
        <time>2023-09-26T08:58:24.000Z</time>
      </trkpt>
      <trkpt lat="43.47289" lon="6.868">
        <ele>174.80000305176</ele>
        <time>2023-09-26T08:58:31.000Z</time>
      </trkpt>
      <trkpt lat="43.47291" lon="6.86804">
        <ele>175</ele>
        <time>2023-09-26T08:58:32.000Z</time>
      </trkpt>
      <trkpt lat="43.47306" lon="6.86825">
        <ele>176.19999694824</ele>
        <time>2023-09-26T08:58:38.000Z</time>
      </trkpt>
      <trkpt lat="43.47318" lon="6.86838">
        <ele>176.39999389648</ele>
        <time>2023-09-26T08:58:42.000Z</time>
      </trkpt>
      <trkpt lat="43.47335" lon="6.86855">
        <ele>177.19999694824</ele>
        <time>2023-09-26T08:58:48.000Z</time>
      </trkpt>
      <trkpt lat="43.47342" lon="6.86866">
        <ele>177.80000305176</ele>
        <time>2023-09-26T08:58:51.000Z</time>
      </trkpt>
      <trkpt lat="43.47347" lon="6.86873">
        <ele>178.39999389648</ele>
        <time>2023-09-26T08:58:53.000Z</time>
      </trkpt>
      <trkpt lat="43.47365" lon="6.86897">
        <ele>179.19999694824</ele>
        <time>2023-09-26T08:59:00.000Z</time>
      </trkpt>
      <trkpt lat="43.47371" lon="6.86903">
        <ele>179.39999389648</ele>
        <time>2023-09-26T08:59:02.000Z</time>
      </trkpt>
      <trkpt lat="43.47391" lon="6.86918">
        <ele>180</ele>
        <time>2023-09-26T08:59:08.000Z</time>
      </trkpt>
      <trkpt lat="43.47412" lon="6.8693">
        <ele>180.39999389648</ele>
        <time>2023-09-26T08:59:14.000Z</time>
      </trkpt>
      <trkpt lat="43.47415" lon="6.86932">
        <ele>180.60000610352</ele>
        <time>2023-09-26T08:59:15.000Z</time>
      </trkpt>
      <trkpt lat="43.47441" lon="6.86951">
        <ele>181.39999389648</ele>
        <time>2023-09-26T08:59:23.000Z</time>
      </trkpt>
      <trkpt lat="43.47447" lon="6.86958">
        <ele>181.80000305176</ele>
        <time>2023-09-26T08:59:25.000Z</time>
      </trkpt>
      <trkpt lat="43.47468" lon="6.86985">
        <ele>182.60000610352</ele>
        <time>2023-09-26T08:59:33.000Z</time>
      </trkpt>
      <trkpt lat="43.47474" lon="6.86997">
        <ele>182.80000305176</ele>
        <time>2023-09-26T08:59:36.000Z</time>
      </trkpt>
      <trkpt lat="43.47482" lon="6.87013">
        <ele>184</ele>
        <time>2023-09-26T08:59:40.000Z</time>
      </trkpt>
      <trkpt lat="43.47486" lon="6.87022">
        <ele>184.19999694824</ele>
        <time>2023-09-26T08:59:42.000Z</time>
      </trkpt>
      <trkpt lat="43.47499" lon="6.87058">
        <ele>184.60000610352</ele>
        <time>2023-09-26T08:59:50.000Z</time>
      </trkpt>
      <trkpt lat="43.47502" lon="6.87067">
        <ele>185.19999694824</ele>
        <time>2023-09-26T08:59:52.000Z</time>
      </trkpt>
      <trkpt lat="43.47514" lon="6.87097">
        <ele>186.39999389648</ele>
        <time>2023-09-26T08:59:59.000Z</time>
      </trkpt>
      <trkpt lat="43.47531" lon="6.87135">
        <ele>187.19999694824</ele>
        <time>2023-09-26T09:00:08.000Z</time>
      </trkpt>
      <trkpt lat="43.47536" lon="6.87141">
        <ele>187.39999389648</ele>
        <time>2023-09-26T09:00:10.000Z</time>
      </trkpt>
      <trkpt lat="43.47551" lon="6.87155">
        <ele>188</ele>
        <time>2023-09-26T09:00:15.000Z</time>
      </trkpt>
      <trkpt lat="43.47569" lon="6.87162">
        <ele>188.19999694824</ele>
        <time>2023-09-26T09:00:20.000Z</time>
      </trkpt>
      <trkpt lat="43.4758" lon="6.87163">
        <ele>188.60000610352</ele>
        <time>2023-09-26T09:00:23.000Z</time>
      </trkpt>
      <trkpt lat="43.47601" lon="6.87159">
        <ele>189.39999389648</ele>
        <time>2023-09-26T09:00:29.000Z</time>
      </trkpt>
      <trkpt lat="43.47608" lon="6.87156">
        <ele>189.39999389648</ele>
        <time>2023-09-26T09:00:31.000Z</time>
      </trkpt>
      <trkpt lat="43.47624" lon="6.87143">
        <ele>190.39999389648</ele>
        <time>2023-09-26T09:00:36.000Z</time>
      </trkpt>
      <trkpt lat="43.4763" lon="6.87133">
        <ele>190.80000305176</ele>
        <time>2023-09-26T09:00:39.000Z</time>
      </trkpt>
      <trkpt lat="43.47633" lon="6.8712">
        <ele>191.39999389648</ele>
        <time>2023-09-26T09:00:42.000Z</time>
      </trkpt>
      <trkpt lat="43.47634" lon="6.87115">
        <ele>192</ele>
        <time>2023-09-26T09:00:43.000Z</time>
      </trkpt>
      <trkpt lat="43.47641" lon="6.87084">
        <ele>193</ele>
        <time>2023-09-26T09:00:50.000Z</time>
      </trkpt>
      <trkpt lat="43.47643" lon="6.8708">
        <ele>193.19999694824</ele>
        <time>2023-09-26T09:00:51.000Z</time>
      </trkpt>
      <trkpt lat="43.47654" lon="6.87049">
        <ele>194.39999389648</ele>
        <time>2023-09-26T09:00:58.000Z</time>
      </trkpt>
      <trkpt lat="43.47658" lon="6.87041">
        <ele>194.80000305176</ele>
        <time>2023-09-26T09:01:00.000Z</time>
      </trkpt>
      <trkpt lat="43.47668" lon="6.8702">
        <ele>195.60000610352</ele>
        <time>2023-09-26T09:01:05.000Z</time>
      </trkpt>
      <trkpt lat="43.4768" lon="6.87">
        <ele>196</ele>
        <time>2023-09-26T09:01:10.000Z</time>
      </trkpt>
      <trkpt lat="43.47693" lon="6.86981">
        <ele>196.60000610352</ele>
        <time>2023-09-26T09:01:15.000Z</time>
      </trkpt>
      <trkpt lat="43.47706" lon="6.86962">
        <ele>197</ele>
        <time>2023-09-26T09:01:20.000Z</time>
      </trkpt>
      <trkpt lat="43.47717" lon="6.86935">
        <ele>197.60000610352</ele>
        <time>2023-09-26T09:01:26.000Z</time>
      </trkpt>
      <trkpt lat="43.47727" lon="6.86913">
        <ele>199</ele>
        <time>2023-09-26T09:01:31.000Z</time>
      </trkpt>
      <trkpt lat="43.47729" lon="6.86909">
        <ele>199.19999694824</ele>
        <time>2023-09-26T09:01:32.000Z</time>
      </trkpt>
      <trkpt lat="43.47733" lon="6.86906">
        <ele>199.80000305176</ele>
        <time>2023-09-26T09:01:33.000Z</time>
      </trkpt>
      <trkpt lat="43.47743" lon="6.869">
        <ele>200.19999694824</ele>
        <time>2023-09-26T09:01:36.000Z</time>
      </trkpt>
      <trkpt lat="43.47751" lon="6.86897">
        <ele>200.39999389648</ele>
        <time>2023-09-26T09:01:38.000Z</time>
      </trkpt>
      <trkpt lat="43.47777" lon="6.86893">
        <ele>201.39999389648</ele>
        <time>2023-09-26T09:01:45.000Z</time>
      </trkpt>
      <trkpt lat="43.47799" lon="6.86901">
        <ele>201.60000610352</ele>
        <time>2023-09-26T09:01:51.000Z</time>
      </trkpt>
      <trkpt lat="43.4782" lon="6.86922">
        <ele>201.60000610352</ele>
        <time>2023-09-26T09:01:58.000Z</time>
      </trkpt>
      <trkpt lat="43.47846" lon="6.86938">
        <ele>201.80000305176</ele>
        <time>2023-09-26T09:02:05.000Z</time>
      </trkpt>
      <trkpt lat="43.47859" lon="6.86964">
        <ele>202</ele>
        <time>2023-09-26T09:02:11.000Z</time>
      </trkpt>
      <trkpt lat="43.47861" lon="6.86969">
        <ele>202</ele>
        <time>2023-09-26T09:02:12.000Z</time>
      </trkpt>
      <trkpt lat="43.47865" lon="6.86983">
        <ele>202</ele>
        <time>2023-09-26T09:02:15.000Z</time>
      </trkpt>
      <trkpt lat="43.47866" lon="6.86988">
        <ele>202.19999694824</ele>
        <time>2023-09-26T09:02:16.000Z</time>
      </trkpt>
      <trkpt lat="43.47878" lon="6.87028">
        <ele>202.19999694824</ele>
        <time>2023-09-26T09:02:24.000Z</time>
      </trkpt>
      <trkpt lat="43.47878" lon="6.87068">
        <ele>201.60000610352</ele>
        <time>2023-09-26T09:02:31.000Z</time>
      </trkpt>
      <trkpt lat="43.47874" lon="6.87109">
        <ele>201.80000305176</ele>
        <time>2023-09-26T09:02:38.000Z</time>
      </trkpt>
      <trkpt lat="43.4787" lon="6.87159">
        <ele>201.80000305176</ele>
        <time>2023-09-26T09:02:47.000Z</time>
      </trkpt>
      <trkpt lat="43.4787" lon="6.87192">
        <ele>202.19999694824</ele>
        <time>2023-09-26T09:02:53.000Z</time>
      </trkpt>
      <trkpt lat="43.4787" lon="6.87197">
        <ele>202.19999694824</ele>
        <time>2023-09-26T09:02:54.000Z</time>
      </trkpt>
      <trkpt lat="43.47873" lon="6.87241">
        <ele>202</ele>
        <time>2023-09-26T09:03:02.000Z</time>
      </trkpt>
      <trkpt lat="43.47883" lon="6.87276">
        <ele>201.80000305176</ele>
        <time>2023-09-26T09:03:09.000Z</time>
      </trkpt>
      <trkpt lat="43.47907" lon="6.87319">
        <ele>201.80000305176</ele>
        <time>2023-09-26T09:03:18.000Z</time>
      </trkpt>
      <trkpt lat="43.47937" lon="6.87351">
        <ele>201.80000305176</ele>
        <time>2023-09-26T09:03:27.000Z</time>
      </trkpt>
      <trkpt lat="43.47964" lon="6.87361">
        <ele>201.80000305176</ele>
        <time>2023-09-26T09:03:34.000Z</time>
      </trkpt>
      <trkpt lat="43.47996" lon="6.87363">
        <ele>201.80000305176</ele>
        <time>2023-09-26T09:03:42.000Z</time>
      </trkpt>
      <trkpt lat="43.48031" lon="6.87368">
        <ele>201.80000305176</ele>
        <time>2023-09-26T09:03:51.000Z</time>
      </trkpt>
      <trkpt lat="43.48075" lon="6.87374">
        <ele>202</ele>
        <time>2023-09-26T09:04:02.000Z</time>
      </trkpt>
      <trkpt lat="43.48108" lon="6.87375">
        <ele>202</ele>
        <time>2023-09-26T09:04:10.000Z</time>
      </trkpt>
      <trkpt lat="43.48112" lon="6.87374">
        <ele>202</ele>
        <time>2023-09-26T09:04:11.000Z</time>
      </trkpt>
      <trkpt lat="43.48119" lon="6.87372">
        <ele>201.80000305176</ele>
        <time>2023-09-26T09:04:13.000Z</time>
      </trkpt>
      <trkpt lat="43.48131" lon="6.87366">
        <ele>201.80000305176</ele>
        <time>2023-09-26T09:04:16.000Z</time>
      </trkpt>
      <trkpt lat="43.48152" lon="6.87345">
        <ele>202</ele>
        <time>2023-09-26T09:04:22.000Z</time>
      </trkpt>
      <trkpt lat="43.48158" lon="6.87337">
        <ele>202</ele>
        <time>2023-09-26T09:04:24.000Z</time>
      </trkpt>
      <trkpt lat="43.48182" lon="6.87304">
        <ele>201.80000305176</ele>
        <time>2023-09-26T09:04:32.000Z</time>
      </trkpt>
      <trkpt lat="43.48201" lon="6.87271">
        <ele>201.19999694824</ele>
        <time>2023-09-26T09:04:39.000Z</time>
      </trkpt>
      <trkpt lat="43.48206" lon="6.87262">
        <ele>201.19999694824</ele>
        <time>2023-09-26T09:04:41.000Z</time>
      </trkpt>
      <trkpt lat="43.48216" lon="6.87244">
        <ele>201</ele>
        <time>2023-09-26T09:04:45.000Z</time>
      </trkpt>
      <trkpt lat="43.48225" lon="6.87226">
        <ele>201</ele>
        <time>2023-09-26T09:04:49.000Z</time>
      </trkpt>
      <trkpt lat="43.48241" lon="6.87195">
        <ele>200.39999389648</ele>
        <time>2023-09-26T09:04:56.000Z</time>
      </trkpt>
      <trkpt lat="43.48249" lon="6.87181">
        <ele>200.60000610352</ele>
        <time>2023-09-26T09:04:59.000Z</time>
      </trkpt>
      <trkpt lat="43.48254" lon="6.87173">
        <ele>200.60000610352</ele>
        <time>2023-09-26T09:05:01.000Z</time>
      </trkpt>
      <trkpt lat="43.48257" lon="6.87168">
        <ele>200.60000610352</ele>
        <time>2023-09-26T09:05:02.000Z</time>
      </trkpt>
      <trkpt lat="43.48273" lon="6.87137">
        <ele>200.60000610352</ele>
        <time>2023-09-26T09:05:09.000Z</time>
      </trkpt>
      <trkpt lat="43.4828" lon="6.87122">
        <ele>200.60000610352</ele>
        <time>2023-09-26T09:05:12.000Z</time>
      </trkpt>
      <trkpt lat="43.48294" lon="6.87085">
        <ele>200.80000305176</ele>
        <time>2023-09-26T09:05:19.000Z</time>
      </trkpt>
      <trkpt lat="43.483" lon="6.87063">
        <ele>200.60000610352</ele>
        <time>2023-09-26T09:05:23.000Z</time>
      </trkpt>
      <trkpt lat="43.48301" lon="6.87052">
        <ele>200.39999389648</ele>
        <time>2023-09-26T09:05:25.000Z</time>
      </trkpt>
      <trkpt lat="43.48302" lon="6.87046">
        <ele>200.39999389648</ele>
        <time>2023-09-26T09:05:26.000Z</time>
      </trkpt>
      <trkpt lat="43.48301" lon="6.87014">
        <ele>200.60000610352</ele>
        <time>2023-09-26T09:05:32.000Z</time>
      </trkpt>
      <trkpt lat="43.48305" lon="6.86995">
        <ele>200.39999389648</ele>
        <time>2023-09-26T09:05:36.000Z</time>
      </trkpt>
      <trkpt lat="43.4831" lon="6.86988">
        <ele>200.39999389648</ele>
        <time>2023-09-26T09:05:38.000Z</time>
      </trkpt>
      <trkpt lat="43.48319" lon="6.86979">
        <ele>200.39999389648</ele>
        <time>2023-09-26T09:05:41.000Z</time>
      </trkpt>
      <trkpt lat="43.48333" lon="6.8697">
        <ele>200.39999389648</ele>
        <time>2023-09-26T09:05:45.000Z</time>
      </trkpt>
      <trkpt lat="43.4834" lon="6.86965">
        <ele>200.39999389648</ele>
        <time>2023-09-26T09:05:47.000Z</time>
      </trkpt>
      <trkpt lat="43.48358" lon="6.86954">
        <ele>200</ele>
        <time>2023-09-26T09:05:52.000Z</time>
      </trkpt>
      <trkpt lat="43.48365" lon="6.86947">
        <ele>200</ele>
        <time>2023-09-26T09:05:54.000Z</time>
      </trkpt>
      <trkpt lat="43.48389" lon="6.86916">
        <ele>200</ele>
        <time>2023-09-26T09:06:02.000Z</time>
      </trkpt>
      <trkpt lat="43.48404" lon="6.86892">
        <ele>199.80000305176</ele>
        <time>2023-09-26T09:06:09.000Z</time>
      </trkpt>
      <trkpt lat="43.48405" lon="6.8689">
        <ele>199.60000610352</ele>
        <time>2023-09-26T09:06:10.000Z</time>
      </trkpt>
      <trkpt lat="43.48405" lon="6.8689">
        <ele>199.39999389648</ele>
        <time>2023-09-26T09:06:13.000Z</time>
      </trkpt>
      <trkpt lat="43.48405" lon="6.8689">
        <ele>198.80000305176</ele>
        <time>2023-09-26T09:06:36.000Z</time>
      </trkpt>
      <trkpt lat="43.48405" lon="6.8689">
        <ele>198.60000610352</ele>
        <time>2023-09-26T09:06:49.000Z</time>
      </trkpt>
      <trkpt lat="43.48405" lon="6.86889">
        <ele>197.80000305176</ele>
        <time>2023-09-26T09:08:19.000Z</time>
      </trkpt>
      <trkpt lat="43.48405" lon="6.86889">
        <ele>197.80000305176</ele>
        <time>2023-09-26T09:08:46.000Z</time>
      </trkpt>
      <trkpt lat="43.48405" lon="6.86889">
        <ele>197.80000305176</ele>
        <time>2023-09-26T09:09:14.000Z</time>
      </trkpt>
      <trkpt lat="43.48405" lon="6.86889">
        <ele>197.80000305176</ele>
        <time>2023-09-26T09:09:51.000Z</time>
      </trkpt>
      <trkpt lat="43.48405" lon="6.86889">
        <ele>197.80000305176</ele>
        <time>2023-09-26T09:10:25.000Z</time>
      </trkpt>
      <trkpt lat="43.48405" lon="6.86889">
        <ele>197.80000305176</ele>
        <time>2023-09-26T09:10:58.000Z</time>
      </trkpt>
      <trkpt lat="43.48405" lon="6.86889">
        <ele>197.80000305176</ele>
        <time>2023-09-26T09:11:30.000Z</time>
      </trkpt>
      <trkpt lat="43.48405" lon="6.86889">
        <ele>197.80000305176</ele>
        <time>2023-09-26T09:12:01.000Z</time>
      </trkpt>
      <trkpt lat="43.48405" lon="6.86889">
        <ele>198</ele>
        <time>2023-09-26T09:12:26.000Z</time>
      </trkpt>
      <trkpt lat="43.48411" lon="6.86892">
        <ele>198</ele>
        <time>2023-09-26T09:12:29.000Z</time>
      </trkpt>
      <trkpt lat="43.48426" lon="6.86891">
        <ele>198.19999694824</ele>
        <time>2023-09-26T09:12:35.000Z</time>
      </trkpt>
      <trkpt lat="43.48447" lon="6.86896">
        <ele>198.19999694824</ele>
        <time>2023-09-26T09:12:42.000Z</time>
      </trkpt>
      <trkpt lat="43.48469" lon="6.869">
        <ele>198.39999389648</ele>
        <time>2023-09-26T09:12:49.000Z</time>
      </trkpt>
      <trkpt lat="43.48501" lon="6.86899">
        <ele>198.80000305176</ele>
        <time>2023-09-26T09:12:58.000Z</time>
      </trkpt>
      <trkpt lat="43.48524" lon="6.86889">
        <ele>198.60000610352</ele>
        <time>2023-09-26T09:13:05.000Z</time>
      </trkpt>
      <trkpt lat="43.48558" lon="6.86864">
        <ele>199.80000305176</ele>
        <time>2023-09-26T09:13:15.000Z</time>
      </trkpt>
      <trkpt lat="43.48565" lon="6.86858">
        <ele>200</ele>
        <time>2023-09-26T09:13:17.000Z</time>
      </trkpt>
      <trkpt lat="43.48602" lon="6.86826">
        <ele>200.19999694824</ele>
        <time>2023-09-26T09:13:28.000Z</time>
      </trkpt>
      <trkpt lat="43.48613" lon="6.86818">
        <ele>200.39999389648</ele>
        <time>2023-09-26T09:13:31.000Z</time>
      </trkpt>
      <trkpt lat="43.48624" lon="6.8681">
        <ele>200.80000305176</ele>
        <time>2023-09-26T09:13:34.000Z</time>
      </trkpt>
      <trkpt lat="43.4863" lon="6.86804">
        <ele>200.80000305176</ele>
        <time>2023-09-26T09:13:36.000Z</time>
      </trkpt>
      <trkpt lat="43.48658" lon="6.86776">
        <ele>201.19999694824</ele>
        <time>2023-09-26T09:13:45.000Z</time>
      </trkpt>
      <trkpt lat="43.48685" lon="6.86753">
        <ele>201.60000610352</ele>
        <time>2023-09-26T09:13:53.000Z</time>
      </trkpt>
      <trkpt lat="43.48693" lon="6.86749">
        <ele>201.80000305176</ele>
        <time>2023-09-26T09:13:55.000Z</time>
      </trkpt>
      <trkpt lat="43.48701" lon="6.86747">
        <ele>201.80000305176</ele>
        <time>2023-09-26T09:13:57.000Z</time>
      </trkpt>
      <trkpt lat="43.48705" lon="6.86747">
        <ele>201.80000305176</ele>
        <time>2023-09-26T09:13:58.000Z</time>
      </trkpt>
      <trkpt lat="43.48713" lon="6.86748">
        <ele>202</ele>
        <time>2023-09-26T09:14:00.000Z</time>
      </trkpt>
      <trkpt lat="43.48724" lon="6.86755">
        <ele>202</ele>
        <time>2023-09-26T09:14:03.000Z</time>
      </trkpt>
      <trkpt lat="43.48746" lon="6.86779">
        <ele>202.39999389648</ele>
        <time>2023-09-26T09:14:10.000Z</time>
      </trkpt>
      <trkpt lat="43.48762" lon="6.86795">
        <ele>203</ele>
        <time>2023-09-26T09:14:15.000Z</time>
      </trkpt>
      <trkpt lat="43.48768" lon="6.86803">
        <ele>203</ele>
        <time>2023-09-26T09:14:17.000Z</time>
      </trkpt>
      <trkpt lat="43.48795" lon="6.86835">
        <ele>204</ele>
        <time>2023-09-26T09:14:26.000Z</time>
      </trkpt>
      <trkpt lat="43.48797" lon="6.86839">
        <ele>204.39999389648</ele>
        <time>2023-09-26T09:14:27.000Z</time>
      </trkpt>
      <trkpt lat="43.48808" lon="6.86854">
        <ele>205</ele>
        <time>2023-09-26T09:14:31.000Z</time>
      </trkpt>
      <trkpt lat="43.48814" lon="6.86861">
        <ele>205.39999389648</ele>
        <time>2023-09-26T09:14:33.000Z</time>
      </trkpt>
      <trkpt lat="43.48817" lon="6.86865">
        <ele>205.60000610352</ele>
        <time>2023-09-26T09:14:34.000Z</time>
      </trkpt>
      <trkpt lat="43.4883" lon="6.86889">
        <ele>206.39999389648</ele>
        <time>2023-09-26T09:14:40.000Z</time>
      </trkpt>
      <trkpt lat="43.48834" lon="6.86899">
        <ele>206.60000610352</ele>
        <time>2023-09-26T09:14:42.000Z</time>
      </trkpt>
      <trkpt lat="43.4884" lon="6.86921">
        <ele>207.80000305176</ele>
        <time>2023-09-26T09:14:46.000Z</time>
      </trkpt>
      <trkpt lat="43.48845" lon="6.8694">
        <ele>208.60000610352</ele>
        <time>2023-09-26T09:14:50.000Z</time>
      </trkpt>
      <trkpt lat="43.48851" lon="6.86954">
        <ele>208.80000305176</ele>
        <time>2023-09-26T09:14:53.000Z</time>
      </trkpt>
      <trkpt lat="43.48861" lon="6.86978">
        <ele>209.39999389648</ele>
        <time>2023-09-26T09:14:58.000Z</time>
      </trkpt>
      <trkpt lat="43.48866" lon="6.86988">
        <ele>210</ele>
        <time>2023-09-26T09:15:00.000Z</time>
      </trkpt>
      <trkpt lat="43.48872" lon="6.87013">
        <ele>211.19999694824</ele>
        <time>2023-09-26T09:15:05.000Z</time>
      </trkpt>
      <trkpt lat="43.48874" lon="6.87029">
        <ele>211.19999694824</ele>
        <time>2023-09-26T09:15:08.000Z</time>
      </trkpt>
      <trkpt lat="43.48877" lon="6.8705">
        <ele>211.60000610352</ele>
        <time>2023-09-26T09:15:12.000Z</time>
      </trkpt>
      <trkpt lat="43.48879" lon="6.87067">
        <ele>212</ele>
        <time>2023-09-26T09:15:15.000Z</time>
      </trkpt>
      <trkpt lat="43.48883" lon="6.87094">
        <ele>212.80000305176</ele>
        <time>2023-09-26T09:15:20.000Z</time>
      </trkpt>
      <trkpt lat="43.48885" lon="6.87099">
        <ele>213</ele>
        <time>2023-09-26T09:15:21.000Z</time>
      </trkpt>
      <trkpt lat="43.48886" lon="6.87103">
        <ele>213</ele>
        <time>2023-09-26T09:15:22.000Z</time>
      </trkpt>
      <trkpt lat="43.4889" lon="6.87113">
        <ele>213.19999694824</ele>
        <time>2023-09-26T09:15:24.000Z</time>
      </trkpt>
      <trkpt lat="43.48897" lon="6.87132">
        <ele>214.19999694824</ele>
        <time>2023-09-26T09:15:28.000Z</time>
      </trkpt>
      <trkpt lat="43.48899" lon="6.87137">
        <ele>214.39999389648</ele>
        <time>2023-09-26T09:15:29.000Z</time>
      </trkpt>
      <trkpt lat="43.4891" lon="6.87171">
        <ele>215.19999694824</ele>
        <time>2023-09-26T09:15:36.000Z</time>
      </trkpt>
      <trkpt lat="43.48911" lon="6.87176">
        <ele>215.19999694824</ele>
        <time>2023-09-26T09:15:37.000Z</time>
      </trkpt>
      <trkpt lat="43.48915" lon="6.87203">
        <ele>216.19999694824</ele>
        <time>2023-09-26T09:15:42.000Z</time>
      </trkpt>
      <trkpt lat="43.48915" lon="6.87208">
        <ele>216.39999389648</ele>
        <time>2023-09-26T09:15:43.000Z</time>
      </trkpt>
      <trkpt lat="43.48917" lon="6.87218">
        <ele>216.60000610352</ele>
        <time>2023-09-26T09:15:45.000Z</time>
      </trkpt>
      <trkpt lat="43.48923" lon="6.87239">
        <ele>217.19999694824</ele>
        <time>2023-09-26T09:15:49.000Z</time>
      </trkpt>
      <trkpt lat="43.48931" lon="6.87257">
        <ele>217.80000305176</ele>
        <time>2023-09-26T09:15:53.000Z</time>
      </trkpt>
      <trkpt lat="43.48938" lon="6.8727">
        <ele>218.19999694824</ele>
        <time>2023-09-26T09:15:56.000Z</time>
      </trkpt>
      <trkpt lat="43.48953" lon="6.87294">
        <ele>218.80000305176</ele>
        <time>2023-09-26T09:16:02.000Z</time>
      </trkpt>
      <trkpt lat="43.48964" lon="6.87314">
        <ele>219.60000610352</ele>
        <time>2023-09-26T09:16:07.000Z</time>
      </trkpt>
      <trkpt lat="43.48971" lon="6.87321">
        <ele>220.19999694824</ele>
        <time>2023-09-26T09:16:09.000Z</time>
      </trkpt>
      <trkpt lat="43.48978" lon="6.87324">
        <ele>220.60000610352</ele>
        <time>2023-09-26T09:16:11.000Z</time>
      </trkpt>
      <trkpt lat="43.48986" lon="6.87324">
        <ele>221.19999694824</ele>
        <time>2023-09-26T09:16:13.000Z</time>
      </trkpt>
      <trkpt lat="43.48992" lon="6.8732">
        <ele>221.60000610352</ele>
        <time>2023-09-26T09:16:15.000Z</time>
      </trkpt>
      <trkpt lat="43.49001" lon="6.8731">
        <ele>222</ele>
        <time>2023-09-26T09:16:18.000Z</time>
      </trkpt>
      <trkpt lat="43.49008" lon="6.87307">
        <ele>222.19999694824</ele>
        <time>2023-09-26T09:16:20.000Z</time>
      </trkpt>
      <trkpt lat="43.49012" lon="6.8731">
        <ele>222.39999389648</ele>
        <time>2023-09-26T09:16:21.000Z</time>
      </trkpt>
      <trkpt lat="43.49014" lon="6.87313">
        <ele>222.80000305176</ele>
        <time>2023-09-26T09:16:22.000Z</time>
      </trkpt>
      <trkpt lat="43.49028" lon="6.87334">
        <ele>223.39999389648</ele>
        <time>2023-09-26T09:16:27.000Z</time>
      </trkpt>
      <trkpt lat="43.49037" lon="6.87343">
        <ele>223.80000305176</ele>
        <time>2023-09-26T09:16:30.000Z</time>
      </trkpt>
      <trkpt lat="43.49043" lon="6.8735">
        <ele>224.39999389648</ele>
        <time>2023-09-26T09:16:32.000Z</time>
      </trkpt>
      <trkpt lat="43.49048" lon="6.87359">
        <ele>224.80000305176</ele>
        <time>2023-09-26T09:16:34.000Z</time>
      </trkpt>
      <trkpt lat="43.49073" lon="6.87392">
        <ele>226</ele>
        <time>2023-09-26T09:16:43.000Z</time>
      </trkpt>
      <trkpt lat="43.49084" lon="6.87397">
        <ele>227.19999694824</ele>
        <time>2023-09-26T09:16:46.000Z</time>
      </trkpt>
      <trkpt lat="43.49098" lon="6.87397">
        <ele>227.60000610352</ele>
        <time>2023-09-26T09:16:50.000Z</time>
      </trkpt>
      <trkpt lat="43.49111" lon="6.87386">
        <ele>228.19999694824</ele>
        <time>2023-09-26T09:16:54.000Z</time>
      </trkpt>
      <trkpt lat="43.49117" lon="6.87378">
        <ele>228.39999389648</ele>
        <time>2023-09-26T09:16:56.000Z</time>
      </trkpt>
      <trkpt lat="43.49122" lon="6.8737">
        <ele>229.19999694824</ele>
        <time>2023-09-26T09:16:58.000Z</time>
      </trkpt>
      <trkpt lat="43.4913" lon="6.87359">
        <ele>229.80000305176</ele>
        <time>2023-09-26T09:17:01.000Z</time>
      </trkpt>
      <trkpt lat="43.49143" lon="6.87345">
        <ele>230.19999694824</ele>
        <time>2023-09-26T09:17:05.000Z</time>
      </trkpt>
      <trkpt lat="43.49174" lon="6.87311">
        <ele>231</ele>
        <time>2023-09-26T09:17:15.000Z</time>
      </trkpt>
      <trkpt lat="43.49179" lon="6.87302">
        <ele>231.19999694824</ele>
        <time>2023-09-26T09:17:17.000Z</time>
      </trkpt>
      <trkpt lat="43.49184" lon="6.87287">
        <ele>231.19999694824</ele>
        <time>2023-09-26T09:17:20.000Z</time>
      </trkpt>
      <trkpt lat="43.49188" lon="6.87276">
        <ele>231.19999694824</ele>
        <time>2023-09-26T09:17:22.000Z</time>
      </trkpt>
      <trkpt lat="43.49195" lon="6.87252">
        <ele>231.60000610352</ele>
        <time>2023-09-26T09:17:27.000Z</time>
      </trkpt>
      <trkpt lat="43.49202" lon="6.87227">
        <ele>232</ele>
        <time>2023-09-26T09:17:32.000Z</time>
      </trkpt>
      <trkpt lat="43.49205" lon="6.87216">
        <ele>232.39999389648</ele>
        <time>2023-09-26T09:17:34.000Z</time>
      </trkpt>
      <trkpt lat="43.49208" lon="6.87205">
        <ele>232.80000305176</ele>
        <time>2023-09-26T09:17:36.000Z</time>
      </trkpt>
      <trkpt lat="43.49219" lon="6.87153">
        <ele>233.19999694824</ele>
        <time>2023-09-26T09:17:46.000Z</time>
      </trkpt>
      <trkpt lat="43.4922" lon="6.87144">
        <ele>233.39999389648</ele>
        <time>2023-09-26T09:17:48.000Z</time>
      </trkpt>
      <trkpt lat="43.49219" lon="6.87134">
        <ele>233.60000610352</ele>
        <time>2023-09-26T09:17:51.000Z</time>
      </trkpt>
      <trkpt lat="43.49217" lon="6.87122">
        <ele>234.39999389648</ele>
        <time>2023-09-26T09:17:57.000Z</time>
      </trkpt>
      <trkpt lat="43.49217" lon="6.87122">
        <ele>234.39999389648</ele>
        <time>2023-09-26T09:17:58.000Z</time>
      </trkpt>
      <trkpt lat="43.49217" lon="6.87122">
        <ele>234.60000610352</ele>
        <time>2023-09-26T09:18:02.000Z</time>
      </trkpt>
      <trkpt lat="43.49217" lon="6.87122">
        <ele>234.19999694824</ele>
        <time>2023-09-26T09:18:24.000Z</time>
      </trkpt>
      <trkpt lat="43.49217" lon="6.87122">
        <ele>234.19999694824</ele>
        <time>2023-09-26T09:18:31.000Z</time>
      </trkpt>
      <trkpt lat="43.49216" lon="6.87118">
        <ele>234.39999389648</ele>
        <time>2023-09-26T09:18:34.000Z</time>
      </trkpt>
      <trkpt lat="43.49213" lon="6.87107">
        <ele>234.19999694824</ele>
        <time>2023-09-26T09:19:20.000Z</time>
      </trkpt>
      <trkpt lat="43.49212" lon="6.87105">
        <ele>234.39999389648</ele>
        <time>2023-09-26T09:19:21.000Z</time>
      </trkpt>
      <trkpt lat="43.49202" lon="6.87091">
        <ele>234.39999389648</ele>
        <time>2023-09-26T09:19:26.000Z</time>
      </trkpt>
      <trkpt lat="43.49189" lon="6.87083">
        <ele>234.60000610352</ele>
        <time>2023-09-26T09:19:31.000Z</time>
      </trkpt>
      <trkpt lat="43.49187" lon="6.87081">
        <ele>234.60000610352</ele>
        <time>2023-09-26T09:19:32.000Z</time>
      </trkpt>
      <trkpt lat="43.49186" lon="6.87072">
        <ele>234.60000610352</ele>
        <time>2023-09-26T09:19:34.000Z</time>
      </trkpt>
      <trkpt lat="43.49187" lon="6.87068">
        <ele>234.60000610352</ele>
        <time>2023-09-26T09:19:35.000Z</time>
      </trkpt>
      <trkpt lat="43.49188" lon="6.87064">
        <ele>234.60000610352</ele>
        <time>2023-09-26T09:19:36.000Z</time>
      </trkpt>
      <trkpt lat="43.49196" lon="6.87055">
        <ele>234.80000305176</ele>
        <time>2023-09-26T09:19:39.000Z</time>
      </trkpt>
      <trkpt lat="43.4922" lon="6.87042">
        <ele>235.39999389648</ele>
        <time>2023-09-26T09:19:47.000Z</time>
      </trkpt>
      <trkpt lat="43.49243" lon="6.87046">
        <ele>235.80000305176</ele>
        <time>2023-09-26T09:19:53.000Z</time>
      </trkpt>
      <trkpt lat="43.4927" lon="6.87062">
        <ele>236.39999389648</ele>
        <time>2023-09-26T09:20:01.000Z</time>
      </trkpt>
      <trkpt lat="43.49273" lon="6.87064">
        <ele>236.60000610352</ele>
        <time>2023-09-26T09:20:02.000Z</time>
      </trkpt>
      <trkpt lat="43.49302" lon="6.8707">
        <ele>237.19999694824</ele>
        <time>2023-09-26T09:20:10.000Z</time>
      </trkpt>
      <trkpt lat="43.49317" lon="6.87063">
        <ele>237.39999389648</ele>
        <time>2023-09-26T09:20:15.000Z</time>
      </trkpt>
      <trkpt lat="43.49319" lon="6.87061">
        <ele>237.39999389648</ele>
        <time>2023-09-26T09:20:16.000Z</time>
      </trkpt>
      <trkpt lat="43.49322" lon="6.8706">
        <ele>237.60000610352</ele>
        <time>2023-09-26T09:20:17.000Z</time>
      </trkpt>
      <trkpt lat="43.49324" lon="6.87057">
        <ele>238</ele>
        <time>2023-09-26T09:20:21.000Z</time>
      </trkpt>
      <trkpt lat="43.49324" lon="6.87057">
        <ele>238.39999389648</ele>
        <time>2023-09-26T09:20:24.000Z</time>
      </trkpt>
      <trkpt lat="43.49324" lon="6.87057">
        <ele>238.19999694824</ele>
        <time>2023-09-26T09:20:45.000Z</time>
      </trkpt>
      <trkpt lat="43.4933" lon="6.87054">
        <ele>238.19999694824</ele>
        <time>2023-09-26T09:21:35.000Z</time>
      </trkpt>
      <trkpt lat="43.49347" lon="6.87048">
        <ele>238.60000610352</ele>
        <time>2023-09-26T09:21:41.000Z</time>
      </trkpt>
      <trkpt lat="43.49356" lon="6.87053">
        <ele>239.39999389648</ele>
        <time>2023-09-26T09:21:44.000Z</time>
      </trkpt>
      <trkpt lat="43.49361" lon="6.87058">
        <ele>239.80000305176</ele>
        <time>2023-09-26T09:21:46.000Z</time>
      </trkpt>
      <trkpt lat="43.49368" lon="6.8707">
        <ele>240.80000305176</ele>
        <time>2023-09-26T09:21:50.000Z</time>
      </trkpt>
      <trkpt lat="43.49369" lon="6.87076">
        <ele>241.19999694824</ele>
        <time>2023-09-26T09:21:52.000Z</time>
      </trkpt>
      <trkpt lat="43.49373" lon="6.87087">
        <ele>242</ele>
        <time>2023-09-26T09:21:55.000Z</time>
      </trkpt>
      <trkpt lat="43.49378" lon="6.87107">
        <ele>243</ele>
        <time>2023-09-26T09:22:00.000Z</time>
      </trkpt>
      <trkpt lat="43.49379" lon="6.8711">
        <ele>243.19999694824</ele>
        <time>2023-09-26T09:22:01.000Z</time>
      </trkpt>
      <trkpt lat="43.49388" lon="6.87118">
        <ele>244.39999389648</ele>
        <time>2023-09-26T09:22:05.000Z</time>
      </trkpt>
      <trkpt lat="43.49396" lon="6.87119">
        <ele>245.39999389648</ele>
        <time>2023-09-26T09:22:09.000Z</time>
      </trkpt>
      <trkpt lat="43.49399" lon="6.8712">
        <ele>246.19999694824</ele>
        <time>2023-09-26T09:22:12.000Z</time>
      </trkpt>
      <trkpt lat="43.49399" lon="6.8712">
        <ele>246.60000610352</ele>
        <time>2023-09-26T09:22:14.000Z</time>
      </trkpt>
      <trkpt lat="43.49401" lon="6.87123">
        <ele>246.80000305176</ele>
        <time>2023-09-26T09:22:25.000Z</time>
      </trkpt>
      <trkpt lat="43.49401" lon="6.87125">
        <ele>246.80000305176</ele>
        <time>2023-09-26T09:22:26.000Z</time>
      </trkpt>
      <trkpt lat="43.494" lon="6.8713">
        <ele>246.80000305176</ele>
        <time>2023-09-26T09:22:29.000Z</time>
      </trkpt>
      <trkpt lat="43.49399" lon="6.87131">
        <ele>246.80000305176</ele>
        <time>2023-09-26T09:22:30.000Z</time>
      </trkpt>
      <trkpt lat="43.49397" lon="6.87133">
        <ele>246.80000305176</ele>
        <time>2023-09-26T09:22:31.000Z</time>
      </trkpt>
      <trkpt lat="43.49396" lon="6.87132">
        <ele>247</ele>
        <time>2023-09-26T09:22:34.000Z</time>
      </trkpt>
      <trkpt lat="43.49396" lon="6.87131">
        <ele>247.19999694824</ele>
        <time>2023-09-26T09:22:40.000Z</time>
      </trkpt>
      <trkpt lat="43.49396" lon="6.87131">
        <ele>247.39999389648</ele>
        <time>2023-09-26T09:22:52.000Z</time>
      </trkpt>
      <trkpt lat="43.49396" lon="6.87131">
        <ele>247.39999389648</ele>
        <time>2023-09-26T09:23:21.000Z</time>
      </trkpt>
      <trkpt lat="43.49397" lon="6.87128">
        <ele>247.39999389648</ele>
        <time>2023-09-26T09:23:25.000Z</time>
      </trkpt>
      <trkpt lat="43.49398" lon="6.87125">
        <ele>247.60000610352</ele>
        <time>2023-09-26T09:25:42.000Z</time>
      </trkpt>
      <trkpt lat="43.49398" lon="6.87125">
        <ele>247.80000305176</ele>
        <time>2023-09-26T09:26:52.000Z</time>
      </trkpt>
      <trkpt lat="43.49402" lon="6.87119">
        <ele>247.60000610352</ele>
        <time>2023-09-26T09:27:36.000Z</time>
      </trkpt>
      <trkpt lat="43.49414" lon="6.87105">
        <ele>247.60000610352</ele>
        <time>2023-09-26T09:27:41.000Z</time>
      </trkpt>
      <trkpt lat="43.49426" lon="6.87087">
        <ele>248.39999389648</ele>
        <time>2023-09-26T09:27:46.000Z</time>
      </trkpt>
      <trkpt lat="43.4943" lon="6.8708">
        <ele>248.39999389648</ele>
        <time>2023-09-26T09:27:48.000Z</time>
      </trkpt>
      <trkpt lat="43.4944" lon="6.87063">
        <ele>249.60000610352</ele>
        <time>2023-09-26T09:27:53.000Z</time>
      </trkpt>
      <trkpt lat="43.49444" lon="6.87055">
        <ele>250.19999694824</ele>
        <time>2023-09-26T09:27:55.000Z</time>
      </trkpt>
      <trkpt lat="43.49446" lon="6.87052">
        <ele>250.60000610352</ele>
        <time>2023-09-26T09:27:56.000Z</time>
      </trkpt>
      <trkpt lat="43.49456" lon="6.87033">
        <ele>251.60000610352</ele>
        <time>2023-09-26T09:28:01.000Z</time>
      </trkpt>
      <trkpt lat="43.49461" lon="6.87025">
        <ele>252.19999694824</ele>
        <time>2023-09-26T09:28:03.000Z</time>
      </trkpt>
      <trkpt lat="43.49466" lon="6.87017">
        <ele>252.60000610352</ele>
        <time>2023-09-26T09:28:05.000Z</time>
      </trkpt>
      <trkpt lat="43.49484" lon="6.86995">
        <ele>253.60000610352</ele>
        <time>2023-09-26T09:28:12.000Z</time>
      </trkpt>
      <trkpt lat="43.49487" lon="6.86991">
        <ele>253.80000305176</ele>
        <time>2023-09-26T09:28:13.000Z</time>
      </trkpt>
      <trkpt lat="43.49495" lon="6.86984">
        <ele>254.80000305176</ele>
        <time>2023-09-26T09:28:16.000Z</time>
      </trkpt>
      <trkpt lat="43.49507" lon="6.86973">
        <ele>255.60000610352</ele>
        <time>2023-09-26T09:28:20.000Z</time>
      </trkpt>
      <trkpt lat="43.49511" lon="6.8697">
        <ele>255.80000305176</ele>
        <time>2023-09-26T09:28:21.000Z</time>
      </trkpt>
      <trkpt lat="43.49526" lon="6.86962">
        <ele>257</ele>
        <time>2023-09-26T09:28:26.000Z</time>
      </trkpt>
      <trkpt lat="43.49532" lon="6.86956">
        <ele>257.20001220703</ele>
        <time>2023-09-26T09:28:28.000Z</time>
      </trkpt>
      <trkpt lat="43.49539" lon="6.86945">
        <ele>258</ele>
        <time>2023-09-26T09:28:31.000Z</time>
      </trkpt>
      <trkpt lat="43.49546" lon="6.86929">
        <ele>259</ele>
        <time>2023-09-26T09:28:35.000Z</time>
      </trkpt>
      <trkpt lat="43.49547" lon="6.86925">
        <ele>259.39999389648</ele>
        <time>2023-09-26T09:28:36.000Z</time>
      </trkpt>
      <trkpt lat="43.49554" lon="6.86905">
        <ele>260.60000610352</ele>
        <time>2023-09-26T09:28:41.000Z</time>
      </trkpt>
      <trkpt lat="43.49556" lon="6.869">
        <ele>260.79998779297</ele>
        <time>2023-09-26T09:28:42.000Z</time>
      </trkpt>
      <trkpt lat="43.49562" lon="6.86883">
        <ele>261.60000610352</ele>
        <time>2023-09-26T09:28:46.000Z</time>
      </trkpt>
      <trkpt lat="43.49566" lon="6.86873">
        <ele>262.20001220703</ele>
        <time>2023-09-26T09:28:49.000Z</time>
      </trkpt>
      <trkpt lat="43.49568" lon="6.86868">
        <ele>262.79998779297</ele>
        <time>2023-09-26T09:28:50.000Z</time>
      </trkpt>
      <trkpt lat="43.49572" lon="6.86856">
        <ele>263.79998779297</ele>
        <time>2023-09-26T09:28:53.000Z</time>
      </trkpt>
      <trkpt lat="43.49575" lon="6.86849">
        <ele>264.79998779297</ele>
        <time>2023-09-26T09:28:55.000Z</time>
      </trkpt>
      <trkpt lat="43.49576" lon="6.86845">
        <ele>265</ele>
        <time>2023-09-26T09:28:56.000Z</time>
      </trkpt>
      <trkpt lat="43.49591" lon="6.86813">
        <ele>266</ele>
        <time>2023-09-26T09:29:05.000Z</time>
      </trkpt>
      <trkpt lat="43.49596" lon="6.86802">
        <ele>267</ele>
        <time>2023-09-26T09:29:08.000Z</time>
      </trkpt>
      <trkpt lat="43.49605" lon="6.86782">
        <ele>268</ele>
        <time>2023-09-26T09:29:13.000Z</time>
      </trkpt>
      <trkpt lat="43.49615" lon="6.86763">
        <ele>269.20001220703</ele>
        <time>2023-09-26T09:29:18.000Z</time>
      </trkpt>
      <trkpt lat="43.49621" lon="6.86753">
        <ele>269.60000610352</ele>
        <time>2023-09-26T09:29:21.000Z</time>
      </trkpt>
      <trkpt lat="43.49625" lon="6.86742">
        <ele>270.20001220703</ele>
        <time>2023-09-26T09:29:24.000Z</time>
      </trkpt>
      <trkpt lat="43.4963" lon="6.8673">
        <ele>271.20001220703</ele>
        <time>2023-09-26T09:29:27.000Z</time>
      </trkpt>
      <trkpt lat="43.49632" lon="6.86726">
        <ele>271.39999389648</ele>
        <time>2023-09-26T09:29:28.000Z</time>
      </trkpt>
      <trkpt lat="43.49636" lon="6.8671">
        <ele>272.39999389648</ele>
        <time>2023-09-26T09:29:32.000Z</time>
      </trkpt>
      <trkpt lat="43.4964" lon="6.86698">
        <ele>273</ele>
        <time>2023-09-26T09:29:35.000Z</time>
      </trkpt>
      <trkpt lat="43.49641" lon="6.86694">
        <ele>273.20001220703</ele>
        <time>2023-09-26T09:29:36.000Z</time>
      </trkpt>
      <trkpt lat="43.49643" lon="6.8669">
        <ele>273.39999389648</ele>
        <time>2023-09-26T09:29:37.000Z</time>
      </trkpt>
      <trkpt lat="43.49655" lon="6.86665">
        <ele>274.79998779297</ele>
        <time>2023-09-26T09:29:44.000Z</time>
      </trkpt>
      <trkpt lat="43.49657" lon="6.86661">
        <ele>275</ele>
        <time>2023-09-26T09:29:45.000Z</time>
      </trkpt>
      <trkpt lat="43.49663" lon="6.86645">
        <ele>276</ele>
        <time>2023-09-26T09:29:49.000Z</time>
      </trkpt>
      <trkpt lat="43.49668" lon="6.86636">
        <ele>276.20001220703</ele>
        <time>2023-09-26T09:29:51.000Z</time>
      </trkpt>
      <trkpt lat="43.49671" lon="6.86624">
        <ele>277</ele>
        <time>2023-09-26T09:29:54.000Z</time>
      </trkpt>
      <trkpt lat="43.49675" lon="6.86609">
        <ele>277.79998779297</ele>
        <time>2023-09-26T09:29:57.000Z</time>
      </trkpt>
      <trkpt lat="43.49676" lon="6.86605">
        <ele>278</ele>
        <time>2023-09-26T09:29:58.000Z</time>
      </trkpt>
      <trkpt lat="43.49682" lon="6.86587">
        <ele>279</ele>
        <time>2023-09-26T09:30:03.000Z</time>
      </trkpt>
      <trkpt lat="43.49686" lon="6.86568">
        <ele>280</ele>
        <time>2023-09-26T09:30:07.000Z</time>
      </trkpt>
      <trkpt lat="43.49692" lon="6.86551">
        <ele>280.79998779297</ele>
        <time>2023-09-26T09:30:11.000Z</time>
      </trkpt>
      <trkpt lat="43.49694" lon="6.86547">
        <ele>281</ele>
        <time>2023-09-26T09:30:12.000Z</time>
      </trkpt>
      <trkpt lat="43.49703" lon="6.86527">
        <ele>281.60000610352</ele>
        <time>2023-09-26T09:30:17.000Z</time>
      </trkpt>
      <trkpt lat="43.49706" lon="6.8652">
        <ele>282.39999389648</ele>
        <time>2023-09-26T09:30:19.000Z</time>
      </trkpt>
      <trkpt lat="43.49715" lon="6.86499">
        <ele>283.60000610352</ele>
        <time>2023-09-26T09:30:24.000Z</time>
      </trkpt>
      <trkpt lat="43.49717" lon="6.86495">
        <ele>283.79998779297</ele>
        <time>2023-09-26T09:30:25.000Z</time>
      </trkpt>
      <trkpt lat="43.49723" lon="6.86481">
        <ele>284.79998779297</ele>
        <time>2023-09-26T09:30:29.000Z</time>
      </trkpt>
      <trkpt lat="43.49729" lon="6.8647">
        <ele>286</ele>
        <time>2023-09-26T09:30:32.000Z</time>
      </trkpt>
      <trkpt lat="43.49731" lon="6.86466">
        <ele>286.20001220703</ele>
        <time>2023-09-26T09:30:33.000Z</time>
      </trkpt>
      <trkpt lat="43.49736" lon="6.86454">
        <ele>287</ele>
        <time>2023-09-26T09:30:36.000Z</time>
      </trkpt>
      <trkpt lat="43.49746" lon="6.86436">
        <ele>287.79998779297</ele>
        <time>2023-09-26T09:30:41.000Z</time>
      </trkpt>
      <trkpt lat="43.49751" lon="6.86428">
        <ele>288.20001220703</ele>
        <time>2023-09-26T09:30:44.000Z</time>
      </trkpt>
      <trkpt lat="43.49759" lon="6.86415">
        <ele>289.20001220703</ele>
        <time>2023-09-26T09:30:48.000Z</time>
      </trkpt>
      <trkpt lat="43.49764" lon="6.8641">
        <ele>289.60000610352</ele>
        <time>2023-09-26T09:30:50.000Z</time>
      </trkpt>
      <trkpt lat="43.49771" lon="6.86402">
        <ele>290.60000610352</ele>
        <time>2023-09-26T09:30:53.000Z</time>
      </trkpt>
      <trkpt lat="43.49782" lon="6.86391">
        <ele>291.79998779297</ele>
        <time>2023-09-26T09:30:57.000Z</time>
      </trkpt>
      <trkpt lat="43.49795" lon="6.8638">
        <ele>292.79998779297</ele>
        <time>2023-09-26T09:31:02.000Z</time>
      </trkpt>
      <trkpt lat="43.49804" lon="6.86373">
        <ele>293.39999389648</ele>
        <time>2023-09-26T09:31:05.000Z</time>
      </trkpt>
      <trkpt lat="43.4981" lon="6.86369">
        <ele>294</ele>
        <time>2023-09-26T09:31:07.000Z</time>
      </trkpt>
      <trkpt lat="43.49826" lon="6.86357">
        <ele>295</ele>
        <time>2023-09-26T09:31:13.000Z</time>
      </trkpt>
      <trkpt lat="43.49829" lon="6.86355">
        <ele>295.20001220703</ele>
        <time>2023-09-26T09:31:14.000Z</time>
      </trkpt>
      <trkpt lat="43.49843" lon="6.86348">
        <ele>296.20001220703</ele>
        <time>2023-09-26T09:31:19.000Z</time>
      </trkpt>
      <trkpt lat="43.49849" lon="6.86345">
        <ele>296.39999389648</ele>
        <time>2023-09-26T09:31:21.000Z</time>
      </trkpt>
      <trkpt lat="43.49862" lon="6.86339">
        <ele>297</ele>
        <time>2023-09-26T09:31:25.000Z</time>
      </trkpt>
      <trkpt lat="43.49873" lon="6.86333">
        <ele>298.20001220703</ele>
        <time>2023-09-26T09:31:29.000Z</time>
      </trkpt>
      <trkpt lat="43.49875" lon="6.86331">
        <ele>298.39999389648</ele>
        <time>2023-09-26T09:31:30.000Z</time>
      </trkpt>
      <trkpt lat="43.49883" lon="6.86325">
        <ele>299.20001220703</ele>
        <time>2023-09-26T09:31:33.000Z</time>
      </trkpt>
      <trkpt lat="43.49888" lon="6.86322">
        <ele>300.20001220703</ele>
        <time>2023-09-26T09:31:35.000Z</time>
      </trkpt>
      <trkpt lat="43.4989" lon="6.86321">
        <ele>300.39999389648</ele>
        <time>2023-09-26T09:31:36.000Z</time>
      </trkpt>
      <trkpt lat="43.49892" lon="6.8632">
        <ele>300.60000610352</ele>
        <time>2023-09-26T09:31:37.000Z</time>
      </trkpt>
      <trkpt lat="43.49893" lon="6.86318">
        <ele>300.79998779297</ele>
        <time>2023-09-26T09:31:39.000Z</time>
      </trkpt>
      <trkpt lat="43.49893" lon="6.86318">
        <ele>301.20001220703</ele>
        <time>2023-09-26T09:31:41.000Z</time>
      </trkpt>
      <trkpt lat="43.49893" lon="6.86318">
        <ele>301.60000610352</ele>
        <time>2023-09-26T09:31:45.000Z</time>
      </trkpt>
      <trkpt lat="43.49893" lon="6.86318">
        <ele>301.39999389648</ele>
        <time>2023-09-26T09:32:46.000Z</time>
      </trkpt>
      <trkpt lat="43.499" lon="6.86319">
        <ele>301.39999389648</ele>
        <time>2023-09-26T09:32:49.000Z</time>
      </trkpt>
      <trkpt lat="43.49916" lon="6.86325">
        <ele>301.79998779297</ele>
        <time>2023-09-26T09:32:56.000Z</time>
      </trkpt>
      <trkpt lat="43.49929" lon="6.8633">
        <ele>302.60000610352</ele>
        <time>2023-09-26T09:33:01.000Z</time>
      </trkpt>
      <trkpt lat="43.49935" lon="6.86334">
        <ele>303.20001220703</ele>
        <time>2023-09-26T09:33:04.000Z</time>
      </trkpt>
      <trkpt lat="43.49944" lon="6.86339">
        <ele>303.79998779297</ele>
        <time>2023-09-26T09:33:08.000Z</time>
      </trkpt>
      <trkpt lat="43.49962" lon="6.86347">
        <ele>305</ele>
        <time>2023-09-26T09:33:15.000Z</time>
      </trkpt>
      <trkpt lat="43.49971" lon="6.86352">
        <ele>306.20001220703</ele>
        <time>2023-09-26T09:33:19.000Z</time>
      </trkpt>
      <trkpt lat="43.49982" lon="6.86357">
        <ele>306.79998779297</ele>
        <time>2023-09-26T09:33:23.000Z</time>
      </trkpt>
      <trkpt lat="43.49989" lon="6.86362">
        <ele>307.20001220703</ele>
        <time>2023-09-26T09:33:26.000Z</time>
      </trkpt>
      <trkpt lat="43.49994" lon="6.86365">
        <ele>307.39999389648</ele>
        <time>2023-09-26T09:33:28.000Z</time>
      </trkpt>
      <trkpt lat="43.5001" lon="6.86372">
        <ele>308.39999389648</ele>
        <time>2023-09-26T09:33:34.000Z</time>
      </trkpt>
      <trkpt lat="43.50016" lon="6.86375">
        <ele>309</ele>
        <time>2023-09-26T09:33:36.000Z</time>
      </trkpt>
      <trkpt lat="43.50024" lon="6.86377">
        <ele>309.39999389648</ele>
        <time>2023-09-26T09:33:39.000Z</time>
      </trkpt>
      <trkpt lat="43.50027" lon="6.86377">
        <ele>309.39999389648</ele>
        <time>2023-09-26T09:33:40.000Z</time>
      </trkpt>
      <trkpt lat="43.50041" lon="6.86377">
        <ele>310.39999389648</ele>
        <time>2023-09-26T09:33:45.000Z</time>
      </trkpt>
      <trkpt lat="43.50047" lon="6.86374">
        <ele>311</ele>
        <time>2023-09-26T09:33:47.000Z</time>
      </trkpt>
      <trkpt lat="43.50055" lon="6.8637">
        <ele>311.39999389648</ele>
        <time>2023-09-26T09:33:50.000Z</time>
      </trkpt>
      <trkpt lat="43.50066" lon="6.86366">
        <ele>312.20001220703</ele>
        <time>2023-09-26T09:33:54.000Z</time>
      </trkpt>
      <trkpt lat="43.50069" lon="6.86365">
        <ele>312.60000610352</ele>
        <time>2023-09-26T09:33:55.000Z</time>
      </trkpt>
      <trkpt lat="43.50086" lon="6.86361">
        <ele>313.79998779297</ele>
        <time>2023-09-26T09:34:01.000Z</time>
      </trkpt>
      <trkpt lat="43.50098" lon="6.86357">
        <ele>315</ele>
        <time>2023-09-26T09:34:05.000Z</time>
      </trkpt>
      <trkpt lat="43.50109" lon="6.86355">
        <ele>316.20001220703</ele>
        <time>2023-09-26T09:34:09.000Z</time>
      </trkpt>
      <trkpt lat="43.50115" lon="6.86354">
        <ele>316.20001220703</ele>
        <time>2023-09-26T09:34:11.000Z</time>
      </trkpt>
      <trkpt lat="43.50136" lon="6.86357">
        <ele>317.20001220703</ele>
        <time>2023-09-26T09:34:18.000Z</time>
      </trkpt>
      <trkpt lat="43.50154" lon="6.86367">
        <ele>318.60000610352</ele>
        <time>2023-09-26T09:34:25.000Z</time>
      </trkpt>
      <trkpt lat="43.50159" lon="6.86374">
        <ele>319.79998779297</ele>
        <time>2023-09-26T09:34:28.000Z</time>
      </trkpt>
      <trkpt lat="43.50163" lon="6.8638">
        <ele>320.20001220703</ele>
        <time>2023-09-26T09:34:30.000Z</time>
      </trkpt>
      <trkpt lat="43.50172" lon="6.86397">
        <ele>321.20001220703</ele>
        <time>2023-09-26T09:34:36.000Z</time>
      </trkpt>
      <trkpt lat="43.50173" lon="6.864">
        <ele>321.39999389648</ele>
        <time>2023-09-26T09:34:37.000Z</time>
      </trkpt>
      <trkpt lat="43.50178" lon="6.86413">
        <ele>322.20001220703</ele>
        <time>2023-09-26T09:34:41.000Z</time>
      </trkpt>
      <trkpt lat="43.50181" lon="6.86421">
        <ele>323.20001220703</ele>
        <time>2023-09-26T09:34:44.000Z</time>
      </trkpt>
      <trkpt lat="43.50182" lon="6.86423">
        <ele>323.20001220703</ele>
        <time>2023-09-26T09:34:45.000Z</time>
      </trkpt>
      <trkpt lat="43.50185" lon="6.86434">
        <ele>324.20001220703</ele>
        <time>2023-09-26T09:34:49.000Z</time>
      </trkpt>
      <trkpt lat="43.50187" lon="6.8644">
        <ele>324.79998779297</ele>
        <time>2023-09-26T09:34:51.000Z</time>
      </trkpt>
      <trkpt lat="43.50189" lon="6.8645">
        <ele>326</ele>
        <time>2023-09-26T09:34:54.000Z</time>
      </trkpt>
      <trkpt lat="43.50192" lon="6.86457">
        <ele>326.20001220703</ele>
        <time>2023-09-26T09:34:56.000Z</time>
      </trkpt>
      <trkpt lat="43.50198" lon="6.86471">
        <ele>327.39999389648</ele>
        <time>2023-09-26T09:35:01.000Z</time>
      </trkpt>
      <trkpt lat="43.50203" lon="6.86481">
        <ele>328</ele>
        <time>2023-09-26T09:35:04.000Z</time>
      </trkpt>
      <trkpt lat="43.50206" lon="6.86485">
        <ele>328.60000610352</ele>
        <time>2023-09-26T09:35:06.000Z</time>
      </trkpt>
      <trkpt lat="43.5021" lon="6.86492">
        <ele>329.39999389648</ele>
        <time>2023-09-26T09:35:09.000Z</time>
      </trkpt>
      <trkpt lat="43.50213" lon="6.86495">
        <ele>329.79998779297</ele>
        <time>2023-09-26T09:35:10.000Z</time>
      </trkpt>
      <trkpt lat="43.50227" lon="6.86508">
        <ele>330.60000610352</ele>
        <time>2023-09-26T09:35:16.000Z</time>
      </trkpt>
      <trkpt lat="43.50229" lon="6.8651">
        <ele>331</ele>
        <time>2023-09-26T09:35:17.000Z</time>
      </trkpt>
      <trkpt lat="43.50236" lon="6.86513">
        <ele>332</ele>
        <time>2023-09-26T09:35:20.000Z</time>
      </trkpt>
      <trkpt lat="43.50246" lon="6.86514">
        <ele>332.79998779297</ele>
        <time>2023-09-26T09:35:24.000Z</time>
      </trkpt>
      <trkpt lat="43.50252" lon="6.86513">
        <ele>333</ele>
        <time>2023-09-26T09:35:26.000Z</time>
      </trkpt>
      <trkpt lat="43.50263" lon="6.8651">
        <ele>333.79998779297</ele>
        <time>2023-09-26T09:35:30.000Z</time>
      </trkpt>
      <trkpt lat="43.50266" lon="6.86509">
        <ele>334.20001220703</ele>
        <time>2023-09-26T09:35:31.000Z</time>
      </trkpt>
      <trkpt lat="43.50277" lon="6.865">
        <ele>335.20001220703</ele>
        <time>2023-09-26T09:35:36.000Z</time>
      </trkpt>
      <trkpt lat="43.50281" lon="6.86496">
        <ele>336</ele>
        <time>2023-09-26T09:35:38.000Z</time>
      </trkpt>
      <trkpt lat="43.50285" lon="6.86492">
        <ele>336.20001220703</ele>
        <time>2023-09-26T09:35:40.000Z</time>
      </trkpt>
      <trkpt lat="43.503" lon="6.86477">
        <ele>337.39999389648</ele>
        <time>2023-09-26T09:35:47.000Z</time>
      </trkpt>
      <trkpt lat="43.50302" lon="6.86475">
        <ele>337.39999389648</ele>
        <time>2023-09-26T09:35:48.000Z</time>
      </trkpt>
      <trkpt lat="43.50311" lon="6.86467">
        <ele>338.39999389648</ele>
        <time>2023-09-26T09:35:52.000Z</time>
      </trkpt>
      <trkpt lat="43.50319" lon="6.86462">
        <ele>339.39999389648</ele>
        <time>2023-09-26T09:35:55.000Z</time>
      </trkpt>
      <trkpt lat="43.50333" lon="6.86457">
        <ele>340.39999389648</ele>
        <time>2023-09-26T09:36:01.000Z</time>
      </trkpt>
      <trkpt lat="43.50338" lon="6.86456">
        <ele>340.79998779297</ele>
        <time>2023-09-26T09:36:03.000Z</time>
      </trkpt>
      <trkpt lat="43.50345" lon="6.86454">
        <ele>341.79998779297</ele>
        <time>2023-09-26T09:36:06.000Z</time>
      </trkpt>
      <trkpt lat="43.50357" lon="6.86451">
        <ele>343</ele>
        <time>2023-09-26T09:36:11.000Z</time>
      </trkpt>
      <trkpt lat="43.5036" lon="6.86451">
        <ele>343.20001220703</ele>
        <time>2023-09-26T09:36:12.000Z</time>
      </trkpt>
      <trkpt lat="43.50374" lon="6.86448">
        <ele>344.20001220703</ele>
        <time>2023-09-26T09:36:18.000Z</time>
      </trkpt>
      <trkpt lat="43.50381" lon="6.86446">
        <ele>344.60000610352</ele>
        <time>2023-09-26T09:36:21.000Z</time>
      </trkpt>
      <trkpt lat="43.5039" lon="6.86442">
        <ele>345.60000610352</ele>
        <time>2023-09-26T09:36:25.000Z</time>
      </trkpt>
      <trkpt lat="43.50401" lon="6.86435">
        <ele>346.79998779297</ele>
        <time>2023-09-26T09:36:30.000Z</time>
      </trkpt>
      <trkpt lat="43.50413" lon="6.86427">
        <ele>347.79998779297</ele>
        <time>2023-09-26T09:36:35.000Z</time>
      </trkpt>
      <trkpt lat="43.50421" lon="6.8642">
        <ele>349.20001220703</ele>
        <time>2023-09-26T09:36:39.000Z</time>
      </trkpt>
      <trkpt lat="43.50431" lon="6.86413">
        <ele>350.20001220703</ele>
        <time>2023-09-26T09:36:44.000Z</time>
      </trkpt>
      <trkpt lat="43.50436" lon="6.8641">
        <ele>350.60000610352</ele>
        <time>2023-09-26T09:36:46.000Z</time>
      </trkpt>
      <trkpt lat="43.50442" lon="6.86406">
        <ele>351.60000610352</ele>
        <time>2023-09-26T09:36:49.000Z</time>
      </trkpt>
      <trkpt lat="43.50452" lon="6.86398">
        <ele>353</ele>
        <time>2023-09-26T09:36:54.000Z</time>
      </trkpt>
      <trkpt lat="43.50454" lon="6.86397">
        <ele>353.20001220703</ele>
        <time>2023-09-26T09:36:55.000Z</time>
      </trkpt>
      <trkpt lat="43.50466" lon="6.86386">
        <ele>354</ele>
        <time>2023-09-26T09:37:02.000Z</time>
      </trkpt>
      <trkpt lat="43.50468" lon="6.86378">
        <ele>355.20001220703</ele>
        <time>2023-09-26T09:37:06.000Z</time>
      </trkpt>
      <trkpt lat="43.50468" lon="6.86377">
        <ele>355.39999389648</ele>
        <time>2023-09-26T09:37:07.000Z</time>
      </trkpt>
      <trkpt lat="43.50468" lon="6.86377">
        <ele>356.20001220703</ele>
        <time>2023-09-26T09:37:10.000Z</time>
      </trkpt>
      <trkpt lat="43.50468" lon="6.86377">
        <ele>356.79998779297</ele>
        <time>2023-09-26T09:37:18.000Z</time>
      </trkpt>
      <trkpt lat="43.50468" lon="6.86377">
        <ele>356.60000610352</ele>
        <time>2023-09-26T09:37:43.000Z</time>
      </trkpt>
      <trkpt lat="43.50466" lon="6.86387">
        <ele>356.39999389648</ele>
        <time>2023-09-26T09:37:46.000Z</time>
      </trkpt>
      <trkpt lat="43.50464" lon="6.86389">
        <ele>356.20001220703</ele>
        <time>2023-09-26T09:37:47.000Z</time>
      </trkpt>
      <trkpt lat="43.50459" lon="6.8639">
        <ele>355.79998779297</ele>
        <time>2023-09-26T09:37:49.000Z</time>
      </trkpt>
      <trkpt lat="43.50458" lon="6.86389">
        <ele>355.39999389648</ele>
        <time>2023-09-26T09:37:50.000Z</time>
      </trkpt>
      <trkpt lat="43.50456" lon="6.86385">
        <ele>354.79998779297</ele>
        <time>2023-09-26T09:37:52.000Z</time>
      </trkpt>
      <trkpt lat="43.50457" lon="6.86377">
        <ele>354.39999389648</ele>
        <time>2023-09-26T09:37:55.000Z</time>
      </trkpt>
      <trkpt lat="43.50458" lon="6.86352">
        <ele>354.79998779297</ele>
        <time>2023-09-26T09:38:04.000Z</time>
      </trkpt>
      <trkpt lat="43.50454" lon="6.86321">
        <ele>355.20001220703</ele>
        <time>2023-09-26T09:38:11.000Z</time>
      </trkpt>
      <trkpt lat="43.50443" lon="6.86289">
        <ele>356</ele>
        <time>2023-09-26T09:38:21.000Z</time>
      </trkpt>
      <trkpt lat="43.50432" lon="6.86267">
        <ele>356.39999389648</ele>
        <time>2023-09-26T09:38:28.000Z</time>
      </trkpt>
      <trkpt lat="43.50419" lon="6.8625">
        <ele>357</ele>
        <time>2023-09-26T09:38:35.000Z</time>
      </trkpt>
      <trkpt lat="43.50415" lon="6.86244">
        <ele>357.20001220703</ele>
        <time>2023-09-26T09:38:37.000Z</time>
      </trkpt>
      <trkpt lat="43.50413" lon="6.86234">
        <ele>357.60000610352</ele>
        <time>2023-09-26T09:38:41.000Z</time>
      </trkpt>
      <trkpt lat="43.50413" lon="6.86233">
        <ele>358</ele>
        <time>2023-09-26T09:38:46.000Z</time>
      </trkpt>
      <trkpt lat="43.50413" lon="6.86233">
        <ele>358.20001220703</ele>
        <time>2023-09-26T09:38:51.000Z</time>
      </trkpt>
      <trkpt lat="43.50413" lon="6.86233">
        <ele>357.79998779297</ele>
        <time>2023-09-26T09:39:41.000Z</time>
      </trkpt>
      <trkpt lat="43.50413" lon="6.86233">
        <ele>357.79998779297</ele>
        <time>2023-09-26T09:39:46.000Z</time>
      </trkpt>
      <trkpt lat="43.50413" lon="6.86233">
        <ele>357.79998779297</ele>
        <time>2023-09-26T09:39:50.000Z</time>
      </trkpt>
      <trkpt lat="43.50417" lon="6.86227">
        <ele>358</ele>
        <time>2023-09-26T09:39:53.000Z</time>
      </trkpt>
      <trkpt lat="43.50427" lon="6.8621">
        <ele>358.20001220703</ele>
        <time>2023-09-26T09:39:59.000Z</time>
      </trkpt>
      <trkpt lat="43.50434" lon="6.86186">
        <ele>358.79998779297</ele>
        <time>2023-09-26T09:40:06.000Z</time>
      </trkpt>
      <trkpt lat="43.50432" lon="6.86164">
        <ele>359.20001220703</ele>
        <time>2023-09-26T09:40:12.000Z</time>
      </trkpt>
      <trkpt lat="43.50431" lon="6.8616">
        <ele>359.20001220703</ele>
        <time>2023-09-26T09:40:13.000Z</time>
      </trkpt>
      <trkpt lat="43.50425" lon="6.86139">
        <ele>360.20001220703</ele>
        <time>2023-09-26T09:40:19.000Z</time>
      </trkpt>
      <trkpt lat="43.50421" lon="6.86128">
        <ele>361.20001220703</ele>
        <time>2023-09-26T09:40:22.000Z</time>
      </trkpt>
      <trkpt lat="43.50419" lon="6.86122">
        <ele>361.20001220703</ele>
        <time>2023-09-26T09:40:24.000Z</time>
      </trkpt>
      <trkpt lat="43.50413" lon="6.86098">
        <ele>362.20001220703</ele>
        <time>2023-09-26T09:40:31.000Z</time>
      </trkpt>
      <trkpt lat="43.50412" lon="6.86095">
        <ele>362.39999389648</ele>
        <time>2023-09-26T09:40:32.000Z</time>
      </trkpt>
      <trkpt lat="43.50406" lon="6.86071">
        <ele>363.20001220703</ele>
        <time>2023-09-26T09:40:39.000Z</time>
      </trkpt>
      <trkpt lat="43.50405" lon="6.86068">
        <ele>363.39999389648</ele>
        <time>2023-09-26T09:40:40.000Z</time>
      </trkpt>
      <trkpt lat="43.50397" lon="6.86051">
        <ele>364</ele>
        <time>2023-09-26T09:40:46.000Z</time>
      </trkpt>
      <trkpt lat="43.5039" lon="6.8604">
        <ele>364.39999389648</ele>
        <time>2023-09-26T09:40:50.000Z</time>
      </trkpt>
      <trkpt lat="43.50385" lon="6.8603">
        <ele>364.60000610352</ele>
        <time>2023-09-26T09:40:53.000Z</time>
      </trkpt>
      <trkpt lat="43.50368" lon="6.86">
        <ele>365.39999389648</ele>
        <time>2023-09-26T09:41:02.000Z</time>
      </trkpt>
      <trkpt lat="43.50366" lon="6.85996">
        <ele>365.39999389648</ele>
        <time>2023-09-26T09:41:03.000Z</time>
      </trkpt>
      <trkpt lat="43.50365" lon="6.85992">
        <ele>365.39999389648</ele>
        <time>2023-09-26T09:41:04.000Z</time>
      </trkpt>
      <trkpt lat="43.50357" lon="6.85966">
        <ele>365.39999389648</ele>
        <time>2023-09-26T09:41:10.000Z</time>
      </trkpt>
      <trkpt lat="43.50348" lon="6.85932">
        <ele>366.20001220703</ele>
        <time>2023-09-26T09:41:19.000Z</time>
      </trkpt>
      <trkpt lat="43.50347" lon="6.85928">
        <ele>366.60000610352</ele>
        <time>2023-09-26T09:41:20.000Z</time>
      </trkpt>
      <trkpt lat="43.50342" lon="6.85907">
        <ele>366.79998779297</ele>
        <time>2023-09-26T09:41:26.000Z</time>
      </trkpt>
      <trkpt lat="43.50338" lon="6.85886">
        <ele>367.39999389648</ele>
        <time>2023-09-26T09:41:32.000Z</time>
      </trkpt>
      <trkpt lat="43.50336" lon="6.85878">
        <ele>367.79998779297</ele>
        <time>2023-09-26T09:41:34.000Z</time>
      </trkpt>
      <trkpt lat="43.50327" lon="6.85855">
        <ele>368.79998779297</ele>
        <time>2023-09-26T09:41:40.000Z</time>
      </trkpt>
      <trkpt lat="43.50318" lon="6.85835">
        <ele>369</ele>
        <time>2023-09-26T09:41:45.000Z</time>
      </trkpt>
      <trkpt lat="43.50308" lon="6.8581">
        <ele>369.60000610352</ele>
        <time>2023-09-26T09:41:51.000Z</time>
      </trkpt>
      <trkpt lat="43.50304" lon="6.85802">
        <ele>370.20001220703</ele>
        <time>2023-09-26T09:41:53.000Z</time>
      </trkpt>
      <trkpt lat="43.50296" lon="6.85784">
        <ele>370.60000610352</ele>
        <time>2023-09-26T09:41:58.000Z</time>
      </trkpt>
      <trkpt lat="43.50287" lon="6.85757">
        <ele>371</ele>
        <time>2023-09-26T09:42:04.000Z</time>
      </trkpt>
      <trkpt lat="43.50283" lon="6.85745">
        <ele>371</ele>
        <time>2023-09-26T09:42:06.000Z</time>
      </trkpt>
      <trkpt lat="43.5028" lon="6.85732">
        <ele>371</ele>
        <time>2023-09-26T09:42:08.000Z</time>
      </trkpt>
      <trkpt lat="43.50279" lon="6.8572">
        <ele>370.79998779297</ele>
        <time>2023-09-26T09:42:10.000Z</time>
      </trkpt>
      <trkpt lat="43.50282" lon="6.85699">
        <ele>370</ele>
        <time>2023-09-26T09:42:14.000Z</time>
      </trkpt>
      <trkpt lat="43.50293" lon="6.85677">
        <ele>370</ele>
        <time>2023-09-26T09:42:20.000Z</time>
      </trkpt>
      <trkpt lat="43.50297" lon="6.85652">
        <ele>371.39999389648</ele>
        <time>2023-09-26T09:42:26.000Z</time>
      </trkpt>
      <trkpt lat="43.50298" lon="6.85647">
        <ele>371.60000610352</ele>
        <time>2023-09-26T09:42:27.000Z</time>
      </trkpt>
      <trkpt lat="43.503" lon="6.85625">
        <ele>372.60000610352</ele>
        <time>2023-09-26T09:42:32.000Z</time>
      </trkpt>
      <trkpt lat="43.503" lon="6.85612">
        <ele>373.60000610352</ele>
        <time>2023-09-26T09:42:35.000Z</time>
      </trkpt>
      <trkpt lat="43.50296" lon="6.85584">
        <ele>374.60000610352</ele>
        <time>2023-09-26T09:42:42.000Z</time>
      </trkpt>
      <trkpt lat="43.50294" lon="6.85572">
        <ele>374.79998779297</ele>
        <time>2023-09-26T09:42:45.000Z</time>
      </trkpt>
      <trkpt lat="43.50286" lon="6.85541">
        <ele>375.20001220703</ele>
        <time>2023-09-26T09:42:52.000Z</time>
      </trkpt>
      <trkpt lat="43.50283" lon="6.85529">
        <ele>375.60000610352</ele>
        <time>2023-09-26T09:42:55.000Z</time>
      </trkpt>
      <trkpt lat="43.50281" lon="6.85516">
        <ele>376</ele>
        <time>2023-09-26T09:42:58.000Z</time>
      </trkpt>
      <trkpt lat="43.50284" lon="6.85481">
        <ele>376.60000610352</ele>
        <time>2023-09-26T09:43:05.000Z</time>
      </trkpt>
      <trkpt lat="43.50289" lon="6.85456">
        <ele>377</ele>
        <time>2023-09-26T09:43:11.000Z</time>
      </trkpt>
      <trkpt lat="43.50297" lon="6.85422">
        <ele>377.20001220703</ele>
        <time>2023-09-26T09:43:19.000Z</time>
      </trkpt>
      <trkpt lat="43.50298" lon="6.85417">
        <ele>377.60000610352</ele>
        <time>2023-09-26T09:43:20.000Z</time>
      </trkpt>
      <trkpt lat="43.50302" lon="6.85395">
        <ele>378.60000610352</ele>
        <time>2023-09-26T09:43:25.000Z</time>
      </trkpt>
      <trkpt lat="43.50302" lon="6.8539">
        <ele>378.60000610352</ele>
        <time>2023-09-26T09:43:26.000Z</time>
      </trkpt>
      <trkpt lat="43.50305" lon="6.85349">
        <ele>379.79998779297</ele>
        <time>2023-09-26T09:43:34.000Z</time>
      </trkpt>
      <trkpt lat="43.50306" lon="6.85329">
        <ele>380.79998779297</ele>
        <time>2023-09-26T09:43:38.000Z</time>
      </trkpt>
      <trkpt lat="43.50309" lon="6.85312">
        <ele>382</ele>
        <time>2023-09-26T09:43:42.000Z</time>
      </trkpt>
      <trkpt lat="43.5031" lon="6.85308">
        <ele>382.20001220703</ele>
        <time>2023-09-26T09:43:43.000Z</time>
      </trkpt>
      <trkpt lat="43.50318" lon="6.85289">
        <ele>383.20001220703</ele>
        <time>2023-09-26T09:43:48.000Z</time>
      </trkpt>
      <trkpt lat="43.50321" lon="6.85287">
        <ele>383.60000610352</ele>
        <time>2023-09-26T09:43:49.000Z</time>
      </trkpt>
      <trkpt lat="43.50326" lon="6.85281">
        <ele>384.20001220703</ele>
        <time>2023-09-26T09:43:51.000Z</time>
      </trkpt>
      <trkpt lat="43.50329" lon="6.85279">
        <ele>384.39999389648</ele>
        <time>2023-09-26T09:43:52.000Z</time>
      </trkpt>
      <trkpt lat="43.50343" lon="6.85267">
        <ele>385.39999389648</ele>
        <time>2023-09-26T09:43:57.000Z</time>
      </trkpt>
      <trkpt lat="43.50359" lon="6.85255">
        <ele>386.60000610352</ele>
        <time>2023-09-26T09:44:03.000Z</time>
      </trkpt>
      <trkpt lat="43.50367" lon="6.8525">
        <ele>387.79998779297</ele>
        <time>2023-09-26T09:44:06.000Z</time>
      </trkpt>
      <trkpt lat="43.50385" lon="6.8524">
        <ele>389</ele>
        <time>2023-09-26T09:44:12.000Z</time>
      </trkpt>
      <trkpt lat="43.50392" lon="6.85237">
        <ele>389</ele>
        <time>2023-09-26T09:44:14.000Z</time>
      </trkpt>
      <trkpt lat="43.50412" lon="6.85233">
        <ele>389.79998779297</ele>
        <time>2023-09-26T09:44:20.000Z</time>
      </trkpt>
      <trkpt lat="43.50419" lon="6.85232">
        <ele>390.39999389648</ele>
        <time>2023-09-26T09:44:22.000Z</time>
      </trkpt>
      <trkpt lat="43.50425" lon="6.85229">
        <ele>391</ele>
        <time>2023-09-26T09:44:24.000Z</time>
      </trkpt>
      <trkpt lat="43.50429" lon="6.85222">
        <ele>391.39999389648</ele>
        <time>2023-09-26T09:44:26.000Z</time>
      </trkpt>
      <trkpt lat="43.50433" lon="6.8521">
        <ele>392.20001220703</ele>
        <time>2023-09-26T09:44:29.000Z</time>
      </trkpt>
      <trkpt lat="43.50434" lon="6.85202">
        <ele>392.79998779297</ele>
        <time>2023-09-26T09:44:31.000Z</time>
      </trkpt>
      <trkpt lat="43.50434" lon="6.85197">
        <ele>393.39999389648</ele>
        <time>2023-09-26T09:44:32.000Z</time>
      </trkpt>
      <trkpt lat="43.50433" lon="6.85181">
        <ele>394.39999389648</ele>
        <time>2023-09-26T09:44:36.000Z</time>
      </trkpt>
      <trkpt lat="43.50431" lon="6.85173">
        <ele>395</ele>
        <time>2023-09-26T09:44:38.000Z</time>
      </trkpt>
      <trkpt lat="43.50428" lon="6.85162">
        <ele>395.60000610352</ele>
        <time>2023-09-26T09:44:41.000Z</time>
      </trkpt>
      <trkpt lat="43.50423" lon="6.85146">
        <ele>396.20001220703</ele>
        <time>2023-09-26T09:44:45.000Z</time>
      </trkpt>
      <trkpt lat="43.50421" lon="6.85139">
        <ele>396.79998779297</ele>
        <time>2023-09-26T09:44:47.000Z</time>
      </trkpt>
      <trkpt lat="43.50415" lon="6.85114">
        <ele>398.20001220703</ele>
        <time>2023-09-26T09:44:53.000Z</time>
      </trkpt>
      <trkpt lat="43.50414" lon="6.8511">
        <ele>398.39999389648</ele>
        <time>2023-09-26T09:44:54.000Z</time>
      </trkpt>
      <trkpt lat="43.50408" lon="6.8509">
        <ele>399.39999389648</ele>
        <time>2023-09-26T09:44:59.000Z</time>
      </trkpt>
      <trkpt lat="43.50401" lon="6.85072">
        <ele>400.39999389648</ele>
        <time>2023-09-26T09:45:04.000Z</time>
      </trkpt>
      <trkpt lat="43.50394" lon="6.85055">
        <ele>401.60000610352</ele>
        <time>2023-09-26T09:45:09.000Z</time>
      </trkpt>
      <trkpt lat="43.50391" lon="6.8505">
        <ele>401.79998779297</ele>
        <time>2023-09-26T09:45:11.000Z</time>
      </trkpt>
      <trkpt lat="43.50384" lon="6.85039">
        <ele>402.60000610352</ele>
        <time>2023-09-26T09:45:15.000Z</time>
      </trkpt>
      <trkpt lat="43.5038" lon="6.85029">
        <ele>403</ele>
        <time>2023-09-26T09:45:18.000Z</time>
      </trkpt>
      <trkpt lat="43.50376" lon="6.85019">
        <ele>403.79998779297</ele>
        <time>2023-09-26T09:45:21.000Z</time>
      </trkpt>
      <trkpt lat="43.50374" lon="6.85">
        <ele>404.79998779297</ele>
        <time>2023-09-26T09:45:26.000Z</time>
      </trkpt>
      <trkpt lat="43.5038" lon="6.84984">
        <ele>405.39999389648</ele>
        <time>2023-09-26T09:45:31.000Z</time>
      </trkpt>
      <trkpt lat="43.5039" lon="6.8498">
        <ele>406</ele>
        <time>2023-09-26T09:45:35.000Z</time>
      </trkpt>
      <trkpt lat="43.50396" lon="6.84979">
        <ele>406.20001220703</ele>
        <time>2023-09-26T09:45:37.000Z</time>
      </trkpt>
      <trkpt lat="43.50418" lon="6.84981">
        <ele>406.60000610352</ele>
        <time>2023-09-26T09:45:44.000Z</time>
      </trkpt>
      <trkpt lat="43.50424" lon="6.84982">
        <ele>407</ele>
        <time>2023-09-26T09:45:46.000Z</time>
      </trkpt>
      <trkpt lat="43.50443" lon="6.84984">
        <ele>408</ele>
        <time>2023-09-26T09:45:52.000Z</time>
      </trkpt>
      <trkpt lat="43.5046" lon="6.84984">
        <ele>409</ele>
        <time>2023-09-26T09:45:57.000Z</time>
      </trkpt>
      <trkpt lat="43.50462" lon="6.84983">
        <ele>409.20001220703</ele>
        <time>2023-09-26T09:45:58.000Z</time>
      </trkpt>
      <trkpt lat="43.50479" lon="6.8497">
        <ele>410</ele>
        <time>2023-09-26T09:46:04.000Z</time>
      </trkpt>
      <trkpt lat="43.50482" lon="6.84967">
        <ele>410.20001220703</ele>
        <time>2023-09-26T09:46:05.000Z</time>
      </trkpt>
      <trkpt lat="43.50498" lon="6.84953">
        <ele>411.20001220703</ele>
        <time>2023-09-26T09:46:10.000Z</time>
      </trkpt>
      <trkpt lat="43.50501" lon="6.84947">
        <ele>411.60000610352</ele>
        <time>2023-09-26T09:46:12.000Z</time>
      </trkpt>
      <trkpt lat="43.50502" lon="6.84943">
        <ele>411.60000610352</ele>
        <time>2023-09-26T09:46:13.000Z</time>
      </trkpt>
      <trkpt lat="43.50499" lon="6.8493">
        <ele>411.79998779297</ele>
        <time>2023-09-26T09:46:16.000Z</time>
      </trkpt>
      <trkpt lat="43.50482" lon="6.84913">
        <ele>412</ele>
        <time>2023-09-26T09:46:22.000Z</time>
      </trkpt>
      <trkpt lat="43.5048" lon="6.84909">
        <ele>412.20001220703</ele>
        <time>2023-09-26T09:46:23.000Z</time>
      </trkpt>
      <trkpt lat="43.50471" lon="6.84893">
        <ele>412.79998779297</ele>
        <time>2023-09-26T09:46:27.000Z</time>
      </trkpt>
      <trkpt lat="43.50466" lon="6.84876">
        <ele>413.39999389648</ele>
        <time>2023-09-26T09:46:31.000Z</time>
      </trkpt>
      <trkpt lat="43.50465" lon="6.84862">
        <ele>413.60000610352</ele>
        <time>2023-09-26T09:46:34.000Z</time>
      </trkpt>
      <trkpt lat="43.50466" lon="6.84848">
        <ele>414.39999389648</ele>
        <time>2023-09-26T09:46:39.000Z</time>
      </trkpt>
      <trkpt lat="43.50466" lon="6.84848">
        <ele>414</ele>
        <time>2023-09-26T09:47:47.000Z</time>
      </trkpt>
      <trkpt lat="43.50466" lon="6.84848">
        <ele>414.20001220703</ele>
        <time>2023-09-26T09:47:53.000Z</time>
      </trkpt>
      <trkpt lat="43.50468" lon="6.8484">
        <ele>414.39999389648</ele>
        <time>2023-09-26T09:47:56.000Z</time>
      </trkpt>
      <trkpt lat="43.50475" lon="6.84814">
        <ele>414.79998779297</ele>
        <time>2023-09-26T09:48:03.000Z</time>
      </trkpt>
      <trkpt lat="43.50472" lon="6.84792">
        <ele>415</ele>
        <time>2023-09-26T09:48:08.000Z</time>
      </trkpt>
      <trkpt lat="43.5047" lon="6.84788">
        <ele>415.20001220703</ele>
        <time>2023-09-26T09:48:09.000Z</time>
      </trkpt>
      <trkpt lat="43.50459" lon="6.84772">
        <ele>416</ele>
        <time>2023-09-26T09:48:14.000Z</time>
      </trkpt>
      <trkpt lat="43.5045" lon="6.84747">
        <ele>416</ele>
        <time>2023-09-26T09:48:20.000Z</time>
      </trkpt>
      <trkpt lat="43.50449" lon="6.84738">
        <ele>416.20001220703</ele>
        <time>2023-09-26T09:48:22.000Z</time>
      </trkpt>
      <trkpt lat="43.50448" lon="6.84734">
        <ele>416.39999389648</ele>
        <time>2023-09-26T09:48:23.000Z</time>
      </trkpt>
      <trkpt lat="43.50447" lon="6.84691">
        <ele>416.79998779297</ele>
        <time>2023-09-26T09:48:32.000Z</time>
      </trkpt>
      <trkpt lat="43.50446" lon="6.84675">
        <ele>417.39999389648</ele>
        <time>2023-09-26T09:48:35.000Z</time>
      </trkpt>
      <trkpt lat="43.50447" lon="6.84651">
        <ele>418.20001220703</ele>
        <time>2023-09-26T09:48:40.000Z</time>
      </trkpt>
      <trkpt lat="43.50447" lon="6.84646">
        <ele>418.39999389648</ele>
        <time>2023-09-26T09:48:41.000Z</time>
      </trkpt>
      <trkpt lat="43.50446" lon="6.84615">
        <ele>419</ele>
        <time>2023-09-26T09:48:48.000Z</time>
      </trkpt>
      <trkpt lat="43.50446" lon="6.84606">
        <ele>419.39999389648</ele>
        <time>2023-09-26T09:48:50.000Z</time>
      </trkpt>
      <trkpt lat="43.50446" lon="6.84594">
        <ele>420</ele>
        <time>2023-09-26T09:48:54.000Z</time>
      </trkpt>
      <trkpt lat="43.50446" lon="6.84591">
        <ele>420</ele>
        <time>2023-09-26T09:48:56.000Z</time>
      </trkpt>
      <trkpt lat="43.50443" lon="6.84588">
        <ele>420</ele>
        <time>2023-09-26T09:48:59.000Z</time>
      </trkpt>
      <trkpt lat="43.50441" lon="6.84586">
        <ele>420.20001220703</ele>
        <time>2023-09-26T09:49:01.000Z</time>
      </trkpt>
      <trkpt lat="43.50439" lon="6.84584">
        <ele>420</ele>
        <time>2023-09-26T09:49:06.000Z</time>
      </trkpt>
      <trkpt lat="43.50439" lon="6.84584">
        <ele>419.79998779297</ele>
        <time>2023-09-26T09:49:51.000Z</time>
      </trkpt>
      <trkpt lat="43.50439" lon="6.84585">
        <ele>419.39999389648</ele>
        <time>2023-09-26T09:49:55.000Z</time>
      </trkpt>
      <trkpt lat="43.50439" lon="6.84586">
        <ele>419.39999389648</ele>
        <time>2023-09-26T09:49:56.000Z</time>
      </trkpt>
      <trkpt lat="43.50448" lon="6.8459">
        <ele>419.60000610352</ele>
        <time>2023-09-26T09:50:02.000Z</time>
      </trkpt>
      <trkpt lat="43.50449" lon="6.84589">
        <ele>419.60000610352</ele>
        <time>2023-09-26T09:50:03.000Z</time>
      </trkpt>
      <trkpt lat="43.50453" lon="6.84588">
        <ele>419.79998779297</ele>
        <time>2023-09-26T09:50:05.000Z</time>
      </trkpt>
      <trkpt lat="43.50455" lon="6.84584">
        <ele>419.79998779297</ele>
        <time>2023-09-26T09:50:07.000Z</time>
      </trkpt>
      <trkpt lat="43.5047" lon="6.84572">
        <ele>420.20001220703</ele>
        <time>2023-09-26T09:50:15.000Z</time>
      </trkpt>
      <trkpt lat="43.50477" lon="6.84567">
        <ele>420.60000610352</ele>
        <time>2023-09-26T09:50:18.000Z</time>
      </trkpt>
      <trkpt lat="43.50489" lon="6.84559">
        <ele>421.60000610352</ele>
        <time>2023-09-26T09:50:23.000Z</time>
      </trkpt>
      <trkpt lat="43.50499" lon="6.84553">
        <ele>421.79998779297</ele>
        <time>2023-09-26T09:50:27.000Z</time>
      </trkpt>
      <trkpt lat="43.50509" lon="6.84545">
        <ele>422.60000610352</ele>
        <time>2023-09-26T09:50:31.000Z</time>
      </trkpt>
      <trkpt lat="43.50512" lon="6.84544">
        <ele>423</ele>
        <time>2023-09-26T09:50:32.000Z</time>
      </trkpt>
      <trkpt lat="43.50524" lon="6.84539">
        <ele>424</ele>
        <time>2023-09-26T09:50:36.000Z</time>
      </trkpt>
      <trkpt lat="43.50532" lon="6.84539">
        <ele>425.20001220703</ele>
        <time>2023-09-26T09:50:39.000Z</time>
      </trkpt>
      <trkpt lat="43.50551" lon="6.8455">
        <ele>426.20001220703</ele>
        <time>2023-09-26T09:50:46.000Z</time>
      </trkpt>
      <trkpt lat="43.50561" lon="6.84567">
        <ele>427</ele>
        <time>2023-09-26T09:50:51.000Z</time>
      </trkpt>
      <trkpt lat="43.50561" lon="6.8457">
        <ele>427.39999389648</ele>
        <time>2023-09-26T09:50:52.000Z</time>
      </trkpt>
      <trkpt lat="43.50571" lon="6.84586">
        <ele>428.39999389648</ele>
        <time>2023-09-26T09:50:57.000Z</time>
      </trkpt>
      <trkpt lat="43.50581" lon="6.84581">
        <ele>429.20001220703</ele>
        <time>2023-09-26T09:51:00.000Z</time>
      </trkpt>
      <trkpt lat="43.50583" lon="6.84576">
        <ele>429.20001220703</ele>
        <time>2023-09-26T09:51:01.000Z</time>
      </trkpt>
      <trkpt lat="43.50585" lon="6.84553">
        <ele>429.79998779297</ele>
        <time>2023-09-26T09:51:06.000Z</time>
      </trkpt>
      <trkpt lat="43.50587" lon="6.84539">
        <ele>430.20001220703</ele>
        <time>2023-09-26T09:51:09.000Z</time>
      </trkpt>
      <trkpt lat="43.50596" lon="6.84525">
        <ele>431.20001220703</ele>
        <time>2023-09-26T09:51:13.000Z</time>
      </trkpt>
      <trkpt lat="43.50599" lon="6.84521">
        <ele>431.39999389648</ele>
        <time>2023-09-26T09:51:14.000Z</time>
      </trkpt>
      <trkpt lat="43.50614" lon="6.84501">
        <ele>432.39999389648</ele>
        <time>2023-09-26T09:51:20.000Z</time>
      </trkpt>
      <trkpt lat="43.50622" lon="6.84493">
        <ele>432.79998779297</ele>
        <time>2023-09-26T09:51:23.000Z</time>
      </trkpt>
      <trkpt lat="43.50626" lon="6.84489">
        <ele>433.60000610352</ele>
        <time>2023-09-26T09:51:25.000Z</time>
      </trkpt>
      <trkpt lat="43.50638" lon="6.8448">
        <ele>434.79998779297</ele>
        <time>2023-09-26T09:51:29.000Z</time>
      </trkpt>
      <trkpt lat="43.50644" lon="6.84478">
        <ele>435.20001220703</ele>
        <time>2023-09-26T09:51:31.000Z</time>
      </trkpt>
      <trkpt lat="43.50664" lon="6.84478">
        <ele>436</ele>
        <time>2023-09-26T09:51:37.000Z</time>
      </trkpt>
      <trkpt lat="43.50677" lon="6.84493">
        <ele>437</ele>
        <time>2023-09-26T09:51:42.000Z</time>
      </trkpt>
      <trkpt lat="43.50682" lon="6.84499">
        <ele>437.60000610352</ele>
        <time>2023-09-26T09:51:44.000Z</time>
      </trkpt>
      <trkpt lat="43.5069" lon="6.84504">
        <ele>438.20001220703</ele>
        <time>2023-09-26T09:51:47.000Z</time>
      </trkpt>
      <trkpt lat="43.50694" lon="6.84503">
        <ele>438.79998779297</ele>
        <time>2023-09-26T09:51:48.000Z</time>
      </trkpt>
      <trkpt lat="43.507" lon="6.84502">
        <ele>439.39999389648</ele>
        <time>2023-09-26T09:51:50.000Z</time>
      </trkpt>
      <trkpt lat="43.50715" lon="6.84501">
        <ele>440.60000610352</ele>
        <time>2023-09-26T09:51:54.000Z</time>
      </trkpt>
      <trkpt lat="43.50721" lon="6.84499">
        <ele>440.79998779297</ele>
        <time>2023-09-26T09:51:56.000Z</time>
      </trkpt>
      <trkpt lat="43.50732" lon="6.84485">
        <ele>441.39999389648</ele>
        <time>2023-09-26T09:52:00.000Z</time>
      </trkpt>
      <trkpt lat="43.50733" lon="6.8448">
        <ele>441.60000610352</ele>
        <time>2023-09-26T09:52:01.000Z</time>
      </trkpt>
      <trkpt lat="43.50737" lon="6.84462">
        <ele>442.39999389648</ele>
        <time>2023-09-26T09:52:05.000Z</time>
      </trkpt>
      <trkpt lat="43.50739" lon="6.84457">
        <ele>442.60000610352</ele>
        <time>2023-09-26T09:52:06.000Z</time>
      </trkpt>
      <trkpt lat="43.5075" lon="6.84444">
        <ele>443.60000610352</ele>
        <time>2023-09-26T09:52:10.000Z</time>
      </trkpt>
      <trkpt lat="43.5077" lon="6.8444">
        <ele>444.39999389648</ele>
        <time>2023-09-26T09:52:16.000Z</time>
      </trkpt>
      <trkpt lat="43.50772" lon="6.8444">
        <ele>444.79998779297</ele>
        <time>2023-09-26T09:52:17.000Z</time>
      </trkpt>
      <trkpt lat="43.50778" lon="6.84438">
        <ele>445.20001220703</ele>
        <time>2023-09-26T09:52:19.000Z</time>
      </trkpt>
      <trkpt lat="43.50784" lon="6.84435">
        <ele>446</ele>
        <time>2023-09-26T09:52:21.000Z</time>
      </trkpt>
      <trkpt lat="43.50799" lon="6.84427">
        <ele>447</ele>
        <time>2023-09-26T09:52:26.000Z</time>
      </trkpt>
      <trkpt lat="43.50805" lon="6.84423">
        <ele>447.39999389648</ele>
        <time>2023-09-26T09:52:28.000Z</time>
      </trkpt>
      <trkpt lat="43.50822" lon="6.84407">
        <ele>448.20001220703</ele>
        <time>2023-09-26T09:52:34.000Z</time>
      </trkpt>
      <trkpt lat="43.50828" lon="6.84401">
        <ele>448.60000610352</ele>
        <time>2023-09-26T09:52:36.000Z</time>
      </trkpt>
      <trkpt lat="43.50834" lon="6.84395">
        <ele>449.20001220703</ele>
        <time>2023-09-26T09:52:38.000Z</time>
      </trkpt>
      <trkpt lat="43.50847" lon="6.84376">
        <ele>450</ele>
        <time>2023-09-26T09:52:43.000Z</time>
      </trkpt>
      <trkpt lat="43.5085" lon="6.84363">
        <ele>450.20001220703</ele>
        <time>2023-09-26T09:52:46.000Z</time>
      </trkpt>
      <trkpt lat="43.50853" lon="6.84352">
        <ele>450.60000610352</ele>
        <time>2023-09-26T09:52:48.000Z</time>
      </trkpt>
      <trkpt lat="43.50859" lon="6.84317">
        <ele>451.39999389648</ele>
        <time>2023-09-26T09:52:55.000Z</time>
      </trkpt>
      <trkpt lat="43.50859" lon="6.84282">
        <ele>452.20001220703</ele>
        <time>2023-09-26T09:53:02.000Z</time>
      </trkpt>
      <trkpt lat="43.50854" lon="6.8427">
        <ele>452.39999389648</ele>
        <time>2023-09-26T09:53:05.000Z</time>
      </trkpt>
      <trkpt lat="43.50849" lon="6.84261">
        <ele>452.60000610352</ele>
        <time>2023-09-26T09:53:07.000Z</time>
      </trkpt>
      <trkpt lat="43.50835" lon="6.84244">
        <ele>453.20001220703</ele>
        <time>2023-09-26T09:53:12.000Z</time>
      </trkpt>
      <trkpt lat="43.50832" lon="6.84241">
        <ele>453.39999389648</ele>
        <time>2023-09-26T09:53:13.000Z</time>
      </trkpt>
      <trkpt lat="43.50819" lon="6.84218">
        <ele>454.20001220703</ele>
        <time>2023-09-26T09:53:19.000Z</time>
      </trkpt>
      <trkpt lat="43.50818" lon="6.84212">
        <ele>454.20001220703</ele>
        <time>2023-09-26T09:53:20.000Z</time>
      </trkpt>
      <trkpt lat="43.50813" lon="6.84187">
        <ele>454.79998779297</ele>
        <time>2023-09-26T09:53:25.000Z</time>
      </trkpt>
      <trkpt lat="43.50802" lon="6.8417">
        <ele>455.39999389648</ele>
        <time>2023-09-26T09:53:30.000Z</time>
      </trkpt>
      <trkpt lat="43.50799" lon="6.84167">
        <ele>455.60000610352</ele>
        <time>2023-09-26T09:53:31.000Z</time>
      </trkpt>
      <trkpt lat="43.50782" lon="6.84154">
        <ele>456.20001220703</ele>
        <time>2023-09-26T09:53:37.000Z</time>
      </trkpt>
      <trkpt lat="43.50765" lon="6.84142">
        <ele>456.20001220703</ele>
        <time>2023-09-26T09:53:42.000Z</time>
      </trkpt>
      <trkpt lat="43.50745" lon="6.84122">
        <ele>456.20001220703</ele>
        <time>2023-09-26T09:53:49.000Z</time>
      </trkpt>
      <trkpt lat="43.50743" lon="6.8412">
        <ele>456.20001220703</ele>
        <time>2023-09-26T09:53:50.000Z</time>
      </trkpt>
      <trkpt lat="43.5074" lon="6.84118">
        <ele>455.79998779297</ele>
        <time>2023-09-26T09:53:52.000Z</time>
      </trkpt>
      <trkpt lat="43.50738" lon="6.84123">
        <ele>455.60000610352</ele>
        <time>2023-09-26T09:53:55.000Z</time>
      </trkpt>
      <trkpt lat="43.50739" lon="6.84125">
        <ele>455.60000610352</ele>
        <time>2023-09-26T09:53:56.000Z</time>
      </trkpt>
      <trkpt lat="43.50743" lon="6.84133">
        <ele>455.20001220703</ele>
        <time>2023-09-26T09:54:00.000Z</time>
      </trkpt>
      <trkpt lat="43.50744" lon="6.84135">
        <ele>455.20001220703</ele>
        <time>2023-09-26T09:54:01.000Z</time>
      </trkpt>
      <trkpt lat="43.50745" lon="6.84137">
        <ele>454.79998779297</ele>
        <time>2023-09-26T09:54:02.000Z</time>
      </trkpt>
      <trkpt lat="43.50752" lon="6.84153">
        <ele>453.60000610352</ele>
        <time>2023-09-26T09:54:09.000Z</time>
      </trkpt>
      <trkpt lat="43.50757" lon="6.84161">
        <ele>452.60000610352</ele>
        <time>2023-09-26T09:54:12.000Z</time>
      </trkpt>
      <trkpt lat="43.50762" lon="6.84171">
        <ele>452</ele>
        <time>2023-09-26T09:54:16.000Z</time>
      </trkpt>
      <trkpt lat="43.50765" lon="6.84181">
        <ele>451.39999389648</ele>
        <time>2023-09-26T09:54:19.000Z</time>
      </trkpt>
      <trkpt lat="43.50767" lon="6.84195">
        <ele>450.79998779297</ele>
        <time>2023-09-26T09:54:23.000Z</time>
      </trkpt>
      <trkpt lat="43.50768" lon="6.842">
        <ele>450</ele>
        <time>2023-09-26T09:54:25.000Z</time>
      </trkpt>
      <trkpt lat="43.5077" lon="6.84205">
        <ele>449</ele>
        <time>2023-09-26T09:54:29.000Z</time>
      </trkpt>
      <trkpt lat="43.5077" lon="6.84205">
        <ele>448.79998779297</ele>
        <time>2023-09-26T09:54:30.000Z</time>
      </trkpt>
      <trkpt lat="43.5077" lon="6.84205">
        <ele>447.60000610352</ele>
        <time>2023-09-26T09:54:57.000Z</time>
      </trkpt>
      <trkpt lat="43.50775" lon="6.84213">
        <ele>447.39999389648</ele>
        <time>2023-09-26T09:55:37.000Z</time>
      </trkpt>
      <trkpt lat="43.50781" lon="6.8423">
        <ele>446.79998779297</ele>
        <time>2023-09-26T09:55:43.000Z</time>
      </trkpt>
      <trkpt lat="43.50781" lon="6.84233">
        <ele>446.79998779297</ele>
        <time>2023-09-26T09:55:44.000Z</time>
      </trkpt>
      <trkpt lat="43.50782" lon="6.84244">
        <ele>446.39999389648</ele>
        <time>2023-09-26T09:55:47.000Z</time>
      </trkpt>
      <trkpt lat="43.50785" lon="6.84258">
        <ele>445.79998779297</ele>
        <time>2023-09-26T09:55:50.000Z</time>
      </trkpt>
      <trkpt lat="43.50786" lon="6.84263">
        <ele>445.20001220703</ele>
        <time>2023-09-26T09:55:51.000Z</time>
      </trkpt>
      <trkpt lat="43.50788" lon="6.84271">
        <ele>444.39999389648</ele>
        <time>2023-09-26T09:55:53.000Z</time>
      </trkpt>
      <trkpt lat="43.50789" lon="6.84275">
        <ele>444</ele>
        <time>2023-09-26T09:55:54.000Z</time>
      </trkpt>
      <trkpt lat="43.5079" lon="6.84286">
        <ele>443.79998779297</ele>
        <time>2023-09-26T09:55:57.000Z</time>
      </trkpt>
      <trkpt lat="43.5079" lon="6.84296">
        <ele>443</ele>
        <time>2023-09-26T09:56:00.000Z</time>
      </trkpt>
      <trkpt lat="43.50789" lon="6.84304">
        <ele>441.79998779297</ele>
        <time>2023-09-26T09:56:03.000Z</time>
      </trkpt>
      <trkpt lat="43.50788" lon="6.84309">
        <ele>440.79998779297</ele>
        <time>2023-09-26T09:56:08.000Z</time>
      </trkpt>
      <trkpt lat="43.50788" lon="6.84315">
        <ele>440.60000610352</ele>
        <time>2023-09-26T09:56:10.000Z</time>
      </trkpt>
      <trkpt lat="43.50788" lon="6.84326">
        <ele>439.79998779297</ele>
        <time>2023-09-26T09:56:13.000Z</time>
      </trkpt>
      <trkpt lat="43.50787" lon="6.84329">
        <ele>439.39999389648</ele>
        <time>2023-09-26T09:56:14.000Z</time>
      </trkpt>
      <trkpt lat="43.50786" lon="6.84333">
        <ele>438.79998779297</ele>
        <time>2023-09-26T09:56:16.000Z</time>
      </trkpt>
      <trkpt lat="43.50786" lon="6.84334">
        <ele>438.60000610352</ele>
        <time>2023-09-26T09:56:17.000Z</time>
      </trkpt>
      <trkpt lat="43.50786" lon="6.84334">
        <ele>438.39999389648</ele>
        <time>2023-09-26T09:56:18.000Z</time>
      </trkpt>
      <trkpt lat="43.50786" lon="6.84334">
        <ele>438</ele>
        <time>2023-09-26T09:56:22.000Z</time>
      </trkpt>
      <trkpt lat="43.50786" lon="6.84334">
        <ele>437.20001220703</ele>
        <time>2023-09-26T09:56:31.000Z</time>
      </trkpt>
      <trkpt lat="43.50786" lon="6.84334">
        <ele>436.79998779297</ele>
        <time>2023-09-26T09:57:35.000Z</time>
      </trkpt>
      <trkpt lat="43.50786" lon="6.84334">
        <ele>437.20001220703</ele>
        <time>2023-09-26T09:59:35.000Z</time>
      </trkpt>
      <trkpt lat="43.50786" lon="6.84334">
        <ele>437.20001220703</ele>
        <time>2023-09-26T09:59:52.000Z</time>
      </trkpt>
      <trkpt lat="43.50786" lon="6.84334">
        <ele>437.79998779297</ele>
        <time>2023-09-26T10:01:15.000Z</time>
      </trkpt>
      <trkpt lat="43.50787" lon="6.84332">
        <ele>438</ele>
        <time>2023-09-26T10:01:20.000Z</time>
      </trkpt>
      <trkpt lat="43.50788" lon="6.84331">
        <ele>438.20001220703</ele>
        <time>2023-09-26T10:01:21.000Z</time>
      </trkpt>
      <trkpt lat="43.50789" lon="6.84328">
        <ele>438.20001220703</ele>
        <time>2023-09-26T10:01:23.000Z</time>
      </trkpt>
      <trkpt lat="43.50791" lon="6.8432">
        <ele>438.79998779297</ele>
        <time>2023-09-26T10:01:28.000Z</time>
      </trkpt>
      <trkpt lat="43.5079" lon="6.8432">
        <ele>438.60000610352</ele>
        <time>2023-09-26T10:01:29.000Z</time>
      </trkpt>
      <trkpt lat="43.50789" lon="6.84316">
        <ele>439.39999389648</ele>
        <time>2023-09-26T10:01:34.000Z</time>
      </trkpt>
      <trkpt lat="43.50789" lon="6.84315">
        <ele>439.79998779297</ele>
        <time>2023-09-26T10:01:35.000Z</time>
      </trkpt>
      <trkpt lat="43.50789" lon="6.84312">
        <ele>440.79998779297</ele>
        <time>2023-09-26T10:01:42.000Z</time>
      </trkpt>
      <trkpt lat="43.50789" lon="6.84312">
        <ele>440.79998779297</ele>
        <time>2023-09-26T10:01:43.000Z</time>
      </trkpt>
      <trkpt lat="43.50789" lon="6.84312">
        <ele>441.60000610352</ele>
        <time>2023-09-26T10:01:52.000Z</time>
      </trkpt>
      <trkpt lat="43.5079" lon="6.84307">
        <ele>441.60000610352</ele>
        <time>2023-09-26T10:02:06.000Z</time>
      </trkpt>
      <trkpt lat="43.5079" lon="6.84305">
        <ele>441.60000610352</ele>
        <time>2023-09-26T10:02:07.000Z</time>
      </trkpt>
      <trkpt lat="43.5079" lon="6.84303">
        <ele>441.79998779297</ele>
        <time>2023-09-26T10:02:08.000Z</time>
      </trkpt>
      <trkpt lat="43.5079" lon="6.84302">
        <ele>442</ele>
        <time>2023-09-26T10:02:09.000Z</time>
      </trkpt>
      <trkpt lat="43.50789" lon="6.84298">
        <ele>441.79998779297</ele>
        <time>2023-09-26T10:02:12.000Z</time>
      </trkpt>
      <trkpt lat="43.50791" lon="6.84285">
        <ele>442.20001220703</ele>
        <time>2023-09-26T10:02:21.000Z</time>
      </trkpt>
      <trkpt lat="43.50791" lon="6.84281">
        <ele>442.79998779297</ele>
        <time>2023-09-26T10:02:27.000Z</time>
      </trkpt>
      <trkpt lat="43.50791" lon="6.84279">
        <ele>442.79998779297</ele>
        <time>2023-09-26T10:02:28.000Z</time>
      </trkpt>
      <trkpt lat="43.50788" lon="6.84263">
        <ele>443.20001220703</ele>
        <time>2023-09-26T10:02:34.000Z</time>
      </trkpt>
      <trkpt lat="43.50785" lon="6.84254">
        <ele>444</ele>
        <time>2023-09-26T10:02:37.000Z</time>
      </trkpt>
      <trkpt lat="43.50784" lon="6.84249">
        <ele>444.39999389648</ele>
        <time>2023-09-26T10:02:39.000Z</time>
      </trkpt>
      <trkpt lat="43.50784" lon="6.84246">
        <ele>444.60000610352</ele>
        <time>2023-09-26T10:02:40.000Z</time>
      </trkpt>
      <trkpt lat="43.50784" lon="6.84236">
        <ele>445</ele>
        <time>2023-09-26T10:02:43.000Z</time>
      </trkpt>
      <trkpt lat="43.50784" lon="6.84233">
        <ele>445.20001220703</ele>
        <time>2023-09-26T10:02:44.000Z</time>
      </trkpt>
      <trkpt lat="43.50782" lon="6.8423">
        <ele>445.39999389648</ele>
        <time>2023-09-26T10:02:45.000Z</time>
      </trkpt>
      <trkpt lat="43.50778" lon="6.84218">
        <ele>446.20001220703</ele>
        <time>2023-09-26T10:02:48.000Z</time>
      </trkpt>
      <trkpt lat="43.50773" lon="6.84208">
        <ele>446.79998779297</ele>
        <time>2023-09-26T10:02:52.000Z</time>
      </trkpt>
      <trkpt lat="43.50773" lon="6.84204">
        <ele>447.20001220703</ele>
        <time>2023-09-26T10:02:54.000Z</time>
      </trkpt>
      <trkpt lat="43.50772" lon="6.84203">
        <ele>447.79998779297</ele>
        <time>2023-09-26T10:02:57.000Z</time>
      </trkpt>
      <trkpt lat="43.50772" lon="6.84203">
        <ele>448.20001220703</ele>
        <time>2023-09-26T10:03:13.000Z</time>
      </trkpt>
      <trkpt lat="43.50769" lon="6.84196">
        <ele>448</ele>
        <time>2023-09-26T10:03:40.000Z</time>
      </trkpt>
      <trkpt lat="43.50764" lon="6.84177">
        <ele>449</ele>
        <time>2023-09-26T10:03:46.000Z</time>
      </trkpt>
      <trkpt lat="43.50763" lon="6.84175">
        <ele>449.39999389648</ele>
        <time>2023-09-26T10:03:47.000Z</time>
      </trkpt>
      <trkpt lat="43.50759" lon="6.84167">
        <ele>450.20001220703</ele>
        <time>2023-09-26T10:03:50.000Z</time>
      </trkpt>
      <trkpt lat="43.50754" lon="6.8416">
        <ele>451</ele>
        <time>2023-09-26T10:03:53.000Z</time>
      </trkpt>
      <trkpt lat="43.50748" lon="6.84153">
        <ele>451.20001220703</ele>
        <time>2023-09-26T10:03:56.000Z</time>
      </trkpt>
      <trkpt lat="43.50743" lon="6.8414">
        <ele>452.20001220703</ele>
        <time>2023-09-26T10:04:00.000Z</time>
      </trkpt>
      <trkpt lat="43.50742" lon="6.84138">
        <ele>452.60000610352</ele>
        <time>2023-09-26T10:04:01.000Z</time>
      </trkpt>
      <trkpt lat="43.50738" lon="6.84127">
        <ele>453.39999389648</ele>
        <time>2023-09-26T10:04:05.000Z</time>
      </trkpt>
      <trkpt lat="43.50737" lon="6.84125">
        <ele>453.79998779297</ele>
        <time>2023-09-26T10:04:06.000Z</time>
      </trkpt>
      <trkpt lat="43.50736" lon="6.84125">
        <ele>454.79998779297</ele>
        <time>2023-09-26T10:04:09.000Z</time>
      </trkpt>
      <trkpt lat="43.50736" lon="6.84125">
        <ele>455</ele>
        <time>2023-09-26T10:04:10.000Z</time>
      </trkpt>
      <trkpt lat="43.50736" lon="6.84125">
        <ele>455</ele>
        <time>2023-09-26T10:04:26.000Z</time>
      </trkpt>
      <trkpt lat="43.50736" lon="6.84125">
        <ele>454.60000610352</ele>
        <time>2023-09-26T10:04:43.000Z</time>
      </trkpt>
      <trkpt lat="43.50736" lon="6.84124">
        <ele>454.60000610352</ele>
        <time>2023-09-26T10:05:19.000Z</time>
      </trkpt>
      <trkpt lat="43.50736" lon="6.84124">
        <ele>454.79998779297</ele>
        <time>2023-09-26T10:05:21.000Z</time>
      </trkpt>
      <trkpt lat="43.50736" lon="6.84124">
        <ele>455</ele>
        <time>2023-09-26T10:05:28.000Z</time>
      </trkpt>
      <trkpt lat="43.50732" lon="6.84114">
        <ele>455</ele>
        <time>2023-09-26T10:05:32.000Z</time>
      </trkpt>
      <trkpt lat="43.50728" lon="6.84104">
        <ele>455</ele>
        <time>2023-09-26T10:05:35.000Z</time>
      </trkpt>
      <trkpt lat="43.50722" lon="6.84087">
        <ele>454.79998779297</ele>
        <time>2023-09-26T10:05:39.000Z</time>
      </trkpt>
      <trkpt lat="43.5072" lon="6.84075">
        <ele>454.79998779297</ele>
        <time>2023-09-26T10:05:41.000Z</time>
      </trkpt>
      <trkpt lat="43.50716" lon="6.84043">
        <ele>453.60000610352</ele>
        <time>2023-09-26T10:05:47.000Z</time>
      </trkpt>
      <trkpt lat="43.50716" lon="6.84038">
        <ele>453.20001220703</ele>
        <time>2023-09-26T10:05:48.000Z</time>
      </trkpt>
      <trkpt lat="43.50716" lon="6.84027">
        <ele>452.60000610352</ele>
        <time>2023-09-26T10:05:50.000Z</time>
      </trkpt>
      <trkpt lat="43.50717" lon="6.84022">
        <ele>452.20001220703</ele>
        <time>2023-09-26T10:05:51.000Z</time>
      </trkpt>
      <trkpt lat="43.50721" lon="6.83999">
        <ele>451.60000610352</ele>
        <time>2023-09-26T10:05:55.000Z</time>
      </trkpt>
      <trkpt lat="43.50723" lon="6.83988">
        <ele>451</ele>
        <time>2023-09-26T10:05:57.000Z</time>
      </trkpt>
      <trkpt lat="43.50727" lon="6.83978">
        <ele>450.39999389648</ele>
        <time>2023-09-26T10:05:59.000Z</time>
      </trkpt>
      <trkpt lat="43.50728" lon="6.83973">
        <ele>450.20001220703</ele>
        <time>2023-09-26T10:06:00.000Z</time>
      </trkpt>
      <trkpt lat="43.50738" lon="6.83964">
        <ele>449</ele>
        <time>2023-09-26T10:06:03.000Z</time>
      </trkpt>
      <trkpt lat="43.50741" lon="6.83962">
        <ele>448.79998779297</ele>
        <time>2023-09-26T10:06:04.000Z</time>
      </trkpt>
      <trkpt lat="43.50755" lon="6.83961">
        <ele>447.79998779297</ele>
        <time>2023-09-26T10:06:08.000Z</time>
      </trkpt>
      <trkpt lat="43.50758" lon="6.83961">
        <ele>447.20001220703</ele>
        <time>2023-09-26T10:06:09.000Z</time>
      </trkpt>
      <trkpt lat="43.50765" lon="6.83963">
        <ele>446.79998779297</ele>
        <time>2023-09-26T10:06:11.000Z</time>
      </trkpt>
      <trkpt lat="43.5078" lon="6.83964">
        <ele>445.79998779297</ele>
        <time>2023-09-26T10:06:15.000Z</time>
      </trkpt>
      <trkpt lat="43.50795" lon="6.83966">
        <ele>444.79998779297</ele>
        <time>2023-09-26T10:06:19.000Z</time>
      </trkpt>
      <trkpt lat="43.50808" lon="6.83966">
        <ele>443.39999389648</ele>
        <time>2023-09-26T10:06:22.000Z</time>
      </trkpt>
      <trkpt lat="43.50816" lon="6.83968">
        <ele>442.60000610352</ele>
        <time>2023-09-26T10:06:24.000Z</time>
      </trkpt>
      <trkpt lat="43.50824" lon="6.83969">
        <ele>442</ele>
        <time>2023-09-26T10:06:26.000Z</time>
      </trkpt>
      <trkpt lat="43.50837" lon="6.83973">
        <ele>441.39999389648</ele>
        <time>2023-09-26T10:06:30.000Z</time>
      </trkpt>
      <trkpt lat="43.50844" lon="6.83976">
        <ele>440.79998779297</ele>
        <time>2023-09-26T10:06:32.000Z</time>
      </trkpt>
      <trkpt lat="43.50848" lon="6.83977">
        <ele>440.39999389648</ele>
        <time>2023-09-26T10:06:33.000Z</time>
      </trkpt>
      <trkpt lat="43.50855" lon="6.8398">
        <ele>439.79998779297</ele>
        <time>2023-09-26T10:06:35.000Z</time>
      </trkpt>
      <trkpt lat="43.5086" lon="6.83982">
        <ele>439.39999389648</ele>
        <time>2023-09-26T10:06:36.000Z</time>
      </trkpt>
      <trkpt lat="43.50862" lon="6.83984">
        <ele>439.20001220703</ele>
        <time>2023-09-26T10:06:37.000Z</time>
      </trkpt>
      <trkpt lat="43.50874" lon="6.8399">
        <ele>438.60000610352</ele>
        <time>2023-09-26T10:06:40.000Z</time>
      </trkpt>
      <trkpt lat="43.50878" lon="6.83992">
        <ele>438.39999389648</ele>
        <time>2023-09-26T10:06:41.000Z</time>
      </trkpt>
      <trkpt lat="43.50889" lon="6.83996">
        <ele>437.60000610352</ele>
        <time>2023-09-26T10:06:44.000Z</time>
      </trkpt>
      <trkpt lat="43.50902" lon="6.84">
        <ele>437.20001220703</ele>
        <time>2023-09-26T10:06:47.000Z</time>
      </trkpt>
      <trkpt lat="43.50909" lon="6.84002">
        <ele>436.39999389648</ele>
        <time>2023-09-26T10:06:49.000Z</time>
      </trkpt>
      <trkpt lat="43.5092" lon="6.84003">
        <ele>435.20001220703</ele>
        <time>2023-09-26T10:06:52.000Z</time>
      </trkpt>
      <trkpt lat="43.50929" lon="6.83999">
        <ele>434.39999389648</ele>
        <time>2023-09-26T10:06:54.000Z</time>
      </trkpt>
      <trkpt lat="43.50936" lon="6.83994">
        <ele>434.20001220703</ele>
        <time>2023-09-26T10:06:56.000Z</time>
      </trkpt>
      <trkpt lat="43.50939" lon="6.83991">
        <ele>434</ele>
        <time>2023-09-26T10:06:57.000Z</time>
      </trkpt>
      <trkpt lat="43.50948" lon="6.83977">
        <ele>433.39999389648</ele>
        <time>2023-09-26T10:07:00.000Z</time>
      </trkpt>
      <trkpt lat="43.50955" lon="6.83966">
        <ele>432.60000610352</ele>
        <time>2023-09-26T10:07:02.000Z</time>
      </trkpt>
      <trkpt lat="43.50959" lon="6.83955">
        <ele>431.60000610352</ele>
        <time>2023-09-26T10:07:04.000Z</time>
      </trkpt>
      <trkpt lat="43.50963" lon="6.83947">
        <ele>431.20001220703</ele>
        <time>2023-09-26T10:07:05.000Z</time>
      </trkpt>
      <trkpt lat="43.50965" lon="6.83941">
        <ele>431</ele>
        <time>2023-09-26T10:07:06.000Z</time>
      </trkpt>
      <trkpt lat="43.50969" lon="6.83919">
        <ele>430.20001220703</ele>
        <time>2023-09-26T10:07:09.000Z</time>
      </trkpt>
      <trkpt lat="43.5097" lon="6.8391">
        <ele>429.79998779297</ele>
        <time>2023-09-26T10:07:10.000Z</time>
      </trkpt>
      <trkpt lat="43.5097" lon="6.83902">
        <ele>429.60000610352</ele>
        <time>2023-09-26T10:07:11.000Z</time>
      </trkpt>
      <trkpt lat="43.5097" lon="6.83885">
        <ele>428.79998779297</ele>
        <time>2023-09-26T10:07:13.000Z</time>
      </trkpt>
      <trkpt lat="43.5097" lon="6.83869">
        <ele>427.60000610352</ele>
        <time>2023-09-26T10:07:15.000Z</time>
      </trkpt>
      <trkpt lat="43.50971" lon="6.83862">
        <ele>427.39999389648</ele>
        <time>2023-09-26T10:07:16.000Z</time>
      </trkpt>
      <trkpt lat="43.50972" lon="6.83855">
        <ele>427</ele>
        <time>2023-09-26T10:07:17.000Z</time>
      </trkpt>
      <trkpt lat="43.50976" lon="6.83841">
        <ele>426.20001220703</ele>
        <time>2023-09-26T10:07:19.000Z</time>
      </trkpt>
      <trkpt lat="43.50978" lon="6.83835">
        <ele>426</ele>
        <time>2023-09-26T10:07:20.000Z</time>
      </trkpt>
      <trkpt lat="43.50981" lon="6.83825">
        <ele>424.60000610352</ele>
        <time>2023-09-26T10:07:22.000Z</time>
      </trkpt>
      <trkpt lat="43.50981" lon="6.83822">
        <ele>424</ele>
        <time>2023-09-26T10:07:23.000Z</time>
      </trkpt>
      <trkpt lat="43.5098" lon="6.83819">
        <ele>423.39999389648</ele>
        <time>2023-09-26T10:07:24.000Z</time>
      </trkpt>
      <trkpt lat="43.50977" lon="6.83817">
        <ele>422.60000610352</ele>
        <time>2023-09-26T10:07:27.000Z</time>
      </trkpt>
      <trkpt lat="43.50977" lon="6.83817">
        <ele>422.60000610352</ele>
        <time>2023-09-26T10:07:28.000Z</time>
      </trkpt>
      <trkpt lat="43.50977" lon="6.83817">
        <ele>422.20001220703</ele>
        <time>2023-09-26T10:07:34.000Z</time>
      </trkpt>
      <trkpt lat="43.50977" lon="6.83817">
        <ele>421.79998779297</ele>
        <time>2023-09-26T10:07:54.000Z</time>
      </trkpt>
      <trkpt lat="43.50974" lon="6.83821">
        <ele>421.79998779297</ele>
        <time>2023-09-26T10:07:56.000Z</time>
      </trkpt>
      <trkpt lat="43.5097" lon="6.83828">
        <ele>421.79998779297</ele>
        <time>2023-09-26T10:07:59.000Z</time>
      </trkpt>
      <trkpt lat="43.50969" lon="6.83834">
        <ele>421.60000610352</ele>
        <time>2023-09-26T10:08:01.000Z</time>
      </trkpt>
      <trkpt lat="43.50967" lon="6.83841">
        <ele>421.39999389648</ele>
        <time>2023-09-26T10:08:03.000Z</time>
      </trkpt>
      <trkpt lat="43.50963" lon="6.83857">
        <ele>420.39999389648</ele>
        <time>2023-09-26T10:08:07.000Z</time>
      </trkpt>
      <trkpt lat="43.50962" lon="6.8386">
        <ele>420.39999389648</ele>
        <time>2023-09-26T10:08:08.000Z</time>
      </trkpt>
      <trkpt lat="43.50961" lon="6.83864">
        <ele>420.20001220703</ele>
        <time>2023-09-26T10:08:09.000Z</time>
      </trkpt>
      <trkpt lat="43.50958" lon="6.83871">
        <ele>420</ele>
        <time>2023-09-26T10:08:11.000Z</time>
      </trkpt>
      <trkpt lat="43.50957" lon="6.83874">
        <ele>419.79998779297</ele>
        <time>2023-09-26T10:08:12.000Z</time>
      </trkpt>
      <trkpt lat="43.50951" lon="6.8389">
        <ele>419</ele>
        <time>2023-09-26T10:08:16.000Z</time>
      </trkpt>
      <trkpt lat="43.50942" lon="6.83902">
        <ele>418.20001220703</ele>
        <time>2023-09-26T10:08:19.000Z</time>
      </trkpt>
      <trkpt lat="43.50935" lon="6.83908">
        <ele>417.79998779297</ele>
        <time>2023-09-26T10:08:21.000Z</time>
      </trkpt>
      <trkpt lat="43.50924" lon="6.83913">
        <ele>416.79998779297</ele>
        <time>2023-09-26T10:08:24.000Z</time>
      </trkpt>
      <trkpt lat="43.50919" lon="6.83915">
        <ele>416.39999389648</ele>
        <time>2023-09-26T10:08:25.000Z</time>
      </trkpt>
      <trkpt lat="43.50915" lon="6.83913">
        <ele>415.79998779297</ele>
        <time>2023-09-26T10:08:26.000Z</time>
      </trkpt>
      <trkpt lat="43.50912" lon="6.83911">
        <ele>415.60000610352</ele>
        <time>2023-09-26T10:08:27.000Z</time>
      </trkpt>
      <trkpt lat="43.50906" lon="6.83907">
        <ele>415.39999389648</ele>
        <time>2023-09-26T10:08:29.000Z</time>
      </trkpt>
      <trkpt lat="43.50886" lon="6.83887">
        <ele>414.60000610352</ele>
        <time>2023-09-26T10:08:35.000Z</time>
      </trkpt>
      <trkpt lat="43.50883" lon="6.83885">
        <ele>414.20001220703</ele>
        <time>2023-09-26T10:08:36.000Z</time>
      </trkpt>
      <trkpt lat="43.50871" lon="6.83874">
        <ele>413.39999389648</ele>
        <time>2023-09-26T10:08:40.000Z</time>
      </trkpt>
      <trkpt lat="43.50858" lon="6.83864">
        <ele>412.20001220703</ele>
        <time>2023-09-26T10:08:44.000Z</time>
      </trkpt>
      <trkpt lat="43.50855" lon="6.83861">
        <ele>411.79998779297</ele>
        <time>2023-09-26T10:08:45.000Z</time>
      </trkpt>
      <trkpt lat="43.50848" lon="6.83853">
        <ele>411</ele>
        <time>2023-09-26T10:08:48.000Z</time>
      </trkpt>
      <trkpt lat="43.5084" lon="6.83844">
        <ele>410.39999389648</ele>
        <time>2023-09-26T10:08:51.000Z</time>
      </trkpt>
      <trkpt lat="43.50836" lon="6.83837">
        <ele>409.79998779297</ele>
        <time>2023-09-26T10:08:53.000Z</time>
      </trkpt>
      <trkpt lat="43.50831" lon="6.83831">
        <ele>409.39999389648</ele>
        <time>2023-09-26T10:08:55.000Z</time>
      </trkpt>
      <trkpt lat="43.50822" lon="6.83818">
        <ele>408.79998779297</ele>
        <time>2023-09-26T10:08:59.000Z</time>
      </trkpt>
      <trkpt lat="43.50819" lon="6.83816">
        <ele>408.60000610352</ele>
        <time>2023-09-26T10:09:00.000Z</time>
      </trkpt>
      <trkpt lat="43.50814" lon="6.83809">
        <ele>407.60000610352</ele>
        <time>2023-09-26T10:09:02.000Z</time>
      </trkpt>
      <trkpt lat="43.50797" lon="6.83786">
        <ele>406.39999389648</ele>
        <time>2023-09-26T10:09:09.000Z</time>
      </trkpt>
      <trkpt lat="43.50789" lon="6.83775">
        <ele>405.39999389648</ele>
        <time>2023-09-26T10:09:12.000Z</time>
      </trkpt>
      <trkpt lat="43.5078" lon="6.83758">
        <ele>404.39999389648</ele>
        <time>2023-09-26T10:09:16.000Z</time>
      </trkpt>
      <trkpt lat="43.50778" lon="6.83754">
        <ele>403.79998779297</ele>
        <time>2023-09-26T10:09:17.000Z</time>
      </trkpt>
      <trkpt lat="43.50772" lon="6.83742">
        <ele>403.20001220703</ele>
        <time>2023-09-26T10:09:20.000Z</time>
      </trkpt>
      <trkpt lat="43.50768" lon="6.83734">
        <ele>402.79998779297</ele>
        <time>2023-09-26T10:09:22.000Z</time>
      </trkpt>
      <trkpt lat="43.50765" lon="6.83726">
        <ele>402.39999389648</ele>
        <time>2023-09-26T10:09:24.000Z</time>
      </trkpt>
      <trkpt lat="43.50763" lon="6.83721">
        <ele>402.20001220703</ele>
        <time>2023-09-26T10:09:25.000Z</time>
      </trkpt>
      <trkpt lat="43.50752" lon="6.8369">
        <ele>401</ele>
        <time>2023-09-26T10:09:31.000Z</time>
      </trkpt>
      <trkpt lat="43.50747" lon="6.8368">
        <ele>400.39999389648</ele>
        <time>2023-09-26T10:09:33.000Z</time>
      </trkpt>
      <trkpt lat="43.50739" lon="6.83664">
        <ele>399.79998779297</ele>
        <time>2023-09-26T10:09:36.000Z</time>
      </trkpt>
      <trkpt lat="43.50732" lon="6.83649">
        <ele>398.60000610352</ele>
        <time>2023-09-26T10:09:39.000Z</time>
      </trkpt>
      <trkpt lat="43.50727" lon="6.83639">
        <ele>397.60000610352</ele>
        <time>2023-09-26T10:09:41.000Z</time>
      </trkpt>
      <trkpt lat="43.50725" lon="6.83633">
        <ele>397.39999389648</ele>
        <time>2023-09-26T10:09:42.000Z</time>
      </trkpt>
      <trkpt lat="43.50717" lon="6.83608">
        <ele>396.39999389648</ele>
        <time>2023-09-26T10:09:46.000Z</time>
      </trkpt>
      <trkpt lat="43.50711" lon="6.83593">
        <ele>395.39999389648</ele>
        <time>2023-09-26T10:09:49.000Z</time>
      </trkpt>
      <trkpt lat="43.50708" lon="6.83587">
        <ele>395</ele>
        <time>2023-09-26T10:09:50.000Z</time>
      </trkpt>
      <trkpt lat="43.50701" lon="6.8357">
        <ele>393.79998779297</ele>
        <time>2023-09-26T10:09:53.000Z</time>
      </trkpt>
      <trkpt lat="43.50696" lon="6.83554">
        <ele>393.20001220703</ele>
        <time>2023-09-26T10:09:56.000Z</time>
      </trkpt>
      <trkpt lat="43.50691" lon="6.83536">
        <ele>392.60000610352</ele>
        <time>2023-09-26T10:09:59.000Z</time>
      </trkpt>
      <trkpt lat="43.50686" lon="6.83521">
        <ele>391.39999389648</ele>
        <time>2023-09-26T10:10:02.000Z</time>
      </trkpt>
      <trkpt lat="43.50684" lon="6.83515">
        <ele>391.39999389648</ele>
        <time>2023-09-26T10:10:03.000Z</time>
      </trkpt>
      <trkpt lat="43.50681" lon="6.83505">
        <ele>390.79998779297</ele>
        <time>2023-09-26T10:10:05.000Z</time>
      </trkpt>
      <trkpt lat="43.50677" lon="6.83493">
        <ele>390.20001220703</ele>
        <time>2023-09-26T10:10:07.000Z</time>
      </trkpt>
      <trkpt lat="43.50675" lon="6.83487">
        <ele>390</ele>
        <time>2023-09-26T10:10:08.000Z</time>
      </trkpt>
      <trkpt lat="43.50672" lon="6.83477">
        <ele>389</ele>
        <time>2023-09-26T10:10:10.000Z</time>
      </trkpt>
      <trkpt lat="43.50668" lon="6.83466">
        <ele>388</ele>
        <time>2023-09-26T10:10:12.000Z</time>
      </trkpt>
      <trkpt lat="43.50664" lon="6.83454">
        <ele>387.39999389648</ele>
        <time>2023-09-26T10:10:14.000Z</time>
      </trkpt>
      <trkpt lat="43.50656" lon="6.83432">
        <ele>386.79998779297</ele>
        <time>2023-09-26T10:10:18.000Z</time>
      </trkpt>
      <trkpt lat="43.50649" lon="6.83418">
        <ele>386.60000610352</ele>
        <time>2023-09-26T10:10:21.000Z</time>
      </trkpt>
      <trkpt lat="43.50635" lon="6.83384">
        <ele>385.79998779297</ele>
        <time>2023-09-26T10:10:28.000Z</time>
      </trkpt>
      <trkpt lat="43.5063" lon="6.83376">
        <ele>385.79998779297</ele>
        <time>2023-09-26T10:10:30.000Z</time>
      </trkpt>
      <trkpt lat="43.50627" lon="6.83373">
        <ele>385.79998779297</ele>
        <time>2023-09-26T10:10:31.000Z</time>
      </trkpt>
      <trkpt lat="43.5061" lon="6.83355">
        <ele>385.39999389648</ele>
        <time>2023-09-26T10:10:37.000Z</time>
      </trkpt>
      <trkpt lat="43.50597" lon="6.83346">
        <ele>385.20001220703</ele>
        <time>2023-09-26T10:10:42.000Z</time>
      </trkpt>
      <trkpt lat="43.50594" lon="6.83344">
        <ele>385.60000610352</ele>
        <time>2023-09-26T10:10:44.000Z</time>
      </trkpt>
      <trkpt lat="43.50593" lon="6.83343">
        <ele>385.79998779297</ele>
        <time>2023-09-26T10:10:46.000Z</time>
      </trkpt>
      <trkpt lat="43.50593" lon="6.83343">
        <ele>386</ele>
        <time>2023-09-26T10:10:49.000Z</time>
      </trkpt>
      <trkpt lat="43.50593" lon="6.83343">
        <ele>386</ele>
        <time>2023-09-26T10:10:53.000Z</time>
      </trkpt>
      <trkpt lat="43.5059" lon="6.83342">
        <ele>386.20001220703</ele>
        <time>2023-09-26T10:11:03.000Z</time>
      </trkpt>
      <trkpt lat="43.50578" lon="6.83332">
        <ele>386.20001220703</ele>
        <time>2023-09-26T10:11:08.000Z</time>
      </trkpt>
      <trkpt lat="43.50561" lon="6.8332">
        <ele>386.79998779297</ele>
        <time>2023-09-26T10:11:15.000Z</time>
      </trkpt>
      <trkpt lat="43.50558" lon="6.83318">
        <ele>387</ele>
        <time>2023-09-26T10:11:16.000Z</time>
      </trkpt>
      <trkpt lat="43.50542" lon="6.83308">
        <ele>387.39999389648</ele>
        <time>2023-09-26T10:11:22.000Z</time>
      </trkpt>
      <trkpt lat="43.50525" lon="6.83298">
        <ele>388.20001220703</ele>
        <time>2023-09-26T10:11:28.000Z</time>
      </trkpt>
      <trkpt lat="43.5052" lon="6.83294">
        <ele>388.20001220703</ele>
        <time>2023-09-26T10:11:30.000Z</time>
      </trkpt>
      <trkpt lat="43.50502" lon="6.83284">
        <ele>389</ele>
        <time>2023-09-26T10:11:36.000Z</time>
      </trkpt>
      <trkpt lat="43.50494" lon="6.8328">
        <ele>389.20001220703</ele>
        <time>2023-09-26T10:11:39.000Z</time>
      </trkpt>
      <trkpt lat="43.50479" lon="6.83273">
        <ele>390</ele>
        <time>2023-09-26T10:11:44.000Z</time>
      </trkpt>
      <trkpt lat="43.50476" lon="6.83272">
        <ele>390.20001220703</ele>
        <time>2023-09-26T10:11:45.000Z</time>
      </trkpt>
      <trkpt lat="43.50455" lon="6.83268">
        <ele>390.79998779297</ele>
        <time>2023-09-26T10:11:51.000Z</time>
      </trkpt>
      <trkpt lat="43.50444" lon="6.83267">
        <ele>391.20001220703</ele>
        <time>2023-09-26T10:11:54.000Z</time>
      </trkpt>
      <trkpt lat="43.50441" lon="6.83267">
        <ele>391.20001220703</ele>
        <time>2023-09-26T10:11:55.000Z</time>
      </trkpt>
      <trkpt lat="43.50425" lon="6.83268">
        <ele>392.20001220703</ele>
        <time>2023-09-26T10:12:00.000Z</time>
      </trkpt>
      <trkpt lat="43.50415" lon="6.83268">
        <ele>392.60000610352</ele>
        <time>2023-09-26T10:12:03.000Z</time>
      </trkpt>
      <trkpt lat="43.50395" lon="6.8327">
        <ele>393.60000610352</ele>
        <time>2023-09-26T10:12:10.000Z</time>
      </trkpt>
      <trkpt lat="43.50392" lon="6.8327">
        <ele>393.60000610352</ele>
        <time>2023-09-26T10:12:11.000Z</time>
      </trkpt>
      <trkpt lat="43.50362" lon="6.83276">
        <ele>393.79998779297</ele>
        <time>2023-09-26T10:12:20.000Z</time>
      </trkpt>
      <trkpt lat="43.50345" lon="6.83272">
        <ele>394.60000610352</ele>
        <time>2023-09-26T10:12:25.000Z</time>
      </trkpt>
      <trkpt lat="43.50328" lon="6.83256">
        <ele>395.60000610352</ele>
        <time>2023-09-26T10:12:31.000Z</time>
      </trkpt>
      <trkpt lat="43.50325" lon="6.83253">
        <ele>395.79998779297</ele>
        <time>2023-09-26T10:12:32.000Z</time>
      </trkpt>
      <trkpt lat="43.50318" lon="6.83231">
        <ele>396</ele>
        <time>2023-09-26T10:12:37.000Z</time>
      </trkpt>
      <trkpt lat="43.50314" lon="6.83205">
        <ele>396.20001220703</ele>
        <time>2023-09-26T10:12:43.000Z</time>
      </trkpt>
      <trkpt lat="43.50312" lon="6.83192">
        <ele>396.79998779297</ele>
        <time>2023-09-26T10:12:46.000Z</time>
      </trkpt>
      <trkpt lat="43.50309" lon="6.83175">
        <ele>397.60000610352</ele>
        <time>2023-09-26T10:12:50.000Z</time>
      </trkpt>
      <trkpt lat="43.50305" lon="6.83162">
        <ele>398</ele>
        <time>2023-09-26T10:12:53.000Z</time>
      </trkpt>
      <trkpt lat="43.50301" lon="6.83151">
        <ele>398.39999389648</ele>
        <time>2023-09-26T10:12:56.000Z</time>
      </trkpt>
      <trkpt lat="43.50297" lon="6.83135">
        <ele>399</ele>
        <time>2023-09-26T10:13:00.000Z</time>
      </trkpt>
      <trkpt lat="43.50296" lon="6.83127">
        <ele>399.20001220703</ele>
        <time>2023-09-26T10:13:02.000Z</time>
      </trkpt>
      <trkpt lat="43.50295" lon="6.83101">
        <ele>400</ele>
        <time>2023-09-26T10:13:07.000Z</time>
      </trkpt>
      <trkpt lat="43.50293" lon="6.83095">
        <ele>400</ele>
        <time>2023-09-26T10:13:08.000Z</time>
      </trkpt>
      <trkpt lat="43.50282" lon="6.83065">
        <ele>399</ele>
        <time>2023-09-26T10:13:13.000Z</time>
      </trkpt>
      <trkpt lat="43.5028" lon="6.83058">
        <ele>398.79998779297</ele>
        <time>2023-09-26T10:13:14.000Z</time>
      </trkpt>
      <trkpt lat="43.50278" lon="6.83043">
        <ele>398.20001220703</ele>
        <time>2023-09-26T10:13:16.000Z</time>
      </trkpt>
      <trkpt lat="43.50278" lon="6.83036">
        <ele>397.79998779297</ele>
        <time>2023-09-26T10:13:17.000Z</time>
      </trkpt>
      <trkpt lat="43.50278" lon="6.83021">
        <ele>397.20001220703</ele>
        <time>2023-09-26T10:13:19.000Z</time>
      </trkpt>
      <trkpt lat="43.50278" lon="6.83013">
        <ele>397</ele>
        <time>2023-09-26T10:13:20.000Z</time>
      </trkpt>
      <trkpt lat="43.50276" lon="6.83005">
        <ele>396.79998779297</ele>
        <time>2023-09-26T10:13:21.000Z</time>
      </trkpt>
      <trkpt lat="43.5027" lon="6.82982">
        <ele>395.60000610352</ele>
        <time>2023-09-26T10:13:24.000Z</time>
      </trkpt>
      <trkpt lat="43.50268" lon="6.82975">
        <ele>395.39999389648</ele>
        <time>2023-09-26T10:13:25.000Z</time>
      </trkpt>
      <trkpt lat="43.50262" lon="6.82964">
        <ele>394.79998779297</ele>
        <time>2023-09-26T10:13:27.000Z</time>
      </trkpt>
      <trkpt lat="43.50258" lon="6.82959">
        <ele>394.60000610352</ele>
        <time>2023-09-26T10:13:28.000Z</time>
      </trkpt>
      <trkpt lat="43.50254" lon="6.82955">
        <ele>394.39999389648</ele>
        <time>2023-09-26T10:13:29.000Z</time>
      </trkpt>
      <trkpt lat="43.5024" lon="6.82944">
        <ele>393.79998779297</ele>
        <time>2023-09-26T10:13:32.000Z</time>
      </trkpt>
      <trkpt lat="43.50237" lon="6.82939">
        <ele>393.79998779297</ele>
        <time>2023-09-26T10:13:33.000Z</time>
      </trkpt>
      <trkpt lat="43.50231" lon="6.82929">
        <ele>393.20001220703</ele>
        <time>2023-09-26T10:13:35.000Z</time>
      </trkpt>
      <trkpt lat="43.50227" lon="6.82927">
        <ele>393</ele>
        <time>2023-09-26T10:13:36.000Z</time>
      </trkpt>
      <trkpt lat="43.50224" lon="6.82927">
        <ele>392.60000610352</ele>
        <time>2023-09-26T10:13:37.000Z</time>
      </trkpt>
      <trkpt lat="43.50221" lon="6.82928">
        <ele>392.39999389648</ele>
        <time>2023-09-26T10:13:38.000Z</time>
      </trkpt>
      <trkpt lat="43.50219" lon="6.82931">
        <ele>392</ele>
        <time>2023-09-26T10:13:39.000Z</time>
      </trkpt>
      <trkpt lat="43.50217" lon="6.82935">
        <ele>392</ele>
        <time>2023-09-26T10:13:40.000Z</time>
      </trkpt>
      <trkpt lat="43.50216" lon="6.82953">
        <ele>391</ele>
        <time>2023-09-26T10:13:44.000Z</time>
      </trkpt>
      <trkpt lat="43.50216" lon="6.82958">
        <ele>391</ele>
        <time>2023-09-26T10:13:45.000Z</time>
      </trkpt>
      <trkpt lat="43.50211" lon="6.82977">
        <ele>390.20001220703</ele>
        <time>2023-09-26T10:13:49.000Z</time>
      </trkpt>
      <trkpt lat="43.5021" lon="6.82978">
        <ele>389.79998779297</ele>
        <time>2023-09-26T10:13:50.000Z</time>
      </trkpt>
      <trkpt lat="43.5021" lon="6.82978">
        <ele>389.20001220703</ele>
        <time>2023-09-26T10:13:53.000Z</time>
      </trkpt>
      <trkpt lat="43.50204" lon="6.82987">
        <ele>389</ele>
        <time>2023-09-26T10:13:59.000Z</time>
      </trkpt>
      <trkpt lat="43.50195" lon="6.82996">
        <ele>388.79998779297</ele>
        <time>2023-09-26T10:14:03.000Z</time>
      </trkpt>
      <trkpt lat="43.50188" lon="6.83002">
        <ele>388.39999389648</ele>
        <time>2023-09-26T10:14:05.000Z</time>
      </trkpt>
      <trkpt lat="43.50185" lon="6.83005">
        <ele>388.20001220703</ele>
        <time>2023-09-26T10:14:06.000Z</time>
      </trkpt>
      <trkpt lat="43.50174" lon="6.83016">
        <ele>387.60000610352</ele>
        <time>2023-09-26T10:14:09.000Z</time>
      </trkpt>
      <trkpt lat="43.50171" lon="6.83021">
        <ele>387.60000610352</ele>
        <time>2023-09-26T10:14:10.000Z</time>
      </trkpt>
      <trkpt lat="43.50167" lon="6.83026">
        <ele>387.39999389648</ele>
        <time>2023-09-26T10:14:11.000Z</time>
      </trkpt>
      <trkpt lat="43.50152" lon="6.83047">
        <ele>386.20001220703</ele>
        <time>2023-09-26T10:14:15.000Z</time>
      </trkpt>
      <trkpt lat="43.50139" lon="6.83059">
        <ele>385.39999389648</ele>
        <time>2023-09-26T10:14:18.000Z</time>
      </trkpt>
      <trkpt lat="43.50135" lon="6.83063">
        <ele>385.20001220703</ele>
        <time>2023-09-26T10:14:19.000Z</time>
      </trkpt>
      <trkpt lat="43.5013" lon="6.83065">
        <ele>385</ele>
        <time>2023-09-26T10:14:20.000Z</time>
      </trkpt>
      <trkpt lat="43.50122" lon="6.83067">
        <ele>384.39999389648</ele>
        <time>2023-09-26T10:14:22.000Z</time>
      </trkpt>
      <trkpt lat="43.50107" lon="6.83058">
        <ele>384.20001220703</ele>
        <time>2023-09-26T10:14:26.000Z</time>
      </trkpt>
      <trkpt lat="43.50103" lon="6.83055">
        <ele>384</ele>
        <time>2023-09-26T10:14:27.000Z</time>
      </trkpt>
      <trkpt lat="43.50097" lon="6.83048">
        <ele>383.79998779297</ele>
        <time>2023-09-26T10:14:29.000Z</time>
      </trkpt>
      <trkpt lat="43.50093" lon="6.83045">
        <ele>383.79998779297</ele>
        <time>2023-09-26T10:14:30.000Z</time>
      </trkpt>
      <trkpt lat="43.50089" lon="6.83042">
        <ele>383.60000610352</ele>
        <time>2023-09-26T10:14:31.000Z</time>
      </trkpt>
      <trkpt lat="43.50082" lon="6.83036">
        <ele>383</ele>
        <time>2023-09-26T10:14:33.000Z</time>
      </trkpt>
      <trkpt lat="43.50072" lon="6.83028">
        <ele>381.79998779297</ele>
        <time>2023-09-26T10:14:36.000Z</time>
      </trkpt>
      <trkpt lat="43.50061" lon="6.8302">
        <ele>381</ele>
        <time>2023-09-26T10:14:39.000Z</time>
      </trkpt>
      <trkpt lat="43.50057" lon="6.83016">
        <ele>380.60000610352</ele>
        <time>2023-09-26T10:14:40.000Z</time>
      </trkpt>
      <trkpt lat="43.50046" lon="6.83006">
        <ele>379.79998779297</ele>
        <time>2023-09-26T10:14:43.000Z</time>
      </trkpt>
      <trkpt lat="43.50043" lon="6.83002">
        <ele>379.60000610352</ele>
        <time>2023-09-26T10:14:44.000Z</time>
      </trkpt>
      <trkpt lat="43.50035" lon="6.82993">
        <ele>378.39999389648</ele>
        <time>2023-09-26T10:14:47.000Z</time>
      </trkpt>
      <trkpt lat="43.50025" lon="6.82988">
        <ele>377.79998779297</ele>
        <time>2023-09-26T10:14:50.000Z</time>
      </trkpt>
      <trkpt lat="43.50009" lon="6.82982">
        <ele>377.39999389648</ele>
        <time>2023-09-26T10:14:55.000Z</time>
      </trkpt>
      <trkpt lat="43.50002" lon="6.82979">
        <ele>377.20001220703</ele>
        <time>2023-09-26T10:14:57.000Z</time>
      </trkpt>
      <trkpt lat="43.49995" lon="6.82974">
        <ele>376.60000610352</ele>
        <time>2023-09-26T10:14:59.000Z</time>
      </trkpt>
      <trkpt lat="43.49989" lon="6.82969">
        <ele>376.39999389648</ele>
        <time>2023-09-26T10:15:01.000Z</time>
      </trkpt>
      <trkpt lat="43.49985" lon="6.82966">
        <ele>376.20001220703</ele>
        <time>2023-09-26T10:15:02.000Z</time>
      </trkpt>
      <trkpt lat="43.49979" lon="6.82959">
        <ele>376.20001220703</ele>
        <time>2023-09-26T10:15:04.000Z</time>
      </trkpt>
      <trkpt lat="43.49977" lon="6.82955">
        <ele>376.20001220703</ele>
        <time>2023-09-26T10:15:05.000Z</time>
      </trkpt>
      <trkpt lat="43.49966" lon="6.82938">
        <ele>375</ele>
        <time>2023-09-26T10:15:09.000Z</time>
      </trkpt>
      <trkpt lat="43.4996" lon="6.82931">
        <ele>374.39999389648</ele>
        <time>2023-09-26T10:15:11.000Z</time>
      </trkpt>
      <trkpt lat="43.49953" lon="6.82925">
        <ele>374</ele>
        <time>2023-09-26T10:15:13.000Z</time>
      </trkpt>
      <trkpt lat="43.4995" lon="6.82923">
        <ele>373.79998779297</ele>
        <time>2023-09-26T10:15:14.000Z</time>
      </trkpt>
      <trkpt lat="43.49939" lon="6.82917">
        <ele>373.39999389648</ele>
        <time>2023-09-26T10:15:17.000Z</time>
      </trkpt>
      <trkpt lat="43.49924" lon="6.82913">
        <ele>373.20001220703</ele>
        <time>2023-09-26T10:15:21.000Z</time>
      </trkpt>
      <trkpt lat="43.49915" lon="6.82912">
        <ele>373.20001220703</ele>
        <time>2023-09-26T10:15:23.000Z</time>
      </trkpt>
      <trkpt lat="43.49903" lon="6.82912">
        <ele>373.20001220703</ele>
        <time>2023-09-26T10:15:26.000Z</time>
      </trkpt>
      <trkpt lat="43.49895" lon="6.82912">
        <ele>372.60000610352</ele>
        <time>2023-09-26T10:15:28.000Z</time>
      </trkpt>
      <trkpt lat="43.49886" lon="6.82913">
        <ele>371.79998779297</ele>
        <time>2023-09-26T10:15:30.000Z</time>
      </trkpt>
      <trkpt lat="43.49882" lon="6.82914">
        <ele>371.60000610352</ele>
        <time>2023-09-26T10:15:31.000Z</time>
      </trkpt>
      <trkpt lat="43.49868" lon="6.82916">
        <ele>371</ele>
        <time>2023-09-26T10:15:34.000Z</time>
      </trkpt>
      <trkpt lat="43.49859" lon="6.82919">
        <ele>370.60000610352</ele>
        <time>2023-09-26T10:15:36.000Z</time>
      </trkpt>
      <trkpt lat="43.49855" lon="6.8292">
        <ele>370.39999389648</ele>
        <time>2023-09-26T10:15:37.000Z</time>
      </trkpt>
      <trkpt lat="43.49837" lon="6.82918">
        <ele>369.39999389648</ele>
        <time>2023-09-26T10:15:42.000Z</time>
      </trkpt>
      <trkpt lat="43.49825" lon="6.82906">
        <ele>368.39999389648</ele>
        <time>2023-09-26T10:15:47.000Z</time>
      </trkpt>
      <trkpt lat="43.49823" lon="6.82898">
        <ele>368.20001220703</ele>
        <time>2023-09-26T10:15:49.000Z</time>
      </trkpt>
      <trkpt lat="43.49819" lon="6.82879">
        <ele>367.60000610352</ele>
        <time>2023-09-26T10:15:53.000Z</time>
      </trkpt>
      <trkpt lat="43.49818" lon="6.82874">
        <ele>367.39999389648</ele>
        <time>2023-09-26T10:15:54.000Z</time>
      </trkpt>
      <trkpt lat="43.49817" lon="6.82869">
        <ele>367.20001220703</ele>
        <time>2023-09-26T10:15:55.000Z</time>
      </trkpt>
      <trkpt lat="43.49816" lon="6.82853">
        <ele>366.79998779297</ele>
        <time>2023-09-26T10:15:58.000Z</time>
      </trkpt>
      <trkpt lat="43.49816" lon="6.82848">
        <ele>366.60000610352</ele>
        <time>2023-09-26T10:15:59.000Z</time>
      </trkpt>
      <trkpt lat="43.49821" lon="6.82828">
        <ele>366.20001220703</ele>
        <time>2023-09-26T10:16:03.000Z</time>
      </trkpt>
      <trkpt lat="43.49823" lon="6.82824">
        <ele>366.20001220703</ele>
        <time>2023-09-26T10:16:04.000Z</time>
      </trkpt>
      <trkpt lat="43.49826" lon="6.8282">
        <ele>366.20001220703</ele>
        <time>2023-09-26T10:16:05.000Z</time>
      </trkpt>
      <trkpt lat="43.49839" lon="6.82803">
        <ele>365.20001220703</ele>
        <time>2023-09-26T10:16:09.000Z</time>
      </trkpt>
      <trkpt lat="43.49849" lon="6.82789">
        <ele>364.60000610352</ele>
        <time>2023-09-26T10:16:12.000Z</time>
      </trkpt>
      <trkpt lat="43.49855" lon="6.82779">
        <ele>364.39999389648</ele>
        <time>2023-09-26T10:16:14.000Z</time>
      </trkpt>
      <trkpt lat="43.49858" lon="6.82774">
        <ele>364.20001220703</ele>
        <time>2023-09-26T10:16:15.000Z</time>
      </trkpt>
      <trkpt lat="43.49865" lon="6.82759">
        <ele>363.60000610352</ele>
        <time>2023-09-26T10:16:18.000Z</time>
      </trkpt>
      <trkpt lat="43.49871" lon="6.82746">
        <ele>362.79998779297</ele>
        <time>2023-09-26T10:16:21.000Z</time>
      </trkpt>
      <trkpt lat="43.49874" lon="6.82737">
        <ele>362.20001220703</ele>
        <time>2023-09-26T10:16:23.000Z</time>
      </trkpt>
      <trkpt lat="43.49877" lon="6.82719">
        <ele>361.79998779297</ele>
        <time>2023-09-26T10:16:27.000Z</time>
      </trkpt>
      <trkpt lat="43.49879" lon="6.82708">
        <ele>361.60000610352</ele>
        <time>2023-09-26T10:16:29.000Z</time>
      </trkpt>
      <trkpt lat="43.4988" lon="6.82702">
        <ele>361.39999389648</ele>
        <time>2023-09-26T10:16:30.000Z</time>
      </trkpt>
      <trkpt lat="43.49887" lon="6.82671">
        <ele>360.60000610352</ele>
        <time>2023-09-26T10:16:35.000Z</time>
      </trkpt>
      <trkpt lat="43.49886" lon="6.82658">
        <ele>360.39999389648</ele>
        <time>2023-09-26T10:16:37.000Z</time>
      </trkpt>
      <trkpt lat="43.49884" lon="6.8264">
        <ele>359.79998779297</ele>
        <time>2023-09-26T10:16:40.000Z</time>
      </trkpt>
      <trkpt lat="43.49883" lon="6.82633">
        <ele>359.60000610352</ele>
        <time>2023-09-26T10:16:41.000Z</time>
      </trkpt>
      <trkpt lat="43.49882" lon="6.82618">
        <ele>359</ele>
        <time>2023-09-26T10:16:43.000Z</time>
      </trkpt>
      <trkpt lat="43.49879" lon="6.82601">
        <ele>358.39999389648</ele>
        <time>2023-09-26T10:16:45.000Z</time>
      </trkpt>
      <trkpt lat="43.49877" lon="6.82588">
        <ele>357.79998779297</ele>
        <time>2023-09-26T10:16:47.000Z</time>
      </trkpt>
      <trkpt lat="43.49876" lon="6.82575">
        <ele>357.39999389648</ele>
        <time>2023-09-26T10:16:49.000Z</time>
      </trkpt>
      <trkpt lat="43.49876" lon="6.82568">
        <ele>357.20001220703</ele>
        <time>2023-09-26T10:16:50.000Z</time>
      </trkpt>
      <trkpt lat="43.49872" lon="6.82557">
        <ele>356.60000610352</ele>
        <time>2023-09-26T10:16:52.000Z</time>
      </trkpt>
      <trkpt lat="43.49866" lon="6.82548">
        <ele>356.20001220703</ele>
        <time>2023-09-26T10:16:54.000Z</time>
      </trkpt>
      <trkpt lat="43.49855" lon="6.82537">
        <ele>356</ele>
        <time>2023-09-26T10:16:57.000Z</time>
      </trkpt>
      <trkpt lat="43.4984" lon="6.82521">
        <ele>355.20001220703</ele>
        <time>2023-09-26T10:17:01.000Z</time>
      </trkpt>
      <trkpt lat="43.49828" lon="6.8251">
        <ele>355</ele>
        <time>2023-09-26T10:17:04.000Z</time>
      </trkpt>
      <trkpt lat="43.49818" lon="6.82498">
        <ele>353.79998779297</ele>
        <time>2023-09-26T10:17:08.000Z</time>
      </trkpt>
      <trkpt lat="43.49816" lon="6.82496">
        <ele>353.60000610352</ele>
        <time>2023-09-26T10:17:09.000Z</time>
      </trkpt>
      <trkpt lat="43.49816" lon="6.82496">
        <ele>352.79998779297</ele>
        <time>2023-09-26T10:17:12.000Z</time>
      </trkpt>
      <trkpt lat="43.49816" lon="6.82496">
        <ele>352.60000610352</ele>
        <time>2023-09-26T10:17:13.000Z</time>
      </trkpt>
      <trkpt lat="43.49816" lon="6.82496">
        <ele>352.20001220703</ele>
        <time>2023-09-26T10:17:33.000Z</time>
      </trkpt>
      <trkpt lat="43.49811" lon="6.82489">
        <ele>351.79998779297</ele>
        <time>2023-09-26T10:17:40.000Z</time>
      </trkpt>
      <trkpt lat="43.49799" lon="6.8247">
        <ele>351.60000610352</ele>
        <time>2023-09-26T10:17:45.000Z</time>
      </trkpt>
      <trkpt lat="43.49798" lon="6.82466">
        <ele>351.60000610352</ele>
        <time>2023-09-26T10:17:46.000Z</time>
      </trkpt>
      <trkpt lat="43.49792" lon="6.82434">
        <ele>351</ele>
        <time>2023-09-26T10:17:52.000Z</time>
      </trkpt>
      <trkpt lat="43.4979" lon="6.82425">
        <ele>350.79998779297</ele>
        <time>2023-09-26T10:17:54.000Z</time>
      </trkpt>
      <trkpt lat="43.49785" lon="6.82402">
        <ele>350.39999389648</ele>
        <time>2023-09-26T10:17:58.000Z</time>
      </trkpt>
      <trkpt lat="43.4978" lon="6.82378">
        <ele>349.20001220703</ele>
        <time>2023-09-26T10:18:02.000Z</time>
      </trkpt>
      <trkpt lat="43.49778" lon="6.82364">
        <ele>348.79998779297</ele>
        <time>2023-09-26T10:18:04.000Z</time>
      </trkpt>
      <trkpt lat="43.49774" lon="6.82353">
        <ele>348.39999389648</ele>
        <time>2023-09-26T10:18:06.000Z</time>
      </trkpt>
      <trkpt lat="43.49769" lon="6.82342">
        <ele>348.20001220703</ele>
        <time>2023-09-26T10:18:08.000Z</time>
      </trkpt>
      <trkpt lat="43.49766" lon="6.82338">
        <ele>348</ele>
        <time>2023-09-26T10:18:09.000Z</time>
      </trkpt>
      <trkpt lat="43.49753" lon="6.82325">
        <ele>347.20001220703</ele>
        <time>2023-09-26T10:18:13.000Z</time>
      </trkpt>
      <trkpt lat="43.4975" lon="6.82323">
        <ele>347</ele>
        <time>2023-09-26T10:18:14.000Z</time>
      </trkpt>
      <trkpt lat="43.49739" lon="6.82311">
        <ele>346.39999389648</ele>
        <time>2023-09-26T10:18:18.000Z</time>
      </trkpt>
      <trkpt lat="43.49735" lon="6.82297">
        <ele>346.20001220703</ele>
        <time>2023-09-26T10:18:23.000Z</time>
      </trkpt>
      <trkpt lat="43.49738" lon="6.82282">
        <ele>346.20001220703</ele>
        <time>2023-09-26T10:18:28.000Z</time>
      </trkpt>
      <trkpt lat="43.49749" lon="6.82266">
        <ele>346.39999389648</ele>
        <time>2023-09-26T10:18:33.000Z</time>
      </trkpt>
      <trkpt lat="43.49767" lon="6.82239">
        <ele>347.20001220703</ele>
        <time>2023-09-26T10:18:40.000Z</time>
      </trkpt>
      <trkpt lat="43.49786" lon="6.82214">
        <ele>348.60000610352</ele>
        <time>2023-09-26T10:18:47.000Z</time>
      </trkpt>
      <trkpt lat="43.498" lon="6.82198">
        <ele>349.60000610352</ele>
        <time>2023-09-26T10:18:52.000Z</time>
      </trkpt>
      <trkpt lat="43.49802" lon="6.82194">
        <ele>349.60000610352</ele>
        <time>2023-09-26T10:18:53.000Z</time>
      </trkpt>
      <trkpt lat="43.49806" lon="6.82179">
        <ele>350</ele>
        <time>2023-09-26T10:18:56.000Z</time>
      </trkpt>
      <trkpt lat="43.49803" lon="6.82166">
        <ele>350.60000610352</ele>
        <time>2023-09-26T10:18:59.000Z</time>
      </trkpt>
      <trkpt lat="43.49801" lon="6.82162">
        <ele>350.79998779297</ele>
        <time>2023-09-26T10:19:00.000Z</time>
      </trkpt>
      <trkpt lat="43.49784" lon="6.82144">
        <ele>351.60000610352</ele>
        <time>2023-09-26T10:19:06.000Z</time>
      </trkpt>
      <trkpt lat="43.4978" lon="6.8214">
        <ele>351.60000610352</ele>
        <time>2023-09-26T10:19:07.000Z</time>
      </trkpt>
      <trkpt lat="43.49764" lon="6.82131">
        <ele>352.60000610352</ele>
        <time>2023-09-26T10:19:12.000Z</time>
      </trkpt>
      <trkpt lat="43.49761" lon="6.8213">
        <ele>352.60000610352</ele>
        <time>2023-09-26T10:19:13.000Z</time>
      </trkpt>
      <trkpt lat="43.4974" lon="6.82122">
        <ele>353.20001220703</ele>
        <time>2023-09-26T10:19:19.000Z</time>
      </trkpt>
      <trkpt lat="43.49734" lon="6.82119">
        <ele>353.79998779297</ele>
        <time>2023-09-26T10:19:21.000Z</time>
      </trkpt>
      <trkpt lat="43.49716" lon="6.82116">
        <ele>354.79998779297</ele>
        <time>2023-09-26T10:19:26.000Z</time>
      </trkpt>
      <trkpt lat="43.49705" lon="6.82114">
        <ele>355</ele>
        <time>2023-09-26T10:19:29.000Z</time>
      </trkpt>
      <trkpt lat="43.49696" lon="6.8211">
        <ele>355.79998779297</ele>
        <time>2023-09-26T10:19:32.000Z</time>
      </trkpt>
      <trkpt lat="43.49688" lon="6.82101">
        <ele>356.39999389648</ele>
        <time>2023-09-26T10:19:35.000Z</time>
      </trkpt>
      <trkpt lat="43.49684" lon="6.82094">
        <ele>356.79998779297</ele>
        <time>2023-09-26T10:19:37.000Z</time>
      </trkpt>
      <trkpt lat="43.49675" lon="6.82069">
        <ele>357.39999389648</ele>
        <time>2023-09-26T10:19:43.000Z</time>
      </trkpt>
      <trkpt lat="43.49668" lon="6.82052">
        <ele>358</ele>
        <time>2023-09-26T10:19:47.000Z</time>
      </trkpt>
      <trkpt lat="43.4966" lon="6.82031">
        <ele>358.39999389648</ele>
        <time>2023-09-26T10:19:52.000Z</time>
      </trkpt>
      <trkpt lat="43.49654" lon="6.82014">
        <ele>359</ele>
        <time>2023-09-26T10:19:56.000Z</time>
      </trkpt>
      <trkpt lat="43.49646" lon="6.81993">
        <ele>360</ele>
        <time>2023-09-26T10:20:01.000Z</time>
      </trkpt>
      <trkpt lat="43.49639" lon="6.81962">
        <ele>361</ele>
        <time>2023-09-26T10:20:08.000Z</time>
      </trkpt>
      <trkpt lat="43.49635" lon="6.81923">
        <ele>362</ele>
        <time>2023-09-26T10:20:16.000Z</time>
      </trkpt>
      <trkpt lat="43.49636" lon="6.81915">
        <ele>362.39999389648</ele>
        <time>2023-09-26T10:20:18.000Z</time>
      </trkpt>
      <trkpt lat="43.49638" lon="6.81901">
        <ele>363.60000610352</ele>
        <time>2023-09-26T10:20:22.000Z</time>
      </trkpt>
      <trkpt lat="43.49644" lon="6.81879">
        <ele>364.39999389648</ele>
        <time>2023-09-26T10:20:28.000Z</time>
      </trkpt>
      <trkpt lat="43.49644" lon="6.81875">
        <ele>364.60000610352</ele>
        <time>2023-09-26T10:20:29.000Z</time>
      </trkpt>
      <trkpt lat="43.49642" lon="6.81871">
        <ele>364.60000610352</ele>
        <time>2023-09-26T10:20:30.000Z</time>
      </trkpt>
      <trkpt lat="43.49633" lon="6.81858">
        <ele>365.20001220703</ele>
        <time>2023-09-26T10:20:34.000Z</time>
      </trkpt>
      <trkpt lat="43.49622" lon="6.8185">
        <ele>365.60000610352</ele>
        <time>2023-09-26T10:20:38.000Z</time>
      </trkpt>
      <trkpt lat="43.49609" lon="6.81844">
        <ele>366.20001220703</ele>
        <time>2023-09-26T10:20:42.000Z</time>
      </trkpt>
      <trkpt lat="43.49596" lon="6.81838">
        <ele>366.79998779297</ele>
        <time>2023-09-26T10:20:46.000Z</time>
      </trkpt>
      <trkpt lat="43.49586" lon="6.81829">
        <ele>367.39999389648</ele>
        <time>2023-09-26T10:20:50.000Z</time>
      </trkpt>
      <trkpt lat="43.49584" lon="6.81813">
        <ele>367.79998779297</ele>
        <time>2023-09-26T10:20:54.000Z</time>
      </trkpt>
      <trkpt lat="43.49586" lon="6.81803">
        <ele>368</ele>
        <time>2023-09-26T10:20:56.000Z</time>
      </trkpt>
      <trkpt lat="43.49591" lon="6.81784">
        <ele>368</ele>
        <time>2023-09-26T10:21:00.000Z</time>
      </trkpt>
      <trkpt lat="43.49605" lon="6.81742">
        <ele>367.20001220703</ele>
        <time>2023-09-26T10:21:10.000Z</time>
      </trkpt>
      <trkpt lat="43.49607" lon="6.81736">
        <ele>366.79998779297</ele>
        <time>2023-09-26T10:21:12.000Z</time>
      </trkpt>
      <trkpt lat="43.49609" lon="6.8173">
        <ele>366.60000610352</ele>
        <time>2023-09-26T10:21:15.000Z</time>
      </trkpt>
      <trkpt lat="43.49609" lon="6.8173">
        <ele>366</ele>
        <time>2023-09-26T10:21:20.000Z</time>
      </trkpt>
      <trkpt lat="43.49609" lon="6.8173">
        <ele>365.60000610352</ele>
        <time>2023-09-26T10:21:22.000Z</time>
      </trkpt>
      <trkpt lat="43.49609" lon="6.8173">
        <ele>365.20001220703</ele>
        <time>2023-09-26T10:21:29.000Z</time>
      </trkpt>
      <trkpt lat="43.49609" lon="6.81729">
        <ele>365.39999389648</ele>
        <time>2023-09-26T10:22:05.000Z</time>
      </trkpt>
      <trkpt lat="43.49613" lon="6.81723">
        <ele>365.39999389648</ele>
        <time>2023-09-26T10:22:08.000Z</time>
      </trkpt>
      <trkpt lat="43.49623" lon="6.817">
        <ele>365.20001220703</ele>
        <time>2023-09-26T10:22:14.000Z</time>
      </trkpt>
      <trkpt lat="43.49636" lon="6.81674">
        <ele>364.60000610352</ele>
        <time>2023-09-26T10:22:20.000Z</time>
      </trkpt>
      <trkpt lat="43.49638" lon="6.81669">
        <ele>364.60000610352</ele>
        <time>2023-09-26T10:22:21.000Z</time>
      </trkpt>
      <trkpt lat="43.49654" lon="6.81643">
        <ele>364.20001220703</ele>
        <time>2023-09-26T10:22:26.000Z</time>
      </trkpt>
      <trkpt lat="43.49668" lon="6.81623">
        <ele>363.79998779297</ele>
        <time>2023-09-26T10:22:30.000Z</time>
      </trkpt>
      <trkpt lat="43.49675" lon="6.81611">
        <ele>363.39999389648</ele>
        <time>2023-09-26T10:22:32.000Z</time>
      </trkpt>
      <trkpt lat="43.49683" lon="6.81598">
        <ele>363.20001220703</ele>
        <time>2023-09-26T10:22:34.000Z</time>
      </trkpt>
      <trkpt lat="43.49691" lon="6.81588">
        <ele>363</ele>
        <time>2023-09-26T10:22:36.000Z</time>
      </trkpt>
      <trkpt lat="43.49696" lon="6.81584">
        <ele>362.79998779297</ele>
        <time>2023-09-26T10:22:37.000Z</time>
      </trkpt>
      <trkpt lat="43.49719" lon="6.81565">
        <ele>362.39999389648</ele>
        <time>2023-09-26T10:22:42.000Z</time>
      </trkpt>
      <trkpt lat="43.49722" lon="6.8156">
        <ele>362</ele>
        <time>2023-09-26T10:22:43.000Z</time>
      </trkpt>
      <trkpt lat="43.49723" lon="6.81554">
        <ele>362.20001220703</ele>
        <time>2023-09-26T10:22:44.000Z</time>
      </trkpt>
      <trkpt lat="43.49722" lon="6.8154">
        <ele>362</ele>
        <time>2023-09-26T10:22:46.000Z</time>
      </trkpt>
      <trkpt lat="43.49717" lon="6.81518">
        <ele>361.39999389648</ele>
        <time>2023-09-26T10:22:49.000Z</time>
      </trkpt>
      <trkpt lat="43.49711" lon="6.8149">
        <ele>360</ele>
        <time>2023-09-26T10:22:53.000Z</time>
      </trkpt>
      <trkpt lat="43.49708" lon="6.81462">
        <ele>359.20001220703</ele>
        <time>2023-09-26T10:22:57.000Z</time>
      </trkpt>
      <trkpt lat="43.49708" lon="6.81454">
        <ele>359</ele>
        <time>2023-09-26T10:22:58.000Z</time>
      </trkpt>
      <trkpt lat="43.4971" lon="6.81447">
        <ele>358.79998779297</ele>
        <time>2023-09-26T10:22:59.000Z</time>
      </trkpt>
      <trkpt lat="43.49717" lon="6.81428">
        <ele>358.79998779297</ele>
        <time>2023-09-26T10:23:02.000Z</time>
      </trkpt>
      <trkpt lat="43.49725" lon="6.81416">
        <ele>358.60000610352</ele>
        <time>2023-09-26T10:23:04.000Z</time>
      </trkpt>
      <trkpt lat="43.49735" lon="6.81407">
        <ele>358.20001220703</ele>
        <time>2023-09-26T10:23:06.000Z</time>
      </trkpt>
      <trkpt lat="43.49746" lon="6.814">
        <ele>358</ele>
        <time>2023-09-26T10:23:08.000Z</time>
      </trkpt>
      <trkpt lat="43.49779" lon="6.81386">
        <ele>357.20001220703</ele>
        <time>2023-09-26T10:23:14.000Z</time>
      </trkpt>
      <trkpt lat="43.49784" lon="6.81385">
        <ele>357</ele>
        <time>2023-09-26T10:23:15.000Z</time>
      </trkpt>
      <trkpt lat="43.4979" lon="6.81384">
        <ele>357</ele>
        <time>2023-09-26T10:23:16.000Z</time>
      </trkpt>
      <trkpt lat="43.49806" lon="6.8138">
        <ele>356.39999389648</ele>
        <time>2023-09-26T10:23:19.000Z</time>
      </trkpt>
      <trkpt lat="43.49817" lon="6.8138">
        <ele>356.20001220703</ele>
        <time>2023-09-26T10:23:21.000Z</time>
      </trkpt>
      <trkpt lat="43.49823" lon="6.8138">
        <ele>356</ele>
        <time>2023-09-26T10:23:22.000Z</time>
      </trkpt>
      <trkpt lat="43.49849" lon="6.8138">
        <ele>355</ele>
        <time>2023-09-26T10:23:27.000Z</time>
      </trkpt>
      <trkpt lat="43.49853" lon="6.8138">
        <ele>355</ele>
        <time>2023-09-26T10:23:28.000Z</time>
      </trkpt>
      <trkpt lat="43.49858" lon="6.81379">
        <ele>354.79998779297</ele>
        <time>2023-09-26T10:23:29.000Z</time>
      </trkpt>
      <trkpt lat="43.49865" lon="6.8138">
        <ele>354.60000610352</ele>
        <time>2023-09-26T10:23:30.000Z</time>
      </trkpt>
      <trkpt lat="43.49879" lon="6.81381">
        <ele>354.39999389648</ele>
        <time>2023-09-26T10:23:33.000Z</time>
      </trkpt>
      <trkpt lat="43.49892" lon="6.81383">
        <ele>354.39999389648</ele>
        <time>2023-09-26T10:23:36.000Z</time>
      </trkpt>
      <trkpt lat="43.49899" lon="6.81385">
        <ele>354.60000610352</ele>
        <time>2023-09-26T10:23:38.000Z</time>
      </trkpt>
      <trkpt lat="43.49922" lon="6.81395">
        <ele>355</ele>
        <time>2023-09-26T10:23:44.000Z</time>
      </trkpt>
      <trkpt lat="43.49934" lon="6.81397">
        <ele>355.20001220703</ele>
        <time>2023-09-26T10:23:47.000Z</time>
      </trkpt>
      <trkpt lat="43.49947" lon="6.81392">
        <ele>355.79998779297</ele>
        <time>2023-09-26T10:23:50.000Z</time>
      </trkpt>
      <trkpt lat="43.49949" lon="6.8139">
        <ele>356</ele>
        <time>2023-09-26T10:23:51.000Z</time>
      </trkpt>
      <trkpt lat="43.49957" lon="6.81382">
        <ele>356.39999389648</ele>
        <time>2023-09-26T10:23:53.000Z</time>
      </trkpt>
      <trkpt lat="43.49962" lon="6.81374">
        <ele>356.60000610352</ele>
        <time>2023-09-26T10:23:55.000Z</time>
      </trkpt>
      <trkpt lat="43.4997" lon="6.81355">
        <ele>357</ele>
        <time>2023-09-26T10:23:59.000Z</time>
      </trkpt>
      <trkpt lat="43.49979" lon="6.8133">
        <ele>357.60000610352</ele>
        <time>2023-09-26T10:24:04.000Z</time>
      </trkpt>
      <trkpt lat="43.49979" lon="6.81325">
        <ele>357.79998779297</ele>
        <time>2023-09-26T10:24:05.000Z</time>
      </trkpt>
      <trkpt lat="43.49977" lon="6.81313">
        <ele>358.20001220703</ele>
        <time>2023-09-26T10:24:07.000Z</time>
      </trkpt>
      <trkpt lat="43.49976" lon="6.81308">
        <ele>358.39999389648</ele>
        <time>2023-09-26T10:24:08.000Z</time>
      </trkpt>
      <trkpt lat="43.49972" lon="6.8129">
        <ele>358.79998779297</ele>
        <time>2023-09-26T10:24:11.000Z</time>
      </trkpt>
      <trkpt lat="43.49969" lon="6.81268">
        <ele>359.20001220703</ele>
        <time>2023-09-26T10:24:15.000Z</time>
      </trkpt>
      <trkpt lat="43.49968" lon="6.81262">
        <ele>359.20001220703</ele>
        <time>2023-09-26T10:24:16.000Z</time>
      </trkpt>
      <trkpt lat="43.49961" lon="6.81219">
        <ele>360</ele>
        <time>2023-09-26T10:24:24.000Z</time>
      </trkpt>
      <trkpt lat="43.49959" lon="6.81209">
        <ele>360.20001220703</ele>
        <time>2023-09-26T10:24:26.000Z</time>
      </trkpt>
      <trkpt lat="43.49955" lon="6.8119">
        <ele>360.79998779297</ele>
        <time>2023-09-26T10:24:30.000Z</time>
      </trkpt>
      <trkpt lat="43.4995" lon="6.8117">
        <ele>361.39999389648</ele>
        <time>2023-09-26T10:24:34.000Z</time>
      </trkpt>
      <trkpt lat="43.49937" lon="6.81133">
        <ele>361.79998779297</ele>
        <time>2023-09-26T10:24:42.000Z</time>
      </trkpt>
      <trkpt lat="43.49928" lon="6.81105">
        <ele>362.39999389648</ele>
        <time>2023-09-26T10:24:48.000Z</time>
      </trkpt>
      <trkpt lat="43.4992" lon="6.81083">
        <ele>363</ele>
        <time>2023-09-26T10:24:53.000Z</time>
      </trkpt>
      <trkpt lat="43.49915" lon="6.81068">
        <ele>363.39999389648</ele>
        <time>2023-09-26T10:24:56.000Z</time>
      </trkpt>
      <trkpt lat="43.49906" lon="6.81036">
        <ele>364.39999389648</ele>
        <time>2023-09-26T10:25:03.000Z</time>
      </trkpt>
      <trkpt lat="43.49889" lon="6.81008">
        <ele>365.39999389648</ele>
        <time>2023-09-26T10:25:10.000Z</time>
      </trkpt>
      <trkpt lat="43.4988" lon="6.80999">
        <ele>365.60000610352</ele>
        <time>2023-09-26T10:25:13.000Z</time>
      </trkpt>
      <trkpt lat="43.49856" lon="6.8098">
        <ele>366.20001220703</ele>
        <time>2023-09-26T10:25:20.000Z</time>
      </trkpt>
      <trkpt lat="43.49849" lon="6.80973">
        <ele>366.79998779297</ele>
        <time>2023-09-26T10:25:22.000Z</time>
      </trkpt>
      <trkpt lat="43.49823" lon="6.8095">
        <ele>367.60000610352</ele>
        <time>2023-09-26T10:25:30.000Z</time>
      </trkpt>
      <trkpt lat="43.49809" lon="6.80939">
        <ele>368</ele>
        <time>2023-09-26T10:25:34.000Z</time>
      </trkpt>
      <trkpt lat="43.49799" lon="6.8093">
        <ele>368.20001220703</ele>
        <time>2023-09-26T10:25:37.000Z</time>
      </trkpt>
      <trkpt lat="43.49778" lon="6.80916">
        <ele>369.20001220703</ele>
        <time>2023-09-26T10:25:43.000Z</time>
      </trkpt>
      <trkpt lat="43.49771" lon="6.80911">
        <ele>369.39999389648</ele>
        <time>2023-09-26T10:25:45.000Z</time>
      </trkpt>
      <trkpt lat="43.49764" lon="6.80906">
        <ele>369.79998779297</ele>
        <time>2023-09-26T10:25:47.000Z</time>
      </trkpt>
      <trkpt lat="43.49757" lon="6.809">
        <ele>370</ele>
        <time>2023-09-26T10:25:49.000Z</time>
      </trkpt>
      <trkpt lat="43.49754" lon="6.80896">
        <ele>370.20001220703</ele>
        <time>2023-09-26T10:25:50.000Z</time>
      </trkpt>
      <trkpt lat="43.49752" lon="6.80892">
        <ele>370.20001220703</ele>
        <time>2023-09-26T10:25:51.000Z</time>
      </trkpt>
      <trkpt lat="43.49742" lon="6.80862">
        <ele>371</ele>
        <time>2023-09-26T10:25:57.000Z</time>
      </trkpt>
      <trkpt lat="43.49741" lon="6.80851">
        <ele>371.39999389648</ele>
        <time>2023-09-26T10:25:59.000Z</time>
      </trkpt>
      <trkpt lat="43.4974" lon="6.80829">
        <ele>371.79998779297</ele>
        <time>2023-09-26T10:26:03.000Z</time>
      </trkpt>
      <trkpt lat="43.4974" lon="6.80787">
        <ele>372.39999389648</ele>
        <time>2023-09-26T10:26:11.000Z</time>
      </trkpt>
      <trkpt lat="43.49737" lon="6.80745">
        <ele>373.60000610352</ele>
        <time>2023-09-26T10:26:19.000Z</time>
      </trkpt>
      <trkpt lat="43.49734" lon="6.80729">
        <ele>373.79998779297</ele>
        <time>2023-09-26T10:26:22.000Z</time>
      </trkpt>
      <trkpt lat="43.49728" lon="6.80699">
        <ele>374.60000610352</ele>
        <time>2023-09-26T10:26:28.000Z</time>
      </trkpt>
      <trkpt lat="43.49725" lon="6.80689">
        <ele>374.79998779297</ele>
        <time>2023-09-26T10:26:30.000Z</time>
      </trkpt>
      <trkpt lat="43.49721" lon="6.80679">
        <ele>374.79998779297</ele>
        <time>2023-09-26T10:26:32.000Z</time>
      </trkpt>
      <trkpt lat="43.49716" lon="6.80671">
        <ele>375</ele>
        <time>2023-09-26T10:26:34.000Z</time>
      </trkpt>
      <trkpt lat="43.49698" lon="6.8065">
        <ele>376</ele>
        <time>2023-09-26T10:26:40.000Z</time>
      </trkpt>
      <trkpt lat="43.49692" lon="6.80643">
        <ele>376.20001220703</ele>
        <time>2023-09-26T10:26:42.000Z</time>
      </trkpt>
      <trkpt lat="43.49679" lon="6.80628">
        <ele>376.79998779297</ele>
        <time>2023-09-26T10:26:47.000Z</time>
      </trkpt>
      <trkpt lat="43.49674" lon="6.8062">
        <ele>377</ele>
        <time>2023-09-26T10:26:50.000Z</time>
      </trkpt>
      <trkpt lat="43.4967" lon="6.80615">
        <ele>377.20001220703</ele>
        <time>2023-09-26T10:26:53.000Z</time>
      </trkpt>
      <trkpt lat="43.49669" lon="6.80614">
        <ele>377.20001220703</ele>
        <time>2023-09-26T10:26:54.000Z</time>
      </trkpt>
      <trkpt lat="43.49668" lon="6.80614">
        <ele>377.39999389648</ele>
        <time>2023-09-26T10:26:57.000Z</time>
      </trkpt>
      <trkpt lat="43.49668" lon="6.80614">
        <ele>376.79998779297</ele>
        <time>2023-09-26T10:27:31.000Z</time>
      </trkpt>
      <trkpt lat="43.49668" lon="6.80615">
        <ele>376.79998779297</ele>
        <time>2023-09-26T10:27:48.000Z</time>
      </trkpt>
      <trkpt lat="43.49668" lon="6.80615">
        <ele>376.60000610352</ele>
        <time>2023-09-26T10:28:09.000Z</time>
      </trkpt>
      <trkpt lat="43.49671" lon="6.80614">
        <ele>376.60000610352</ele>
        <time>2023-09-26T10:28:44.000Z</time>
      </trkpt>
      <trkpt lat="43.49672" lon="6.80613">
        <ele>376.60000610352</ele>
        <time>2023-09-26T10:28:45.000Z</time>
      </trkpt>
      <trkpt lat="43.49681" lon="6.8061">
        <ele>377.20001220703</ele>
        <time>2023-09-26T10:28:50.000Z</time>
      </trkpt>
      <trkpt lat="43.49694" lon="6.80601">
        <ele>377.20001220703</ele>
        <time>2023-09-26T10:28:55.000Z</time>
      </trkpt>
      <trkpt lat="43.49715" lon="6.80573">
        <ele>377.39999389648</ele>
        <time>2023-09-26T10:29:04.000Z</time>
      </trkpt>
      <trkpt lat="43.49735" lon="6.80544">
        <ele>377.79998779297</ele>
        <time>2023-09-26T10:29:12.000Z</time>
      </trkpt>
      <trkpt lat="43.49736" lon="6.8054">
        <ele>377.79998779297</ele>
        <time>2023-09-26T10:29:13.000Z</time>
      </trkpt>
      <trkpt lat="43.49737" lon="6.80529">
        <ele>377.79998779297</ele>
        <time>2023-09-26T10:29:15.000Z</time>
      </trkpt>
      <trkpt lat="43.49736" lon="6.80515">
        <ele>377.79998779297</ele>
        <time>2023-09-26T10:29:17.000Z</time>
      </trkpt>
      <trkpt lat="43.49732" lon="6.80501">
        <ele>377.39999389648</ele>
        <time>2023-09-26T10:29:19.000Z</time>
      </trkpt>
      <trkpt lat="43.49725" lon="6.80481">
        <ele>376.39999389648</ele>
        <time>2023-09-26T10:29:22.000Z</time>
      </trkpt>
      <trkpt lat="43.49718" lon="6.80461">
        <ele>375.39999389648</ele>
        <time>2023-09-26T10:29:25.000Z</time>
      </trkpt>
      <trkpt lat="43.4971" lon="6.80443">
        <ele>374.39999389648</ele>
        <time>2023-09-26T10:29:28.000Z</time>
      </trkpt>
      <trkpt lat="43.49708" lon="6.80437">
        <ele>374.20001220703</ele>
        <time>2023-09-26T10:29:29.000Z</time>
      </trkpt>
      <trkpt lat="43.49705" lon="6.80432">
        <ele>373.60000610352</ele>
        <time>2023-09-26T10:29:30.000Z</time>
      </trkpt>
      <trkpt lat="43.49702" lon="6.80427">
        <ele>373.39999389648</ele>
        <time>2023-09-26T10:29:31.000Z</time>
      </trkpt>
      <trkpt lat="43.49698" lon="6.80423">
        <ele>373.20001220703</ele>
        <time>2023-09-26T10:29:32.000Z</time>
      </trkpt>
      <trkpt lat="43.49691" lon="6.80415">
        <ele>372.60000610352</ele>
        <time>2023-09-26T10:29:34.000Z</time>
      </trkpt>
      <trkpt lat="43.49688" lon="6.80412">
        <ele>372</ele>
        <time>2023-09-26T10:29:35.000Z</time>
      </trkpt>
      <trkpt lat="43.49684" lon="6.80408">
        <ele>371.79998779297</ele>
        <time>2023-09-26T10:29:36.000Z</time>
      </trkpt>
      <trkpt lat="43.49672" lon="6.80396">
        <ele>371</ele>
        <time>2023-09-26T10:29:39.000Z</time>
      </trkpt>
      <trkpt lat="43.4966" lon="6.8038">
        <ele>370.39999389648</ele>
        <time>2023-09-26T10:29:42.000Z</time>
      </trkpt>
      <trkpt lat="43.49657" lon="6.80374">
        <ele>370.20001220703</ele>
        <time>2023-09-26T10:29:43.000Z</time>
      </trkpt>
      <trkpt lat="43.49652" lon="6.80359">
        <ele>369.79998779297</ele>
        <time>2023-09-26T10:29:45.000Z</time>
      </trkpt>
      <trkpt lat="43.49651" lon="6.80351">
        <ele>369.79998779297</ele>
        <time>2023-09-26T10:29:46.000Z</time>
      </trkpt>
      <trkpt lat="43.49651" lon="6.80332">
        <ele>369</ele>
        <time>2023-09-26T10:29:48.000Z</time>
      </trkpt>
      <trkpt lat="43.49651" lon="6.80323">
        <ele>368.60000610352</ele>
        <time>2023-09-26T10:29:49.000Z</time>
      </trkpt>
      <trkpt lat="43.49651" lon="6.80315">
        <ele>368</ele>
        <time>2023-09-26T10:29:50.000Z</time>
      </trkpt>
      <trkpt lat="43.4965" lon="6.80308">
        <ele>367.60000610352</ele>
        <time>2023-09-26T10:29:51.000Z</time>
      </trkpt>
      <trkpt lat="43.49644" lon="6.80293">
        <ele>366.39999389648</ele>
        <time>2023-09-26T10:29:53.000Z</time>
      </trkpt>
      <trkpt lat="43.49626" lon="6.80268">
        <ele>365</ele>
        <time>2023-09-26T10:29:57.000Z</time>
      </trkpt>
      <trkpt lat="43.4961" lon="6.80246">
        <ele>364</ele>
        <time>2023-09-26T10:30:01.000Z</time>
      </trkpt>
      <trkpt lat="43.49598" lon="6.80225">
        <ele>362.60000610352</ele>
        <time>2023-09-26T10:30:04.000Z</time>
      </trkpt>
      <trkpt lat="43.49589" lon="6.80203">
        <ele>361.79998779297</ele>
        <time>2023-09-26T10:30:07.000Z</time>
      </trkpt>
      <trkpt lat="43.49587" lon="6.80197">
        <ele>361.20001220703</ele>
        <time>2023-09-26T10:30:08.000Z</time>
      </trkpt>
      <trkpt lat="43.49579" lon="6.80178">
        <ele>360</ele>
        <time>2023-09-26T10:30:11.000Z</time>
      </trkpt>
      <trkpt lat="43.49575" lon="6.80173">
        <ele>360</ele>
        <time>2023-09-26T10:30:12.000Z</time>
      </trkpt>
      <trkpt lat="43.49572" lon="6.8017">
        <ele>359.60000610352</ele>
        <time>2023-09-26T10:30:13.000Z</time>
      </trkpt>
      <trkpt lat="43.49564" lon="6.80166">
        <ele>359.20001220703</ele>
        <time>2023-09-26T10:30:15.000Z</time>
      </trkpt>
      <trkpt lat="43.49557" lon="6.80166">
        <ele>359</ele>
        <time>2023-09-26T10:30:17.000Z</time>
      </trkpt>
      <trkpt lat="43.49554" lon="6.80167">
        <ele>358.79998779297</ele>
        <time>2023-09-26T10:30:18.000Z</time>
      </trkpt>
      <trkpt lat="43.49539" lon="6.80178">
        <ele>358.39999389648</ele>
        <time>2023-09-26T10:30:23.000Z</time>
      </trkpt>
      <trkpt lat="43.49535" lon="6.8018">
        <ele>358.39999389648</ele>
        <time>2023-09-26T10:30:24.000Z</time>
      </trkpt>
      <trkpt lat="43.49519" lon="6.80188">
        <ele>358</ele>
        <time>2023-09-26T10:30:28.000Z</time>
      </trkpt>
      <trkpt lat="43.49514" lon="6.80189">
        <ele>358</ele>
        <time>2023-09-26T10:30:29.000Z</time>
      </trkpt>
      <trkpt lat="43.49484" lon="6.80198">
        <ele>357</ele>
        <time>2023-09-26T10:30:35.000Z</time>
      </trkpt>
      <trkpt lat="43.49461" lon="6.80199">
        <ele>356.39999389648</ele>
        <time>2023-09-26T10:30:39.000Z</time>
      </trkpt>
      <trkpt lat="43.49456" lon="6.80197">
        <ele>356</ele>
        <time>2023-09-26T10:30:40.000Z</time>
      </trkpt>
      <trkpt lat="43.49451" lon="6.80194">
        <ele>355.79998779297</ele>
        <time>2023-09-26T10:30:41.000Z</time>
      </trkpt>
      <trkpt lat="43.49442" lon="6.80187">
        <ele>355.60000610352</ele>
        <time>2023-09-26T10:30:43.000Z</time>
      </trkpt>
      <trkpt lat="43.49439" lon="6.80182">
        <ele>355.39999389648</ele>
        <time>2023-09-26T10:30:44.000Z</time>
      </trkpt>
      <trkpt lat="43.49436" lon="6.80177">
        <ele>355.39999389648</ele>
        <time>2023-09-26T10:30:45.000Z</time>
      </trkpt>
      <trkpt lat="43.49431" lon="6.80167">
        <ele>355.60000610352</ele>
        <time>2023-09-26T10:30:47.000Z</time>
      </trkpt>
      <trkpt lat="43.4943" lon="6.80162">
        <ele>355.60000610352</ele>
        <time>2023-09-26T10:30:48.000Z</time>
      </trkpt>
      <trkpt lat="43.49429" lon="6.80137">
        <ele>356.20001220703</ele>
        <time>2023-09-26T10:30:53.000Z</time>
      </trkpt>
      <trkpt lat="43.49431" lon="6.80123">
        <ele>357</ele>
        <time>2023-09-26T10:30:56.000Z</time>
      </trkpt>
      <trkpt lat="43.49435" lon="6.80109">
        <ele>358</ele>
        <time>2023-09-26T10:30:59.000Z</time>
      </trkpt>
      <trkpt lat="43.49436" lon="6.80104">
        <ele>358.20001220703</ele>
        <time>2023-09-26T10:31:00.000Z</time>
      </trkpt>
      <trkpt lat="43.49437" lon="6.80086">
        <ele>359.39999389648</ele>
        <time>2023-09-26T10:31:04.000Z</time>
      </trkpt>
      <trkpt lat="43.49437" lon="6.80078">
        <ele>360.39999389648</ele>
        <time>2023-09-26T10:31:06.000Z</time>
      </trkpt>
      <trkpt lat="43.49437" lon="6.80075">
        <ele>360.60000610352</ele>
        <time>2023-09-26T10:31:07.000Z</time>
      </trkpt>
      <trkpt lat="43.49437" lon="6.80067">
        <ele>361.79998779297</ele>
        <time>2023-09-26T10:31:11.000Z</time>
      </trkpt>
      <trkpt lat="43.49437" lon="6.80067">
        <ele>362.20001220703</ele>
        <time>2023-09-26T10:31:16.000Z</time>
      </trkpt>
      <trkpt lat="43.49437" lon="6.80069">
        <ele>362.60000610352</ele>
        <time>2023-09-26T10:31:27.000Z</time>
      </trkpt>
      <trkpt lat="43.49436" lon="6.80094">
        <ele>362.20001220703</ele>
        <time>2023-09-26T10:31:33.000Z</time>
      </trkpt>
      <trkpt lat="43.49431" lon="6.80121">
        <ele>361</ele>
        <time>2023-09-26T10:31:38.000Z</time>
      </trkpt>
      <trkpt lat="43.49428" lon="6.80137">
        <ele>360.39999389648</ele>
        <time>2023-09-26T10:31:41.000Z</time>
      </trkpt>
      <trkpt lat="43.49428" lon="6.80149">
        <ele>359.60000610352</ele>
        <time>2023-09-26T10:31:43.000Z</time>
      </trkpt>
      <trkpt lat="43.49428" lon="6.80155">
        <ele>359.39999389648</ele>
        <time>2023-09-26T10:31:44.000Z</time>
      </trkpt>
      <trkpt lat="43.49429" lon="6.80161">
        <ele>359</ele>
        <time>2023-09-26T10:31:45.000Z</time>
      </trkpt>
      <trkpt lat="43.4943" lon="6.80167">
        <ele>358.39999389648</ele>
        <time>2023-09-26T10:31:46.000Z</time>
      </trkpt>
      <trkpt lat="43.49434" lon="6.80178">
        <ele>357.39999389648</ele>
        <time>2023-09-26T10:31:48.000Z</time>
      </trkpt>
      <trkpt lat="43.49436" lon="6.80183">
        <ele>357</ele>
        <time>2023-09-26T10:31:49.000Z</time>
      </trkpt>
      <trkpt lat="43.49445" lon="6.80193">
        <ele>356</ele>
        <time>2023-09-26T10:31:52.000Z</time>
      </trkpt>
      <trkpt lat="43.49447" lon="6.80194">
        <ele>356</ele>
        <time>2023-09-26T10:31:53.000Z</time>
      </trkpt>
      <trkpt lat="43.49449" lon="6.80196">
        <ele>355.79998779297</ele>
        <time>2023-09-26T10:31:54.000Z</time>
      </trkpt>
      <trkpt lat="43.49448" lon="6.802">
        <ele>355.39999389648</ele>
        <time>2023-09-26T10:31:56.000Z</time>
      </trkpt>
      <trkpt lat="43.49446" lon="6.80201">
        <ele>355.20001220703</ele>
        <time>2023-09-26T10:31:57.000Z</time>
      </trkpt>
      <trkpt lat="43.49443" lon="6.802">
        <ele>355</ele>
        <time>2023-09-26T10:31:59.000Z</time>
      </trkpt>
      <trkpt lat="43.49441" lon="6.80199">
        <ele>355</ele>
        <time>2023-09-26T10:32:00.000Z</time>
      </trkpt>
      <trkpt lat="43.49427" lon="6.80185">
        <ele>353.79998779297</ele>
        <time>2023-09-26T10:32:06.000Z</time>
      </trkpt>
      <trkpt lat="43.49423" lon="6.80176">
        <ele>352.79998779297</ele>
        <time>2023-09-26T10:32:11.000Z</time>
      </trkpt>
      <trkpt lat="43.49423" lon="6.80176">
        <ele>351.79998779297</ele>
        <time>2023-09-26T10:32:25.000Z</time>
      </trkpt>
      <trkpt lat="43.49423" lon="6.80176">
        <ele>351.60000610352</ele>
        <time>2023-09-26T10:32:59.000Z</time>
      </trkpt>
      <trkpt lat="43.4942" lon="6.8017">
        <ele>351.39999389648</ele>
        <time>2023-09-26T10:33:08.000Z</time>
      </trkpt>
      <trkpt lat="43.49415" lon="6.80146">
        <ele>351</ele>
        <time>2023-09-26T10:33:13.000Z</time>
      </trkpt>
      <trkpt lat="43.49414" lon="6.8011">
        <ele>350.60000610352</ele>
        <time>2023-09-26T10:33:20.000Z</time>
      </trkpt>
      <trkpt lat="43.49411" lon="6.80099">
        <ele>350.60000610352</ele>
        <time>2023-09-26T10:33:22.000Z</time>
      </trkpt>
      <trkpt lat="43.49405" lon="6.80089">
        <ele>350.60000610352</ele>
        <time>2023-09-26T10:33:24.000Z</time>
      </trkpt>
      <trkpt lat="43.49402" lon="6.80085">
        <ele>350.60000610352</ele>
        <time>2023-09-26T10:33:25.000Z</time>
      </trkpt>
      <trkpt lat="43.49398" lon="6.80081">
        <ele>350.60000610352</ele>
        <time>2023-09-26T10:33:26.000Z</time>
      </trkpt>
      <trkpt lat="43.49385" lon="6.8007">
        <ele>350</ele>
        <time>2023-09-26T10:33:29.000Z</time>
      </trkpt>
      <trkpt lat="43.49377" lon="6.80063">
        <ele>349.60000610352</ele>
        <time>2023-09-26T10:33:31.000Z</time>
      </trkpt>
      <trkpt lat="43.49368" lon="6.80056">
        <ele>348.79998779297</ele>
        <time>2023-09-26T10:33:33.000Z</time>
      </trkpt>
      <trkpt lat="43.4936" lon="6.80049">
        <ele>348.60000610352</ele>
        <time>2023-09-26T10:33:35.000Z</time>
      </trkpt>
      <trkpt lat="43.49345" lon="6.80039">
        <ele>348.39999389648</ele>
        <time>2023-09-26T10:33:38.000Z</time>
      </trkpt>
      <trkpt lat="43.49328" lon="6.80028">
        <ele>347.79998779297</ele>
        <time>2023-09-26T10:33:42.000Z</time>
      </trkpt>
      <trkpt lat="43.49323" lon="6.80024">
        <ele>347.60000610352</ele>
        <time>2023-09-26T10:33:43.000Z</time>
      </trkpt>
      <trkpt lat="43.49319" lon="6.80021">
        <ele>347</ele>
        <time>2023-09-26T10:33:44.000Z</time>
      </trkpt>
      <trkpt lat="43.49315" lon="6.80019">
        <ele>346.79998779297</ele>
        <time>2023-09-26T10:33:45.000Z</time>
      </trkpt>
      <trkpt lat="43.49305" lon="6.80014">
        <ele>346.60000610352</ele>
        <time>2023-09-26T10:33:47.000Z</time>
      </trkpt>
      <trkpt lat="43.49292" lon="6.8001">
        <ele>346.20001220703</ele>
        <time>2023-09-26T10:33:50.000Z</time>
      </trkpt>
      <trkpt lat="43.49288" lon="6.8001">
        <ele>345.79998779297</ele>
        <time>2023-09-26T10:33:51.000Z</time>
      </trkpt>
      <trkpt lat="43.49278" lon="6.8001">
        <ele>345.39999389648</ele>
        <time>2023-09-26T10:33:53.000Z</time>
      </trkpt>
      <trkpt lat="43.49269" lon="6.80013">
        <ele>345.20001220703</ele>
        <time>2023-09-26T10:33:55.000Z</time>
      </trkpt>
      <trkpt lat="43.49262" lon="6.80019">
        <ele>344.39999389648</ele>
        <time>2023-09-26T10:33:57.000Z</time>
      </trkpt>
      <trkpt lat="43.49258" lon="6.80021">
        <ele>344</ele>
        <time>2023-09-26T10:33:58.000Z</time>
      </trkpt>
      <trkpt lat="43.49251" lon="6.80024">
        <ele>343.60000610352</ele>
        <time>2023-09-26T10:34:00.000Z</time>
      </trkpt>
      <trkpt lat="43.49247" lon="6.80025">
        <ele>343.60000610352</ele>
        <time>2023-09-26T10:34:01.000Z</time>
      </trkpt>
      <trkpt lat="43.49237" lon="6.80025">
        <ele>343.39999389648</ele>
        <time>2023-09-26T10:34:03.000Z</time>
      </trkpt>
      <trkpt lat="43.49233" lon="6.80024">
        <ele>343.20001220703</ele>
        <time>2023-09-26T10:34:04.000Z</time>
      </trkpt>
      <trkpt lat="43.4922" lon="6.80018">
        <ele>343</ele>
        <time>2023-09-26T10:34:07.000Z</time>
      </trkpt>
      <trkpt lat="43.4921" lon="6.80011">
        <ele>342.79998779297</ele>
        <time>2023-09-26T10:34:10.000Z</time>
      </trkpt>
      <trkpt lat="43.49207" lon="6.80007">
        <ele>342.79998779297</ele>
        <time>2023-09-26T10:34:11.000Z</time>
      </trkpt>
      <trkpt lat="43.49197" lon="6.79997">
        <ele>342.20001220703</ele>
        <time>2023-09-26T10:34:14.000Z</time>
      </trkpt>
      <trkpt lat="43.49191" lon="6.79994">
        <ele>341.60000610352</ele>
        <time>2023-09-26T10:34:16.000Z</time>
      </trkpt>
      <trkpt lat="43.49179" lon="6.79993">
        <ele>341</ele>
        <time>2023-09-26T10:34:19.000Z</time>
      </trkpt>
      <trkpt lat="43.49172" lon="6.79991">
        <ele>340.20001220703</ele>
        <time>2023-09-26T10:34:21.000Z</time>
      </trkpt>
      <trkpt lat="43.49165" lon="6.79988">
        <ele>339.79998779297</ele>
        <time>2023-09-26T10:34:23.000Z</time>
      </trkpt>
      <trkpt lat="43.49159" lon="6.79982">
        <ele>339.39999389648</ele>
        <time>2023-09-26T10:34:26.000Z</time>
      </trkpt>
      <trkpt lat="43.49154" lon="6.79958">
        <ele>338.79998779297</ele>
        <time>2023-09-26T10:34:32.000Z</time>
      </trkpt>
      <trkpt lat="43.49148" lon="6.79926">
        <ele>338</ele>
        <time>2023-09-26T10:34:39.000Z</time>
      </trkpt>
      <trkpt lat="43.49147" lon="6.79922">
        <ele>337.60000610352</ele>
        <time>2023-09-26T10:34:40.000Z</time>
      </trkpt>
      <trkpt lat="43.4914" lon="6.79906">
        <ele>336.79998779297</ele>
        <time>2023-09-26T10:34:44.000Z</time>
      </trkpt>
      <trkpt lat="43.49136" lon="6.79894">
        <ele>336.79998779297</ele>
        <time>2023-09-26T10:34:47.000Z</time>
      </trkpt>
      <trkpt lat="43.49131" lon="6.79877">
        <ele>336</ele>
        <time>2023-09-26T10:34:51.000Z</time>
      </trkpt>
      <trkpt lat="43.4913" lon="6.79873">
        <ele>336</ele>
        <time>2023-09-26T10:34:52.000Z</time>
      </trkpt>
      <trkpt lat="43.49129" lon="6.79864">
        <ele>335.60000610352</ele>
        <time>2023-09-26T10:34:54.000Z</time>
      </trkpt>
      <trkpt lat="43.49127" lon="6.7986">
        <ele>335.39999389648</ele>
        <time>2023-09-26T10:34:55.000Z</time>
      </trkpt>
      <trkpt lat="43.49118" lon="6.79845">
        <ele>334.20001220703</ele>
        <time>2023-09-26T10:35:00.000Z</time>
      </trkpt>
      <trkpt lat="43.49116" lon="6.79843">
        <ele>334.20001220703</ele>
        <time>2023-09-26T10:35:01.000Z</time>
      </trkpt>
      <trkpt lat="43.49099" lon="6.79824">
        <ele>333.60000610352</ele>
        <time>2023-09-26T10:35:07.000Z</time>
      </trkpt>
      <trkpt lat="43.49077" lon="6.79798">
        <ele>333</ele>
        <time>2023-09-26T10:35:14.000Z</time>
      </trkpt>
      <trkpt lat="43.49075" lon="6.79795">
        <ele>333</ele>
        <time>2023-09-26T10:35:15.000Z</time>
      </trkpt>
      <trkpt lat="43.49062" lon="6.79776">
        <ele>331.79998779297</ele>
        <time>2023-09-26T10:35:20.000Z</time>
      </trkpt>
      <trkpt lat="43.49059" lon="6.79772">
        <ele>331.60000610352</ele>
        <time>2023-09-26T10:35:21.000Z</time>
      </trkpt>
      <trkpt lat="43.49048" lon="6.79753">
        <ele>331</ele>
        <time>2023-09-26T10:35:26.000Z</time>
      </trkpt>
      <trkpt lat="43.49046" lon="6.79745">
        <ele>330.39999389648</ele>
        <time>2023-09-26T10:35:28.000Z</time>
      </trkpt>
      <trkpt lat="43.49039" lon="6.79723">
        <ele>329.60000610352</ele>
        <time>2023-09-26T10:35:33.000Z</time>
      </trkpt>
      <trkpt lat="43.49038" lon="6.79718">
        <ele>329.20001220703</ele>
        <time>2023-09-26T10:35:34.000Z</time>
      </trkpt>
      <trkpt lat="43.49038" lon="6.79704">
        <ele>328.39999389648</ele>
        <time>2023-09-26T10:35:37.000Z</time>
      </trkpt>
      <trkpt lat="43.49039" lon="6.79694">
        <ele>328</ele>
        <time>2023-09-26T10:35:39.000Z</time>
      </trkpt>
      <trkpt lat="43.49033" lon="6.79671">
        <ele>327.60000610352</ele>
        <time>2023-09-26T10:35:44.000Z</time>
      </trkpt>
      <trkpt lat="43.49027" lon="6.79654">
        <ele>327.20001220703</ele>
        <time>2023-09-26T10:35:48.000Z</time>
      </trkpt>
      <trkpt lat="43.49024" lon="6.79639">
        <ele>327</ele>
        <time>2023-09-26T10:35:51.000Z</time>
      </trkpt>
      <trkpt lat="43.49023" lon="6.79616">
        <ele>326.39999389648</ele>
        <time>2023-09-26T10:35:56.000Z</time>
      </trkpt>
      <trkpt lat="43.49022" lon="6.79611">
        <ele>325.79998779297</ele>
        <time>2023-09-26T10:35:57.000Z</time>
      </trkpt>
      <trkpt lat="43.49015" lon="6.79602">
        <ele>325</ele>
        <time>2023-09-26T10:36:00.000Z</time>
      </trkpt>
      <trkpt lat="43.49013" lon="6.796">
        <ele>325</ele>
        <time>2023-09-26T10:36:01.000Z</time>
      </trkpt>
      <trkpt lat="43.49002" lon="6.79598">
        <ele>324.39999389648</ele>
        <time>2023-09-26T10:36:05.000Z</time>
      </trkpt>
      <trkpt lat="43.48993" lon="6.79603">
        <ele>324</ele>
        <time>2023-09-26T10:36:10.000Z</time>
      </trkpt>
      <trkpt lat="43.48991" lon="6.79604">
        <ele>324</ele>
        <time>2023-09-26T10:36:12.000Z</time>
      </trkpt>
      <trkpt lat="43.48991" lon="6.79605">
        <ele>323.79998779297</ele>
        <time>2023-09-26T10:36:15.000Z</time>
      </trkpt>
      <trkpt lat="43.4899" lon="6.79605">
        <ele>323.60000610352</ele>
        <time>2023-09-26T10:36:33.000Z</time>
      </trkpt>
      <trkpt lat="43.48985" lon="6.79608">
        <ele>323.39999389648</ele>
        <time>2023-09-26T10:36:36.000Z</time>
      </trkpt>
      <trkpt lat="43.48972" lon="6.79612">
        <ele>323</ele>
        <time>2023-09-26T10:36:42.000Z</time>
      </trkpt>
      <trkpt lat="43.48972" lon="6.79612">
        <ele>323</ele>
        <time>2023-09-26T10:36:43.000Z</time>
      </trkpt>
      <trkpt lat="43.48973" lon="6.79612">
        <ele>322.79998779297</ele>
        <time>2023-09-26T10:36:47.000Z</time>
      </trkpt>
      <trkpt lat="43.48972" lon="6.79612">
        <ele>323</ele>
        <time>2023-09-26T10:36:53.000Z</time>
      </trkpt>
      <trkpt lat="43.48971" lon="6.79611">
        <ele>322.79998779297</ele>
        <time>2023-09-26T10:36:59.000Z</time>
      </trkpt>
      <trkpt lat="43.48964" lon="6.79611">
        <ele>323</ele>
        <time>2023-09-26T10:37:13.000Z</time>
      </trkpt>
      <trkpt lat="43.4895" lon="6.79608">
        <ele>322.60000610352</ele>
        <time>2023-09-26T10:37:17.000Z</time>
      </trkpt>
      <trkpt lat="43.48945" lon="6.79606">
        <ele>322.39999389648</ele>
        <time>2023-09-26T10:37:18.000Z</time>
      </trkpt>
      <trkpt lat="43.48941" lon="6.79603">
        <ele>322.39999389648</ele>
        <time>2023-09-26T10:37:19.000Z</time>
      </trkpt>
      <trkpt lat="43.48935" lon="6.79598">
        <ele>322</ele>
        <time>2023-09-26T10:37:21.000Z</time>
      </trkpt>
      <trkpt lat="43.48931" lon="6.79595">
        <ele>321.79998779297</ele>
        <time>2023-09-26T10:37:22.000Z</time>
      </trkpt>
      <trkpt lat="43.48916" lon="6.79583">
        <ele>321.20001220703</ele>
        <time>2023-09-26T10:37:26.000Z</time>
      </trkpt>
      <trkpt lat="43.4891" lon="6.79575">
        <ele>320.60000610352</ele>
        <time>2023-09-26T10:37:28.000Z</time>
      </trkpt>
      <trkpt lat="43.48906" lon="6.79568">
        <ele>320.39999389648</ele>
        <time>2023-09-26T10:37:29.000Z</time>
      </trkpt>
      <trkpt lat="43.489" lon="6.79563">
        <ele>320</ele>
        <time>2023-09-26T10:37:31.000Z</time>
      </trkpt>
      <trkpt lat="43.48896" lon="6.79562">
        <ele>319.79998779297</ele>
        <time>2023-09-26T10:37:32.000Z</time>
      </trkpt>
      <trkpt lat="43.48892" lon="6.79563">
        <ele>319.60000610352</ele>
        <time>2023-09-26T10:37:33.000Z</time>
      </trkpt>
      <trkpt lat="43.48886" lon="6.79571">
        <ele>319.20001220703</ele>
        <time>2023-09-26T10:37:35.000Z</time>
      </trkpt>
      <trkpt lat="43.48879" lon="6.79592">
        <ele>318.79998779297</ele>
        <time>2023-09-26T10:37:39.000Z</time>
      </trkpt>
      <trkpt lat="43.48876" lon="6.79602">
        <ele>318.60000610352</ele>
        <time>2023-09-26T10:37:41.000Z</time>
      </trkpt>
      <trkpt lat="43.48873" lon="6.79618">
        <ele>318</ele>
        <time>2023-09-26T10:37:44.000Z</time>
      </trkpt>
      <trkpt lat="43.48872" lon="6.79623">
        <ele>317.79998779297</ele>
        <time>2023-09-26T10:37:45.000Z</time>
      </trkpt>
      <trkpt lat="43.48866" lon="6.79638">
        <ele>317.39999389648</ele>
        <time>2023-09-26T10:37:48.000Z</time>
      </trkpt>
      <trkpt lat="43.48861" lon="6.79658">
        <ele>316.79998779297</ele>
        <time>2023-09-26T10:37:52.000Z</time>
      </trkpt>
      <trkpt lat="43.4886" lon="6.79666">
        <ele>316.39999389648</ele>
        <time>2023-09-26T10:37:54.000Z</time>
      </trkpt>
      <trkpt lat="43.48858" lon="6.79677">
        <ele>315.79998779297</ele>
        <time>2023-09-26T10:37:57.000Z</time>
      </trkpt>
      <trkpt lat="43.48856" lon="6.79685">
        <ele>315.39999389648</ele>
        <time>2023-09-26T10:38:02.000Z</time>
      </trkpt>
      <trkpt lat="43.48856" lon="6.79685">
        <ele>315.39999389648</ele>
        <time>2023-09-26T10:38:04.000Z</time>
      </trkpt>
      <trkpt lat="43.48856" lon="6.79685">
        <ele>315.20001220703</ele>
        <time>2023-09-26T10:38:14.000Z</time>
      </trkpt>
      <trkpt lat="43.48851" lon="6.79706">
        <ele>315</ele>
        <time>2023-09-26T10:38:20.000Z</time>
      </trkpt>
      <trkpt lat="43.48845" lon="6.79728">
        <ele>314.39999389648</ele>
        <time>2023-09-26T10:38:25.000Z</time>
      </trkpt>
      <trkpt lat="43.48843" lon="6.79732">
        <ele>314.20001220703</ele>
        <time>2023-09-26T10:38:26.000Z</time>
      </trkpt>
      <trkpt lat="43.48834" lon="6.79755">
        <ele>313.20001220703</ele>
        <time>2023-09-26T10:38:31.000Z</time>
      </trkpt>
      <trkpt lat="43.48831" lon="6.79766">
        <ele>312.79998779297</ele>
        <time>2023-09-26T10:38:34.000Z</time>
      </trkpt>
      <trkpt lat="43.4883" lon="6.79771">
        <ele>312.20001220703</ele>
        <time>2023-09-26T10:38:39.000Z</time>
      </trkpt>
      <trkpt lat="43.4883" lon="6.79771">
        <ele>312</ele>
        <time>2023-09-26T10:38:40.000Z</time>
      </trkpt>
      <trkpt lat="43.48825" lon="6.7978">
        <ele>311.60000610352</ele>
        <time>2023-09-26T10:38:51.000Z</time>
      </trkpt>
      <trkpt lat="43.48815" lon="6.798">
        <ele>311.20001220703</ele>
        <time>2023-09-26T10:38:57.000Z</time>
      </trkpt>
      <trkpt lat="43.48809" lon="6.79808">
        <ele>311</ele>
        <time>2023-09-26T10:38:59.000Z</time>
      </trkpt>
      <trkpt lat="43.48796" lon="6.79825">
        <ele>310.39999389648</ele>
        <time>2023-09-26T10:39:04.000Z</time>
      </trkpt>
      <trkpt lat="43.48791" lon="6.79829">
        <ele>310.20001220703</ele>
        <time>2023-09-26T10:39:05.000Z</time>
      </trkpt>
      <trkpt lat="43.48781" lon="6.79839">
        <ele>310</ele>
        <time>2023-09-26T10:39:08.000Z</time>
      </trkpt>
      <trkpt lat="43.48766" lon="6.79852">
        <ele>309</ele>
        <time>2023-09-26T10:39:12.000Z</time>
      </trkpt>
      <trkpt lat="43.48762" lon="6.79855">
        <ele>309</ele>
        <time>2023-09-26T10:39:13.000Z</time>
      </trkpt>
      <trkpt lat="43.48754" lon="6.79863">
        <ele>308.60000610352</ele>
        <time>2023-09-26T10:39:15.000Z</time>
      </trkpt>
      <trkpt lat="43.48744" lon="6.79879">
        <ele>307.79998779297</ele>
        <time>2023-09-26T10:39:19.000Z</time>
      </trkpt>
      <trkpt lat="43.48737" lon="6.79901">
        <ele>307.39999389648</ele>
        <time>2023-09-26T10:39:23.000Z</time>
      </trkpt>
      <trkpt lat="43.48735" lon="6.79907">
        <ele>307.20001220703</ele>
        <time>2023-09-26T10:39:24.000Z</time>
      </trkpt>
      <trkpt lat="43.4873" lon="6.79933">
        <ele>306.60000610352</ele>
        <time>2023-09-26T10:39:28.000Z</time>
      </trkpt>
      <trkpt lat="43.48728" lon="6.79949">
        <ele>305.79998779297</ele>
        <time>2023-09-26T10:39:31.000Z</time>
      </trkpt>
      <trkpt lat="43.48729" lon="6.7996">
        <ele>305.39999389648</ele>
        <time>2023-09-26T10:39:33.000Z</time>
      </trkpt>
      <trkpt lat="43.4873" lon="6.79964">
        <ele>305.39999389648</ele>
        <time>2023-09-26T10:39:34.000Z</time>
      </trkpt>
      <trkpt lat="43.48736" lon="6.79979">
        <ele>305</ele>
        <time>2023-09-26T10:39:37.000Z</time>
      </trkpt>
      <trkpt lat="43.48739" lon="6.79984">
        <ele>304.79998779297</ele>
        <time>2023-09-26T10:39:38.000Z</time>
      </trkpt>
      <trkpt lat="43.48747" lon="6.8">
        <ele>304</ele>
        <time>2023-09-26T10:39:41.000Z</time>
      </trkpt>
      <trkpt lat="43.48759" lon="6.80024">
        <ele>303.20001220703</ele>
        <time>2023-09-26T10:39:45.000Z</time>
      </trkpt>
      <trkpt lat="43.4877" lon="6.8005">
        <ele>303</ele>
        <time>2023-09-26T10:39:49.000Z</time>
      </trkpt>
      <trkpt lat="43.48777" lon="6.80066">
        <ele>302</ele>
        <time>2023-09-26T10:39:52.000Z</time>
      </trkpt>
      <trkpt lat="43.48779" lon="6.80072">
        <ele>301.79998779297</ele>
        <time>2023-09-26T10:39:53.000Z</time>
      </trkpt>
      <trkpt lat="43.48782" lon="6.80084">
        <ele>301.39999389648</ele>
        <time>2023-09-26T10:39:55.000Z</time>
      </trkpt>
      <trkpt lat="43.48786" lon="6.80095">
        <ele>301.20001220703</ele>
        <time>2023-09-26T10:39:57.000Z</time>
      </trkpt>
      <trkpt lat="43.48787" lon="6.80102">
        <ele>300.79998779297</ele>
        <time>2023-09-26T10:39:58.000Z</time>
      </trkpt>
      <trkpt lat="43.48787" lon="6.80108">
        <ele>300.39999389648</ele>
        <time>2023-09-26T10:39:59.000Z</time>
      </trkpt>
      <trkpt lat="43.48786" lon="6.80128">
        <ele>300</ele>
        <time>2023-09-26T10:40:02.000Z</time>
      </trkpt>
      <trkpt lat="43.48784" lon="6.80146">
        <ele>299.60000610352</ele>
        <time>2023-09-26T10:40:05.000Z</time>
      </trkpt>
      <trkpt lat="43.48783" lon="6.80157">
        <ele>299.20001220703</ele>
        <time>2023-09-26T10:40:07.000Z</time>
      </trkpt>
      <trkpt lat="43.48781" lon="6.80163">
        <ele>299</ele>
        <time>2023-09-26T10:40:08.000Z</time>
      </trkpt>
      <trkpt lat="43.48778" lon="6.80173">
        <ele>298.60000610352</ele>
        <time>2023-09-26T10:40:10.000Z</time>
      </trkpt>
      <trkpt lat="43.48776" lon="6.80183">
        <ele>297.39999389648</ele>
        <time>2023-09-26T10:40:12.000Z</time>
      </trkpt>
      <trkpt lat="43.4877" lon="6.80202">
        <ele>296.60000610352</ele>
        <time>2023-09-26T10:40:16.000Z</time>
      </trkpt>
      <trkpt lat="43.48767" lon="6.80211">
        <ele>296.39999389648</ele>
        <time>2023-09-26T10:40:18.000Z</time>
      </trkpt>
      <trkpt lat="43.48755" lon="6.80242">
        <ele>295.60000610352</ele>
        <time>2023-09-26T10:40:25.000Z</time>
      </trkpt>
      <trkpt lat="43.48754" lon="6.80247">
        <ele>295.39999389648</ele>
        <time>2023-09-26T10:40:26.000Z</time>
      </trkpt>
      <trkpt lat="43.48747" lon="6.80272">
        <ele>294.60000610352</ele>
        <time>2023-09-26T10:40:31.000Z</time>
      </trkpt>
      <trkpt lat="43.48743" lon="6.80287">
        <ele>294.39999389648</ele>
        <time>2023-09-26T10:40:34.000Z</time>
      </trkpt>
      <trkpt lat="43.48738" lon="6.80312">
        <ele>293.60000610352</ele>
        <time>2023-09-26T10:40:39.000Z</time>
      </trkpt>
      <trkpt lat="43.48737" lon="6.80315">
        <ele>293.20001220703</ele>
        <time>2023-09-26T10:40:40.000Z</time>
      </trkpt>
      <trkpt lat="43.48731" lon="6.80323">
        <ele>292.39999389648</ele>
        <time>2023-09-26T10:40:43.000Z</time>
      </trkpt>
      <trkpt lat="43.4873" lon="6.80326">
        <ele>292.20001220703</ele>
        <time>2023-09-26T10:40:46.000Z</time>
      </trkpt>
      <trkpt lat="43.4873" lon="6.80326">
        <ele>292</ele>
        <time>2023-09-26T10:40:47.000Z</time>
      </trkpt>
      <trkpt lat="43.4873" lon="6.80326">
        <ele>291.60000610352</ele>
        <time>2023-09-26T10:41:01.000Z</time>
      </trkpt>
      <trkpt lat="43.48726" lon="6.80329">
        <ele>291.60000610352</ele>
        <time>2023-09-26T10:41:03.000Z</time>
      </trkpt>
      <trkpt lat="43.48715" lon="6.8034">
        <ele>291.20001220703</ele>
        <time>2023-09-26T10:41:09.000Z</time>
      </trkpt>
      <trkpt lat="43.487" lon="6.80344">
        <ele>290.60000610352</ele>
        <time>2023-09-26T10:41:15.000Z</time>
      </trkpt>
      <trkpt lat="43.48694" lon="6.80342">
        <ele>290.39999389648</ele>
        <time>2023-09-26T10:41:17.000Z</time>
      </trkpt>
      <trkpt lat="43.48684" lon="6.80332">
        <ele>290.20001220703</ele>
        <time>2023-09-26T10:41:21.000Z</time>
      </trkpt>
      <trkpt lat="43.48678" lon="6.80321">
        <ele>289.79998779297</ele>
        <time>2023-09-26T10:41:24.000Z</time>
      </trkpt>
      <trkpt lat="43.4867" lon="6.80309">
        <ele>289.60000610352</ele>
        <time>2023-09-26T10:41:27.000Z</time>
      </trkpt>
      <trkpt lat="43.48663" lon="6.80301">
        <ele>289</ele>
        <time>2023-09-26T10:41:29.000Z</time>
      </trkpt>
      <trkpt lat="43.48659" lon="6.80298">
        <ele>288.79998779297</ele>
        <time>2023-09-26T10:41:30.000Z</time>
      </trkpt>
      <trkpt lat="43.48647" lon="6.80287">
        <ele>288.39999389648</ele>
        <time>2023-09-26T10:41:33.000Z</time>
      </trkpt>
      <trkpt lat="43.48639" lon="6.80279">
        <ele>288</ele>
        <time>2023-09-26T10:41:35.000Z</time>
      </trkpt>
      <trkpt lat="43.48625" lon="6.80265">
        <ele>287</ele>
        <time>2023-09-26T10:41:38.000Z</time>
      </trkpt>
      <trkpt lat="43.48621" lon="6.80261">
        <ele>286.60000610352</ele>
        <time>2023-09-26T10:41:39.000Z</time>
      </trkpt>
      <trkpt lat="43.48598" lon="6.80236">
        <ele>285.60000610352</ele>
        <time>2023-09-26T10:41:44.000Z</time>
      </trkpt>
      <trkpt lat="43.48588" lon="6.80226">
        <ele>285</ele>
        <time>2023-09-26T10:41:46.000Z</time>
      </trkpt>
      <trkpt lat="43.48577" lon="6.80213">
        <ele>284.39999389648</ele>
        <time>2023-09-26T10:41:49.000Z</time>
      </trkpt>
      <trkpt lat="43.48562" lon="6.80196">
        <ele>283.39999389648</ele>
        <time>2023-09-26T10:41:53.000Z</time>
      </trkpt>
      <trkpt lat="43.48554" lon="6.80188">
        <ele>283</ele>
        <time>2023-09-26T10:41:55.000Z</time>
      </trkpt>
      <trkpt lat="43.48543" lon="6.80175">
        <ele>282</ele>
        <time>2023-09-26T10:41:58.000Z</time>
      </trkpt>
      <trkpt lat="43.48534" lon="6.80163">
        <ele>281.39999389648</ele>
        <time>2023-09-26T10:42:01.000Z</time>
      </trkpt>
      <trkpt lat="43.48523" lon="6.80145">
        <ele>280.79998779297</ele>
        <time>2023-09-26T10:42:05.000Z</time>
      </trkpt>
      <trkpt lat="43.48514" lon="6.80132">
        <ele>279.79998779297</ele>
        <time>2023-09-26T10:42:08.000Z</time>
      </trkpt>
      <trkpt lat="43.48512" lon="6.80128">
        <ele>279.60000610352</ele>
        <time>2023-09-26T10:42:09.000Z</time>
      </trkpt>
      <trkpt lat="43.48508" lon="6.80116">
        <ele>279.39999389648</ele>
        <time>2023-09-26T10:42:12.000Z</time>
      </trkpt>
      <trkpt lat="43.48504" lon="6.80107">
        <ele>278.79998779297</ele>
        <time>2023-09-26T10:42:14.000Z</time>
      </trkpt>
      <trkpt lat="43.48496" lon="6.80093">
        <ele>278.39999389648</ele>
        <time>2023-09-26T10:42:18.000Z</time>
      </trkpt>
      <trkpt lat="43.48489" lon="6.80077">
        <ele>277.79998779297</ele>
        <time>2023-09-26T10:42:22.000Z</time>
      </trkpt>
      <trkpt lat="43.48489" lon="6.80073">
        <ele>277.60000610352</ele>
        <time>2023-09-26T10:42:23.000Z</time>
      </trkpt>
      <trkpt lat="43.48488" lon="6.80067">
        <ele>277.39999389648</ele>
        <time>2023-09-26T10:42:24.000Z</time>
      </trkpt>
      <trkpt lat="43.48482" lon="6.80038">
        <ele>276.39999389648</ele>
        <time>2023-09-26T10:42:29.000Z</time>
      </trkpt>
      <trkpt lat="43.4848" lon="6.80027">
        <ele>276</ele>
        <time>2023-09-26T10:42:31.000Z</time>
      </trkpt>
      <trkpt lat="43.48479" lon="6.80014">
        <ele>275.60000610352</ele>
        <time>2023-09-26T10:42:33.000Z</time>
      </trkpt>
      <trkpt lat="43.48476" lon="6.80008">
        <ele>275.39999389648</ele>
        <time>2023-09-26T10:42:34.000Z</time>
      </trkpt>
      <trkpt lat="43.48474" lon="6.80002">
        <ele>275.20001220703</ele>
        <time>2023-09-26T10:42:35.000Z</time>
      </trkpt>
      <trkpt lat="43.48463" lon="6.79985">
        <ele>274</ele>
        <time>2023-09-26T10:42:38.000Z</time>
      </trkpt>
      <trkpt lat="43.48458" lon="6.7998">
        <ele>273.79998779297</ele>
        <time>2023-09-26T10:42:39.000Z</time>
      </trkpt>
      <trkpt lat="43.48443" lon="6.79961">
        <ele>272.79998779297</ele>
        <time>2023-09-26T10:42:43.000Z</time>
      </trkpt>
      <trkpt lat="43.48439" lon="6.79952">
        <ele>272.20001220703</ele>
        <time>2023-09-26T10:42:45.000Z</time>
      </trkpt>
      <trkpt lat="43.48434" lon="6.79938">
        <ele>272</ele>
        <time>2023-09-26T10:42:48.000Z</time>
      </trkpt>
      <trkpt lat="43.48431" lon="6.79935">
        <ele>272</ele>
        <time>2023-09-26T10:42:49.000Z</time>
      </trkpt>
      <trkpt lat="43.48419" lon="6.79933">
        <ele>271.60000610352</ele>
        <time>2023-09-26T10:42:53.000Z</time>
      </trkpt>
      <trkpt lat="43.48417" lon="6.79935">
        <ele>271.20001220703</ele>
        <time>2023-09-26T10:42:56.000Z</time>
      </trkpt>
      <trkpt lat="43.48417" lon="6.79935">
        <ele>270.79998779297</ele>
        <time>2023-09-26T10:43:23.000Z</time>
      </trkpt>
      <trkpt lat="43.48412" lon="6.79941">
        <ele>271</ele>
        <time>2023-09-26T10:43:34.000Z</time>
      </trkpt>
      <trkpt lat="43.48402" lon="6.79962">
        <ele>270.79998779297</ele>
        <time>2023-09-26T10:43:41.000Z</time>
      </trkpt>
      <trkpt lat="43.48392" lon="6.79988">
        <ele>270.39999389648</ele>
        <time>2023-09-26T10:43:48.000Z</time>
      </trkpt>
      <trkpt lat="43.48375" lon="6.8">
        <ele>269.60000610352</ele>
        <time>2023-09-26T10:43:53.000Z</time>
      </trkpt>
      <trkpt lat="43.48368" lon="6.80006">
        <ele>269.20001220703</ele>
        <time>2023-09-26T10:43:55.000Z</time>
      </trkpt>
      <trkpt lat="43.48361" lon="6.80011">
        <ele>269</ele>
        <time>2023-09-26T10:43:57.000Z</time>
      </trkpt>
      <trkpt lat="43.4835" lon="6.8002">
        <ele>268.60000610352</ele>
        <time>2023-09-26T10:44:00.000Z</time>
      </trkpt>
      <trkpt lat="43.48342" lon="6.80026">
        <ele>268.39999389648</ele>
        <time>2023-09-26T10:44:02.000Z</time>
      </trkpt>
      <trkpt lat="43.48338" lon="6.8003">
        <ele>267.79998779297</ele>
        <time>2023-09-26T10:44:03.000Z</time>
      </trkpt>
      <trkpt lat="43.48322" lon="6.80043">
        <ele>267.20001220703</ele>
        <time>2023-09-26T10:44:07.000Z</time>
      </trkpt>
      <trkpt lat="43.4831" lon="6.80049">
        <ele>266.60000610352</ele>
        <time>2023-09-26T10:44:10.000Z</time>
      </trkpt>
      <trkpt lat="43.48291" lon="6.80055">
        <ele>265.60000610352</ele>
        <time>2023-09-26T10:44:14.000Z</time>
      </trkpt>
      <trkpt lat="43.48286" lon="6.80057">
        <ele>265.39999389648</ele>
        <time>2023-09-26T10:44:15.000Z</time>
      </trkpt>
      <trkpt lat="43.48273" lon="6.80062">
        <ele>264.60000610352</ele>
        <time>2023-09-26T10:44:18.000Z</time>
      </trkpt>
      <trkpt lat="43.4826" lon="6.80064">
        <ele>263.60000610352</ele>
        <time>2023-09-26T10:44:21.000Z</time>
      </trkpt>
      <trkpt lat="43.48246" lon="6.80064">
        <ele>263.39999389648</ele>
        <time>2023-09-26T10:44:24.000Z</time>
      </trkpt>
      <trkpt lat="43.48229" lon="6.80062">
        <ele>262.39999389648</ele>
        <time>2023-09-26T10:44:28.000Z</time>
      </trkpt>
      <trkpt lat="43.48221" lon="6.80061">
        <ele>262</ele>
        <time>2023-09-26T10:44:30.000Z</time>
      </trkpt>
      <trkpt lat="43.48217" lon="6.80059">
        <ele>261.79998779297</ele>
        <time>2023-09-26T10:44:31.000Z</time>
      </trkpt>
      <trkpt lat="43.48213" lon="6.80057">
        <ele>261.20001220703</ele>
        <time>2023-09-26T10:44:32.000Z</time>
      </trkpt>
      <trkpt lat="43.48195" lon="6.80048">
        <ele>260.60000610352</ele>
        <time>2023-09-26T10:44:36.000Z</time>
      </trkpt>
      <trkpt lat="43.4817" lon="6.80031">
        <ele>260</ele>
        <time>2023-09-26T10:44:41.000Z</time>
      </trkpt>
      <trkpt lat="43.48149" lon="6.8001">
        <ele>259</ele>
        <time>2023-09-26T10:44:46.000Z</time>
      </trkpt>
      <trkpt lat="43.48138" lon="6.79997">
        <ele>258.60000610352</ele>
        <time>2023-09-26T10:44:49.000Z</time>
      </trkpt>
      <trkpt lat="43.48122" lon="6.7998">
        <ele>258</ele>
        <time>2023-09-26T10:44:53.000Z</time>
      </trkpt>
      <trkpt lat="43.48115" lon="6.79971">
        <ele>256.79998779297</ele>
        <time>2023-09-26T10:44:55.000Z</time>
      </trkpt>
      <trkpt lat="43.48112" lon="6.79968">
        <ele>256.20001220703</ele>
        <time>2023-09-26T10:44:56.000Z</time>
      </trkpt>
      <trkpt lat="43.48109" lon="6.79964">
        <ele>255.80000305176</ele>
        <time>2023-09-26T10:44:57.000Z</time>
      </trkpt>
      <trkpt lat="43.48094" lon="6.79949">
        <ele>255</ele>
        <time>2023-09-26T10:45:02.000Z</time>
      </trkpt>
      <trkpt lat="43.48091" lon="6.79946">
        <ele>254.60000610352</ele>
        <time>2023-09-26T10:45:03.000Z</time>
      </trkpt>
      <trkpt lat="43.48088" lon="6.79943">
        <ele>254.39999389648</ele>
        <time>2023-09-26T10:45:04.000Z</time>
      </trkpt>
      <trkpt lat="43.48079" lon="6.79933">
        <ele>253.39999389648</ele>
        <time>2023-09-26T10:45:07.000Z</time>
      </trkpt>
      <trkpt lat="43.48076" lon="6.79929">
        <ele>253</ele>
        <time>2023-09-26T10:45:08.000Z</time>
      </trkpt>
      <trkpt lat="43.4806" lon="6.79916">
        <ele>252.60000610352</ele>
        <time>2023-09-26T10:45:12.000Z</time>
      </trkpt>
      <trkpt lat="43.48053" lon="6.79907">
        <ele>252.39999389648</ele>
        <time>2023-09-26T10:45:15.000Z</time>
      </trkpt>
      <trkpt lat="43.48052" lon="6.79905">
        <ele>252.39999389648</ele>
        <time>2023-09-26T10:45:16.000Z</time>
      </trkpt>
      <trkpt lat="43.48049" lon="6.79899">
        <ele>251.80000305176</ele>
        <time>2023-09-26T10:45:21.000Z</time>
      </trkpt>
      <trkpt lat="43.48049" lon="6.79899">
        <ele>251.60000610352</ele>
        <time>2023-09-26T10:45:29.000Z</time>
      </trkpt>
      <trkpt lat="43.48049" lon="6.79898">
        <ele>251.39999389648</ele>
        <time>2023-09-26T10:45:33.000Z</time>
      </trkpt>
      <trkpt lat="43.48051" lon="6.79894">
        <ele>251.39999389648</ele>
        <time>2023-09-26T10:45:35.000Z</time>
      </trkpt>
      <trkpt lat="43.48062" lon="6.79878">
        <ele>251</ele>
        <time>2023-09-26T10:45:40.000Z</time>
      </trkpt>
      <trkpt lat="43.48074" lon="6.79864">
        <ele>250.60000610352</ele>
        <time>2023-09-26T10:45:45.000Z</time>
      </trkpt>
      <trkpt lat="43.48079" lon="6.79856">
        <ele>250.39999389648</ele>
        <time>2023-09-26T10:45:47.000Z</time>
      </trkpt>
      <trkpt lat="43.48082" lon="6.79853">
        <ele>250.39999389648</ele>
        <time>2023-09-26T10:45:48.000Z</time>
      </trkpt>
      <trkpt lat="43.48087" lon="6.79844">
        <ele>250</ele>
        <time>2023-09-26T10:45:50.000Z</time>
      </trkpt>
      <trkpt lat="43.48095" lon="6.79829">
        <ele>249.19999694824</ele>
        <time>2023-09-26T10:45:53.000Z</time>
      </trkpt>
      <trkpt lat="43.48101" lon="6.79818">
        <ele>248.39999389648</ele>
        <time>2023-09-26T10:45:55.000Z</time>
      </trkpt>
      <trkpt lat="43.48103" lon="6.79813">
        <ele>247.80000305176</ele>
        <time>2023-09-26T10:45:56.000Z</time>
      </trkpt>
      <trkpt lat="43.48113" lon="6.79784">
        <ele>246.19999694824</ele>
        <time>2023-09-26T10:46:01.000Z</time>
      </trkpt>
      <trkpt lat="43.48117" lon="6.79764">
        <ele>245.19999694824</ele>
        <time>2023-09-26T10:46:04.000Z</time>
      </trkpt>
      <trkpt lat="43.48118" lon="6.79757">
        <ele>245</ele>
        <time>2023-09-26T10:46:05.000Z</time>
      </trkpt>
      <trkpt lat="43.48119" lon="6.7975">
        <ele>244.80000305176</ele>
        <time>2023-09-26T10:46:06.000Z</time>
      </trkpt>
      <trkpt lat="43.48117" lon="6.79739">
        <ele>244.39999389648</ele>
        <time>2023-09-26T10:46:08.000Z</time>
      </trkpt>
      <trkpt lat="43.48113" lon="6.79725">
        <ele>244.19999694824</ele>
        <time>2023-09-26T10:46:10.000Z</time>
      </trkpt>
      <trkpt lat="43.48108" lon="6.79713">
        <ele>243.80000305176</ele>
        <time>2023-09-26T10:46:12.000Z</time>
      </trkpt>
      <trkpt lat="43.48106" lon="6.79706">
        <ele>243.19999694824</ele>
        <time>2023-09-26T10:46:13.000Z</time>
      </trkpt>
      <trkpt lat="43.48104" lon="6.797">
        <ele>242.80000305176</ele>
        <time>2023-09-26T10:46:14.000Z</time>
      </trkpt>
      <trkpt lat="43.481" lon="6.79685">
        <ele>242</ele>
        <time>2023-09-26T10:46:16.000Z</time>
      </trkpt>
      <trkpt lat="43.48097" lon="6.79673">
        <ele>241</ele>
        <time>2023-09-26T10:46:18.000Z</time>
      </trkpt>
      <trkpt lat="43.48095" lon="6.79666">
        <ele>240.80000305176</ele>
        <time>2023-09-26T10:46:19.000Z</time>
      </trkpt>
      <trkpt lat="43.48091" lon="6.79653">
        <ele>240.39999389648</ele>
        <time>2023-09-26T10:46:21.000Z</time>
      </trkpt>
      <trkpt lat="43.48088" lon="6.79639">
        <ele>239.80000305176</ele>
        <time>2023-09-26T10:46:23.000Z</time>
      </trkpt>
      <trkpt lat="43.48086" lon="6.79625">
        <ele>239</ele>
        <time>2023-09-26T10:46:25.000Z</time>
      </trkpt>
      <trkpt lat="43.48086" lon="6.79618">
        <ele>238.80000305176</ele>
        <time>2023-09-26T10:46:26.000Z</time>
      </trkpt>
      <trkpt lat="43.48086" lon="6.79611">
        <ele>238.60000610352</ele>
        <time>2023-09-26T10:46:27.000Z</time>
      </trkpt>
      <trkpt lat="43.48086" lon="6.79604">
        <ele>238.19999694824</ele>
        <time>2023-09-26T10:46:28.000Z</time>
      </trkpt>
      <trkpt lat="43.48087" lon="6.79597">
        <ele>237.39999389648</ele>
        <time>2023-09-26T10:46:29.000Z</time>
      </trkpt>
      <trkpt lat="43.48089" lon="6.7959">
        <ele>236.80000305176</ele>
        <time>2023-09-26T10:46:30.000Z</time>
      </trkpt>
      <trkpt lat="43.48093" lon="6.79578">
        <ele>236.19999694824</ele>
        <time>2023-09-26T10:46:32.000Z</time>
      </trkpt>
      <trkpt lat="43.48101" lon="6.7956">
        <ele>235.60000610352</ele>
        <time>2023-09-26T10:46:35.000Z</time>
      </trkpt>
      <trkpt lat="43.48112" lon="6.79545">
        <ele>235.19999694824</ele>
        <time>2023-09-26T10:46:38.000Z</time>
      </trkpt>
      <trkpt lat="43.48124" lon="6.79533">
        <ele>233.80000305176</ele>
        <time>2023-09-26T10:46:41.000Z</time>
      </trkpt>
      <trkpt lat="43.48136" lon="6.79524">
        <ele>232.80000305176</ele>
        <time>2023-09-26T10:46:44.000Z</time>
      </trkpt>
      <trkpt lat="43.48144" lon="6.79517">
        <ele>232.60000610352</ele>
        <time>2023-09-26T10:46:46.000Z</time>
      </trkpt>
      <trkpt lat="43.48161" lon="6.79505">
        <ele>231.39999389648</ele>
        <time>2023-09-26T10:46:50.000Z</time>
      </trkpt>
      <trkpt lat="43.48169" lon="6.79499">
        <ele>230.80000305176</ele>
        <time>2023-09-26T10:46:52.000Z</time>
      </trkpt>
      <trkpt lat="43.48177" lon="6.79492">
        <ele>230.19999694824</ele>
        <time>2023-09-26T10:46:54.000Z</time>
      </trkpt>
      <trkpt lat="43.48189" lon="6.7948">
        <ele>229</ele>
        <time>2023-09-26T10:46:57.000Z</time>
      </trkpt>
      <trkpt lat="43.48197" lon="6.79473">
        <ele>228.39999389648</ele>
        <time>2023-09-26T10:46:59.000Z</time>
      </trkpt>
      <trkpt lat="43.48206" lon="6.79467">
        <ele>227.80000305176</ele>
        <time>2023-09-26T10:47:01.000Z</time>
      </trkpt>
      <trkpt lat="43.48211" lon="6.79464">
        <ele>227.80000305176</ele>
        <time>2023-09-26T10:47:02.000Z</time>
      </trkpt>
      <trkpt lat="43.48225" lon="6.79457">
        <ele>226.60000610352</ele>
        <time>2023-09-26T10:47:05.000Z</time>
      </trkpt>
      <trkpt lat="43.48239" lon="6.7945">
        <ele>226</ele>
        <time>2023-09-26T10:47:08.000Z</time>
      </trkpt>
      <trkpt lat="43.48247" lon="6.79448">
        <ele>225.60000610352</ele>
        <time>2023-09-26T10:47:10.000Z</time>
      </trkpt>
      <trkpt lat="43.48251" lon="6.79446">
        <ele>225.39999389648</ele>
        <time>2023-09-26T10:47:11.000Z</time>
      </trkpt>
      <trkpt lat="43.48268" lon="6.79439">
        <ele>224.19999694824</ele>
        <time>2023-09-26T10:47:15.000Z</time>
      </trkpt>
      <trkpt lat="43.48272" lon="6.79438">
        <ele>224</ele>
        <time>2023-09-26T10:47:16.000Z</time>
      </trkpt>
      <trkpt lat="43.48281" lon="6.79438">
        <ele>223</ele>
        <time>2023-09-26T10:47:18.000Z</time>
      </trkpt>
      <trkpt lat="43.48286" lon="6.79438">
        <ele>222.80000305176</ele>
        <time>2023-09-26T10:47:19.000Z</time>
      </trkpt>
      <trkpt lat="43.48295" lon="6.7944">
        <ele>222.39999389648</ele>
        <time>2023-09-26T10:47:21.000Z</time>
      </trkpt>
      <trkpt lat="43.483" lon="6.79442">
        <ele>221.80000305176</ele>
        <time>2023-09-26T10:47:22.000Z</time>
      </trkpt>
      <trkpt lat="43.48309" lon="6.79447">
        <ele>221.39999389648</ele>
        <time>2023-09-26T10:47:24.000Z</time>
      </trkpt>
      <trkpt lat="43.48319" lon="6.79453">
        <ele>220.60000610352</ele>
        <time>2023-09-26T10:47:27.000Z</time>
      </trkpt>
      <trkpt lat="43.48325" lon="6.79457">
        <ele>220.19999694824</ele>
        <time>2023-09-26T10:47:29.000Z</time>
      </trkpt>
      <trkpt lat="43.48333" lon="6.79462">
        <ele>219.19999694824</ele>
        <time>2023-09-26T10:47:32.000Z</time>
      </trkpt>
      <trkpt lat="43.48337" lon="6.79462">
        <ele>219</ele>
        <time>2023-09-26T10:47:34.000Z</time>
      </trkpt>
      <trkpt lat="43.48346" lon="6.7945">
        <ele>218.39999389648</ele>
        <time>2023-09-26T10:47:38.000Z</time>
      </trkpt>
      <trkpt lat="43.48346" lon="6.79446">
        <ele>218</ele>
        <time>2023-09-26T10:47:39.000Z</time>
      </trkpt>
      <trkpt lat="43.48343" lon="6.79436">
        <ele>217</ele>
        <time>2023-09-26T10:47:42.000Z</time>
      </trkpt>
      <trkpt lat="43.48343" lon="6.79435">
        <ele>217</ele>
        <time>2023-09-26T10:47:43.000Z</time>
      </trkpt>
      <trkpt lat="43.48343" lon="6.79435">
        <ele>216.39999389648</ele>
        <time>2023-09-26T10:47:45.000Z</time>
      </trkpt>
      <trkpt lat="43.48343" lon="6.79435">
        <ele>216</ele>
        <time>2023-09-26T10:48:03.000Z</time>
      </trkpt>
      <trkpt lat="43.48339" lon="6.79425">
        <ele>215.19999694824</ele>
        <time>2023-09-26T10:48:55.000Z</time>
      </trkpt>
      <trkpt lat="43.48335" lon="6.79405">
        <ele>215.19999694824</ele>
        <time>2023-09-26T10:49:00.000Z</time>
      </trkpt>
      <trkpt lat="43.4833" lon="6.79391">
        <ele>215</ele>
        <time>2023-09-26T10:49:03.000Z</time>
      </trkpt>
      <trkpt lat="43.48325" lon="6.79382">
        <ele>214.39999389648</ele>
        <time>2023-09-26T10:49:05.000Z</time>
      </trkpt>
      <trkpt lat="43.48315" lon="6.7937">
        <ele>213.39999389648</ele>
        <time>2023-09-26T10:49:08.000Z</time>
      </trkpt>
      <trkpt lat="43.48308" lon="6.79365">
        <ele>212.60000610352</ele>
        <time>2023-09-26T10:49:10.000Z</time>
      </trkpt>
      <trkpt lat="43.48302" lon="6.79359">
        <ele>212.19999694824</ele>
        <time>2023-09-26T10:49:12.000Z</time>
      </trkpt>
      <trkpt lat="43.48298" lon="6.79349">
        <ele>211.80000305176</ele>
        <time>2023-09-26T10:49:14.000Z</time>
      </trkpt>
      <trkpt lat="43.48297" lon="6.79335">
        <ele>211.19999694824</ele>
        <time>2023-09-26T10:49:17.000Z</time>
      </trkpt>
      <trkpt lat="43.48298" lon="6.79331">
        <ele>211</ele>
        <time>2023-09-26T10:49:18.000Z</time>
      </trkpt>
      <trkpt lat="43.48298" lon="6.79308">
        <ele>210</ele>
        <time>2023-09-26T10:49:23.000Z</time>
      </trkpt>
      <trkpt lat="43.48298" lon="6.79307">
        <ele>209.39999389648</ele>
        <time>2023-09-26T10:49:27.000Z</time>
      </trkpt>
      <trkpt lat="43.48298" lon="6.79307">
        <ele>209</ele>
        <time>2023-09-26T10:49:32.000Z</time>
      </trkpt>
      <trkpt lat="43.48298" lon="6.79307">
        <ele>208.80000305176</ele>
        <time>2023-09-26T10:49:39.000Z</time>
      </trkpt>
      <trkpt lat="43.48298" lon="6.79307">
        <ele>208.80000305176</ele>
        <time>2023-09-26T10:49:43.000Z</time>
      </trkpt>
      <trkpt lat="43.48298" lon="6.79307">
        <ele>208.60000610352</ele>
        <time>2023-09-26T10:49:49.000Z</time>
      </trkpt>
      <trkpt lat="43.48291" lon="6.79304">
        <ele>208.60000610352</ele>
        <time>2023-09-26T10:49:52.000Z</time>
      </trkpt>
      <trkpt lat="43.48282" lon="6.79312">
        <ele>208.39999389648</ele>
        <time>2023-09-26T10:49:56.000Z</time>
      </trkpt>
      <trkpt lat="43.4828" lon="6.79315">
        <ele>208.39999389648</ele>
        <time>2023-09-26T10:49:57.000Z</time>
      </trkpt>
      <trkpt lat="43.48274" lon="6.79321">
        <ele>208</ele>
        <time>2023-09-26T10:49:59.000Z</time>
      </trkpt>
      <trkpt lat="43.48265" lon="6.79326">
        <ele>207.80000305176</ele>
        <time>2023-09-26T10:50:01.000Z</time>
      </trkpt>
      <trkpt lat="43.4824" lon="6.79335">
        <ele>207.19999694824</ele>
        <time>2023-09-26T10:50:06.000Z</time>
      </trkpt>
      <trkpt lat="43.48235" lon="6.79338">
        <ele>207</ele>
        <time>2023-09-26T10:50:07.000Z</time>
      </trkpt>
      <trkpt lat="43.48229" lon="6.79341">
        <ele>206.60000610352</ele>
        <time>2023-09-26T10:50:08.000Z</time>
      </trkpt>
      <trkpt lat="43.48224" lon="6.79343">
        <ele>206</ele>
        <time>2023-09-26T10:50:09.000Z</time>
      </trkpt>
      <trkpt lat="43.48217" lon="6.79345">
        <ele>205.80000305176</ele>
        <time>2023-09-26T10:50:10.000Z</time>
      </trkpt>
      <trkpt lat="43.48211" lon="6.79344">
        <ele>205.39999389648</ele>
        <time>2023-09-26T10:50:11.000Z</time>
      </trkpt>
      <trkpt lat="43.48201" lon="6.79337">
        <ele>204.80000305176</ele>
        <time>2023-09-26T10:50:13.000Z</time>
      </trkpt>
      <trkpt lat="43.4819" lon="6.7933">
        <ele>204.39999389648</ele>
        <time>2023-09-26T10:50:15.000Z</time>
      </trkpt>
      <trkpt lat="43.48183" lon="6.79327">
        <ele>203.80000305176</ele>
        <time>2023-09-26T10:50:16.000Z</time>
      </trkpt>
      <trkpt lat="43.48178" lon="6.79325">
        <ele>203.39999389648</ele>
        <time>2023-09-26T10:50:17.000Z</time>
      </trkpt>
      <trkpt lat="43.48172" lon="6.79323">
        <ele>202.80000305176</ele>
        <time>2023-09-26T10:50:18.000Z</time>
      </trkpt>
      <trkpt lat="43.4815" lon="6.79314">
        <ele>201.80000305176</ele>
        <time>2023-09-26T10:50:22.000Z</time>
      </trkpt>
      <trkpt lat="43.48144" lon="6.7931">
        <ele>201.39999389648</ele>
        <time>2023-09-26T10:50:23.000Z</time>
      </trkpt>
      <trkpt lat="43.4814" lon="6.79306">
        <ele>201.19999694824</ele>
        <time>2023-09-26T10:50:24.000Z</time>
      </trkpt>
      <trkpt lat="43.48136" lon="6.79302">
        <ele>200.60000610352</ele>
        <time>2023-09-26T10:50:25.000Z</time>
      </trkpt>
      <trkpt lat="43.48127" lon="6.79303">
        <ele>200</ele>
        <time>2023-09-26T10:50:27.000Z</time>
      </trkpt>
      <trkpt lat="43.48122" lon="6.79307">
        <ele>199.39999389648</ele>
        <time>2023-09-26T10:50:28.000Z</time>
      </trkpt>
      <trkpt lat="43.48114" lon="6.79314">
        <ele>198.80000305176</ele>
        <time>2023-09-26T10:50:30.000Z</time>
      </trkpt>
      <trkpt lat="43.4811" lon="6.79317">
        <ele>198.60000610352</ele>
        <time>2023-09-26T10:50:31.000Z</time>
      </trkpt>
      <trkpt lat="43.48107" lon="6.79318">
        <ele>198.39999389648</ele>
        <time>2023-09-26T10:50:32.000Z</time>
      </trkpt>
      <trkpt lat="43.481" lon="6.79318">
        <ele>197.60000610352</ele>
        <time>2023-09-26T10:50:34.000Z</time>
      </trkpt>
      <trkpt lat="43.48098" lon="6.79317">
        <ele>197</ele>
        <time>2023-09-26T10:50:35.000Z</time>
      </trkpt>
      <trkpt lat="43.48098" lon="6.79317">
        <ele>196.60000610352</ele>
        <time>2023-09-26T10:50:38.000Z</time>
      </trkpt>
      <trkpt lat="43.48098" lon="6.79317">
        <ele>196.19999694824</ele>
        <time>2023-09-26T10:50:45.000Z</time>
      </trkpt>
      <trkpt lat="43.48098" lon="6.79317">
        <ele>196</ele>
        <time>2023-09-26T10:50:50.000Z</time>
      </trkpt>
      <trkpt lat="43.48098" lon="6.79317">
        <ele>195.80000305176</ele>
        <time>2023-09-26T10:51:04.000Z</time>
      </trkpt>
      <trkpt lat="43.48084" lon="6.79304">
        <ele>196</ele>
        <time>2023-09-26T10:51:09.000Z</time>
      </trkpt>
      <trkpt lat="43.48072" lon="6.79293">
        <ele>196</ele>
        <time>2023-09-26T10:51:13.000Z</time>
      </trkpt>
      <trkpt lat="43.48068" lon="6.79294">
        <ele>195.80000305176</ele>
        <time>2023-09-26T10:51:14.000Z</time>
      </trkpt>
      <trkpt lat="43.48063" lon="6.793">
        <ele>195.19999694824</ele>
        <time>2023-09-26T10:51:16.000Z</time>
      </trkpt>
      <trkpt lat="43.48058" lon="6.79306">
        <ele>194.80000305176</ele>
        <time>2023-09-26T10:51:18.000Z</time>
      </trkpt>
      <trkpt lat="43.48049" lon="6.79312">
        <ele>193.80000305176</ele>
        <time>2023-09-26T10:51:21.000Z</time>
      </trkpt>
      <trkpt lat="43.48041" lon="6.79314">
        <ele>193.39999389648</ele>
        <time>2023-09-26T10:51:23.000Z</time>
      </trkpt>
      <trkpt lat="43.4803" lon="6.79317">
        <ele>192.80000305176</ele>
        <time>2023-09-26T10:51:26.000Z</time>
      </trkpt>
      <trkpt lat="43.48014" lon="6.79317">
        <ele>192</ele>
        <time>2023-09-26T10:51:30.000Z</time>
      </trkpt>
      <trkpt lat="43.48011" lon="6.79316">
        <ele>191.60000610352</ele>
        <time>2023-09-26T10:51:31.000Z</time>
      </trkpt>
      <trkpt lat="43.47992" lon="6.79318">
        <ele>190.80000305176</ele>
        <time>2023-09-26T10:51:36.000Z</time>
      </trkpt>
      <trkpt lat="43.47987" lon="6.79319">
        <ele>190.39999389648</ele>
        <time>2023-09-26T10:51:37.000Z</time>
      </trkpt>
      <trkpt lat="43.47962" lon="6.79325">
        <ele>189</ele>
        <time>2023-09-26T10:51:43.000Z</time>
      </trkpt>
      <trkpt lat="43.4795" lon="6.79332">
        <ele>188</ele>
        <time>2023-09-26T10:51:47.000Z</time>
      </trkpt>
      <trkpt lat="43.47938" lon="6.79337">
        <ele>187.19999694824</ele>
        <time>2023-09-26T10:51:50.000Z</time>
      </trkpt>
      <trkpt lat="43.4793" lon="6.7934">
        <ele>186.60000610352</ele>
        <time>2023-09-26T10:51:52.000Z</time>
      </trkpt>
      <trkpt lat="43.47917" lon="6.79349">
        <ele>186</ele>
        <time>2023-09-26T10:51:56.000Z</time>
      </trkpt>
      <trkpt lat="43.47914" lon="6.79351">
        <ele>185.60000610352</ele>
        <time>2023-09-26T10:51:57.000Z</time>
      </trkpt>
      <trkpt lat="43.47904" lon="6.79356">
        <ele>184.39999389648</ele>
        <time>2023-09-26T10:52:00.000Z</time>
      </trkpt>
      <trkpt lat="43.47888" lon="6.79361">
        <ele>183.80000305176</ele>
        <time>2023-09-26T10:52:04.000Z</time>
      </trkpt>
      <trkpt lat="43.47872" lon="6.79365">
        <ele>183.60000610352</ele>
        <time>2023-09-26T10:52:09.000Z</time>
      </trkpt>
      <trkpt lat="43.47859" lon="6.79368">
        <ele>183.60000610352</ele>
        <time>2023-09-26T10:52:15.000Z</time>
      </trkpt>
      <trkpt lat="43.47847" lon="6.79374">
        <ele>183.60000610352</ele>
        <time>2023-09-26T10:52:21.000Z</time>
      </trkpt>
      <trkpt lat="43.4784" lon="6.79379">
        <ele>183.60000610352</ele>
        <time>2023-09-26T10:52:26.000Z</time>
      </trkpt>
      <trkpt lat="43.47825" lon="6.79386">
        <ele>183.80000305176</ele>
        <time>2023-09-26T10:52:34.000Z</time>
      </trkpt>
      <trkpt lat="43.47807" lon="6.79393">
        <ele>184</ele>
        <time>2023-09-26T10:52:43.000Z</time>
      </trkpt>
      <trkpt lat="43.47793" lon="6.79406">
        <ele>184.39999389648</ele>
        <time>2023-09-26T10:52:51.000Z</time>
      </trkpt>
      <trkpt lat="43.47776" lon="6.79404">
        <ele>184.60000610352</ele>
        <time>2023-09-26T10:52:58.000Z</time>
      </trkpt>
      <trkpt lat="43.47757" lon="6.79405">
        <ele>184.60000610352</ele>
        <time>2023-09-26T10:53:04.000Z</time>
      </trkpt>
      <trkpt lat="43.47735" lon="6.79406">
        <ele>184.39999389648</ele>
        <time>2023-09-26T10:53:10.000Z</time>
      </trkpt>
      <trkpt lat="43.47715" lon="6.79402">
        <ele>183.80000305176</ele>
        <time>2023-09-26T10:53:16.000Z</time>
      </trkpt>
      <trkpt lat="43.47691" lon="6.79386">
        <ele>183.39999389648</ele>
        <time>2023-09-26T10:53:23.000Z</time>
      </trkpt>
      <trkpt lat="43.47687" lon="6.79384">
        <ele>183.39999389648</ele>
        <time>2023-09-26T10:53:24.000Z</time>
      </trkpt>
      <trkpt lat="43.47679" lon="6.79384">
        <ele>183.19999694824</ele>
        <time>2023-09-26T10:53:26.000Z</time>
      </trkpt>
      <trkpt lat="43.47671" lon="6.79386">
        <ele>183</ele>
        <time>2023-09-26T10:53:28.000Z</time>
      </trkpt>
      <trkpt lat="43.4766" lon="6.79393">
        <ele>182.39999389648</ele>
        <time>2023-09-26T10:53:31.000Z</time>
      </trkpt>
      <trkpt lat="43.47648" lon="6.79402">
        <ele>182</ele>
        <time>2023-09-26T10:53:34.000Z</time>
      </trkpt>
      <trkpt lat="43.4762" lon="6.79426">
        <ele>181.19999694824</ele>
        <time>2023-09-26T10:53:41.000Z</time>
      </trkpt>
      <trkpt lat="43.47616" lon="6.79429">
        <ele>181</ele>
        <time>2023-09-26T10:53:42.000Z</time>
      </trkpt>
      <trkpt lat="43.47586" lon="6.79453">
        <ele>180</ele>
        <time>2023-09-26T10:53:49.000Z</time>
      </trkpt>
      <trkpt lat="43.47578" lon="6.7946">
        <ele>179.60000610352</ele>
        <time>2023-09-26T10:53:51.000Z</time>
      </trkpt>
      <trkpt lat="43.47567" lon="6.79471">
        <ele>179.19999694824</ele>
        <time>2023-09-26T10:53:54.000Z</time>
      </trkpt>
      <trkpt lat="43.47559" lon="6.79476">
        <ele>179</ele>
        <time>2023-09-26T10:53:56.000Z</time>
      </trkpt>
      <trkpt lat="43.47556" lon="6.79479">
        <ele>178.80000305176</ele>
        <time>2023-09-26T10:53:57.000Z</time>
      </trkpt>
      <trkpt lat="43.47548" lon="6.79485">
        <ele>178.39999389648</ele>
        <time>2023-09-26T10:53:59.000Z</time>
      </trkpt>
      <trkpt lat="43.4753" lon="6.79502">
        <ele>178</ele>
        <time>2023-09-26T10:54:04.000Z</time>
      </trkpt>
      <trkpt lat="43.47522" lon="6.7951">
        <ele>177.80000305176</ele>
        <time>2023-09-26T10:54:06.000Z</time>
      </trkpt>
      <trkpt lat="43.47511" lon="6.79522">
        <ele>177.39999389648</ele>
        <time>2023-09-26T10:54:09.000Z</time>
      </trkpt>
      <trkpt lat="43.47505" lon="6.79533">
        <ele>177.19999694824</ele>
        <time>2023-09-26T10:54:11.000Z</time>
      </trkpt>
      <trkpt lat="43.47498" lon="6.79552">
        <ele>176.60000610352</ele>
        <time>2023-09-26T10:54:14.000Z</time>
      </trkpt>
      <trkpt lat="43.47485" lon="6.79584">
        <ele>175.80000305176</ele>
        <time>2023-09-26T10:54:19.000Z</time>
      </trkpt>
      <trkpt lat="43.47482" lon="6.7959">
        <ele>175.80000305176</ele>
        <time>2023-09-26T10:54:20.000Z</time>
      </trkpt>
      <trkpt lat="43.47476" lon="6.796">
        <ele>175.39999389648</ele>
        <time>2023-09-26T10:54:22.000Z</time>
      </trkpt>
      <trkpt lat="43.47466" lon="6.79613">
        <ele>175</ele>
        <time>2023-09-26T10:54:25.000Z</time>
      </trkpt>
      <trkpt lat="43.47455" lon="6.79623">
        <ele>174.39999389648</ele>
        <time>2023-09-26T10:54:28.000Z</time>
      </trkpt>
      <trkpt lat="43.47447" lon="6.79628">
        <ele>174.39999389648</ele>
        <time>2023-09-26T10:54:30.000Z</time>
      </trkpt>
      <trkpt lat="43.47431" lon="6.79634">
        <ele>173.60000610352</ele>
        <time>2023-09-26T10:54:34.000Z</time>
      </trkpt>
      <trkpt lat="43.47423" lon="6.79636">
        <ele>173.19999694824</ele>
        <time>2023-09-26T10:54:36.000Z</time>
      </trkpt>
      <trkpt lat="43.47418" lon="6.79635">
        <ele>173.19999694824</ele>
        <time>2023-09-26T10:54:37.000Z</time>
      </trkpt>
      <trkpt lat="43.47406" lon="6.79635">
        <ele>172.60000610352</ele>
        <time>2023-09-26T10:54:40.000Z</time>
      </trkpt>
      <trkpt lat="43.47387" lon="6.79633">
        <ele>172.19999694824</ele>
        <time>2023-09-26T10:54:45.000Z</time>
      </trkpt>
      <trkpt lat="43.4737" lon="6.79627">
        <ele>172.19999694824</ele>
        <time>2023-09-26T10:54:50.000Z</time>
      </trkpt>
      <trkpt lat="43.4735" lon="6.79616">
        <ele>171.39999389648</ele>
        <time>2023-09-26T10:54:56.000Z</time>
      </trkpt>
      <trkpt lat="43.47334" lon="6.79595">
        <ele>170.60000610352</ele>
        <time>2023-09-26T10:55:02.000Z</time>
      </trkpt>
      <trkpt lat="43.47331" lon="6.79581">
        <ele>170.19999694824</ele>
        <time>2023-09-26T10:55:05.000Z</time>
      </trkpt>
      <trkpt lat="43.4733" lon="6.7957">
        <ele>170</ele>
        <time>2023-09-26T10:55:07.000Z</time>
      </trkpt>
      <trkpt lat="43.47328" lon="6.7955">
        <ele>169.60000610352</ele>
        <time>2023-09-26T10:55:11.000Z</time>
      </trkpt>
      <trkpt lat="43.47326" lon="6.7954">
        <ele>169.19999694824</ele>
        <time>2023-09-26T10:55:13.000Z</time>
      </trkpt>
      <trkpt lat="43.47321" lon="6.79514">
        <ele>168.80000305176</ele>
        <time>2023-09-26T10:55:18.000Z</time>
      </trkpt>
      <trkpt lat="43.47318" lon="6.79498">
        <ele>168.39999389648</ele>
        <time>2023-09-26T10:55:21.000Z</time>
      </trkpt>
      <trkpt lat="43.47316" lon="6.79492">
        <ele>168.19999694824</ele>
        <time>2023-09-26T10:55:22.000Z</time>
      </trkpt>
      <trkpt lat="43.4731" lon="6.79476">
        <ele>168.19999694824</ele>
        <time>2023-09-26T10:55:25.000Z</time>
      </trkpt>
      <trkpt lat="43.47308" lon="6.79471">
        <ele>168</ele>
        <time>2023-09-26T10:55:26.000Z</time>
      </trkpt>
      <trkpt lat="43.47305" lon="6.79454">
        <ele>167.60000610352</ele>
        <time>2023-09-26T10:55:29.000Z</time>
      </trkpt>
      <trkpt lat="43.47305" lon="6.79448">
        <ele>167.39999389648</ele>
        <time>2023-09-26T10:55:30.000Z</time>
      </trkpt>
      <trkpt lat="43.47304" lon="6.79441">
        <ele>167.39999389648</ele>
        <time>2023-09-26T10:55:31.000Z</time>
      </trkpt>
      <trkpt lat="43.47304" lon="6.79435">
        <ele>167.19999694824</ele>
        <time>2023-09-26T10:55:32.000Z</time>
      </trkpt>
      <trkpt lat="43.47304" lon="6.79428">
        <ele>167.19999694824</ele>
        <time>2023-09-26T10:55:33.000Z</time>
      </trkpt>
      <trkpt lat="43.47306" lon="6.79408">
        <ele>166.80000305176</ele>
        <time>2023-09-26T10:55:36.000Z</time>
      </trkpt>
      <trkpt lat="43.47308" lon="6.79395">
        <ele>166.19999694824</ele>
        <time>2023-09-26T10:55:38.000Z</time>
      </trkpt>
      <trkpt lat="43.47313" lon="6.79355">
        <ele>165.60000610352</ele>
        <time>2023-09-26T10:55:44.000Z</time>
      </trkpt>
      <trkpt lat="43.47313" lon="6.79346">
        <ele>165.60000610352</ele>
        <time>2023-09-26T10:55:45.000Z</time>
      </trkpt>
      <trkpt lat="43.47311" lon="6.79333">
        <ele>165.39999389648</ele>
        <time>2023-09-26T10:55:47.000Z</time>
      </trkpt>
      <trkpt lat="43.47308" lon="6.79326">
        <ele>165.19999694824</ele>
        <time>2023-09-26T10:55:48.000Z</time>
      </trkpt>
      <trkpt lat="43.47305" lon="6.79321">
        <ele>165.19999694824</ele>
        <time>2023-09-26T10:55:49.000Z</time>
      </trkpt>
      <trkpt lat="43.47295" lon="6.79305">
        <ele>164.80000305176</ele>
        <time>2023-09-26T10:55:51.000Z</time>
      </trkpt>
      <trkpt lat="43.4729" lon="6.79301">
        <ele>164.80000305176</ele>
        <time>2023-09-26T10:55:52.000Z</time>
      </trkpt>
      <trkpt lat="43.47275" lon="6.79293">
        <ele>164.39999389648</ele>
        <time>2023-09-26T10:55:56.000Z</time>
      </trkpt>
      <trkpt lat="43.47259" lon="6.79289">
        <ele>163.80000305176</ele>
        <time>2023-09-26T10:55:59.000Z</time>
      </trkpt>
      <trkpt lat="43.47244" lon="6.79292">
        <ele>163.60000610352</ele>
        <time>2023-09-26T10:56:01.000Z</time>
      </trkpt>
      <trkpt lat="43.47239" lon="6.79295">
        <ele>163.39999389648</ele>
        <time>2023-09-26T10:56:03.000Z</time>
      </trkpt>
      <trkpt lat="43.47216" lon="6.79313">
        <ele>162.60000610352</ele>
        <time>2023-09-26T10:56:07.000Z</time>
      </trkpt>
      <trkpt lat="43.47212" lon="6.79316">
        <ele>162</ele>
        <time>2023-09-26T10:56:09.000Z</time>
      </trkpt>
      <trkpt lat="43.47203" lon="6.79325">
        <ele>161.80000305176</ele>
        <time>2023-09-26T10:56:10.000Z</time>
      </trkpt>
      <trkpt lat="43.47203" lon="6.79325">
        <ele>161</ele>
        <time>2023-09-26T10:56:11.000Z</time>
      </trkpt>
      <trkpt lat="43.47195" lon="6.79336">
        <ele>161</ele>
        <time>2023-09-26T10:56:12.000Z</time>
      </trkpt>
      <trkpt lat="43.47195" lon="6.79336">
        <ele>160.60000610352</ele>
        <time>2023-09-26T10:56:13.000Z</time>
      </trkpt>
      <trkpt lat="43.4719" lon="6.79349">
        <ele>160.60000610352</ele>
        <time>2023-09-26T10:56:14.000Z</time>
      </trkpt>
      <trkpt lat="43.47184" lon="6.79373">
        <ele>160.19999694824</ele>
        <time>2023-09-26T10:56:17.000Z</time>
      </trkpt>
      <trkpt lat="43.47184" lon="6.79373">
        <ele>159.60000610352</ele>
        <time>2023-09-26T10:56:18.000Z</time>
      </trkpt>
      <trkpt lat="43.47178" lon="6.79395">
        <ele>158.60000610352</ele>
        <time>2023-09-26T10:56:21.000Z</time>
      </trkpt>
      <trkpt lat="43.47174" lon="6.7941">
        <ele>157.80000305176</ele>
        <time>2023-09-26T10:56:22.000Z</time>
      </trkpt>
      <trkpt lat="43.47174" lon="6.7941">
        <ele>157.39999389648</ele>
        <time>2023-09-26T10:56:23.000Z</time>
      </trkpt>
      <trkpt lat="43.47168" lon="6.79445">
        <ele>156.60000610352</ele>
        <time>2023-09-26T10:56:27.000Z</time>
      </trkpt>
      <trkpt lat="43.47162" lon="6.79473">
        <ele>155.19999694824</ele>
        <time>2023-09-26T10:56:31.000Z</time>
      </trkpt>
      <trkpt lat="43.4716" lon="6.79486">
        <ele>154</ele>
        <time>2023-09-26T10:56:33.000Z</time>
      </trkpt>
      <trkpt lat="43.47158" lon="6.79507">
        <ele>153.19999694824</ele>
        <time>2023-09-26T10:56:36.000Z</time>
      </trkpt>
      <trkpt lat="43.47158" lon="6.79507">
        <ele>153</ele>
        <time>2023-09-26T10:56:37.000Z</time>
      </trkpt>
      <trkpt lat="43.47147" lon="6.79549">
        <ele>152.19999694824</ele>
        <time>2023-09-26T10:56:43.000Z</time>
      </trkpt>
      <trkpt lat="43.47143" lon="6.7956">
        <ele>151.39999389648</ele>
        <time>2023-09-26T10:56:45.000Z</time>
      </trkpt>
      <trkpt lat="43.47135" lon="6.79578">
        <ele>150</ele>
        <time>2023-09-26T10:56:49.000Z</time>
      </trkpt>
      <trkpt lat="43.47132" lon="6.79582">
        <ele>149.80000305176</ele>
        <time>2023-09-26T10:56:50.000Z</time>
      </trkpt>
      <trkpt lat="43.47125" lon="6.79587">
        <ele>149</ele>
        <time>2023-09-26T10:56:52.000Z</time>
      </trkpt>
      <trkpt lat="43.47111" lon="6.79594">
        <ele>148.60000610352</ele>
        <time>2023-09-26T10:56:56.000Z</time>
      </trkpt>
      <trkpt lat="43.47104" lon="6.79595">
        <ele>148.19999694824</ele>
        <time>2023-09-26T10:56:58.000Z</time>
      </trkpt>
      <trkpt lat="43.47099" lon="6.79595">
        <ele>147.80000305176</ele>
        <time>2023-09-26T10:56:59.000Z</time>
      </trkpt>
      <trkpt lat="43.47091" lon="6.79594">
        <ele>147.39999389648</ele>
        <time>2023-09-26T10:57:01.000Z</time>
      </trkpt>
      <trkpt lat="43.47079" lon="6.79591">
        <ele>147</ele>
        <time>2023-09-26T10:57:04.000Z</time>
      </trkpt>
      <trkpt lat="43.47068" lon="6.79587">
        <ele>146</ele>
        <time>2023-09-26T10:57:08.000Z</time>
      </trkpt>
      <trkpt lat="43.47063" lon="6.79586">
        <ele>145.80000305176</ele>
        <time>2023-09-26T10:57:09.000Z</time>
      </trkpt>
      <trkpt lat="43.47044" lon="6.79576">
        <ele>144.60000610352</ele>
        <time>2023-09-26T10:57:14.000Z</time>
      </trkpt>
      <trkpt lat="43.4704" lon="6.7957">
        <ele>144.39999389648</ele>
        <time>2023-09-26T10:57:15.000Z</time>
      </trkpt>
      <trkpt lat="43.47038" lon="6.79564">
        <ele>143.39999389648</ele>
        <time>2023-09-26T10:57:17.000Z</time>
      </trkpt>
      <trkpt lat="43.47037" lon="6.79559">
        <ele>142.39999389648</ele>
        <time>2023-09-26T10:57:21.000Z</time>
      </trkpt>
      <trkpt lat="43.47037" lon="6.79559">
        <ele>142.19999694824</ele>
        <time>2023-09-26T10:57:22.000Z</time>
      </trkpt>
      <trkpt lat="43.47039" lon="6.79552">
        <ele>141.80000305176</ele>
        <time>2023-09-26T10:57:34.000Z</time>
      </trkpt>
      <trkpt lat="43.47041" lon="6.79546">
        <ele>141.80000305176</ele>
        <time>2023-09-26T10:57:36.000Z</time>
      </trkpt>
      <trkpt lat="43.47054" lon="6.79521">
        <ele>141.39999389648</ele>
        <time>2023-09-26T10:57:42.000Z</time>
      </trkpt>
      <trkpt lat="43.47062" lon="6.79504">
        <ele>140.39999389648</ele>
        <time>2023-09-26T10:57:45.000Z</time>
      </trkpt>
      <trkpt lat="43.47065" lon="6.79498">
        <ele>140</ele>
        <time>2023-09-26T10:57:46.000Z</time>
      </trkpt>
      <trkpt lat="43.47069" lon="6.79486">
        <ele>139.39999389648</ele>
        <time>2023-09-26T10:57:48.000Z</time>
      </trkpt>
      <trkpt lat="43.4707" lon="6.79479">
        <ele>139.19999694824</ele>
        <time>2023-09-26T10:57:49.000Z</time>
      </trkpt>
      <trkpt lat="43.47077" lon="6.79443">
        <ele>138</ele>
        <time>2023-09-26T10:57:55.000Z</time>
      </trkpt>
      <trkpt lat="43.47078" lon="6.79437">
        <ele>137.80000305176</ele>
        <time>2023-09-26T10:57:56.000Z</time>
      </trkpt>
      <trkpt lat="43.47076" lon="6.79434">
        <ele>137</ele>
        <time>2023-09-26T10:57:57.000Z</time>
      </trkpt>
      <trkpt lat="43.47074" lon="6.7943">
        <ele>136.60000610352</ele>
        <time>2023-09-26T10:57:58.000Z</time>
      </trkpt>
      <trkpt lat="43.4706" lon="6.79428">
        <ele>136.19999694824</ele>
        <time>2023-09-26T10:58:02.000Z</time>
      </trkpt>
      <trkpt lat="43.47054" lon="6.79431">
        <ele>135.80000305176</ele>
        <time>2023-09-26T10:58:04.000Z</time>
      </trkpt>
      <trkpt lat="43.47038" lon="6.79441">
        <ele>135.19999694824</ele>
        <time>2023-09-26T10:58:09.000Z</time>
      </trkpt>
      <trkpt lat="43.47028" lon="6.79448">
        <ele>134.80000305176</ele>
        <time>2023-09-26T10:58:12.000Z</time>
      </trkpt>
      <trkpt lat="43.47008" lon="6.79456">
        <ele>134</ele>
        <time>2023-09-26T10:58:17.000Z</time>
      </trkpt>
      <trkpt lat="43.47004" lon="6.79458">
        <ele>133.39999389648</ele>
        <time>2023-09-26T10:58:18.000Z</time>
      </trkpt>
      <trkpt lat="43.4699" lon="6.79463">
        <ele>131.60000610352</ele>
        <time>2023-09-26T10:58:21.000Z</time>
      </trkpt>
      <trkpt lat="43.46987" lon="6.79464">
        <ele>131.19999694824</ele>
        <time>2023-09-26T10:58:22.000Z</time>
      </trkpt>
      <trkpt lat="43.46977" lon="6.7947">
        <ele>130.80000305176</ele>
        <time>2023-09-26T10:58:25.000Z</time>
      </trkpt>
      <trkpt lat="43.46952" lon="6.79482">
        <ele>130.39999389648</ele>
        <time>2023-09-26T10:58:30.000Z</time>
      </trkpt>
      <trkpt lat="43.46943" lon="6.79487">
        <ele>129.80000305176</ele>
        <time>2023-09-26T10:58:32.000Z</time>
      </trkpt>
      <trkpt lat="43.46938" lon="6.7949">
        <ele>129.19999694824</ele>
        <time>2023-09-26T10:58:33.000Z</time>
      </trkpt>
      <trkpt lat="43.46927" lon="6.79498">
        <ele>127.59999847412</ele>
        <time>2023-09-26T10:58:36.000Z</time>
      </trkpt>
      <trkpt lat="43.46921" lon="6.79501">
        <ele>126.40000152588</ele>
        <time>2023-09-26T10:58:38.000Z</time>
      </trkpt>
      <trkpt lat="43.46921" lon="6.79501">
        <ele>126.40000152588</ele>
        <time>2023-09-26T10:58:39.000Z</time>
      </trkpt>
      <trkpt lat="43.46916" lon="6.79501">
        <ele>126</ele>
        <time>2023-09-26T10:58:40.000Z</time>
      </trkpt>
      <trkpt lat="43.46913" lon="6.79499">
        <ele>126</ele>
        <time>2023-09-26T10:58:42.000Z</time>
      </trkpt>
      <trkpt lat="43.46912" lon="6.79498">
        <ele>125.80000305176</ele>
        <time>2023-09-26T10:58:43.000Z</time>
      </trkpt>
      <trkpt lat="43.46911" lon="6.79495">
        <ele>126.19999694824</ele>
        <time>2023-09-26T10:58:47.000Z</time>
      </trkpt>
      <trkpt lat="43.46912" lon="6.79494">
        <ele>126</ele>
        <time>2023-09-26T10:59:32.000Z</time>
      </trkpt>
      <trkpt lat="43.46914" lon="6.79485">
        <ele>126</ele>
        <time>2023-09-26T10:59:35.000Z</time>
      </trkpt>
      <trkpt lat="43.46917" lon="6.79465">
        <ele>125.80000305176</ele>
        <time>2023-09-26T10:59:39.000Z</time>
      </trkpt>
      <trkpt lat="43.46917" lon="6.7946">
        <ele>125.80000305176</ele>
        <time>2023-09-26T10:59:40.000Z</time>
      </trkpt>
      <trkpt lat="43.46924" lon="6.79418">
        <ele>125.40000152588</ele>
        <time>2023-09-26T10:59:48.000Z</time>
      </trkpt>
      <trkpt lat="43.46925" lon="6.79413">
        <ele>125.40000152588</ele>
        <time>2023-09-26T10:59:49.000Z</time>
      </trkpt>
      <trkpt lat="43.46936" lon="6.79383">
        <ele>125</ele>
        <time>2023-09-26T10:59:55.000Z</time>
      </trkpt>
      <trkpt lat="43.46938" lon="6.79378">
        <ele>125</ele>
        <time>2023-09-26T10:59:56.000Z</time>
      </trkpt>
      <trkpt lat="43.46937" lon="6.79367">
        <ele>124.59999847412</ele>
        <time>2023-09-26T10:59:58.000Z</time>
      </trkpt>
      <trkpt lat="43.46931" lon="6.79359">
        <ele>124.19999694824</ele>
        <time>2023-09-26T11:00:00.000Z</time>
      </trkpt>
      <trkpt lat="43.46924" lon="6.79347">
        <ele>124</ele>
        <time>2023-09-26T11:00:03.000Z</time>
      </trkpt>
      <trkpt lat="43.46924" lon="6.79341">
        <ele>124</ele>
        <time>2023-09-26T11:00:04.000Z</time>
      </trkpt>
      <trkpt lat="43.46925" lon="6.79336">
        <ele>123.80000305176</ele>
        <time>2023-09-26T11:00:05.000Z</time>
      </trkpt>
      <trkpt lat="43.46931" lon="6.79319">
        <ele>123.59999847412</ele>
        <time>2023-09-26T11:00:08.000Z</time>
      </trkpt>
      <trkpt lat="43.46949" lon="6.79284">
        <ele>123.19999694824</ele>
        <time>2023-09-26T11:00:15.000Z</time>
      </trkpt>
      <trkpt lat="43.46956" lon="6.79269">
        <ele>123</ele>
        <time>2023-09-26T11:00:18.000Z</time>
      </trkpt>
      <trkpt lat="43.46959" lon="6.79248">
        <ele>122.59999847412</ele>
        <time>2023-09-26T11:00:22.000Z</time>
      </trkpt>
      <trkpt lat="43.46955" lon="6.79241">
        <ele>122.40000152588</ele>
        <time>2023-09-26T11:00:24.000Z</time>
      </trkpt>
      <trkpt lat="43.46951" lon="6.7924">
        <ele>122.40000152588</ele>
        <time>2023-09-26T11:00:25.000Z</time>
      </trkpt>
      <trkpt lat="43.46947" lon="6.7924">
        <ele>122.19999694824</ele>
        <time>2023-09-26T11:00:26.000Z</time>
      </trkpt>
      <trkpt lat="43.46935" lon="6.79246">
        <ele>122.19999694824</ele>
        <time>2023-09-26T11:00:29.000Z</time>
      </trkpt>
      <trkpt lat="43.46926" lon="6.79251">
        <ele>122.19999694824</ele>
        <time>2023-09-26T11:00:31.000Z</time>
      </trkpt>
      <trkpt lat="43.46917" lon="6.79254">
        <ele>122</ele>
        <time>2023-09-26T11:00:33.000Z</time>
      </trkpt>
      <trkpt lat="43.46904" lon="6.79257">
        <ele>121.80000305176</ele>
        <time>2023-09-26T11:00:36.000Z</time>
      </trkpt>
      <trkpt lat="43.46895" lon="6.7926">
        <ele>121.80000305176</ele>
        <time>2023-09-26T11:00:38.000Z</time>
      </trkpt>
      <trkpt lat="43.46886" lon="6.79261">
        <ele>121.59999847412</ele>
        <time>2023-09-26T11:00:40.000Z</time>
      </trkpt>
      <trkpt lat="43.46882" lon="6.79261">
        <ele>121.40000152588</ele>
        <time>2023-09-26T11:00:42.000Z</time>
      </trkpt>
      <trkpt lat="43.46864" lon="6.79267">
        <ele>120.80000305176</ele>
        <time>2023-09-26T11:00:46.000Z</time>
      </trkpt>
      <trkpt lat="43.46846" lon="6.79264">
        <ele>120.19999694824</ele>
        <time>2023-09-26T11:00:51.000Z</time>
      </trkpt>
      <trkpt lat="43.46826" lon="6.79255">
        <ele>119.80000305176</ele>
        <time>2023-09-26T11:00:57.000Z</time>
      </trkpt>
      <trkpt lat="43.46826" lon="6.79255">
        <ele>119.80000305176</ele>
        <time>2023-09-26T11:00:58.000Z</time>
      </trkpt>
      <trkpt lat="43.46819" lon="6.79249">
        <ele>119.80000305176</ele>
        <time>2023-09-26T11:00:59.000Z</time>
      </trkpt>
      <trkpt lat="43.46814" lon="6.7924">
        <ele>119.59999847412</ele>
        <time>2023-09-26T11:01:01.000Z</time>
      </trkpt>
      <trkpt lat="43.46812" lon="6.79236">
        <ele>119.59999847412</ele>
        <time>2023-09-26T11:01:02.000Z</time>
      </trkpt>
      <trkpt lat="43.46807" lon="6.79225">
        <ele>119.59999847412</ele>
        <time>2023-09-26T11:01:04.000Z</time>
      </trkpt>
      <trkpt lat="43.46793" lon="6.79195">
        <ele>119.19999694824</ele>
        <time>2023-09-26T11:01:10.000Z</time>
      </trkpt>
      <trkpt lat="43.46779" lon="6.79172">
        <ele>119</ele>
        <time>2023-09-26T11:01:15.000Z</time>
      </trkpt>
      <trkpt lat="43.46775" lon="6.79168">
        <ele>119</ele>
        <time>2023-09-26T11:01:16.000Z</time>
      </trkpt>
      <trkpt lat="43.46773" lon="6.79164">
        <ele>118.80000305176</ele>
        <time>2023-09-26T11:01:17.000Z</time>
      </trkpt>
      <trkpt lat="43.46766" lon="6.79153">
        <ele>118.80000305176</ele>
        <time>2023-09-26T11:01:19.000Z</time>
      </trkpt>
      <trkpt lat="43.46762" lon="6.79141">
        <ele>118.59999847412</ele>
        <time>2023-09-26T11:01:21.000Z</time>
      </trkpt>
      <trkpt lat="43.46761" lon="6.79135">
        <ele>118.59999847412</ele>
        <time>2023-09-26T11:01:22.000Z</time>
      </trkpt>
      <trkpt lat="43.46758" lon="6.79116">
        <ele>118.19999694824</ele>
        <time>2023-09-26T11:01:25.000Z</time>
      </trkpt>
      <trkpt lat="43.46756" lon="6.79103">
        <ele>118</ele>
        <time>2023-09-26T11:01:27.000Z</time>
      </trkpt>
      <trkpt lat="43.46754" lon="6.79097">
        <ele>117.80000305176</ele>
        <time>2023-09-26T11:01:29.000Z</time>
      </trkpt>
      <trkpt lat="43.4675" lon="6.79086">
        <ele>117.80000305176</ele>
        <time>2023-09-26T11:01:30.000Z</time>
      </trkpt>
      <trkpt lat="43.46746" lon="6.79075">
        <ele>117.80000305176</ele>
        <time>2023-09-26T11:01:32.000Z</time>
      </trkpt>
      <trkpt lat="43.46744" lon="6.79072">
        <ele>117.80000305176</ele>
        <time>2023-09-26T11:01:33.000Z</time>
      </trkpt>
      <trkpt lat="43.46739" lon="6.79072">
        <ele>117.80000305176</ele>
        <time>2023-09-26T11:01:35.000Z</time>
      </trkpt>
      <trkpt lat="43.46736" lon="6.79075">
        <ele>117.59999847412</ele>
        <time>2023-09-26T11:01:36.000Z</time>
      </trkpt>
      <trkpt lat="43.46733" lon="6.79088">
        <ele>117.19999694824</ele>
        <time>2023-09-26T11:01:40.000Z</time>
      </trkpt>
      <trkpt lat="43.46732" lon="6.79109">
        <ele>117</ele>
        <time>2023-09-26T11:01:43.000Z</time>
      </trkpt>
      <trkpt lat="43.46732" lon="6.7912">
        <ele>116.59999847412</ele>
        <time>2023-09-26T11:01:45.000Z</time>
      </trkpt>
      <trkpt lat="43.46731" lon="6.79133">
        <ele>116.19999694824</ele>
        <time>2023-09-26T11:01:47.000Z</time>
      </trkpt>
      <trkpt lat="43.46732" lon="6.79139">
        <ele>116</ele>
        <time>2023-09-26T11:01:48.000Z</time>
      </trkpt>
      <trkpt lat="43.46735" lon="6.79152">
        <ele>115.80000305176</ele>
        <time>2023-09-26T11:01:50.000Z</time>
      </trkpt>
      <trkpt lat="43.4674" lon="6.79169">
        <ele>115.40000152588</ele>
        <time>2023-09-26T11:01:53.000Z</time>
      </trkpt>
      <trkpt lat="43.4674" lon="6.79178">
        <ele>115.19999694824</ele>
        <time>2023-09-26T11:01:54.000Z</time>
      </trkpt>
      <trkpt lat="43.46739" lon="6.79183">
        <ele>115</ele>
        <time>2023-09-26T11:01:55.000Z</time>
      </trkpt>
      <trkpt lat="43.46736" lon="6.79191">
        <ele>115</ele>
        <time>2023-09-26T11:01:56.000Z</time>
      </trkpt>
      <trkpt lat="43.46733" lon="6.79196">
        <ele>114.80000305176</ele>
        <time>2023-09-26T11:01:57.000Z</time>
      </trkpt>
      <trkpt lat="43.46729" lon="6.79202">
        <ele>114.80000305176</ele>
        <time>2023-09-26T11:01:58.000Z</time>
      </trkpt>
      <trkpt lat="43.4672" lon="6.79211">
        <ele>114.59999847412</ele>
        <time>2023-09-26T11:02:00.000Z</time>
      </trkpt>
      <trkpt lat="43.4671" lon="6.79215">
        <ele>114.40000152588</ele>
        <time>2023-09-26T11:02:02.000Z</time>
      </trkpt>
      <trkpt lat="43.46705" lon="6.79218">
        <ele>113.80000305176</ele>
        <time>2023-09-26T11:02:03.000Z</time>
      </trkpt>
      <trkpt lat="43.467" lon="6.79221">
        <ele>113.59999847412</ele>
        <time>2023-09-26T11:02:04.000Z</time>
      </trkpt>
      <trkpt lat="43.46697" lon="6.79225">
        <ele>113</ele>
        <time>2023-09-26T11:02:06.000Z</time>
      </trkpt>
      <trkpt lat="43.46691" lon="6.79237">
        <ele>112.80000305176</ele>
        <time>2023-09-26T11:02:07.000Z</time>
      </trkpt>
      <trkpt lat="43.46692" lon="6.79243">
        <ele>112.59999847412</ele>
        <time>2023-09-26T11:02:08.000Z</time>
      </trkpt>
      <trkpt lat="43.46693" lon="6.79248">
        <ele>112.40000152588</ele>
        <time>2023-09-26T11:02:09.000Z</time>
      </trkpt>
      <trkpt lat="43.467" lon="6.79257">
        <ele>112.19999694824</ele>
        <time>2023-09-26T11:02:11.000Z</time>
      </trkpt>
      <trkpt lat="43.46709" lon="6.79262">
        <ele>111.59999847412</ele>
        <time>2023-09-26T11:02:13.000Z</time>
      </trkpt>
      <trkpt lat="43.46718" lon="6.79266">
        <ele>111.40000152588</ele>
        <time>2023-09-26T11:02:15.000Z</time>
      </trkpt>
      <trkpt lat="43.46723" lon="6.79268">
        <ele>111.40000152588</ele>
        <time>2023-09-26T11:02:16.000Z</time>
      </trkpt>
      <trkpt lat="43.46734" lon="6.79271">
        <ele>110.80000305176</ele>
        <time>2023-09-26T11:02:18.000Z</time>
      </trkpt>
      <trkpt lat="43.4674" lon="6.79272">
        <ele>110.80000305176</ele>
        <time>2023-09-26T11:02:19.000Z</time>
      </trkpt>
      <trkpt lat="43.46757" lon="6.79276">
        <ele>109.80000305176</ele>
        <time>2023-09-26T11:02:22.000Z</time>
      </trkpt>
      <trkpt lat="43.46763" lon="6.79277">
        <ele>109.59999847412</ele>
        <time>2023-09-26T11:02:23.000Z</time>
      </trkpt>
      <trkpt lat="43.46779" lon="6.79282">
        <ele>109.19999694824</ele>
        <time>2023-09-26T11:02:26.000Z</time>
      </trkpt>
      <trkpt lat="43.46785" lon="6.79285">
        <ele>109</ele>
        <time>2023-09-26T11:02:28.000Z</time>
      </trkpt>
      <trkpt lat="43.46804" lon="6.79294">
        <ele>108.59999847412</ele>
        <time>2023-09-26T11:02:30.000Z</time>
      </trkpt>
      <trkpt lat="43.4682" lon="6.79305">
        <ele>108</ele>
        <time>2023-09-26T11:02:33.000Z</time>
      </trkpt>
      <trkpt lat="43.46825" lon="6.79308">
        <ele>107.80000305176</ele>
        <time>2023-09-26T11:02:34.000Z</time>
      </trkpt>
      <trkpt lat="43.46832" lon="6.79316">
        <ele>107.40000152588</ele>
        <time>2023-09-26T11:02:36.000Z</time>
      </trkpt>
      <trkpt lat="43.46834" lon="6.79321">
        <ele>107</ele>
        <time>2023-09-26T11:02:37.000Z</time>
      </trkpt>
      <trkpt lat="43.46834" lon="6.79335">
        <ele>106.59999847412</ele>
        <time>2023-09-26T11:02:39.000Z</time>
      </trkpt>
      <trkpt lat="43.46832" lon="6.79341">
        <ele>106.40000152588</ele>
        <time>2023-09-26T11:02:41.000Z</time>
      </trkpt>
      <trkpt lat="43.46829" lon="6.79346">
        <ele>105.19999694824</ele>
        <time>2023-09-26T11:02:44.000Z</time>
      </trkpt>
      <trkpt lat="43.46829" lon="6.79346">
        <ele>105.19999694824</ele>
        <time>2023-09-26T11:02:45.000Z</time>
      </trkpt>
      <trkpt lat="43.46827" lon="6.79346">
        <ele>104.59999847412</ele>
        <time>2023-09-26T11:02:55.000Z</time>
      </trkpt>
      <trkpt lat="43.46821" lon="6.79345">
        <ele>104.40000152588</ele>
        <time>2023-09-26T11:02:58.000Z</time>
      </trkpt>
      <trkpt lat="43.46808" lon="6.79338">
        <ele>104.40000152588</ele>
        <time>2023-09-26T11:03:02.000Z</time>
      </trkpt>
      <trkpt lat="43.46786" lon="6.79331">
        <ele>104.40000152588</ele>
        <time>2023-09-26T11:03:08.000Z</time>
      </trkpt>
      <trkpt lat="43.4677" lon="6.79329">
        <ele>104.40000152588</ele>
        <time>2023-09-26T11:03:12.000Z</time>
      </trkpt>
      <trkpt lat="43.46757" lon="6.79329">
        <ele>104</ele>
        <time>2023-09-26T11:03:15.000Z</time>
      </trkpt>
      <trkpt lat="43.46749" lon="6.79329">
        <ele>103.80000305176</ele>
        <time>2023-09-26T11:03:17.000Z</time>
      </trkpt>
      <trkpt lat="43.46729" lon="6.79331">
        <ele>103.40000152588</ele>
        <time>2023-09-26T11:03:21.000Z</time>
      </trkpt>
      <trkpt lat="43.46705" lon="6.7933">
        <ele>102.80000305176</ele>
        <time>2023-09-26T11:03:27.000Z</time>
      </trkpt>
      <trkpt lat="43.46701" lon="6.79329">
        <ele>102.80000305176</ele>
        <time>2023-09-26T11:03:29.000Z</time>
      </trkpt>
      <trkpt lat="43.46678" lon="6.79323">
        <ele>102.59999847412</ele>
        <time>2023-09-26T11:03:33.000Z</time>
      </trkpt>
      <trkpt lat="43.46662" lon="6.79317">
        <ele>102.40000152588</ele>
        <time>2023-09-26T11:03:37.000Z</time>
      </trkpt>
      <trkpt lat="43.46658" lon="6.79316">
        <ele>102.40000152588</ele>
        <time>2023-09-26T11:03:38.000Z</time>
      </trkpt>
      <trkpt lat="43.46641" lon="6.79314">
        <ele>102.40000152588</ele>
        <time>2023-09-26T11:03:42.000Z</time>
      </trkpt>
      <trkpt lat="43.46633" lon="6.79315">
        <ele>102.19999694824</ele>
        <time>2023-09-26T11:03:44.000Z</time>
      </trkpt>
      <trkpt lat="43.46625" lon="6.79319">
        <ele>102.19999694824</ele>
        <time>2023-09-26T11:03:46.000Z</time>
      </trkpt>
      <trkpt lat="43.46615" lon="6.7933">
        <ele>102.19999694824</ele>
        <time>2023-09-26T11:03:49.000Z</time>
      </trkpt>
      <trkpt lat="43.46611" lon="6.7934">
        <ele>102</ele>
        <time>2023-09-26T11:03:51.000Z</time>
      </trkpt>
      <trkpt lat="43.46609" lon="6.79353">
        <ele>102</ele>
        <time>2023-09-26T11:03:53.000Z</time>
      </trkpt>
      <trkpt lat="43.4661" lon="6.79359">
        <ele>101.80000305176</ele>
        <time>2023-09-26T11:03:54.000Z</time>
      </trkpt>
      <trkpt lat="43.46612" lon="6.7939">
        <ele>101.19999694824</ele>
        <time>2023-09-26T11:03:59.000Z</time>
      </trkpt>
      <trkpt lat="43.46614" lon="6.79396">
        <ele>101.19999694824</ele>
        <time>2023-09-26T11:04:00.000Z</time>
      </trkpt>
      <trkpt lat="43.46616" lon="6.79401">
        <ele>101.19999694824</ele>
        <time>2023-09-26T11:04:01.000Z</time>
      </trkpt>
      <trkpt lat="43.46621" lon="6.79411">
        <ele>101</ele>
        <time>2023-09-26T11:04:03.000Z</time>
      </trkpt>
      <trkpt lat="43.46628" lon="6.79418">
        <ele>101</ele>
        <time>2023-09-26T11:04:05.000Z</time>
      </trkpt>
      <trkpt lat="43.46632" lon="6.79422">
        <ele>100.80000305176</ele>
        <time>2023-09-26T11:04:06.000Z</time>
      </trkpt>
      <trkpt lat="43.46636" lon="6.79434">
        <ele>100.80000305176</ele>
        <time>2023-09-26T11:04:08.000Z</time>
      </trkpt>
      <trkpt lat="43.46636" lon="6.7944">
        <ele>100.80000305176</ele>
        <time>2023-09-26T11:04:09.000Z</time>
      </trkpt>
      <trkpt lat="43.46635" lon="6.79445">
        <ele>100.80000305176</ele>
        <time>2023-09-26T11:04:10.000Z</time>
      </trkpt>
      <trkpt lat="43.46629" lon="6.79456">
        <ele>100.59999847412</ele>
        <time>2023-09-26T11:04:12.000Z</time>
      </trkpt>
      <trkpt lat="43.46625" lon="6.79461">
        <ele>100.19999694824</ele>
        <time>2023-09-26T11:04:13.000Z</time>
      </trkpt>
      <trkpt lat="43.4662" lon="6.79472">
        <ele>100</ele>
        <time>2023-09-26T11:04:15.000Z</time>
      </trkpt>
      <trkpt lat="43.46613" lon="6.79488">
        <ele>99.800003051758</ele>
        <time>2023-09-26T11:04:18.000Z</time>
      </trkpt>
      <trkpt lat="43.46611" lon="6.79495">
        <ele>99.800003051758</ele>
        <time>2023-09-26T11:04:19.000Z</time>
      </trkpt>
      <trkpt lat="43.46607" lon="6.79516">
        <ele>100.19999694824</ele>
        <time>2023-09-26T11:04:23.000Z</time>
      </trkpt>
      <trkpt lat="43.46606" lon="6.79533">
        <ele>100.19999694824</ele>
        <time>2023-09-26T11:04:26.000Z</time>
      </trkpt>
      <trkpt lat="43.46615" lon="6.79552">
        <ele>100.59999847412</ele>
        <time>2023-09-26T11:04:30.000Z</time>
      </trkpt>
      <trkpt lat="43.46619" lon="6.79557">
        <ele>100.59999847412</ele>
        <time>2023-09-26T11:04:31.000Z</time>
      </trkpt>
      <trkpt lat="43.46635" lon="6.79573">
        <ele>100.40000152588</ele>
        <time>2023-09-26T11:04:35.000Z</time>
      </trkpt>
      <trkpt lat="43.4664" lon="6.79577">
        <ele>100.40000152588</ele>
        <time>2023-09-26T11:04:36.000Z</time>
      </trkpt>
      <trkpt lat="43.4667" lon="6.79599">
        <ele>99</ele>
        <time>2023-09-26T11:04:42.000Z</time>
      </trkpt>
      <trkpt lat="43.4668" lon="6.79606">
        <ele>98.800003051758</ele>
        <time>2023-09-26T11:04:44.000Z</time>
      </trkpt>
      <trkpt lat="43.46683" lon="6.79611">
        <ele>98.599998474121</ele>
        <time>2023-09-26T11:04:45.000Z</time>
      </trkpt>
      <trkpt lat="43.46688" lon="6.79625">
        <ele>98.199996948242</ele>
        <time>2023-09-26T11:04:47.000Z</time>
      </trkpt>
      <trkpt lat="43.46689" lon="6.7964">
        <ele>97.199996948242</ele>
        <time>2023-09-26T11:04:49.000Z</time>
      </trkpt>
      <trkpt lat="43.46693" lon="6.79662">
        <ele>96.400001525879</ele>
        <time>2023-09-26T11:04:52.000Z</time>
      </trkpt>
      <trkpt lat="43.46699" lon="6.79673">
        <ele>96.199996948242</ele>
        <time>2023-09-26T11:04:54.000Z</time>
      </trkpt>
      <trkpt lat="43.46707" lon="6.79684">
        <ele>95.599998474121</ele>
        <time>2023-09-26T11:04:56.000Z</time>
      </trkpt>
      <trkpt lat="43.46718" lon="6.79695">
        <ele>95.199996948242</ele>
        <time>2023-09-26T11:04:58.000Z</time>
      </trkpt>
      <trkpt lat="43.46728" lon="6.79704">
        <ele>94.800003051758</ele>
        <time>2023-09-26T11:05:00.000Z</time>
      </trkpt>
      <trkpt lat="43.46745" lon="6.79714">
        <ele>94.400001525879</ele>
        <time>2023-09-26T11:05:03.000Z</time>
      </trkpt>
      <trkpt lat="43.46756" lon="6.79719">
        <ele>94.199996948242</ele>
        <time>2023-09-26T11:05:05.000Z</time>
      </trkpt>
      <trkpt lat="43.46762" lon="6.7972">
        <ele>94</ele>
        <time>2023-09-26T11:05:06.000Z</time>
      </trkpt>
      <trkpt lat="43.46768" lon="6.79721">
        <ele>94</ele>
        <time>2023-09-26T11:05:07.000Z</time>
      </trkpt>
      <trkpt lat="43.46784" lon="6.79722">
        <ele>93.599998474121</ele>
        <time>2023-09-26T11:05:11.000Z</time>
      </trkpt>
      <trkpt lat="43.46811" lon="6.79725">
        <ele>93.400001525879</ele>
        <time>2023-09-26T11:05:15.000Z</time>
      </trkpt>
      <trkpt lat="43.46811" lon="6.79725">
        <ele>93.400001525879</ele>
        <time>2023-09-26T11:05:16.000Z</time>
      </trkpt>
      <trkpt lat="43.4683" lon="6.79726">
        <ele>93.400001525879</ele>
        <time>2023-09-26T11:05:19.000Z</time>
      </trkpt>
      <trkpt lat="43.46834" lon="6.79726">
        <ele>93.199996948242</ele>
        <time>2023-09-26T11:05:20.000Z</time>
      </trkpt>
      <trkpt lat="43.46838" lon="6.79726">
        <ele>93.199996948242</ele>
        <time>2023-09-26T11:05:21.000Z</time>
      </trkpt>
      <trkpt lat="43.4685" lon="6.79732">
        <ele>93.199996948242</ele>
        <time>2023-09-26T11:05:24.000Z</time>
      </trkpt>
      <trkpt lat="43.46857" lon="6.79737">
        <ele>93.199996948242</ele>
        <time>2023-09-26T11:05:26.000Z</time>
      </trkpt>
      <trkpt lat="43.46865" lon="6.79755">
        <ele>93.199996948242</ele>
        <time>2023-09-26T11:05:31.000Z</time>
      </trkpt>
      <trkpt lat="43.46863" lon="6.79768">
        <ele>93.199996948242</ele>
        <time>2023-09-26T11:05:34.000Z</time>
      </trkpt>
      <trkpt lat="43.4686" lon="6.79776">
        <ele>93.400001525879</ele>
        <time>2023-09-26T11:05:36.000Z</time>
      </trkpt>
      <trkpt lat="43.4685" lon="6.79788">
        <ele>93.400001525879</ele>
        <time>2023-09-26T11:05:40.000Z</time>
      </trkpt>
      <trkpt lat="43.46826" lon="6.79806">
        <ele>93.800003051758</ele>
        <time>2023-09-26T11:05:47.000Z</time>
      </trkpt>
      <trkpt lat="43.46805" lon="6.79832">
        <ele>94.199996948242</ele>
        <time>2023-09-26T11:05:54.000Z</time>
      </trkpt>
      <trkpt lat="43.46803" lon="6.79836">
        <ele>94.400001525879</ele>
        <time>2023-09-26T11:05:55.000Z</time>
      </trkpt>
      <trkpt lat="43.46795" lon="6.79857">
        <ele>95</ele>
        <time>2023-09-26T11:06:00.000Z</time>
      </trkpt>
      <trkpt lat="43.4679" lon="6.79866">
        <ele>95</ele>
        <time>2023-09-26T11:06:01.000Z</time>
      </trkpt>
      <trkpt lat="43.46781" lon="6.79878">
        <ele>95.199996948242</ele>
        <time>2023-09-26T11:06:04.000Z</time>
      </trkpt>
      <trkpt lat="43.46777" lon="6.79881">
        <ele>95.400001525879</ele>
        <time>2023-09-26T11:06:05.000Z</time>
      </trkpt>
      <trkpt lat="43.46761" lon="6.79889">
        <ele>95.599998474121</ele>
        <time>2023-09-26T11:06:09.000Z</time>
      </trkpt>
      <trkpt lat="43.46758" lon="6.79892">
        <ele>95.599998474121</ele>
        <time>2023-09-26T11:06:10.000Z</time>
      </trkpt>
      <trkpt lat="43.46755" lon="6.79895">
        <ele>95.599998474121</ele>
        <time>2023-09-26T11:06:11.000Z</time>
      </trkpt>
      <trkpt lat="43.4675" lon="6.79904">
        <ele>96.400001525879</ele>
        <time>2023-09-26T11:06:13.000Z</time>
      </trkpt>
      <trkpt lat="43.46748" lon="6.7991">
        <ele>96.400001525879</ele>
        <time>2023-09-26T11:06:14.000Z</time>
      </trkpt>
      <trkpt lat="43.46748" lon="6.79916">
        <ele>96.800003051758</ele>
        <time>2023-09-26T11:06:15.000Z</time>
      </trkpt>
      <trkpt lat="43.46748" lon="6.79928">
        <ele>97.400001525879</ele>
        <time>2023-09-26T11:06:17.000Z</time>
      </trkpt>
      <trkpt lat="43.46749" lon="6.79935">
        <ele>97.599998474121</ele>
        <time>2023-09-26T11:06:18.000Z</time>
      </trkpt>
      <trkpt lat="43.46753" lon="6.79946">
        <ele>97.800003051758</ele>
        <time>2023-09-26T11:06:20.000Z</time>
      </trkpt>
      <trkpt lat="43.46762" lon="6.79967">
        <ele>98.199996948242</ele>
        <time>2023-09-26T11:06:24.000Z</time>
      </trkpt>
      <trkpt lat="43.46768" lon="6.79983">
        <ele>98.800003051758</ele>
        <time>2023-09-26T11:06:27.000Z</time>
      </trkpt>
      <trkpt lat="43.46777" lon="6.80004">
        <ele>99.599998474121</ele>
        <time>2023-09-26T11:06:31.000Z</time>
      </trkpt>
      <trkpt lat="43.46781" lon="6.80013">
        <ele>99.800003051758</ele>
        <time>2023-09-26T11:06:33.000Z</time>
      </trkpt>
      <trkpt lat="43.46787" lon="6.80024">
        <ele>100.59999847412</ele>
        <time>2023-09-26T11:06:35.000Z</time>
      </trkpt>
      <trkpt lat="43.46792" lon="6.80032">
        <ele>100.80000305176</ele>
        <time>2023-09-26T11:06:37.000Z</time>
      </trkpt>
      <trkpt lat="43.46796" lon="6.80036">
        <ele>101</ele>
        <time>2023-09-26T11:06:38.000Z</time>
      </trkpt>
      <trkpt lat="43.468" lon="6.80039">
        <ele>101.19999694824</ele>
        <time>2023-09-26T11:06:39.000Z</time>
      </trkpt>
      <trkpt lat="43.46805" lon="6.80042">
        <ele>101.19999694824</ele>
        <time>2023-09-26T11:06:40.000Z</time>
      </trkpt>
      <trkpt lat="43.46813" lon="6.80046">
        <ele>101.40000152588</ele>
        <time>2023-09-26T11:06:42.000Z</time>
      </trkpt>
      <trkpt lat="43.46827" lon="6.80049">
        <ele>101.80000305176</ele>
        <time>2023-09-26T11:06:45.000Z</time>
      </trkpt>
      <trkpt lat="43.46835" lon="6.8005">
        <ele>102</ele>
        <time>2023-09-26T11:06:47.000Z</time>
      </trkpt>
      <trkpt lat="43.46858" lon="6.80054">
        <ele>102.19999694824</ele>
        <time>2023-09-26T11:06:52.000Z</time>
      </trkpt>
      <trkpt lat="43.46866" lon="6.80057">
        <ele>102.19999694824</ele>
        <time>2023-09-26T11:06:54.000Z</time>
      </trkpt>
      <trkpt lat="43.46909" lon="6.80076">
        <ele>102.80000305176</ele>
        <time>2023-09-26T11:07:04.000Z</time>
      </trkpt>
      <trkpt lat="43.46926" lon="6.80082">
        <ele>103</ele>
        <time>2023-09-26T11:07:08.000Z</time>
      </trkpt>
      <trkpt lat="43.4693" lon="6.80083">
        <ele>103</ele>
        <time>2023-09-26T11:07:09.000Z</time>
      </trkpt>
      <trkpt lat="43.46934" lon="6.80084">
        <ele>103.19999694824</ele>
        <time>2023-09-26T11:07:10.000Z</time>
      </trkpt>
      <trkpt lat="43.46943" lon="6.80086">
        <ele>103.19999694824</ele>
        <time>2023-09-26T11:07:12.000Z</time>
      </trkpt>
      <trkpt lat="43.46956" lon="6.80088">
        <ele>103.59999847412</ele>
        <time>2023-09-26T11:07:15.000Z</time>
      </trkpt>
      <trkpt lat="43.46968" lon="6.80086">
        <ele>103.80000305176</ele>
        <time>2023-09-26T11:07:18.000Z</time>
      </trkpt>
      <trkpt lat="43.4698" lon="6.80089">
        <ele>104.40000152588</ele>
        <time>2023-09-26T11:07:22.000Z</time>
      </trkpt>
      <trkpt lat="43.4699" lon="6.80117">
        <ele>104.40000152588</ele>
        <time>2023-09-26T11:07:28.000Z</time>
      </trkpt>
      <trkpt lat="43.46992" lon="6.80137">
        <ele>104.40000152588</ele>
        <time>2023-09-26T11:07:31.000Z</time>
      </trkpt>
      <trkpt lat="43.46996" lon="6.80151">
        <ele>104</ele>
        <time>2023-09-26T11:07:33.000Z</time>
      </trkpt>
      <trkpt lat="43.47001" lon="6.80163">
        <ele>103</ele>
        <time>2023-09-26T11:07:35.000Z</time>
      </trkpt>
      <trkpt lat="43.47005" lon="6.80168">
        <ele>103</ele>
        <time>2023-09-26T11:07:36.000Z</time>
      </trkpt>
      <trkpt lat="43.47009" lon="6.80173">
        <ele>102.59999847412</ele>
        <time>2023-09-26T11:07:37.000Z</time>
      </trkpt>
      <trkpt lat="43.47014" lon="6.80175">
        <ele>102.59999847412</ele>
        <time>2023-09-26T11:07:38.000Z</time>
      </trkpt>
      <trkpt lat="43.47028" lon="6.80182">
        <ele>102.19999694824</ele>
        <time>2023-09-26T11:07:41.000Z</time>
      </trkpt>
      <trkpt lat="43.47032" lon="6.80185">
        <ele>102</ele>
        <time>2023-09-26T11:07:42.000Z</time>
      </trkpt>
      <trkpt lat="43.47036" lon="6.80189">
        <ele>101.59999847412</ele>
        <time>2023-09-26T11:07:43.000Z</time>
      </trkpt>
      <trkpt lat="43.47041" lon="6.80199">
        <ele>101.19999694824</ele>
        <time>2023-09-26T11:07:45.000Z</time>
      </trkpt>
      <trkpt lat="43.47043" lon="6.80205">
        <ele>100.80000305176</ele>
        <time>2023-09-26T11:07:46.000Z</time>
      </trkpt>
      <trkpt lat="43.47043" lon="6.80212">
        <ele>100.40000152588</ele>
        <time>2023-09-26T11:07:47.000Z</time>
      </trkpt>
      <trkpt lat="43.47042" lon="6.80225">
        <ele>99.800003051758</ele>
        <time>2023-09-26T11:07:49.000Z</time>
      </trkpt>
      <trkpt lat="43.4704" lon="6.80232">
        <ele>99.599998474121</ele>
        <time>2023-09-26T11:07:50.000Z</time>
      </trkpt>
      <trkpt lat="43.47038" lon="6.80238">
        <ele>99.400001525879</ele>
        <time>2023-09-26T11:07:51.000Z</time>
      </trkpt>
      <trkpt lat="43.47032" lon="6.8025">
        <ele>99</ele>
        <time>2023-09-26T11:07:53.000Z</time>
      </trkpt>
      <trkpt lat="43.47031" lon="6.80256">
        <ele>98.599998474121</ele>
        <time>2023-09-26T11:07:54.000Z</time>
      </trkpt>
      <trkpt lat="43.47031" lon="6.80264">
        <ele>98.400001525879</ele>
        <time>2023-09-26T11:07:55.000Z</time>
      </trkpt>
      <trkpt lat="43.47035" lon="6.80278">
        <ele>97.800003051758</ele>
        <time>2023-09-26T11:07:57.000Z</time>
      </trkpt>
      <trkpt lat="43.47038" lon="6.80284">
        <ele>97.199996948242</ele>
        <time>2023-09-26T11:07:58.000Z</time>
      </trkpt>
      <trkpt lat="43.47041" lon="6.80291">
        <ele>96.599998474121</ele>
        <time>2023-09-26T11:07:59.000Z</time>
      </trkpt>
      <trkpt lat="43.47042" lon="6.80299">
        <ele>96.199996948242</ele>
        <time>2023-09-26T11:08:00.000Z</time>
      </trkpt>
      <trkpt lat="43.47042" lon="6.80299">
        <ele>95.599998474121</ele>
        <time>2023-09-26T11:08:01.000Z</time>
      </trkpt>
      <trkpt lat="43.47043" lon="6.80312">
        <ele>95.400001525879</ele>
        <time>2023-09-26T11:08:02.000Z</time>
      </trkpt>
      <trkpt lat="43.47041" lon="6.80319">
        <ele>95.199996948242</ele>
        <time>2023-09-26T11:08:03.000Z</time>
      </trkpt>
      <trkpt lat="43.4704" lon="6.80325">
        <ele>94.800003051758</ele>
        <time>2023-09-26T11:08:04.000Z</time>
      </trkpt>
      <trkpt lat="43.47035" lon="6.80337">
        <ele>94.199996948242</ele>
        <time>2023-09-26T11:08:06.000Z</time>
      </trkpt>
      <trkpt lat="43.47032" lon="6.80349">
        <ele>93.599998474121</ele>
        <time>2023-09-26T11:08:08.000Z</time>
      </trkpt>
      <trkpt lat="43.47031" lon="6.80359">
        <ele>93</ele>
        <time>2023-09-26T11:08:10.000Z</time>
      </trkpt>
      <trkpt lat="43.47032" lon="6.80368">
        <ele>91.800003051758</ele>
        <time>2023-09-26T11:08:13.000Z</time>
      </trkpt>
      <trkpt lat="43.47032" lon="6.8037">
        <ele>91.800003051758</ele>
        <time>2023-09-26T11:08:14.000Z</time>
      </trkpt>
      <trkpt lat="43.47032" lon="6.80372">
        <ele>90.800003051758</ele>
        <time>2023-09-26T11:08:18.000Z</time>
      </trkpt>
      <trkpt lat="43.47032" lon="6.80372">
        <ele>90.599998474121</ele>
        <time>2023-09-26T11:08:20.000Z</time>
      </trkpt>
      <trkpt lat="43.47032" lon="6.80372">
        <ele>90</ele>
        <time>2023-09-26T11:08:32.000Z</time>
      </trkpt>
      <trkpt lat="43.47034" lon="6.80374">
        <ele>90</ele>
        <time>2023-09-26T11:08:33.000Z</time>
      </trkpt>
      <trkpt lat="43.47035" lon="6.80376">
        <ele>90</ele>
        <time>2023-09-26T11:08:34.000Z</time>
      </trkpt>
      <trkpt lat="43.47036" lon="6.80386">
        <ele>89.800003051758</ele>
        <time>2023-09-26T11:08:37.000Z</time>
      </trkpt>
      <trkpt lat="43.47039" lon="6.80402">
        <ele>89.199996948242</ele>
        <time>2023-09-26T11:08:42.000Z</time>
      </trkpt>
      <trkpt lat="43.47042" lon="6.80408">
        <ele>88.800003051758</ele>
        <time>2023-09-26T11:08:45.000Z</time>
      </trkpt>
      <trkpt lat="43.47042" lon="6.80408">
        <ele>88.800003051758</ele>
        <time>2023-09-26T11:08:47.000Z</time>
      </trkpt>
      <trkpt lat="43.47042" lon="6.80408">
        <ele>88.400001525879</ele>
        <time>2023-09-26T11:09:07.000Z</time>
      </trkpt>
      <trkpt lat="43.47042" lon="6.80408">
        <ele>89</ele>
        <time>2023-09-26T11:13:00.000Z</time>
      </trkpt>
      <trkpt lat="43.47042" lon="6.80408">
        <ele>89</ele>
        <time>2023-09-26T11:13:02.000Z</time>
      </trkpt>
      <trkpt lat="43.47039" lon="6.80399">
        <ele>89</ele>
        <time>2023-09-26T11:13:05.000Z</time>
      </trkpt>
      <trkpt lat="43.47036" lon="6.80378">
        <ele>89</ele>
        <time>2023-09-26T11:13:11.000Z</time>
      </trkpt>
      <trkpt lat="43.47034" lon="6.80375">
        <ele>89</ele>
        <time>2023-09-26T11:13:12.000Z</time>
      </trkpt>
      <trkpt lat="43.47031" lon="6.80376">
        <ele>89.400001525879</ele>
        <time>2023-09-26T11:13:14.000Z</time>
      </trkpt>
      <trkpt lat="43.47024" lon="6.80385">
        <ele>90.199996948242</ele>
        <time>2023-09-26T11:13:21.000Z</time>
      </trkpt>
      <trkpt lat="43.47019" lon="6.80388">
        <ele>90.199996948242</ele>
        <time>2023-09-26T11:13:25.000Z</time>
      </trkpt>
      <trkpt lat="43.47011" lon="6.80392">
        <ele>90</ele>
        <time>2023-09-26T11:13:28.000Z</time>
      </trkpt>
      <trkpt lat="43.47005" lon="6.80395">
        <ele>89.800003051758</ele>
        <time>2023-09-26T11:13:30.000Z</time>
      </trkpt>
      <trkpt lat="43.4699" lon="6.80408">
        <ele>89</ele>
        <time>2023-09-26T11:13:34.000Z</time>
      </trkpt>
      <trkpt lat="43.46971" lon="6.80426">
        <ele>88.400001525879</ele>
        <time>2023-09-26T11:13:38.000Z</time>
      </trkpt>
      <trkpt lat="43.46971" lon="6.80426">
        <ele>88.199996948242</ele>
        <time>2023-09-26T11:13:39.000Z</time>
      </trkpt>
      <trkpt lat="43.46968" lon="6.8043">
        <ele>87.599998474121</ele>
        <time>2023-09-26T11:13:40.000Z</time>
      </trkpt>
      <trkpt lat="43.46963" lon="6.80451">
        <ele>87</ele>
        <time>2023-09-26T11:13:42.000Z</time>
      </trkpt>
      <trkpt lat="43.46961" lon="6.8046">
        <ele>86.599998474121</ele>
        <time>2023-09-26T11:13:43.000Z</time>
      </trkpt>
      <trkpt lat="43.46961" lon="6.80468">
        <ele>86.199996948242</ele>
        <time>2023-09-26T11:13:44.000Z</time>
      </trkpt>
      <trkpt lat="43.4696" lon="6.80492">
        <ele>85.199996948242</ele>
        <time>2023-09-26T11:13:47.000Z</time>
      </trkpt>
      <trkpt lat="43.46959" lon="6.805">
        <ele>85</ele>
        <time>2023-09-26T11:13:48.000Z</time>
      </trkpt>
      <trkpt lat="43.46959" lon="6.805">
        <ele>84.800003051758</ele>
        <time>2023-09-26T11:13:49.000Z</time>
      </trkpt>
      <trkpt lat="43.46954" lon="6.80539">
        <ele>84.199996948242</ele>
        <time>2023-09-26T11:13:53.000Z</time>
      </trkpt>
      <trkpt lat="43.46951" lon="6.80566">
        <ele>83.599998474121</ele>
        <time>2023-09-26T11:13:57.000Z</time>
      </trkpt>
      <trkpt lat="43.46946" lon="6.80579">
        <ele>83</ele>
        <time>2023-09-26T11:13:59.000Z</time>
      </trkpt>
      <trkpt lat="43.46939" lon="6.80597">
        <ele>82.199996948242</ele>
        <time>2023-09-26T11:14:02.000Z</time>
      </trkpt>
      <trkpt lat="43.46937" lon="6.80604">
        <ele>81.800003051758</ele>
        <time>2023-09-26T11:14:03.000Z</time>
      </trkpt>
      <trkpt lat="43.46935" lon="6.80616">
        <ele>80.400001525879</ele>
        <time>2023-09-26T11:14:06.000Z</time>
      </trkpt>
      <trkpt lat="43.46934" lon="6.80622">
        <ele>80.199996948242</ele>
        <time>2023-09-26T11:14:07.000Z</time>
      </trkpt>
      <trkpt lat="43.46933" lon="6.80635">
        <ele>80.199996948242</ele>
        <time>2023-09-26T11:14:08.000Z</time>
      </trkpt>
      <trkpt lat="43.46933" lon="6.80651">
        <ele>79.400001525879</ele>
        <time>2023-09-26T11:14:10.000Z</time>
      </trkpt>
      <trkpt lat="43.46931" lon="6.8067">
        <ele>78.400001525879</ele>
        <time>2023-09-26T11:14:13.000Z</time>
      </trkpt>
      <trkpt lat="43.46931" lon="6.80677">
        <ele>78.400001525879</ele>
        <time>2023-09-26T11:14:14.000Z</time>
      </trkpt>
      <trkpt lat="43.4693" lon="6.80683">
        <ele>78.199996948242</ele>
        <time>2023-09-26T11:14:15.000Z</time>
      </trkpt>
      <trkpt lat="43.46928" lon="6.80692">
        <ele>78</ele>
        <time>2023-09-26T11:14:17.000Z</time>
      </trkpt>
      <trkpt lat="43.46925" lon="6.80713">
        <ele>78</ele>
        <time>2023-09-26T11:14:22.000Z</time>
      </trkpt>
      <trkpt lat="43.46916" lon="6.80742">
        <ele>78.800003051758</ele>
        <time>2023-09-26T11:14:30.000Z</time>
      </trkpt>
      <trkpt lat="43.46914" lon="6.80767">
        <ele>79.400001525879</ele>
        <time>2023-09-26T11:14:37.000Z</time>
      </trkpt>
      <trkpt lat="43.46913" lon="6.80771">
        <ele>79.400001525879</ele>
        <time>2023-09-26T11:14:38.000Z</time>
      </trkpt>
      <trkpt lat="43.46918" lon="6.80802">
        <ele>79.800003051758</ele>
        <time>2023-09-26T11:14:45.000Z</time>
      </trkpt>
      <trkpt lat="43.46919" lon="6.80834">
        <ele>79.599998474121</ele>
        <time>2023-09-26T11:14:52.000Z</time>
      </trkpt>
      <trkpt lat="43.46913" lon="6.80853">
        <ele>79.599998474121</ele>
        <time>2023-09-26T11:14:57.000Z</time>
      </trkpt>
      <trkpt lat="43.46897" lon="6.80893">
        <ele>80</ele>
        <time>2023-09-26T11:15:05.000Z</time>
      </trkpt>
      <trkpt lat="43.46895" lon="6.80899">
        <ele>80</ele>
        <time>2023-09-26T11:15:06.000Z</time>
      </trkpt>
      <trkpt lat="43.46892" lon="6.8091">
        <ele>80</ele>
        <time>2023-09-26T11:15:08.000Z</time>
      </trkpt>
      <trkpt lat="43.46889" lon="6.80921">
        <ele>80</ele>
        <time>2023-09-26T11:15:10.000Z</time>
      </trkpt>
      <trkpt lat="43.46888" lon="6.80932">
        <ele>79.800003051758</ele>
        <time>2023-09-26T11:15:12.000Z</time>
      </trkpt>
      <trkpt lat="43.4689" lon="6.80962">
        <ele>79.800003051758</ele>
        <time>2023-09-26T11:15:17.000Z</time>
      </trkpt>
      <trkpt lat="43.46888" lon="6.80973">
        <ele>79.800003051758</ele>
        <time>2023-09-26T11:15:19.000Z</time>
      </trkpt>
      <trkpt lat="43.46879" lon="6.80995">
        <ele>79.800003051758</ele>
        <time>2023-09-26T11:15:24.000Z</time>
      </trkpt>
      <trkpt lat="43.46876" lon="6.81006">
        <ele>79.800003051758</ele>
        <time>2023-09-26T11:15:25.000Z</time>
      </trkpt>
      <trkpt lat="43.46875" lon="6.81017">
        <ele>80</ele>
        <time>2023-09-26T11:15:27.000Z</time>
      </trkpt>
      <trkpt lat="43.46875" lon="6.81023">
        <ele>80</ele>
        <time>2023-09-26T11:15:28.000Z</time>
      </trkpt>
      <trkpt lat="43.46879" lon="6.81047">
        <ele>80.599998474121</ele>
        <time>2023-09-26T11:15:32.000Z</time>
      </trkpt>
      <trkpt lat="43.46882" lon="6.81059">
        <ele>80.800003051758</ele>
        <time>2023-09-26T11:15:34.000Z</time>
      </trkpt>
      <trkpt lat="43.46889" lon="6.81107">
        <ele>81.400001525879</ele>
        <time>2023-09-26T11:15:42.000Z</time>
      </trkpt>
      <trkpt lat="43.46895" lon="6.81135">
        <ele>81.800003051758</ele>
        <time>2023-09-26T11:15:47.000Z</time>
      </trkpt>
      <trkpt lat="43.469" lon="6.81165">
        <ele>82.199996948242</ele>
        <time>2023-09-26T11:15:52.000Z</time>
      </trkpt>
      <trkpt lat="43.469" lon="6.81182">
        <ele>83.199996948242</ele>
        <time>2023-09-26T11:15:55.000Z</time>
      </trkpt>
      <trkpt lat="43.46901" lon="6.81199">
        <ele>84.199996948242</ele>
        <time>2023-09-26T11:15:58.000Z</time>
      </trkpt>
      <trkpt lat="43.46902" lon="6.81211">
        <ele>84.599998474121</ele>
        <time>2023-09-26T11:16:00.000Z</time>
      </trkpt>
      <trkpt lat="43.46903" lon="6.81233">
        <ele>85.199996948242</ele>
        <time>2023-09-26T11:16:04.000Z</time>
      </trkpt>
      <trkpt lat="43.46904" lon="6.81244">
        <ele>85.599998474121</ele>
        <time>2023-09-26T11:16:06.000Z</time>
      </trkpt>
      <trkpt lat="43.46905" lon="6.81254">
        <ele>86.199996948242</ele>
        <time>2023-09-26T11:16:08.000Z</time>
      </trkpt>
      <trkpt lat="43.46906" lon="6.81271">
        <ele>87.400001525879</ele>
        <time>2023-09-26T11:16:11.000Z</time>
      </trkpt>
      <trkpt lat="43.46909" lon="6.81286">
        <ele>87.800003051758</ele>
        <time>2023-09-26T11:16:14.000Z</time>
      </trkpt>
      <trkpt lat="43.46911" lon="6.81297">
        <ele>88.400001525879</ele>
        <time>2023-09-26T11:16:16.000Z</time>
      </trkpt>
      <trkpt lat="43.46917" lon="6.81321">
        <ele>89.599998474121</ele>
        <time>2023-09-26T11:16:21.000Z</time>
      </trkpt>
      <trkpt lat="43.46918" lon="6.81325">
        <ele>89.800003051758</ele>
        <time>2023-09-26T11:16:22.000Z</time>
      </trkpt>
      <trkpt lat="43.46921" lon="6.8134">
        <ele>90.800003051758</ele>
        <time>2023-09-26T11:16:25.000Z</time>
      </trkpt>
      <trkpt lat="43.46923" lon="6.81353">
        <ele>91.800003051758</ele>
        <time>2023-09-26T11:16:28.000Z</time>
      </trkpt>
      <trkpt lat="43.46924" lon="6.81359">
        <ele>92</ele>
        <time>2023-09-26T11:16:29.000Z</time>
      </trkpt>
      <trkpt lat="43.46924" lon="6.8137">
        <ele>92.199996948242</ele>
        <time>2023-09-26T11:16:31.000Z</time>
      </trkpt>
      <trkpt lat="43.46921" lon="6.81389">
        <ele>92.800003051758</ele>
        <time>2023-09-26T11:16:35.000Z</time>
      </trkpt>
      <trkpt lat="43.46919" lon="6.81397">
        <ele>93</ele>
        <time>2023-09-26T11:16:37.000Z</time>
      </trkpt>
      <trkpt lat="43.46914" lon="6.81427">
        <ele>94</ele>
        <time>2023-09-26T11:16:43.000Z</time>
      </trkpt>
      <trkpt lat="43.46913" lon="6.81456">
        <ele>94</ele>
        <time>2023-09-26T11:16:47.000Z</time>
      </trkpt>
      <trkpt lat="43.46912" lon="6.81461">
        <ele>93.800003051758</ele>
        <time>2023-09-26T11:16:48.000Z</time>
      </trkpt>
      <trkpt lat="43.46907" lon="6.81489">
        <ele>93.199996948242</ele>
        <time>2023-09-26T11:16:53.000Z</time>
      </trkpt>
      <trkpt lat="43.46907" lon="6.81504">
        <ele>93</ele>
        <time>2023-09-26T11:16:56.000Z</time>
      </trkpt>
      <trkpt lat="43.46905" lon="6.81524">
        <ele>92.800003051758</ele>
        <time>2023-09-26T11:16:59.000Z</time>
      </trkpt>
      <trkpt lat="43.46903" lon="6.8153">
        <ele>92.599998474121</ele>
        <time>2023-09-26T11:17:00.000Z</time>
      </trkpt>
      <trkpt lat="43.469" lon="6.81542">
        <ele>92.199996948242</ele>
        <time>2023-09-26T11:17:02.000Z</time>
      </trkpt>
      <trkpt lat="43.46897" lon="6.81547">
        <ele>91.800003051758</ele>
        <time>2023-09-26T11:17:03.000Z</time>
      </trkpt>
      <trkpt lat="43.46895" lon="6.81553">
        <ele>91.599998474121</ele>
        <time>2023-09-26T11:17:04.000Z</time>
      </trkpt>
      <trkpt lat="43.46887" lon="6.8157">
        <ele>90.800003051758</ele>
        <time>2023-09-26T11:17:08.000Z</time>
      </trkpt>
      <trkpt lat="43.46883" lon="6.81577">
        <ele>90.199996948242</ele>
        <time>2023-09-26T11:17:10.000Z</time>
      </trkpt>
      <trkpt lat="43.4688" lon="6.81584">
        <ele>89.599998474121</ele>
        <time>2023-09-26T11:17:13.000Z</time>
      </trkpt>
      <trkpt lat="43.4688" lon="6.81584">
        <ele>89.599998474121</ele>
        <time>2023-09-26T11:17:14.000Z</time>
      </trkpt>
      <trkpt lat="43.4688" lon="6.81584">
        <ele>88.800003051758</ele>
        <time>2023-09-26T11:17:26.000Z</time>
      </trkpt>
      <trkpt lat="43.4688" lon="6.81584">
        <ele>88.800003051758</ele>
        <time>2023-09-26T11:17:42.000Z</time>
      </trkpt>
      <trkpt lat="43.4688" lon="6.81584">
        <ele>88.800003051758</ele>
        <time>2023-09-26T11:17:44.000Z</time>
      </trkpt>
      <trkpt lat="43.46879" lon="6.81594">
        <ele>88.800003051758</ele>
        <time>2023-09-26T11:17:48.000Z</time>
      </trkpt>
      <trkpt lat="43.46883" lon="6.8163">
        <ele>88.400001525879</ele>
        <time>2023-09-26T11:17:54.000Z</time>
      </trkpt>
      <trkpt lat="43.46883" lon="6.81637">
        <ele>88.400001525879</ele>
        <time>2023-09-26T11:17:55.000Z</time>
      </trkpt>
      <trkpt lat="43.46885" lon="6.81671">
        <ele>88.199996948242</ele>
        <time>2023-09-26T11:18:01.000Z</time>
      </trkpt>
      <trkpt lat="43.4689" lon="6.81697">
        <ele>88.400001525879</ele>
        <time>2023-09-26T11:18:06.000Z</time>
      </trkpt>
      <trkpt lat="43.46894" lon="6.81707">
        <ele>88.599998474121</ele>
        <time>2023-09-26T11:18:08.000Z</time>
      </trkpt>
      <trkpt lat="43.46907" lon="6.81737">
        <ele>90</ele>
        <time>2023-09-26T11:18:14.000Z</time>
      </trkpt>
      <trkpt lat="43.46912" lon="6.81747">
        <ele>90.400001525879</ele>
        <time>2023-09-26T11:18:16.000Z</time>
      </trkpt>
      <trkpt lat="43.46919" lon="6.81763">
        <ele>91.199996948242</ele>
        <time>2023-09-26T11:18:19.000Z</time>
      </trkpt>
      <trkpt lat="43.46932" lon="6.81794">
        <ele>92.199996948242</ele>
        <time>2023-09-26T11:18:25.000Z</time>
      </trkpt>
      <trkpt lat="43.46935" lon="6.81799">
        <ele>92.400001525879</ele>
        <time>2023-09-26T11:18:26.000Z</time>
      </trkpt>
      <trkpt lat="43.46954" lon="6.81841">
        <ele>92.800003051758</ele>
        <time>2023-09-26T11:18:34.000Z</time>
      </trkpt>
      <trkpt lat="43.46964" lon="6.81855">
        <ele>93.199996948242</ele>
        <time>2023-09-26T11:18:37.000Z</time>
      </trkpt>
      <trkpt lat="43.46966" lon="6.81858">
        <ele>93.599998474121</ele>
        <time>2023-09-26T11:18:38.000Z</time>
      </trkpt>
      <trkpt lat="43.46973" lon="6.81867">
        <ele>94.199996948242</ele>
        <time>2023-09-26T11:18:40.000Z</time>
      </trkpt>
      <trkpt lat="43.46977" lon="6.8187">
        <ele>94.199996948242</ele>
        <time>2023-09-26T11:18:41.000Z</time>
      </trkpt>
      <trkpt lat="43.46987" lon="6.81878">
        <ele>95</ele>
        <time>2023-09-26T11:18:45.000Z</time>
      </trkpt>
      <trkpt lat="43.46993" lon="6.81886">
        <ele>95.199996948242</ele>
        <time>2023-09-26T11:18:46.000Z</time>
      </trkpt>
      <trkpt lat="43.46999" lon="6.81894">
        <ele>95.800003051758</ele>
        <time>2023-09-26T11:18:48.000Z</time>
      </trkpt>
      <trkpt lat="43.47002" lon="6.81898">
        <ele>96.199996948242</ele>
        <time>2023-09-26T11:18:49.000Z</time>
      </trkpt>
      <trkpt lat="43.47016" lon="6.81924">
        <ele>97.199996948242</ele>
        <time>2023-09-26T11:18:55.000Z</time>
      </trkpt>
      <trkpt lat="43.47019" lon="6.81929">
        <ele>97.400001525879</ele>
        <time>2023-09-26T11:18:56.000Z</time>
      </trkpt>
      <trkpt lat="43.47021" lon="6.81934">
        <ele>97.599998474121</ele>
        <time>2023-09-26T11:18:57.000Z</time>
      </trkpt>
      <trkpt lat="43.47031" lon="6.81952">
        <ele>98.599998474121</ele>
        <time>2023-09-26T11:19:01.000Z</time>
      </trkpt>
      <trkpt lat="43.47039" lon="6.81966">
        <ele>99</ele>
        <time>2023-09-26T11:19:04.000Z</time>
      </trkpt>
      <trkpt lat="43.47045" lon="6.8198">
        <ele>99.599998474121</ele>
        <time>2023-09-26T11:19:07.000Z</time>
      </trkpt>
      <trkpt lat="43.47049" lon="6.81989">
        <ele>100.19999694824</ele>
        <time>2023-09-26T11:19:09.000Z</time>
      </trkpt>
      <trkpt lat="43.47055" lon="6.81998">
        <ele>100.59999847412</ele>
        <time>2023-09-26T11:19:11.000Z</time>
      </trkpt>
      <trkpt lat="43.4706" lon="6.82008">
        <ele>101</ele>
        <time>2023-09-26T11:19:13.000Z</time>
      </trkpt>
      <trkpt lat="43.47068" lon="6.82021">
        <ele>101.80000305176</ele>
        <time>2023-09-26T11:19:16.000Z</time>
      </trkpt>
      <trkpt lat="43.47077" lon="6.82035">
        <ele>102.19999694824</ele>
        <time>2023-09-26T11:19:19.000Z</time>
      </trkpt>
      <trkpt lat="43.47091" lon="6.82061">
        <ele>103</ele>
        <time>2023-09-26T11:19:25.000Z</time>
      </trkpt>
      <trkpt lat="43.47092" lon="6.82064">
        <ele>103.40000152588</ele>
        <time>2023-09-26T11:19:26.000Z</time>
      </trkpt>
      <trkpt lat="43.47097" lon="6.82084">
        <ele>104.19999694824</ele>
        <time>2023-09-26T11:19:30.000Z</time>
      </trkpt>
      <trkpt lat="43.47099" lon="6.82092">
        <ele>105</ele>
        <time>2023-09-26T11:19:32.000Z</time>
      </trkpt>
      <trkpt lat="43.47099" lon="6.82097">
        <ele>105.59999847412</ele>
        <time>2023-09-26T11:19:33.000Z</time>
      </trkpt>
      <trkpt lat="43.471" lon="6.82119">
        <ele>106.80000305176</ele>
        <time>2023-09-26T11:19:37.000Z</time>
      </trkpt>
      <trkpt lat="43.47102" lon="6.82133">
        <ele>107.40000152588</ele>
        <time>2023-09-26T11:19:40.000Z</time>
      </trkpt>
      <trkpt lat="43.47108" lon="6.82165">
        <ele>108</ele>
        <time>2023-09-26T11:19:47.000Z</time>
      </trkpt>
      <trkpt lat="43.47117" lon="6.82196">
        <ele>109.40000152588</ele>
        <time>2023-09-26T11:19:54.000Z</time>
      </trkpt>
      <trkpt lat="43.47116" lon="6.82205">
        <ele>109.80000305176</ele>
        <time>2023-09-26T11:19:56.000Z</time>
      </trkpt>
      <trkpt lat="43.47112" lon="6.82216">
        <ele>110.59999847412</ele>
        <time>2023-09-26T11:19:59.000Z</time>
      </trkpt>
      <trkpt lat="43.4711" lon="6.8222">
        <ele>110.80000305176</ele>
        <time>2023-09-26T11:20:00.000Z</time>
      </trkpt>
      <trkpt lat="43.47106" lon="6.82224">
        <ele>112</ele>
        <time>2023-09-26T11:20:02.000Z</time>
      </trkpt>
      <trkpt lat="43.47098" lon="6.82229">
        <ele>112.40000152588</ele>
        <time>2023-09-26T11:20:05.000Z</time>
      </trkpt>
      <trkpt lat="43.47085" lon="6.82225">
        <ele>112.59999847412</ele>
        <time>2023-09-26T11:20:09.000Z</time>
      </trkpt>
      <trkpt lat="43.47082" lon="6.82223">
        <ele>112.59999847412</ele>
        <time>2023-09-26T11:20:10.000Z</time>
      </trkpt>
      <trkpt lat="43.47076" lon="6.82215">
        <ele>112.59999847412</ele>
        <time>2023-09-26T11:20:12.000Z</time>
      </trkpt>
      <trkpt lat="43.47074" lon="6.8221">
        <ele>112.80000305176</ele>
        <time>2023-09-26T11:20:14.000Z</time>
      </trkpt>
      <trkpt lat="43.4707" lon="6.82195">
        <ele>113.19999694824</ele>
        <time>2023-09-26T11:20:16.000Z</time>
      </trkpt>
      <trkpt lat="43.47067" lon="6.82185">
        <ele>113.40000152588</ele>
        <time>2023-09-26T11:20:18.000Z</time>
      </trkpt>
      <trkpt lat="43.47066" lon="6.82179">
        <ele>113.80000305176</ele>
        <time>2023-09-26T11:20:19.000Z</time>
      </trkpt>
      <trkpt lat="43.4706" lon="6.82164">
        <ele>114</ele>
        <time>2023-09-26T11:20:22.000Z</time>
      </trkpt>
      <trkpt lat="43.4705" lon="6.82151">
        <ele>114</ele>
        <time>2023-09-26T11:20:25.000Z</time>
      </trkpt>
      <trkpt lat="43.47044" lon="6.82141">
        <ele>114.19999694824</ele>
        <time>2023-09-26T11:20:27.000Z</time>
      </trkpt>
      <trkpt lat="43.47041" lon="6.82136">
        <ele>114.40000152588</ele>
        <time>2023-09-26T11:20:28.000Z</time>
      </trkpt>
      <trkpt lat="43.47033" lon="6.82122">
        <ele>114.40000152588</ele>
        <time>2023-09-26T11:20:31.000Z</time>
      </trkpt>
      <trkpt lat="43.47028" lon="6.82112">
        <ele>114.59999847412</ele>
        <time>2023-09-26T11:20:33.000Z</time>
      </trkpt>
      <trkpt lat="43.47014" lon="6.82087">
        <ele>114.40000152588</ele>
        <time>2023-09-26T11:20:38.000Z</time>
      </trkpt>
      <trkpt lat="43.47009" lon="6.82077">
        <ele>114.19999694824</ele>
        <time>2023-09-26T11:20:40.000Z</time>
      </trkpt>
      <trkpt lat="43.47002" lon="6.82062">
        <ele>113.80000305176</ele>
        <time>2023-09-26T11:20:43.000Z</time>
      </trkpt>
      <trkpt lat="43.47" lon="6.82057">
        <ele>113.80000305176</ele>
        <time>2023-09-26T11:20:44.000Z</time>
      </trkpt>
      <trkpt lat="43.46995" lon="6.82046">
        <ele>113.59999847412</ele>
        <time>2023-09-26T11:20:46.000Z</time>
      </trkpt>
      <trkpt lat="43.46985" lon="6.82033">
        <ele>113.80000305176</ele>
        <time>2023-09-26T11:20:49.000Z</time>
      </trkpt>
      <trkpt lat="43.46977" lon="6.82029">
        <ele>113.80000305176</ele>
        <time>2023-09-26T11:20:51.000Z</time>
      </trkpt>
      <trkpt lat="43.46968" lon="6.82028">
        <ele>113.80000305176</ele>
        <time>2023-09-26T11:20:53.000Z</time>
      </trkpt>
      <trkpt lat="43.46964" lon="6.82028">
        <ele>113.80000305176</ele>
        <time>2023-09-26T11:20:54.000Z</time>
      </trkpt>
      <trkpt lat="43.46959" lon="6.82028">
        <ele>113.59999847412</ele>
        <time>2023-09-26T11:20:55.000Z</time>
      </trkpt>
      <trkpt lat="43.46947" lon="6.82027">
        <ele>113.40000152588</ele>
        <time>2023-09-26T11:20:58.000Z</time>
      </trkpt>
      <trkpt lat="43.4694" lon="6.82027">
        <ele>113.19999694824</ele>
        <time>2023-09-26T11:21:00.000Z</time>
      </trkpt>
      <trkpt lat="43.46936" lon="6.82029">
        <ele>113</ele>
        <time>2023-09-26T11:21:01.000Z</time>
      </trkpt>
      <trkpt lat="43.46924" lon="6.82039">
        <ele>113</ele>
        <time>2023-09-26T11:21:04.000Z</time>
      </trkpt>
      <trkpt lat="43.46917" lon="6.82045">
        <ele>113.19999694824</ele>
        <time>2023-09-26T11:21:06.000Z</time>
      </trkpt>
      <trkpt lat="43.4691" lon="6.82053">
        <ele>113.19999694824</ele>
        <time>2023-09-26T11:21:08.000Z</time>
      </trkpt>
      <trkpt lat="43.46905" lon="6.82063">
        <ele>113.19999694824</ele>
        <time>2023-09-26T11:21:10.000Z</time>
      </trkpt>
      <trkpt lat="43.46895" lon="6.82085">
        <ele>113.40000152588</ele>
        <time>2023-09-26T11:21:14.000Z</time>
      </trkpt>
      <trkpt lat="43.46888" lon="6.82093">
        <ele>113.40000152588</ele>
        <time>2023-09-26T11:21:16.000Z</time>
      </trkpt>
      <trkpt lat="43.46878" lon="6.82097">
        <ele>113.19999694824</ele>
        <time>2023-09-26T11:21:18.000Z</time>
      </trkpt>
      <trkpt lat="43.46868" lon="6.82098">
        <ele>113.19999694824</ele>
        <time>2023-09-26T11:21:20.000Z</time>
      </trkpt>
      <trkpt lat="43.46864" lon="6.82098">
        <ele>113</ele>
        <time>2023-09-26T11:21:21.000Z</time>
      </trkpt>
      <trkpt lat="43.46859" lon="6.82097">
        <ele>113</ele>
        <time>2023-09-26T11:21:22.000Z</time>
      </trkpt>
      <trkpt lat="43.4685" lon="6.82091">
        <ele>112.59999847412</ele>
        <time>2023-09-26T11:21:24.000Z</time>
      </trkpt>
      <trkpt lat="43.46846" lon="6.82087">
        <ele>112.59999847412</ele>
        <time>2023-09-26T11:21:25.000Z</time>
      </trkpt>
      <trkpt lat="43.46842" lon="6.82082">
        <ele>112.59999847412</ele>
        <time>2023-09-26T11:21:26.000Z</time>
      </trkpt>
      <trkpt lat="43.46836" lon="6.8207">
        <ele>112.40000152588</ele>
        <time>2023-09-26T11:21:28.000Z</time>
      </trkpt>
      <trkpt lat="43.46834" lon="6.82064">
        <ele>112.59999847412</ele>
        <time>2023-09-26T11:21:29.000Z</time>
      </trkpt>
      <trkpt lat="43.46821" lon="6.82034">
        <ele>112.80000305176</ele>
        <time>2023-09-26T11:21:34.000Z</time>
      </trkpt>
      <trkpt lat="43.46818" lon="6.82029">
        <ele>113</ele>
        <time>2023-09-26T11:21:35.000Z</time>
      </trkpt>
      <trkpt lat="43.46813" lon="6.8202">
        <ele>113</ele>
        <time>2023-09-26T11:21:37.000Z</time>
      </trkpt>
      <trkpt lat="43.4681" lon="6.82008">
        <ele>113.59999847412</ele>
        <time>2023-09-26T11:21:39.000Z</time>
      </trkpt>
      <trkpt lat="43.4681" lon="6.81998">
        <ele>114.80000305176</ele>
        <time>2023-09-26T11:21:41.000Z</time>
      </trkpt>
      <trkpt lat="43.46809" lon="6.81987">
        <ele>115.59999847412</ele>
        <time>2023-09-26T11:21:43.000Z</time>
      </trkpt>
      <trkpt lat="43.46809" lon="6.81982">
        <ele>116</ele>
        <time>2023-09-26T11:21:44.000Z</time>
      </trkpt>
      <trkpt lat="43.46806" lon="6.81969">
        <ele>117.59999847412</ele>
        <time>2023-09-26T11:21:48.000Z</time>
      </trkpt>
      <trkpt lat="43.46802" lon="6.81963">
        <ele>117.80000305176</ele>
        <time>2023-09-26T11:21:49.000Z</time>
      </trkpt>
      <trkpt lat="43.46793" lon="6.81964">
        <ele>118.40000152588</ele>
        <time>2023-09-26T11:21:52.000Z</time>
      </trkpt>
      <trkpt lat="43.4679" lon="6.81966">
        <ele>119</ele>
        <time>2023-09-26T11:21:53.000Z</time>
      </trkpt>
      <trkpt lat="43.46769" lon="6.81973">
        <ele>120.19999694824</ele>
        <time>2023-09-26T11:21:59.000Z</time>
      </trkpt>
      <trkpt lat="43.46747" lon="6.81973">
        <ele>120.59999847412</ele>
        <time>2023-09-26T11:22:06.000Z</time>
      </trkpt>
      <trkpt lat="43.46736" lon="6.81965">
        <ele>121</ele>
        <time>2023-09-26T11:22:10.000Z</time>
      </trkpt>
      <trkpt lat="43.46733" lon="6.81957">
        <ele>121.59999847412</ele>
        <time>2023-09-26T11:22:12.000Z</time>
      </trkpt>
      <trkpt lat="43.46723" lon="6.81946">
        <ele>122.19999694824</ele>
        <time>2023-09-26T11:22:16.000Z</time>
      </trkpt>
      <trkpt lat="43.4672" lon="6.81944">
        <ele>122.80000305176</ele>
        <time>2023-09-26T11:22:17.000Z</time>
      </trkpt>
      <trkpt lat="43.4671" lon="6.81929">
        <ele>123.59999847412</ele>
        <time>2023-09-26T11:22:22.000Z</time>
      </trkpt>
      <trkpt lat="43.46707" lon="6.81911">
        <ele>124</ele>
        <time>2023-09-26T11:22:26.000Z</time>
      </trkpt>
      <trkpt lat="43.46706" lon="6.81903">
        <ele>124</ele>
        <time>2023-09-26T11:22:28.000Z</time>
      </trkpt>
      <trkpt lat="43.46702" lon="6.8189">
        <ele>124.59999847412</ele>
        <time>2023-09-26T11:22:31.000Z</time>
      </trkpt>
      <trkpt lat="43.46698" lon="6.81881">
        <ele>124.80000305176</ele>
        <time>2023-09-26T11:22:33.000Z</time>
      </trkpt>
      <trkpt lat="43.46685" lon="6.81862">
        <ele>125</ele>
        <time>2023-09-26T11:22:38.000Z</time>
      </trkpt>
      <trkpt lat="43.46678" lon="6.81856">
        <ele>125.59999847412</ele>
        <time>2023-09-26T11:22:40.000Z</time>
      </trkpt>
      <trkpt lat="43.46656" lon="6.81844">
        <ele>126.40000152588</ele>
        <time>2023-09-26T11:22:46.000Z</time>
      </trkpt>
      <trkpt lat="43.46652" lon="6.81843">
        <ele>126.59999847412</ele>
        <time>2023-09-26T11:22:47.000Z</time>
      </trkpt>
      <trkpt lat="43.46622" lon="6.81835">
        <ele>127</ele>
        <time>2023-09-26T11:22:54.000Z</time>
      </trkpt>
      <trkpt lat="43.46594" lon="6.81826">
        <ele>127.19999694824</ele>
        <time>2023-09-26T11:23:01.000Z</time>
      </trkpt>
      <trkpt lat="43.46586" lon="6.81826">
        <ele>127.19999694824</ele>
        <time>2023-09-26T11:23:03.000Z</time>
      </trkpt>
      <trkpt lat="43.46578" lon="6.8183">
        <ele>127.40000152588</ele>
        <time>2023-09-26T11:23:05.000Z</time>
      </trkpt>
      <trkpt lat="43.46574" lon="6.81832">
        <ele>127.59999847412</ele>
        <time>2023-09-26T11:23:06.000Z</time>
      </trkpt>
      <trkpt lat="43.46561" lon="6.81846">
        <ele>128</ele>
        <time>2023-09-26T11:23:10.000Z</time>
      </trkpt>
      <trkpt lat="43.46558" lon="6.8185">
        <ele>128</ele>
        <time>2023-09-26T11:23:11.000Z</time>
      </trkpt>
      <trkpt lat="43.46548" lon="6.8187">
        <ele>128.60000610352</ele>
        <time>2023-09-26T11:23:15.000Z</time>
      </trkpt>
      <trkpt lat="43.46546" lon="6.81874">
        <ele>128.60000610352</ele>
        <time>2023-09-26T11:23:16.000Z</time>
      </trkpt>
      <trkpt lat="43.46539" lon="6.81881">
        <ele>128.60000610352</ele>
        <time>2023-09-26T11:23:18.000Z</time>
      </trkpt>
      <trkpt lat="43.46518" lon="6.81885">
        <ele>128.80000305176</ele>
        <time>2023-09-26T11:23:23.000Z</time>
      </trkpt>
      <trkpt lat="43.46497" lon="6.81883">
        <ele>129.60000610352</ele>
        <time>2023-09-26T11:23:28.000Z</time>
      </trkpt>
      <trkpt lat="43.46488" lon="6.81885">
        <ele>129.60000610352</ele>
        <time>2023-09-26T11:23:30.000Z</time>
      </trkpt>
      <trkpt lat="43.46484" lon="6.81886">
        <ele>129.60000610352</ele>
        <time>2023-09-26T11:23:31.000Z</time>
      </trkpt>
      <trkpt lat="43.4646" lon="6.81899">
        <ele>130.19999694824</ele>
        <time>2023-09-26T11:23:37.000Z</time>
      </trkpt>
      <trkpt lat="43.46447" lon="6.81906">
        <ele>130.80000305176</ele>
        <time>2023-09-26T11:23:40.000Z</time>
      </trkpt>
      <trkpt lat="43.46433" lon="6.81909">
        <ele>131.39999389648</ele>
        <time>2023-09-26T11:23:43.000Z</time>
      </trkpt>
      <trkpt lat="43.46408" lon="6.81909">
        <ele>132</ele>
        <time>2023-09-26T11:23:48.000Z</time>
      </trkpt>
      <trkpt lat="43.4639" lon="6.81911">
        <ele>133</ele>
        <time>2023-09-26T11:23:52.000Z</time>
      </trkpt>
      <trkpt lat="43.46386" lon="6.81912">
        <ele>133.60000610352</ele>
        <time>2023-09-26T11:23:53.000Z</time>
      </trkpt>
      <trkpt lat="43.46378" lon="6.81915">
        <ele>134.39999389648</ele>
        <time>2023-09-26T11:23:55.000Z</time>
      </trkpt>
      <trkpt lat="43.46371" lon="6.81918">
        <ele>135.60000610352</ele>
        <time>2023-09-26T11:23:57.000Z</time>
      </trkpt>
      <trkpt lat="43.46361" lon="6.81923">
        <ele>137.19999694824</ele>
        <time>2023-09-26T11:24:00.000Z</time>
      </trkpt>
      <trkpt lat="43.46357" lon="6.81925">
        <ele>137.60000610352</ele>
        <time>2023-09-26T11:24:01.000Z</time>
      </trkpt>
      <trkpt lat="43.46349" lon="6.81931">
        <ele>138</ele>
        <time>2023-09-26T11:24:03.000Z</time>
      </trkpt>
      <trkpt lat="43.46342" lon="6.81936">
        <ele>138.19999694824</ele>
        <time>2023-09-26T11:24:05.000Z</time>
      </trkpt>
      <trkpt lat="43.46338" lon="6.81939">
        <ele>138.19999694824</ele>
        <time>2023-09-26T11:24:06.000Z</time>
      </trkpt>
      <trkpt lat="43.46324" lon="6.81942">
        <ele>138.19999694824</ele>
        <time>2023-09-26T11:24:09.000Z</time>
      </trkpt>
      <trkpt lat="43.46302" lon="6.81945">
        <ele>137.80000305176</ele>
        <time>2023-09-26T11:24:13.000Z</time>
      </trkpt>
      <trkpt lat="43.46296" lon="6.81946">
        <ele>137.80000305176</ele>
        <time>2023-09-26T11:24:14.000Z</time>
      </trkpt>
      <trkpt lat="43.46271" lon="6.8195">
        <ele>137</ele>
        <time>2023-09-26T11:24:18.000Z</time>
      </trkpt>
      <trkpt lat="43.46258" lon="6.81952">
        <ele>135.39999389648</ele>
        <time>2023-09-26T11:24:20.000Z</time>
      </trkpt>
      <trkpt lat="43.46251" lon="6.81953">
        <ele>135</ele>
        <time>2023-09-26T11:24:21.000Z</time>
      </trkpt>
      <trkpt lat="43.46245" lon="6.81954">
        <ele>134.19999694824</ele>
        <time>2023-09-26T11:24:22.000Z</time>
      </trkpt>
      <trkpt lat="43.46223" lon="6.81961">
        <ele>132.80000305176</ele>
        <time>2023-09-26T11:24:25.000Z</time>
      </trkpt>
      <trkpt lat="43.46216" lon="6.81963">
        <ele>132.39999389648</ele>
        <time>2023-09-26T11:24:26.000Z</time>
      </trkpt>
      <trkpt lat="43.46209" lon="6.81965">
        <ele>131.39999389648</ele>
        <time>2023-09-26T11:24:27.000Z</time>
      </trkpt>
      <trkpt lat="43.46203" lon="6.81967">
        <ele>131</ele>
        <time>2023-09-26T11:24:28.000Z</time>
      </trkpt>
      <trkpt lat="43.46197" lon="6.8197">
        <ele>130.19999694824</ele>
        <time>2023-09-26T11:24:29.000Z</time>
      </trkpt>
      <trkpt lat="43.46185" lon="6.81977">
        <ele>128.39999389648</ele>
        <time>2023-09-26T11:24:31.000Z</time>
      </trkpt>
      <trkpt lat="43.46172" lon="6.81984">
        <ele>127.19999694824</ele>
        <time>2023-09-26T11:24:33.000Z</time>
      </trkpt>
      <trkpt lat="43.46161" lon="6.81993">
        <ele>126.19999694824</ele>
        <time>2023-09-26T11:24:35.000Z</time>
      </trkpt>
      <trkpt lat="43.46156" lon="6.81997">
        <ele>125.40000152588</ele>
        <time>2023-09-26T11:24:36.000Z</time>
      </trkpt>
      <trkpt lat="43.46152" lon="6.82002">
        <ele>124.40000152588</ele>
        <time>2023-09-26T11:24:37.000Z</time>
      </trkpt>
      <trkpt lat="43.46142" lon="6.8202">
        <ele>123.19999694824</ele>
        <time>2023-09-26T11:24:41.000Z</time>
      </trkpt>
      <trkpt lat="43.4614" lon="6.82024">
        <ele>123</ele>
        <time>2023-09-26T11:24:42.000Z</time>
      </trkpt>
      <trkpt lat="43.46142" lon="6.82029">
        <ele>121.59999847412</ele>
        <time>2023-09-26T11:24:44.000Z</time>
      </trkpt>
      <trkpt lat="43.46143" lon="6.82031">
        <ele>121.40000152588</ele>
        <time>2023-09-26T11:24:45.000Z</time>
      </trkpt>
      <trkpt lat="43.46147" lon="6.82032">
        <ele>121</ele>
        <time>2023-09-26T11:24:47.000Z</time>
      </trkpt>
      <trkpt lat="43.46152" lon="6.82032">
        <ele>120.59999847412</ele>
        <time>2023-09-26T11:24:50.000Z</time>
      </trkpt>
      <trkpt lat="43.46154" lon="6.82033">
        <ele>120.59999847412</ele>
        <time>2023-09-26T11:24:51.000Z</time>
      </trkpt>
      <trkpt lat="43.46164" lon="6.82031">
        <ele>120.19999694824</ele>
        <time>2023-09-26T11:24:56.000Z</time>
      </trkpt>
      <trkpt lat="43.46182" lon="6.82021">
        <ele>120.40000152588</ele>
        <time>2023-09-26T11:25:03.000Z</time>
      </trkpt>
      <trkpt lat="43.46192" lon="6.8202">
        <ele>120</ele>
        <time>2023-09-26T11:25:07.000Z</time>
      </trkpt>
      <trkpt lat="43.46194" lon="6.82025">
        <ele>119.80000305176</ele>
        <time>2023-09-26T11:25:09.000Z</time>
      </trkpt>
      <trkpt lat="43.46193" lon="6.82027">
        <ele>119.40000152588</ele>
        <time>2023-09-26T11:25:10.000Z</time>
      </trkpt>
      <trkpt lat="43.46192" lon="6.8203">
        <ele>119.40000152588</ele>
        <time>2023-09-26T11:25:11.000Z</time>
      </trkpt>
      <trkpt lat="43.46181" lon="6.82043">
        <ele>118.40000152588</ele>
        <time>2023-09-26T11:25:16.000Z</time>
      </trkpt>
      <trkpt lat="43.46178" lon="6.82045">
        <ele>117.80000305176</ele>
        <time>2023-09-26T11:25:17.000Z</time>
      </trkpt>
      <trkpt lat="43.46171" lon="6.82055">
        <ele>116.80000305176</ele>
        <time>2023-09-26T11:25:20.000Z</time>
      </trkpt>
      <trkpt lat="43.46167" lon="6.82061">
        <ele>116.19999694824</ele>
        <time>2023-09-26T11:25:22.000Z</time>
      </trkpt>
      <trkpt lat="43.46161" lon="6.82066">
        <ele>115.59999847412</ele>
        <time>2023-09-26T11:25:24.000Z</time>
      </trkpt>
      <trkpt lat="43.46147" lon="6.82074">
        <ele>114.80000305176</ele>
        <time>2023-09-26T11:25:28.000Z</time>
      </trkpt>
      <trkpt lat="43.46139" lon="6.82074">
        <ele>114.40000152588</ele>
        <time>2023-09-26T11:25:30.000Z</time>
      </trkpt>
      <trkpt lat="43.4613" lon="6.82075">
        <ele>113.80000305176</ele>
        <time>2023-09-26T11:25:32.000Z</time>
      </trkpt>
      <trkpt lat="43.46127" lon="6.82076">
        <ele>113.40000152588</ele>
        <time>2023-09-26T11:25:33.000Z</time>
      </trkpt>
      <trkpt lat="43.46124" lon="6.82079">
        <ele>112.80000305176</ele>
        <time>2023-09-26T11:25:34.000Z</time>
      </trkpt>
      <trkpt lat="43.4612" lon="6.82085">
        <ele>112.19999694824</ele>
        <time>2023-09-26T11:25:36.000Z</time>
      </trkpt>
      <trkpt lat="43.46115" lon="6.82101">
        <ele>111.40000152588</ele>
        <time>2023-09-26T11:25:40.000Z</time>
      </trkpt>
      <trkpt lat="43.46115" lon="6.82106">
        <ele>111.19999694824</ele>
        <time>2023-09-26T11:25:41.000Z</time>
      </trkpt>
      <trkpt lat="43.46117" lon="6.82128">
        <ele>111</ele>
        <time>2023-09-26T11:25:46.000Z</time>
      </trkpt>
      <trkpt lat="43.46119" lon="6.82136">
        <ele>111</ele>
        <time>2023-09-26T11:25:48.000Z</time>
      </trkpt>
      <trkpt lat="43.46123" lon="6.82145">
        <ele>111</ele>
        <time>2023-09-26T11:25:51.000Z</time>
      </trkpt>
      <trkpt lat="43.46125" lon="6.8216">
        <ele>111.59999847412</ele>
        <time>2023-09-26T11:25:56.000Z</time>
      </trkpt>
      <trkpt lat="43.46127" lon="6.82171">
        <ele>112.59999847412</ele>
        <time>2023-09-26T11:26:00.000Z</time>
      </trkpt>
      <trkpt lat="43.46129" lon="6.82181">
        <ele>113</ele>
        <time>2023-09-26T11:26:03.000Z</time>
      </trkpt>
      <trkpt lat="43.46129" lon="6.82191">
        <ele>113.59999847412</ele>
        <time>2023-09-26T11:26:06.000Z</time>
      </trkpt>
      <trkpt lat="43.4613" lon="6.82202">
        <ele>114.59999847412</ele>
        <time>2023-09-26T11:26:09.000Z</time>
      </trkpt>
      <trkpt lat="43.46131" lon="6.82205">
        <ele>114.80000305176</ele>
        <time>2023-09-26T11:26:10.000Z</time>
      </trkpt>
      <trkpt lat="43.46133" lon="6.82226">
        <ele>116</ele>
        <time>2023-09-26T11:26:16.000Z</time>
      </trkpt>
      <trkpt lat="43.46136" lon="6.82246">
        <ele>117</ele>
        <time>2023-09-26T11:26:21.000Z</time>
      </trkpt>
      <trkpt lat="43.46135" lon="6.82259">
        <ele>117.19999694824</ele>
        <time>2023-09-26T11:26:24.000Z</time>
      </trkpt>
      <trkpt lat="43.46134" lon="6.82273">
        <ele>118</ele>
        <time>2023-09-26T11:26:27.000Z</time>
      </trkpt>
      <trkpt lat="43.46134" lon="6.82292">
        <ele>118.59999847412</ele>
        <time>2023-09-26T11:26:31.000Z</time>
      </trkpt>
      <trkpt lat="43.46132" lon="6.82305">
        <ele>119.19999694824</ele>
        <time>2023-09-26T11:26:34.000Z</time>
      </trkpt>
      <trkpt lat="43.46131" lon="6.82314">
        <ele>119.80000305176</ele>
        <time>2023-09-26T11:26:36.000Z</time>
      </trkpt>
      <trkpt lat="43.4613" lon="6.82321">
        <ele>120.59999847412</ele>
        <time>2023-09-26T11:26:38.000Z</time>
      </trkpt>
      <trkpt lat="43.46127" lon="6.82332">
        <ele>121.59999847412</ele>
        <time>2023-09-26T11:26:41.000Z</time>
      </trkpt>
      <trkpt lat="43.46122" lon="6.82354">
        <ele>122.59999847412</ele>
        <time>2023-09-26T11:26:47.000Z</time>
      </trkpt>
      <trkpt lat="43.46121" lon="6.82358">
        <ele>122.80000305176</ele>
        <time>2023-09-26T11:26:48.000Z</time>
      </trkpt>
      <trkpt lat="43.46117" lon="6.82376">
        <ele>123.80000305176</ele>
        <time>2023-09-26T11:26:53.000Z</time>
      </trkpt>
      <trkpt lat="43.46116" lon="6.82379">
        <ele>124</ele>
        <time>2023-09-26T11:26:54.000Z</time>
      </trkpt>
      <trkpt lat="43.46111" lon="6.82393">
        <ele>125</ele>
        <time>2023-09-26T11:26:58.000Z</time>
      </trkpt>
      <trkpt lat="43.46107" lon="6.824">
        <ele>125.19999694824</ele>
        <time>2023-09-26T11:27:00.000Z</time>
      </trkpt>
      <trkpt lat="43.46092" lon="6.82431">
        <ele>126</ele>
        <time>2023-09-26T11:27:07.000Z</time>
      </trkpt>
      <trkpt lat="43.46091" lon="6.82436">
        <ele>126</ele>
        <time>2023-09-26T11:27:08.000Z</time>
      </trkpt>
      <trkpt lat="43.46087" lon="6.82465">
        <ele>126.80000305176</ele>
        <time>2023-09-26T11:27:14.000Z</time>
      </trkpt>
      <trkpt lat="43.46086" lon="6.82474">
        <ele>127.40000152588</ele>
        <time>2023-09-26T11:27:16.000Z</time>
      </trkpt>
      <trkpt lat="43.46079" lon="6.82497">
        <ele>127.80000305176</ele>
        <time>2023-09-26T11:27:21.000Z</time>
      </trkpt>
      <trkpt lat="43.46076" lon="6.82505">
        <ele>128.39999389648</ele>
        <time>2023-09-26T11:27:23.000Z</time>
      </trkpt>
      <trkpt lat="43.4607" lon="6.82524">
        <ele>128.60000610352</ele>
        <time>2023-09-26T11:27:27.000Z</time>
      </trkpt>
      <trkpt lat="43.46055" lon="6.82554">
        <ele>128.60000610352</ele>
        <time>2023-09-26T11:27:33.000Z</time>
      </trkpt>
      <trkpt lat="43.46051" lon="6.82558">
        <ele>128.60000610352</ele>
        <time>2023-09-26T11:27:34.000Z</time>
      </trkpt>
      <trkpt lat="43.46032" lon="6.82583">
        <ele>127</ele>
        <time>2023-09-26T11:27:39.000Z</time>
      </trkpt>
      <trkpt lat="43.46026" lon="6.82592">
        <ele>126.59999847412</ele>
        <time>2023-09-26T11:27:41.000Z</time>
      </trkpt>
      <trkpt lat="43.46022" lon="6.82607">
        <ele>126</ele>
        <time>2023-09-26T11:27:44.000Z</time>
      </trkpt>
      <trkpt lat="43.46022" lon="6.82624">
        <ele>124.80000305176</ele>
        <time>2023-09-26T11:27:47.000Z</time>
      </trkpt>
      <trkpt lat="43.4602" lon="6.82637">
        <ele>124</ele>
        <time>2023-09-26T11:27:49.000Z</time>
      </trkpt>
      <trkpt lat="43.46019" lon="6.82643">
        <ele>123.80000305176</ele>
        <time>2023-09-26T11:27:50.000Z</time>
      </trkpt>
      <trkpt lat="43.46017" lon="6.82648">
        <ele>123.40000152588</ele>
        <time>2023-09-26T11:27:51.000Z</time>
      </trkpt>
      <trkpt lat="43.46014" lon="6.82652">
        <ele>123</ele>
        <time>2023-09-26T11:27:52.000Z</time>
      </trkpt>
      <trkpt lat="43.46003" lon="6.82665">
        <ele>122.40000152588</ele>
        <time>2023-09-26T11:27:55.000Z</time>
      </trkpt>
      <trkpt lat="43.45999" lon="6.82669">
        <ele>122</ele>
        <time>2023-09-26T11:27:56.000Z</time>
      </trkpt>
      <trkpt lat="43.45991" lon="6.82673">
        <ele>121</ele>
        <time>2023-09-26T11:27:58.000Z</time>
      </trkpt>
      <trkpt lat="43.45987" lon="6.82674">
        <ele>120.80000305176</ele>
        <time>2023-09-26T11:27:59.000Z</time>
      </trkpt>
      <trkpt lat="43.45974" lon="6.82679">
        <ele>119.80000305176</ele>
        <time>2023-09-26T11:28:02.000Z</time>
      </trkpt>
      <trkpt lat="43.4596" lon="6.82686">
        <ele>118.59999847412</ele>
        <time>2023-09-26T11:28:05.000Z</time>
      </trkpt>
      <trkpt lat="43.45957" lon="6.82691">
        <ele>117.59999847412</ele>
        <time>2023-09-26T11:28:07.000Z</time>
      </trkpt>
      <trkpt lat="43.45956" lon="6.82693">
        <ele>117</ele>
        <time>2023-09-26T11:28:08.000Z</time>
      </trkpt>
      <trkpt lat="43.45955" lon="6.82697">
        <ele>116</ele>
        <time>2023-09-26T11:28:10.000Z</time>
      </trkpt>
      <trkpt lat="43.45955" lon="6.82697">
        <ele>114.80000305176</ele>
        <time>2023-09-26T11:28:13.000Z</time>
      </trkpt>
      <trkpt lat="43.45955" lon="6.82697">
        <ele>114</ele>
        <time>2023-09-26T11:28:56.000Z</time>
      </trkpt>
      <trkpt lat="43.45953" lon="6.82706">
        <ele>114</ele>
        <time>2023-09-26T11:29:00.000Z</time>
      </trkpt>
      <trkpt lat="43.45951" lon="6.82724">
        <ele>113.80000305176</ele>
        <time>2023-09-26T11:29:05.000Z</time>
      </trkpt>
      <trkpt lat="43.45949" lon="6.82737">
        <ele>113.59999847412</ele>
        <time>2023-09-26T11:29:08.000Z</time>
      </trkpt>
      <trkpt lat="43.45949" lon="6.82747">
        <ele>113.19999694824</ele>
        <time>2023-09-26T11:29:10.000Z</time>
      </trkpt>
      <trkpt lat="43.45949" lon="6.82752">
        <ele>112.80000305176</ele>
        <time>2023-09-26T11:29:11.000Z</time>
      </trkpt>
      <trkpt lat="43.45945" lon="6.82763">
        <ele>112.19999694824</ele>
        <time>2023-09-26T11:29:13.000Z</time>
      </trkpt>
      <trkpt lat="43.45943" lon="6.82767">
        <ele>111.80000305176</ele>
        <time>2023-09-26T11:29:14.000Z</time>
      </trkpt>
      <trkpt lat="43.4594" lon="6.8277">
        <ele>111.40000152588</ele>
        <time>2023-09-26T11:29:15.000Z</time>
      </trkpt>
      <trkpt lat="43.45929" lon="6.82777">
        <ele>110.59999847412</ele>
        <time>2023-09-26T11:29:18.000Z</time>
      </trkpt>
      <trkpt lat="43.45926" lon="6.82782">
        <ele>110</ele>
        <time>2023-09-26T11:29:20.000Z</time>
      </trkpt>
      <trkpt lat="43.45923" lon="6.82786">
        <ele>109.59999847412</ele>
        <time>2023-09-26T11:29:22.000Z</time>
      </trkpt>
      <trkpt lat="43.4592" lon="6.82792">
        <ele>109</ele>
        <time>2023-09-26T11:29:24.000Z</time>
      </trkpt>
      <trkpt lat="43.45919" lon="6.82795">
        <ele>108.80000305176</ele>
        <time>2023-09-26T11:29:25.000Z</time>
      </trkpt>
      <trkpt lat="43.45917" lon="6.82804">
        <ele>107.80000305176</ele>
        <time>2023-09-26T11:29:28.000Z</time>
      </trkpt>
      <trkpt lat="43.45914" lon="6.82825">
        <ele>107</ele>
        <time>2023-09-26T11:29:34.000Z</time>
      </trkpt>
      <trkpt lat="43.45913" lon="6.8283">
        <ele>106.80000305176</ele>
        <time>2023-09-26T11:29:35.000Z</time>
      </trkpt>
      <trkpt lat="43.45913" lon="6.82851">
        <ele>106.40000152588</ele>
        <time>2023-09-26T11:29:39.000Z</time>
      </trkpt>
      <trkpt lat="43.45914" lon="6.82875">
        <ele>105.59999847412</ele>
        <time>2023-09-26T11:29:44.000Z</time>
      </trkpt>
      <trkpt lat="43.45915" lon="6.82885">
        <ele>105</ele>
        <time>2023-09-26T11:29:46.000Z</time>
      </trkpt>
      <trkpt lat="43.45913" lon="6.82901">
        <ele>104.40000152588</ele>
        <time>2023-09-26T11:29:49.000Z</time>
      </trkpt>
      <trkpt lat="43.45912" lon="6.82924">
        <ele>103.40000152588</ele>
        <time>2023-09-26T11:29:53.000Z</time>
      </trkpt>
      <trkpt lat="43.45911" lon="6.8293">
        <ele>103.19999694824</ele>
        <time>2023-09-26T11:29:54.000Z</time>
      </trkpt>
      <trkpt lat="43.45904" lon="6.82952">
        <ele>102.19999694824</ele>
        <time>2023-09-26T11:29:59.000Z</time>
      </trkpt>
      <trkpt lat="43.45903" lon="6.82956">
        <ele>102.19999694824</ele>
        <time>2023-09-26T11:30:00.000Z</time>
      </trkpt>
      <trkpt lat="43.45891" lon="6.82981">
        <ele>101.19999694824</ele>
        <time>2023-09-26T11:30:06.000Z</time>
      </trkpt>
      <trkpt lat="43.45889" lon="6.82985">
        <ele>100.80000305176</ele>
        <time>2023-09-26T11:30:07.000Z</time>
      </trkpt>
      <trkpt lat="43.4588" lon="6.82993">
        <ele>100.19999694824</ele>
        <time>2023-09-26T11:30:11.000Z</time>
      </trkpt>
      <trkpt lat="43.45878" lon="6.82994">
        <ele>100</ele>
        <time>2023-09-26T11:30:12.000Z</time>
      </trkpt>
      <trkpt lat="43.45878" lon="6.82994">
        <ele>99.199996948242</ele>
        <time>2023-09-26T11:30:15.000Z</time>
      </trkpt>
      <trkpt lat="43.45878" lon="6.82994">
        <ele>99</ele>
        <time>2023-09-26T11:30:17.000Z</time>
      </trkpt>
      <trkpt lat="43.45877" lon="6.82994">
        <ele>98.400001525879</ele>
        <time>2023-09-26T11:30:35.000Z</time>
      </trkpt>
      <trkpt lat="43.45871" lon="6.82994">
        <ele>98.400001525879</ele>
        <time>2023-09-26T11:30:37.000Z</time>
      </trkpt>
      <trkpt lat="43.45857" lon="6.82994">
        <ele>98.199996948242</ele>
        <time>2023-09-26T11:30:41.000Z</time>
      </trkpt>
      <trkpt lat="43.45846" lon="6.82994">
        <ele>97.800003051758</ele>
        <time>2023-09-26T11:30:44.000Z</time>
      </trkpt>
      <trkpt lat="43.4583" lon="6.82979">
        <ele>97.400001525879</ele>
        <time>2023-09-26T11:30:50.000Z</time>
      </trkpt>
      <trkpt lat="43.45828" lon="6.82961">
        <ele>97</ele>
        <time>2023-09-26T11:30:54.000Z</time>
      </trkpt>
      <trkpt lat="43.4582" lon="6.82934">
        <ele>96.400001525879</ele>
        <time>2023-09-26T11:31:00.000Z</time>
      </trkpt>
      <trkpt lat="43.45817" lon="6.82927">
        <ele>96.199996948242</ele>
        <time>2023-09-26T11:31:02.000Z</time>
      </trkpt>
      <trkpt lat="43.4581" lon="6.8292">
        <ele>96</ele>
        <time>2023-09-26T11:31:05.000Z</time>
      </trkpt>
      <trkpt lat="43.45805" lon="6.82915">
        <ele>96</ele>
        <time>2023-09-26T11:31:07.000Z</time>
      </trkpt>
      <trkpt lat="43.45797" lon="6.82908">
        <ele>95.599998474121</ele>
        <time>2023-09-26T11:31:10.000Z</time>
      </trkpt>
      <trkpt lat="43.45783" lon="6.82897">
        <ele>94.599998474121</ele>
        <time>2023-09-26T11:31:14.000Z</time>
      </trkpt>
      <trkpt lat="43.45778" lon="6.82894">
        <ele>94.400001525879</ele>
        <time>2023-09-26T11:31:15.000Z</time>
      </trkpt>
      <trkpt lat="43.45769" lon="6.82889">
        <ele>93.599998474121</ele>
        <time>2023-09-26T11:31:18.000Z</time>
      </trkpt>
      <trkpt lat="43.45762" lon="6.82888">
        <ele>93.599998474121</ele>
        <time>2023-09-26T11:31:20.000Z</time>
      </trkpt>
      <trkpt lat="43.45748" lon="6.82887">
        <ele>92.599998474121</ele>
        <time>2023-09-26T11:31:25.000Z</time>
      </trkpt>
      <trkpt lat="43.45743" lon="6.82887">
        <ele>92.599998474121</ele>
        <time>2023-09-26T11:31:27.000Z</time>
      </trkpt>
      <trkpt lat="43.45733" lon="6.82886">
        <ele>91.400001525879</ele>
        <time>2023-09-26T11:31:30.000Z</time>
      </trkpt>
      <trkpt lat="43.45727" lon="6.82887">
        <ele>90.400001525879</ele>
        <time>2023-09-26T11:31:32.000Z</time>
      </trkpt>
      <trkpt lat="43.4572" lon="6.82886">
        <ele>89.800003051758</ele>
        <time>2023-09-26T11:31:34.000Z</time>
      </trkpt>
      <trkpt lat="43.45712" lon="6.82885">
        <ele>89.599998474121</ele>
        <time>2023-09-26T11:31:37.000Z</time>
      </trkpt>
      <trkpt lat="43.4571" lon="6.82886">
        <ele>89.400001525879</ele>
        <time>2023-09-26T11:31:38.000Z</time>
      </trkpt>
      <trkpt lat="43.45709" lon="6.82889">
        <ele>89.199996948242</ele>
        <time>2023-09-26T11:31:39.000Z</time>
      </trkpt>
      <trkpt lat="43.45708" lon="6.82892">
        <ele>88.199996948242</ele>
        <time>2023-09-26T11:31:42.000Z</time>
      </trkpt>
      <trkpt lat="43.45708" lon="6.82892">
        <ele>87.199996948242</ele>
        <time>2023-09-26T11:31:46.000Z</time>
      </trkpt>
      <trkpt lat="43.45708" lon="6.82892">
        <ele>87</ele>
        <time>2023-09-26T11:32:08.000Z</time>
      </trkpt>
      <trkpt lat="43.4571" lon="6.82899">
        <ele>87.400001525879</ele>
        <time>2023-09-26T11:32:43.000Z</time>
      </trkpt>
      <trkpt lat="43.45724" lon="6.82922">
        <ele>86.800003051758</ele>
        <time>2023-09-26T11:32:51.000Z</time>
      </trkpt>
      <trkpt lat="43.45733" lon="6.8293">
        <ele>86.400001525879</ele>
        <time>2023-09-26T11:32:54.000Z</time>
      </trkpt>
      <trkpt lat="43.45747" lon="6.82944">
        <ele>86</ele>
        <time>2023-09-26T11:32:59.000Z</time>
      </trkpt>
      <trkpt lat="43.45752" lon="6.82954">
        <ele>86</ele>
        <time>2023-09-26T11:33:01.000Z</time>
      </trkpt>
      <trkpt lat="43.45753" lon="6.8296">
        <ele>86</ele>
        <time>2023-09-26T11:33:02.000Z</time>
      </trkpt>
      <trkpt lat="43.45753" lon="6.82966">
        <ele>85.800003051758</ele>
        <time>2023-09-26T11:33:03.000Z</time>
      </trkpt>
      <trkpt lat="43.45754" lon="6.82982">
        <ele>85.400001525879</ele>
        <time>2023-09-26T11:33:06.000Z</time>
      </trkpt>
      <trkpt lat="43.45754" lon="6.82988">
        <ele>85.199996948242</ele>
        <time>2023-09-26T11:33:07.000Z</time>
      </trkpt>
      <trkpt lat="43.45757" lon="6.83">
        <ele>84.400001525879</ele>
        <time>2023-09-26T11:33:09.000Z</time>
      </trkpt>
      <trkpt lat="43.4576" lon="6.83009">
        <ele>84.199996948242</ele>
        <time>2023-09-26T11:33:11.000Z</time>
      </trkpt>
      <trkpt lat="43.45764" lon="6.83027">
        <ele>82.199996948242</ele>
        <time>2023-09-26T11:33:15.000Z</time>
      </trkpt>
      <trkpt lat="43.45766" lon="6.83036">
        <ele>81.599998474121</ele>
        <time>2023-09-26T11:33:17.000Z</time>
      </trkpt>
      <trkpt lat="43.45767" lon="6.83046">
        <ele>81.199996948242</ele>
        <time>2023-09-26T11:33:19.000Z</time>
      </trkpt>
      <trkpt lat="43.45768" lon="6.83063">
        <ele>80</ele>
        <time>2023-09-26T11:33:23.000Z</time>
      </trkpt>
      <trkpt lat="43.45768" lon="6.83066">
        <ele>79.599998474121</ele>
        <time>2023-09-26T11:33:24.000Z</time>
      </trkpt>
      <trkpt lat="43.45767" lon="6.83071">
        <ele>79</ele>
        <time>2023-09-26T11:33:26.000Z</time>
      </trkpt>
      <trkpt lat="43.45764" lon="6.83076">
        <ele>78.599998474121</ele>
        <time>2023-09-26T11:33:28.000Z</time>
      </trkpt>
      <trkpt lat="43.4576" lon="6.83079">
        <ele>78.199996948242</ele>
        <time>2023-09-26T11:33:30.000Z</time>
      </trkpt>
      <trkpt lat="43.45754" lon="6.83081">
        <ele>77.800003051758</ele>
        <time>2023-09-26T11:33:32.000Z</time>
      </trkpt>
      <trkpt lat="43.45743" lon="6.83084">
        <ele>76.599998474121</ele>
        <time>2023-09-26T11:33:36.000Z</time>
      </trkpt>
      <trkpt lat="43.4573" lon="6.83088">
        <ele>76</ele>
        <time>2023-09-26T11:33:40.000Z</time>
      </trkpt>
      <trkpt lat="43.4571" lon="6.831">
        <ele>76</ele>
        <time>2023-09-26T11:33:46.000Z</time>
      </trkpt>
      <trkpt lat="43.45706" lon="6.83099">
        <ele>76</ele>
        <time>2023-09-26T11:33:47.000Z</time>
      </trkpt>
      <trkpt lat="43.45703" lon="6.83095">
        <ele>75.599998474121</ele>
        <time>2023-09-26T11:33:49.000Z</time>
      </trkpt>
      <trkpt lat="43.45702" lon="6.83093">
        <ele>75.599998474121</ele>
        <time>2023-09-26T11:33:50.000Z</time>
      </trkpt>
      <trkpt lat="43.45699" lon="6.83078">
        <ele>74.400001525879</ele>
        <time>2023-09-26T11:33:54.000Z</time>
      </trkpt>
      <trkpt lat="43.45699" lon="6.83071">
        <ele>73.400001525879</ele>
        <time>2023-09-26T11:33:56.000Z</time>
      </trkpt>
      <trkpt lat="43.45699" lon="6.83065">
        <ele>72.400001525879</ele>
        <time>2023-09-26T11:34:00.000Z</time>
      </trkpt>
      <trkpt lat="43.45699" lon="6.83065">
        <ele>72.400001525879</ele>
        <time>2023-09-26T11:34:04.000Z</time>
      </trkpt>
      <trkpt lat="43.45699" lon="6.83065">
        <ele>72.199996948242</ele>
        <time>2023-09-26T11:34:13.000Z</time>
      </trkpt>
      <trkpt lat="43.45699" lon="6.83063">
        <ele>72</ele>
        <time>2023-09-26T11:34:14.000Z</time>
      </trkpt>
      <trkpt lat="43.45698" lon="6.83054">
        <ele>72</ele>
        <time>2023-09-26T11:34:17.000Z</time>
      </trkpt>
      <trkpt lat="43.45689" lon="6.83037">
        <ele>72</ele>
        <time>2023-09-26T11:34:22.000Z</time>
      </trkpt>
      <trkpt lat="43.45671" lon="6.83026">
        <ele>71.599998474121</ele>
        <time>2023-09-26T11:34:28.000Z</time>
      </trkpt>
      <trkpt lat="43.45658" lon="6.83021">
        <ele>71.800003051758</ele>
        <time>2023-09-26T11:34:32.000Z</time>
      </trkpt>
      <trkpt lat="43.45648" lon="6.83018">
        <ele>71.400001525879</ele>
        <time>2023-09-26T11:34:34.000Z</time>
      </trkpt>
      <trkpt lat="43.4564" lon="6.83015">
        <ele>71.599998474121</ele>
        <time>2023-09-26T11:34:36.000Z</time>
      </trkpt>
      <trkpt lat="43.45627" lon="6.83003">
        <ele>71</ele>
        <time>2023-09-26T11:34:40.000Z</time>
      </trkpt>
      <trkpt lat="43.4562" lon="6.82988">
        <ele>70.400001525879</ele>
        <time>2023-09-26T11:34:44.000Z</time>
      </trkpt>
      <trkpt lat="43.45617" lon="6.82962">
        <ele>70.800003051758</ele>
        <time>2023-09-26T11:34:51.000Z</time>
      </trkpt>
      <trkpt lat="43.45611" lon="6.82955">
        <ele>71.400001525879</ele>
        <time>2023-09-26T11:34:56.000Z</time>
      </trkpt>
      <trkpt lat="43.45606" lon="6.82951">
        <ele>71.599998474121</ele>
        <time>2023-09-26T11:34:57.000Z</time>
      </trkpt>
      <trkpt lat="43.456" lon="6.82945">
        <ele>71.599998474121</ele>
        <time>2023-09-26T11:34:59.000Z</time>
      </trkpt>
      <trkpt lat="43.45589" lon="6.82939">
        <ele>71.400001525879</ele>
        <time>2023-09-26T11:35:02.000Z</time>
      </trkpt>
      <trkpt lat="43.45578" lon="6.82938">
        <ele>71.400001525879</ele>
        <time>2023-09-26T11:35:05.000Z</time>
      </trkpt>
      <trkpt lat="43.45574" lon="6.82939">
        <ele>71.199996948242</ele>
        <time>2023-09-26T11:35:06.000Z</time>
      </trkpt>
      <trkpt lat="43.45564" lon="6.82944">
        <ele>71</ele>
        <time>2023-09-26T11:35:08.000Z</time>
      </trkpt>
      <trkpt lat="43.45547" lon="6.82946">
        <ele>70.199996948242</ele>
        <time>2023-09-26T11:35:11.000Z</time>
      </trkpt>
      <trkpt lat="43.45542" lon="6.82948">
        <ele>70.199996948242</ele>
        <time>2023-09-26T11:35:12.000Z</time>
      </trkpt>
      <trkpt lat="43.45534" lon="6.82957">
        <ele>69.599998474121</ele>
        <time>2023-09-26T11:35:14.000Z</time>
      </trkpt>
      <trkpt lat="43.4553" lon="6.82974">
        <ele>69.199996948242</ele>
        <time>2023-09-26T11:35:17.000Z</time>
      </trkpt>
      <trkpt lat="43.45527" lon="6.82995">
        <ele>69.199996948242</ele>
        <time>2023-09-26T11:35:22.000Z</time>
      </trkpt>
      <trkpt lat="43.45526" lon="6.83029">
        <ele>69.800003051758</ele>
        <time>2023-09-26T11:35:29.000Z</time>
      </trkpt>
      <trkpt lat="43.4552" lon="6.83057">
        <ele>70.400001525879</ele>
        <time>2023-09-26T11:35:35.000Z</time>
      </trkpt>
      <trkpt lat="43.45518" lon="6.83073">
        <ele>71</ele>
        <time>2023-09-26T11:35:38.000Z</time>
      </trkpt>
      <trkpt lat="43.45515" lon="6.83088">
        <ele>71.599998474121</ele>
        <time>2023-09-26T11:35:41.000Z</time>
      </trkpt>
      <trkpt lat="43.4551" lon="6.83108">
        <ele>72.599998474121</ele>
        <time>2023-09-26T11:35:45.000Z</time>
      </trkpt>
      <trkpt lat="43.45502" lon="6.83145">
        <ele>73.800003051758</ele>
        <time>2023-09-26T11:35:52.000Z</time>
      </trkpt>
      <trkpt lat="43.455" lon="6.83157">
        <ele>74</ele>
        <time>2023-09-26T11:35:54.000Z</time>
      </trkpt>
      <trkpt lat="43.45496" lon="6.83175">
        <ele>74.800003051758</ele>
        <time>2023-09-26T11:35:57.000Z</time>
      </trkpt>
      <trkpt lat="43.45487" lon="6.83207">
        <ele>75.199996948242</ele>
        <time>2023-09-26T11:36:02.000Z</time>
      </trkpt>
      <trkpt lat="43.45472" lon="6.83231">
        <ele>74.800003051758</ele>
        <time>2023-09-26T11:36:06.000Z</time>
      </trkpt>
      <trkpt lat="43.45468" lon="6.83235">
        <ele>74.599998474121</ele>
        <time>2023-09-26T11:36:07.000Z</time>
      </trkpt>
      <trkpt lat="43.45459" lon="6.83241">
        <ele>74.199996948242</ele>
        <time>2023-09-26T11:36:09.000Z</time>
      </trkpt>
      <trkpt lat="43.4545" lon="6.83245">
        <ele>74</ele>
        <time>2023-09-26T11:36:11.000Z</time>
      </trkpt>
      <trkpt lat="43.45428" lon="6.83257">
        <ele>74.199996948242</ele>
        <time>2023-09-26T11:36:17.000Z</time>
      </trkpt>
      <trkpt lat="43.45424" lon="6.83272">
        <ele>74.800003051758</ele>
        <time>2023-09-26T11:36:21.000Z</time>
      </trkpt>
      <trkpt lat="43.45424" lon="6.83289">
        <ele>75.199996948242</ele>
        <time>2023-09-26T11:36:26.000Z</time>
      </trkpt>
      <trkpt lat="43.45423" lon="6.8332">
        <ele>75.199996948242</ele>
        <time>2023-09-26T11:36:33.000Z</time>
      </trkpt>
      <trkpt lat="43.4543" lon="6.83342">
        <ele>75.199996948242</ele>
        <time>2023-09-26T11:36:39.000Z</time>
      </trkpt>
      <trkpt lat="43.45442" lon="6.83351">
        <ele>75</ele>
        <time>2023-09-26T11:36:43.000Z</time>
      </trkpt>
      <trkpt lat="43.45448" lon="6.83354">
        <ele>74.599998474121</ele>
        <time>2023-09-26T11:36:47.000Z</time>
      </trkpt>
      <trkpt lat="43.45448" lon="6.83354">
        <ele>73.800003051758</ele>
        <time>2023-09-26T11:36:50.000Z</time>
      </trkpt>
      <trkpt lat="43.45448" lon="6.83354">
        <ele>73</ele>
        <time>2023-09-26T11:36:53.000Z</time>
      </trkpt>
      <trkpt lat="43.45448" lon="6.83354">
        <ele>72.599998474121</ele>
        <time>2023-09-26T11:36:55.000Z</time>
      </trkpt>
    </trkseg>
  </trk>
</gpx>